ECMWFFLT1_925_thetae_000.txt.gz
Theta_e
350 348 347 346 345 347 342 338 337 339 339 338 337 336 335 335 333 333 333 333 332 331 330 328 329 331 332 332 331 329 331 331 331 332 332 332 332 332 332 333 334 334 333 333 333 332 332 332 333 333 335 336 336 337 337 337 338 338 339 340 340 339 340
350 348 348 345 346 346 341 336 336 337 339 337 336 336 336 335 334 334 334 333 332 332 330 328 329 331 332 332 330 331 332 332 332 331 331 330 330 331 331 333 335 334 333 332 331 331 330 330 331 331 332 333 334 334 335 336 337 338 338 339 340 341 341
348 348 347 345 345 345 340 335 334 337 338 337 336 336 336 335 334 334 334 333 333 333 332 330 330 331 332 332 331 330 331 332 332 330 329 328 328 331 331 332 334 333 333 332 331 330 331 331 331 331 331 331 332 332 333 334 335 336 336 338 339 339 340
348 347 345 344 344 341 337 333 334 336 337 336 336 336 335 335 334 334 335 335 334 334 333 332 331 332 333 333 331 330 330 331 331 329 329 328 329 330 331 332 333 332 331 331 332 332 332 332 331 330 329 329 329 329 330 332 333 334 335 336 337 337 338
347 346 345 343 343 342 337 333 333 336 336 336 335 336 336 334 334 335 334 335 335 335 334 333 333 333 333 332 330 330 330 331 331 330 329 328 329 330 331 332 332 331 331 331 332 333 333 332 330 329 328 328 329 329 329 330 332 333 333 334 335 336 336
346 345 344 343 342 343 339 333 333 336 335 336 336 335 336 334 334 335 335 335 336 335 335 334 334 334 333 331 330 329 330 331 329 329 328 328 328 329 331 331 331 332 332 331 332 333 333 331 330 329 329 329 330 330 331 331 332 333 333 334 334 335 335
345 344 343 341 342 341 337 332 334 335 334 335 336 336 336 335 335 336 336 336 337 335 335 334 334 333 332 331 329 328 329 330 329 329 329 328 328 328 329 330 330 331 331 332 332 333 332 331 330 331 331 330 329 329 329 330 331 331 332 332 333 333 334
344 344 342 341 341 339 335 332 333 334 334 336 337 336 336 336 337 337 337 337 337 335 335 334 334 333 331 330 328 327 328 329 330 330 330 330 329 328 328 329 329 329 330 331 332 333 333 333 333 332 331 331 331 331 330 329 329 329 329 330 330 331 332
343 343 341 339 339 337 332 332 333 333 334 335 337 337 336 337 337 337 337 337 336 336 335 334 334 332 331 329 327 327 327 327 329 330 330 329 329 329 329 329 329 329 329 329 330 331 332 334 334 333 332 332 332 333 332 331 331 331 331 329 329 330 332
344 342 341 340 338 336 331 331 332 332 334 336 336 337 337 337 338 337 338 338 336 336 334 333 333 332 330 329 328 328 327 327 328 329 329 328 328 328 329 329 329 329 329 329 329 330 330 332 333 333 333 333 333 333 332 332 333 332 332 331 330 331 333
342 340 341 341 340 340 336 333 332 332 334 336 336 337 337 337 338 338 338 338 336 335 333 332 332 332 331 330 328 327 327 327 327 327 327 325 326 327 328 329 330 329 328 328 328 329 329 330 332 331 332 332 333 333 333 333 332 331 331 332 332 332 333
340 340 341 341 342 343 341 336 332 332 334 336 336 338 337 337 338 338 338 337 337 335 331 330 331 333 332 330 329 327 327 327 326 326 325 325 326 328 328 329 330 330 329 328 328 328 329 330 330 330 330 330 332 333 332 332 332 331 331 330 330 331 331
339 340 339 341 342 341 340 338 334 332 334 336 336 337 337 338 338 338 338 337 336 334 330 329 331 332 332 331 330 328 327 326 326 325 325 325 326 327 327 329 330 330 330 329 329 329 329 329 329 329 329 330 332 333 332 332 332 331 330 329 329 329 329
340 340 339 341 342 341 342 341 337 332 332 335 336 336 338 338 337 337 338 337 336 333 330 328 329 332 332 331 330 328 328 327 326 325 326 326 326 325 326 328 329 330 331 330 330 330 330 330 330 330 329 329 332 333 332 331 331 330 330 329 327 327 327
341 340 341 342 342 341 341 342 339 332 331 334 335 336 338 337 337 338 337 336 335 332 330 329 329 330 331 331 330 328 328 327 326 326 327 327 326 325 325 327 329 330 331 331 330 330 330 330 330 330 329 329 331 332 331 330 330 330 330 329 328 327 327
341 339 341 342 342 340 338 340 337 331 332 334 334 336 338 336 337 337 336 336 334 331 330 329 330 330 329 330 329 327 326 326 326 326 326 326 326 326 326 326 327 329 330 331 331 330 330 330 330 330 329 330 331 331 331 329 328 330 330 329 329 329 328
340 339 340 341 340 338 337 339 335 330 332 334 334 336 336 335 336 336 336 335 333 331 330 330 331 330 329 328 326 326 325 326 327 327 326 326 326 326 327 327 327 328 330 331 330 329 329 329 330 330 329 331 332 332 331 329 327 330 330 328 328 329 329
340 339 340 340 339 338 338 339 336 331 332 333 335 336 335 334 335 335 335 334 332 330 329 329 331 330 329 328 327 326 327 327 327 327 327 326 325 326 327 327 327 328 330 331 329 329 329 328 329 329 330 331 332 333 333 328 326 328 329 328 328 328 329
339 340 341 340 339 338 338 336 333 331 332 334 335 334 333 334 334 334 333 331 330 331 329 329 330 329 330 329 328 328 329 328 329 328 327 325 324 325 327 327 328 329 330 330 329 328 328 328 329 329 329 330 332 334 331 326 325 328 328 328 328 326 326
338 340 341 338 337 338 335 332 331 331 333 334 333 332 333 334 333 333 332 331 330 330 329 329 330 329 330 330 329 330 329 329 330 329 326 324 324 325 326 328 328 329 329 329 328 327 328 328 329 329 330 329 331 333 330 326 328 329 326 327 329 327 324
338 341 340 337 338 337 332 329 330 331 333 333 332 333 333 333 333 333 332 331 332 331 330 331 330 330 330 330 330 330 330 330 330 328 324 323 323 325 326 328 329 329 328 328 327 327 328 328 329 329 330 330 329 332 332 328 328 327 324 325 328 327 324
338 339 339 337 336 334 330 329 331 332 333 332 331 332 333 332 333 332 332 332 332 331 332 332 331 331 331 331 331 331 330 331 329 326 324 325 324 325 326 328 328 328 327 327 326 326 326 326 327 327 329 330 330 332 332 329 328 328 324 324 326 326 324
335 334 335 333 331 332 330 331 333 332 331 331 331 332 332 332 332 333 332 332 332 332 333 332 332 332 332 331 331 330 331 330 328 326 327 326 324 324 326 327 327 326 326 326 326 326 324 324 324 325 326 329 331 332 331 328 330 330 325 322 324 326 324
329 328 330 329 329 330 330 331 333 331 331 331 331 331 331 331 332 333 333 332 332 332 332 333 333 332 332 332 331 331 331 330 328 328 326 325 323 324 325 326 325 324 324 325 326 326 324 323 324 323 324 326 329 333 331 328 329 331 327 323 323 325 325
329 326 328 329 329 330 331 332 332 331 331 332 332 331 331 332 333 333 333 333 333 332 333 333 333 331 331 330 330 330 331 330 329 327 325 324 324 324 324 325 323 323 323 324 327 327 325 324 324 323 322 323 326 331 332 330 330 331 328 324 322 324 325
331 327 326 328 329 331 332 332 332 332 332 333 332 331 331 332 333 334 334 333 332 333 333 332 330 327 327 327 328 329 330 330 328 326 324 324 324 324 324 323 322 322 322 324 326 326 325 325 324 323 323 322 323 327 330 331 330 328 327 325 322 323 325
326 327 328 329 331 330 332 332 332 332 332 332 331 331 332 333 334 333 334 333 333 334 332 328 326 325 325 326 327 328 330 329 327 325 324 324 324 324 323 322 321 321 322 322 323 324 325 324 324 323 323 322 322 323 326 330 330 327 326 325 324 323 324
327 329 328 329 331 331 330 331 331 332 332 332 331 333 333 333 333 333 333 334 333 330 327 325 325 325 325 326 327 328 328 328 326 324 323 323 324 323 321 321 321 322 321 321 322 322 323 323 323 323 322 323 323 322 323 327 330 328 327 326 325 325 325
329 329 327 328 330 331 331 331 330 331 332 332 332 332 333 333 333 333 333 332 329 326 325 326 326 326 326 326 327 328 328 328 326 323 323 323 323 322 321 321 322 322 322 322 321 321 322 322 323 323 323 322 323 322 321 324 328 328 328 328 327 327 328
328 327 328 329 329 331 331 330 330 331 331 331 332 333 334 334 332 330 329 327 326 326 326 327 327 326 326 325 325 326 327 328 325 323 323 324 322 321 321 322 322 322 322 322 322 321 321 321 322 323 323 323 324 323 322 322 324 325 327 328 329 329 330
327 326 327 327 328 330 332 331 330 330 330 331 332 332 333 332 329 328 326 326 326 326 327 327 327 327 326 325 325 325 326 326 324 322 323 323 321 321 322 322 322 322 321 322 322 322 321 321 321 323 323 323 324 324 323 322 323 324 324 325 326 326 328
327 326 326 327 327 329 331 332 330 329 330 330 331 332 332 329 327 326 326 325 326 327 327 327 327 326 325 325 324 324 325 325 323 322 323 322 321 321 322 322 322 322 321 322 322 322 321 321 321 322 322 322 323 324 324 323 323 323 322 321 321 321 322
326 325 325 326 327 329 331 331 329 328 329 330 331 331 330 328 327 326 326 326 326 327 327 327 326 324 323 323 323 323 325 324 322 321 321 321 320 321 322 321 322 322 322 322 322 322 321 320 320 321 321 322 323 323 324 324 323 323 322 320 320 320 319
320 322 324 325 327 330 331 330 329 329 329 330 331 330 328 327 327 326 327 327 327 326 326 326 325 322 322 322 323 324 324 323 322 321 321 321 321 321 321 321 322 322 322 322 322 321 320 320 320 321 321 322 323 323 324 324 323 323 322 321 322 322 320
320 321 322 324 327 330 331 330 329 329 329 329 329 329 327 327 327 327 327 327 327 326 326 325 323 322 322 322 322 323 322 321 320 320 320 320 321 321 321 321 322 323 323 322 321 320 320 320 320 320 320 321 322 322 322 323 323 322 322 323 324 323 321
322 323 323 325 328 329 328 328 327 327 328 328 328 327 328 328 328 328 328 326 326 326 325 325 323 322 322 321 321 322 321 320 320 320 319 320 321 321 321 322 323 323 324 323 321 320 319 319 320 320 320 321 321 322 322 322 322 321 321 322 324 323 321
323 324 324 326 328 328 326 326 326 326 326 327 327 327 328 328 328 327 327 326 326 326 325 324 324 323 322 321 321 321 321 320 321 320 320 320 320 320 322 323 323 324 324 322 321 320 319 319 319 320 320 321 321 322 322 322 322 321 321 322 323 322 321
323 324 324 325 326 327 326 326 326 326 326 326 327 327 327 327 327 326 326 326 326 325 324 323 323 323 322 322 322 322 321 321 321 321 321 321 320 321 323 324 324 324 324 322 320 319 319 319 319 320 321 321 322 322 321 321 321 321 320 321 322 321 321

ECMWFFLT1_925_thetae_003.txt.gz
Theta_e
354 353 353 352 351 349 349 349 346 346 346 345 342 340 337 335 334 332 331 330 330 330 329 327 326 326 328 329 330 330 330 329 329 330 330 330 330 331 333 336 336 336 335 335 335 333 333 332 333 334 333 333 333 334 335 335 335 336 338 339 341 341 340
353 353 353 351 350 348 348 347 345 345 345 344 341 339 336 335 334 332 330 331 332 331 330 329 329 329 330 331 332 331 331 329 329 329 330 329 328 328 330 333 335 335 334 334 333 332 333 333 332 330 329 330 331 331 333 334 334 335 335 336 337 338 337
353 353 352 351 350 348 348 347 344 344 344 343 341 338 336 335 333 332 331 332 333 332 332 332 331 331 331 332 332 332 331 330 329 329 330 329 328 327 328 330 332 333 332 333 333 332 333 333 330 329 328 329 330 331 332 333 333 333 333 334 335 336 337
353 353 352 351 350 348 347 346 343 343 344 342 340 337 336 335 333 331 331 332 333 333 333 333 333 333 333 333 333 332 331 329 329 330 329 328 327 326 327 329 331 332 331 332 332 332 333 333 331 331 330 330 331 333 333 332 333 333 332 332 333 334 335
353 352 352 350 348 346 346 345 343 343 343 341 338 336 335 335 333 332 332 333 334 333 335 335 334 334 333 333 333 332 330 329 329 329 328 328 328 328 328 329 330 331 331 331 331 332 333 332 333 333 333 333 334 333 333 333 333 333 333 332 332 332 333
352 352 352 349 347 345 345 344 342 341 342 341 338 336 335 335 333 334 334 334 335 335 335 335 334 334 333 333 332 331 329 328 329 329 329 329 329 330 330 329 329 329 329 329 329 330 331 332 333 334 333 334 334 334 334 334 333 333 333 333 332 332 332
352 352 351 349 346 344 344 344 342 340 341 340 338 336 336 336 334 334 335 335 335 336 336 336 335 334 333 333 332 330 328 327 328 328 329 329 329 329 329 329 329 329 329 329 329 329 330 330 331 332 332 334 335 334 334 333 333 333 332 333 333 332 333
351 352 350 348 345 343 344 344 342 340 340 338 337 337 337 336 335 335 335 335 336 336 337 336 335 334 333 333 331 329 328 327 327 327 328 328 327 327 327 328 329 329 329 329 329 329 329 329 330 330 332 335 335 334 332 333 333 333 332 332 332 332 331
351 351 349 345 343 343 344 344 342 341 340 338 337 337 337 336 335 335 336 336 336 337 337 336 335 333 332 332 331 329 328 327 327 326 326 326 325 326 327 327 328 329 330 329 329 328 328 328 329 329 332 335 335 332 331 332 333 333 332 332 331 331 330
351 350 347 344 342 343 344 344 342 341 341 340 338 337 336 335 335 335 335 336 337 337 337 336 335 333 332 332 331 330 329 328 327 326 325 325 325 325 326 328 328 329 329 330 330 329 328 329 329 329 331 335 335 331 331 333 333 332 332 332 332 331 330
350 348 345 344 342 343 343 342 342 342 342 342 339 337 337 336 335 335 335 336 338 338 338 336 334 331 331 332 332 331 330 328 327 326 325 325 324 324 326 328 328 327 328 330 330 330 329 329 330 330 331 334 335 332 331 333 333 331 332 332 332 330 330
347 346 345 344 343 343 342 342 343 343 342 342 340 338 336 335 335 335 335 337 338 338 338 336 332 331 331 333 333 331 330 329 327 325 325 325 325 325 327 327 326 326 328 329 330 330 330 330 330 330 330 332 333 333 332 333 333 331 331 331 329 329 330
345 345 343 343 344 343 343 343 343 343 342 342 340 337 336 335 334 335 335 337 337 337 337 335 332 329 330 332 332 331 330 329 327 326 325 325 326 326 326 326 325 326 327 328 329 330 330 330 330 330 330 330 331 332 333 334 333 331 330 330 328 328 328
342 343 342 343 343 342 343 343 343 344 343 342 341 338 335 335 334 335 336 337 337 337 337 335 331 329 328 329 330 329 329 328 327 326 325 325 326 327 326 326 326 326 327 327 328 329 330 330 330 329 329 329 330 332 334 335 332 329 328 327 327 327 326
341 341 341 342 343 342 343 343 343 344 342 342 342 339 336 335 335 335 336 337 337 337 337 335 331 328 328 328 329 328 327 326 326 325 325 325 326 327 326 326 326 327 327 327 328 329 330 330 329 329 328 329 331 333 335 335 332 328 326 325 327 328 325
342 341 341 342 342 341 342 343 344 344 343 343 342 340 337 336 335 336 336 337 337 336 335 334 331 329 329 329 328 327 325 325 325 325 325 326 327 327 326 325 325 325 326 327 328 329 329 329 328 328 329 330 331 333 335 335 331 328 325 324 326 328 325
342 341 341 341 341 341 342 343 343 344 343 343 341 339 336 336 335 336 337 336 335 334 334 334 331 329 329 329 327 326 325 325 325 326 327 327 328 328 326 324 324 325 326 327 329 329 329 328 327 327 329 330 331 333 335 334 330 327 325 322 324 327 325
342 342 342 341 341 342 342 341 341 343 343 343 340 337 335 336 336 336 336 335 332 331 332 333 331 329 329 329 328 327 327 326 327 327 328 328 329 328 325 323 324 325 327 328 329 328 327 327 326 327 328 329 331 332 334 334 330 327 325 323 323 326 325
343 341 341 342 342 342 341 340 340 342 343 341 338 335 335 335 335 335 334 331 329 330 331 331 331 329 329 329 329 328 328 328 328 329 329 329 329 327 325 323 323 325 327 328 328 327 326 326 326 326 327 328 329 331 333 334 330 327 327 325 323 324 325
342 341 341 341 341 341 341 341 341 341 341 338 335 334 335 334 334 334 331 329 329 330 330 330 330 329 329 328 329 328 328 329 330 330 330 330 328 326 325 324 322 324 327 328 327 326 326 326 325 325 325 325 326 330 333 334 331 328 329 327 323 323 324
341 341 340 340 341 341 341 342 342 341 339 336 334 334 335 334 334 333 330 329 330 330 330 330 330 330 329 329 329 329 329 329 330 330 330 330 328 326 325 324 323 325 327 326 325 326 326 325 324 323 324 323 322 327 333 334 331 329 330 329 325 322 323
341 340 340 341 341 341 342 341 340 339 336 334 334 335 334 333 333 332 330 329 330 330 330 331 331 331 331 330 330 330 330 331 331 331 331 330 328 326 324 323 324 325 326 325 324 324 325 325 324 323 324 323 321 324 331 334 331 329 329 330 326 322 323
339 338 340 341 341 341 340 337 336 335 333 333 334 334 334 333 332 331 330 330 331 330 330 331 331 331 331 331 332 331 332 332 331 331 331 329 327 325 324 324 324 324 324 324 323 323 325 325 324 324 323 323 322 323 328 331 331 329 329 329 325 321 322
337 339 341 340 339 340 337 334 333 333 333 333 334 333 332 332 332 331 331 331 331 330 331 332 332 331 331 331 332 332 332 331 331 331 330 329 327 325 324 324 324 323 323 323 323 324 325 326 325 324 323 323 323 323 325 329 330 329 329 327 324 322 322
336 338 339 338 338 337 335 333 333 333 334 334 335 333 332 332 331 330 331 331 331 332 333 332 331 331 331 331 332 331 329 328 329 330 330 329 326 324 324 324 324 323 322 321 322 323 324 324 324 324 324 323 323 322 323 327 328 329 328 326 324 323 323
336 337 337 337 336 334 333 333 333 334 335 335 334 332 332 332 331 331 332 331 332 334 334 332 330 330 331 331 331 329 326 325 328 330 329 328 325 324 324 324 323 322 321 321 322 321 321 322 323 324 324 324 323 323 322 324 326 328 328 328 326 326 325
335 336 336 335 334 333 333 333 333 334 334 333 332 333 333 332 333 332 332 332 334 335 333 331 331 331 331 331 329 326 325 326 327 328 328 328 325 324 324 323 322 322 322 322 322 321 321 322 321 322 323 322 322 323 322 322 323 325 327 328 329 329 328
334 335 335 334 335 334 334 334 334 334 334 333 333 334 333 333 332 332 333 335 335 334 331 332 332 330 328 328 327 325 325 326 326 327 328 327 325 324 324 322 321 322 322 322 322 322 323 324 322 322 323 323 323 324 323 322 322 323 325 326 328 329 330
335 336 335 334 335 335 336 336 335 333 334 335 334 333 333 332 332 333 336 336 335 332 332 332 329 327 327 327 326 326 325 325 326 328 329 327 325 323 322 321 321 322 322 322 322 323 325 325 324 323 324 326 325 324 323 323 322 323 323 324 323 324 325
337 337 337 335 334 336 337 337 336 335 336 335 333 332 332 332 333 334 336 336 333 331 331 328 326 326 327 326 326 326 325 325 326 327 328 327 324 322 321 321 321 321 322 322 323 325 326 326 326 325 326 327 327 325 324 323 323 323 323 322 321 320 320
337 336 336 334 333 335 336 338 338 337 336 334 331 331 331 331 333 335 336 334 331 329 327 325 326 327 327 325 325 324 323 324 324 325 325 324 323 322 321 321 321 322 323 324 325 326 326 326 326 326 326 327 327 327 326 324 323 324 323 321 320 320 320
337 335 335 335 333 332 334 337 337 336 336 334 331 331 331 331 333 335 334 331 327 325 325 325 327 328 326 324 323 322 321 323 324 325 325 322 322 322 321 321 322 322 323 325 325 325 325 325 325 326 326 326 326 327 326 325 324 325 324 322 321 322 321
337 335 334 333 333 332 333 336 336 335 336 335 332 330 330 331 333 333 331 327 325 324 325 327 328 328 326 323 322 321 322 323 324 325 325 322 321 322 321 320 321 321 322 324 326 326 325 325 324 325 325 325 325 325 326 326 327 327 324 321 322 323 322
336 334 331 328 327 330 333 335 336 335 336 337 335 331 330 332 333 331 328 326 325 326 327 328 328 327 326 324 322 322 322 322 323 325 325 323 321 322 322 321 321 322 324 324 325 325 324 324 325 325 324 324 324 325 325 327 328 325 321 320 321 323 322
334 331 329 327 327 329 332 334 335 336 336 336 334 331 330 332 332 330 327 326 326 327 328 328 327 326 326 326 324 323 323 324 323 323 324 324 321 320 321 321 321 323 326 324 322 321 321 322 322 322 320 320 322 322 323 323 323 321 318 319 321 322 322
333 331 329 328 328 331 333 334 334 335 335 334 330 329 329 329 328 328 328 328 327 328 328 328 327 327 326 326 324 323 324 324 324 322 322 323 322 321 320 321 321 322 324 323 321 320 320 319 319 320 319 319 319 319 318 318 318 319 319 319 320 322 321
333 333 330 329 330 332 332 331 331 331 332 330 328 327 327 328 327 327 327 327 327 327 326 326 326 326 325 324 324 324 324 324 325 323 321 321 322 322 322 323 323 321 321 321 320 319 319 319 319 319 320 319 318 317 317 317 318 319 320 320 320 320 320
328 330 329 329 331 333 331 330 330 330 330 328 326 326 327 327 327 327 327 326 326 326 325 324 324 325 324 324 324 324 323 323 324 324 322 322 323 323 323 325 325 321 319 319 319 319 318 318 319 319 318 318 317 317 317 317 318 319 320 321 320 320 320

ECMWFFLT1_925_thetae_006.txt.gz
Theta_e
354 354 354 353 354 356 359 360 358 357 355 351 349 348 347 347 346 344 343 343 343 341 339 338 338 338 338 338 338 338 339 340 339 338 337 337 338 337 337 337 337 338 337 337 337 336 336 336 336 336 336 337 337 337 336 337 337 337 337 338 338 339 340
355 355 354 353 354 356 359 360 358 356 355 350 349 348 347 347 345 343 343 344 342 341 340 338 338 339 338 338 338 339 339 339 338 337 336 337 337 337 337 336 337 337 337 336 336 335 335 335 335 336 335 336 336 337 336 336 336 336 336 336 337 337 338
356 357 354 353 356 356 358 360 356 355 353 350 348 347 347 348 345 343 344 344 342 341 341 339 340 339 339 339 339 340 340 338 337 337 335 335 335 335 336 336 337 336 336 336 335 334 335 335 335 336 336 336 337 337 336 335 335 335 335 335 336 337 338
358 357 353 353 355 355 356 357 354 352 349 348 348 347 348 348 345 344 344 342 342 341 342 341 341 340 340 340 339 339 339 338 336 336 335 334 334 334 336 337 337 336 335 335 334 334 335 335 336 337 337 337 336 336 335 335 335 334 335 335 336 336 336
360 358 354 353 353 354 355 354 351 348 346 345 347 348 349 348 345 344 344 342 341 342 342 342 341 340 340 339 339 339 339 337 336 336 335 335 334 334 335 336 336 336 335 335 334 334 335 336 336 336 336 336 335 334 334 334 334 334 335 334 334 335 335
360 359 355 353 353 354 353 351 348 345 344 344 347 348 348 346 343 343 343 343 342 341 342 342 342 341 341 340 339 339 338 337 336 335 335 334 334 334 335 335 335 335 335 335 334 334 335 335 335 336 336 336 335 335 334 334 334 334 335 335 334 334 333
358 359 356 352 353 352 351 349 345 344 344 345 348 349 346 344 342 340 342 342 342 341 342 342 341 341 340 339 339 339 338 336 336 336 335 334 333 334 335 334 335 335 334 335 335 335 335 335 335 336 337 337 337 337 337 336 335 335 336 335 334 334 334
359 359 356 352 350 349 349 348 345 343 345 345 347 348 344 342 341 340 341 341 339 340 341 340 341 341 341 339 338 338 337 336 335 335 334 333 333 334 334 333 333 334 334 334 334 335 335 335 335 335 336 337 338 339 338 337 336 335 335 335 335 335 335
359 360 356 352 349 349 350 349 346 346 347 348 349 347 344 343 342 340 341 341 339 339 339 337 339 340 341 339 337 338 337 336 335 334 333 333 332 332 331 330 331 332 333 333 333 333 334 334 335 335 336 338 338 339 340 339 337 335 335 335 335 335 335
360 359 358 354 351 351 353 351 350 350 351 351 351 347 346 346 344 342 342 340 338 338 339 338 338 339 340 339 337 337 337 336 335 334 332 331 331 331 329 329 329 329 331 332 332 333 334 334 336 336 337 338 339 339 338 338 337 336 336 335 335 334 334
360 361 361 358 354 353 353 353 354 354 353 353 351 349 348 349 347 345 343 341 337 336 338 339 339 338 338 337 336 336 336 336 334 332 331 331 330 330 329 329 329 330 330 331 331 332 333 334 336 337 338 339 338 339 338 338 338 338 337 335 334 334 333
360 362 361 359 357 355 354 356 357 357 355 353 352 350 350 350 348 345 344 343 338 336 338 339 339 339 338 335 335 336 336 335 333 332 331 331 331 330 330 330 329 329 329 328 329 330 331 332 333 336 339 339 338 338 338 338 338 338 338 336 334 333 332
360 362 361 359 358 355 355 357 357 357 355 353 351 351 350 351 348 346 346 344 340 339 339 339 340 340 338 335 334 335 336 334 332 332 331 330 330 330 330 330 329 328 328 327 328 328 329 330 332 335 337 339 339 338 338 339 338 338 337 335 333 332 331
357 359 359 359 357 356 357 356 356 357 355 352 352 351 351 350 346 346 347 344 340 340 340 339 341 341 339 337 335 336 335 333 332 332 331 331 331 331 331 330 330 330 329 328 328 328 328 330 331 333 336 337 338 338 339 339 338 338 337 335 333 331 331
356 357 356 357 357 356 357 356 356 357 356 353 352 352 350 349 347 349 347 343 341 340 339 340 341 341 339 337 336 336 336 334 332 332 331 331 331 331 332 332 331 330 329 328 328 328 329 331 332 334 335 336 338 339 339 338 338 338 336 332 330 331 330
354 354 354 355 356 355 355 355 356 357 356 354 352 352 351 348 349 349 345 342 341 341 340 340 342 341 339 337 337 337 335 334 332 332 332 332 332 332 333 333 331 329 328 328 328 328 330 333 334 334 334 334 336 337 338 338 338 337 332 328 326 328 330
352 353 353 353 354 355 354 354 355 356 356 355 352 351 349 348 348 347 342 339 339 340 340 341 342 341 339 337 337 336 335 334 333 333 332 332 333 333 334 334 331 328 328 329 329 330 332 334 334 334 333 333 335 336 337 338 338 336 331 327 325 326 328
351 352 352 353 353 353 354 353 353 355 355 353 352 350 348 348 348 345 341 339 338 338 339 341 341 340 339 338 337 337 336 334 333 333 332 332 333 334 335 335 331 329 329 328 329 330 331 332 332 333 334 334 334 335 335 336 336 335 331 328 327 326 327
349 350 351 351 352 352 352 353 353 354 354 351 350 348 346 345 345 344 341 340 339 338 339 341 339 338 338 338 337 337 337 335 333 333 332 333 334 335 336 335 331 329 329 328 328 329 330 331 331 333 334 334 334 333 333 333 335 334 332 329 328 329 327
347 349 350 349 350 351 351 353 354 353 350 349 346 344 343 342 343 343 342 340 339 339 341 340 338 337 337 338 337 337 336 335 334 333 333 334 335 336 337 334 331 329 328 327 328 329 330 330 331 332 332 331 331 331 331 332 332 333 332 330 329 330 328
347 349 348 348 349 350 351 353 353 350 349 346 342 341 343 344 344 342 340 338 337 340 341 340 337 337 337 337 337 337 336 335 334 334 335 335 336 337 336 332 329 329 329 328 328 328 330 330 331 332 331 331 329 329 329 329 329 330 331 330 329 330 328
346 346 347 349 348 349 353 352 350 350 349 346 343 342 343 344 341 339 338 338 337 339 340 338 337 337 337 337 336 336 335 335 334 334 335 336 337 337 334 330 329 329 329 330 329 329 329 329 329 330 332 331 329 328 328 328 327 329 331 330 329 329 328
343 344 346 348 348 350 353 351 349 349 348 346 346 344 341 341 339 338 338 337 337 338 336 335 336 336 337 336 335 334 335 334 334 334 335 335 336 336 332 328 327 328 330 330 329 328 327 327 327 328 330 330 329 328 328 328 327 328 328 328 329 329 328
342 344 346 347 349 351 351 349 350 348 346 346 346 343 342 341 339 339 340 338 337 336 335 334 336 335 335 336 334 334 334 334 334 334 333 334 335 334 331 328 328 329 330 329 328 327 327 326 326 326 327 328 327 327 327 326 326 327 327 326 327 328 328
343 344 347 347 349 351 351 349 349 347 346 348 346 343 344 343 340 340 340 339 337 335 334 334 336 334 335 334 333 334 334 334 333 333 333 333 333 331 330 329 329 329 329 328 327 327 327 326 326 326 326 326 326 325 326 326 327 327 326 325 325 327 329
344 345 348 348 348 350 350 350 350 349 349 348 346 344 346 345 343 341 340 339 338 335 333 335 335 334 333 334 333 334 335 334 333 334 333 332 332 332 332 331 330 329 329 328 327 327 328 327 328 327 326 324 324 324 325 326 327 328 327 324 325 327 329
345 346 348 347 346 348 349 349 350 349 348 347 345 345 346 347 345 343 341 341 338 335 335 336 335 334 335 336 336 336 335 334 334 333 332 332 333 335 333 332 330 330 329 329 328 329 329 329 328 327 326 325 325 325 325 326 327 327 326 325 324 325 327
345 345 345 346 345 347 348 349 348 348 347 347 347 348 349 349 349 346 345 343 341 338 336 336 337 339 339 339 337 337 335 333 333 333 333 334 336 336 333 332 330 329 328 329 330 330 329 329 329 328 327 327 328 326 325 325 327 328 327 326 323 323 323
344 345 345 345 345 345 346 347 347 347 346 344 346 348 349 349 348 347 346 345 344 340 338 340 342 343 341 338 336 335 334 333 333 334 334 336 336 334 333 332 330 329 328 329 330 330 329 329 329 328 328 327 327 327 324 324 328 330 329 328 325 321 320
346 345 344 343 342 342 343 344 346 347 345 343 345 347 347 346 346 346 346 345 344 343 344 346 345 342 338 336 334 334 333 333 334 335 335 336 335 333 332 331 330 329 329 329 329 329 329 329 329 329 328 327 328 327 325 324 326 327 327 328 326 322 321
345 345 344 342 342 343 342 343 346 346 347 348 347 346 345 345 345 345 345 344 345 347 347 345 341 337 335 334 333 333 332 333 333 334 334 334 333 332 331 330 329 329 329 328 328 328 329 328 328 328 328 328 327 327 325 324 326 327 328 327 325 323 323
345 344 343 343 344 344 342 343 345 345 346 347 346 345 343 343 343 343 343 344 346 346 343 340 337 335 334 333 332 333 333 332 330 331 333 333 331 330 330 329 329 328 328 328 327 327 328 329 328 328 329 329 328 326 326 325 326 328 328 325 322 322 323
346 345 344 345 345 343 341 341 341 341 341 342 344 343 342 341 341 342 342 343 343 341 338 337 335 333 333 333 332 332 332 330 327 327 330 331 330 329 328 328 328 327 327 326 326 327 328 328 328 328 329 328 327 326 326 326 326 325 324 321 321 321 322
345 344 344 344 343 341 342 342 341 341 342 343 344 342 341 339 340 341 342 341 338 336 336 335 332 332 333 333 331 331 330 329 327 326 327 328 328 327 326 327 328 327 327 327 327 328 328 327 328 328 327 327 326 325 325 326 324 322 320 319 320 320 320
345 345 344 345 344 344 345 345 345 344 344 343 341 340 339 339 339 339 339 338 336 335 335 333 332 331 332 331 331 329 329 328 327 327 327 327 327 326 327 327 326 326 328 329 328 326 324 324 326 325 324 325 324 323 323 322 320 318 318 319 320 320 320
345 344 344 344 344 344 344 344 342 341 341 340 338 337 338 339 338 336 335 335 335 335 334 333 332 330 329 330 329 328 328 327 327 328 328 327 325 325 327 327 323 322 324 326 324 322 321 321 322 321 321 322 323 320 318 317 317 317 318 319 320 319 319
342 342 341 341 342 342 341 339 339 339 339 338 337 336 336 336 335 335 334 334 334 334 333 333 331 329 328 329 328 328 328 327 326 327 327 327 326 325 327 326 322 320 322 322 321 320 320 319 319 318 318 319 319 318 316 316 317 317 317 319 319 319 319
340 339 337 337 337 338 338 337 337 337 336 336 336 335 335 334 335 334 333 333 333 333 333 333 331 329 328 328 329 329 327 326 326 326 325 326 327 326 326 326 322 318 318 318 318 318 318 318 318 317 316 316 316 316 315 315 316 316 317 319 319 319 318

ECMWFFLT1_925_thetae_009.txt.gz
Theta_e
347 347 350 351 353 352 352 356 358 359 361 359 355 350 348 346 347 348 347 346 347 347 345 343 341 338 336 338 339 338 337 339 340 339 338 338 338 338 337 336 336 336 337 338 338 338 339 339 339 339 339 338 338 338 339 339 338 338 338 337 338 338 339
350 348 350 352 353 352 351 358 360 360 361 357 352 349 347 348 348 348 347 347 348 346 343 342 340 337 336 337 338 339 339 339 340 339 338 338 337 336 336 336 336 338 338 339 338 338 338 338 339 339 338 338 338 338 338 337 337 337 336 336 337 338 339
352 350 351 352 355 352 352 359 361 361 361 355 350 348 347 349 350 347 346 348 347 345 343 341 339 338 338 337 338 339 340 340 339 339 338 337 337 335 335 336 337 338 338 339 338 337 337 337 338 338 338 338 338 338 338 337 335 336 336 336 337 337 339
353 352 351 353 355 355 355 359 359 361 359 353 349 347 348 350 350 347 347 348 347 345 344 342 340 339 339 339 339 340 341 340 339 338 337 337 336 335 335 335 336 337 337 337 337 337 337 337 337 337 337 337 338 337 336 336 335 335 334 335 336 336 337
353 352 351 353 355 354 355 357 359 362 358 352 348 347 349 352 349 346 347 348 346 345 344 343 341 341 340 340 339 339 340 339 339 338 337 337 336 335 335 336 335 336 337 337 336 336 337 337 336 336 336 336 336 335 335 334 334 334 334 335 336 335 334
352 352 353 354 354 354 355 356 358 360 356 349 347 347 351 351 347 345 346 346 345 345 345 344 342 342 341 341 340 340 340 339 338 338 337 337 336 335 335 336 335 335 336 336 336 336 336 336 336 336 336 336 335 336 335 335 335 334 334 335 336 336 335
352 356 355 355 354 354 356 357 358 357 353 348 347 349 349 347 344 343 344 345 344 345 345 344 343 343 342 341 341 341 340 340 339 339 338 337 336 336 335 335 334 334 335 335 336 335 335 335 336 336 336 336 336 337 337 337 338 336 335 336 335 336 336
353 357 356 355 355 353 353 357 357 353 349 347 347 347 347 345 344 341 344 345 343 343 344 342 343 344 343 342 340 340 340 340 339 339 338 337 336 336 334 334 333 333 333 334 335 334 335 334 335 335 336 336 337 338 339 339 339 338 336 335 335 336 336
352 358 358 356 353 351 351 354 354 351 347 345 347 348 346 344 344 341 343 343 342 341 341 340 343 345 345 344 341 339 339 339 338 337 337 336 335 334 334 332 331 331 332 333 332 333 334 333 334 335 336 337 338 339 340 340 339 339 339 338 337 338 337
355 361 361 356 351 350 350 351 351 348 346 347 349 348 346 345 344 342 342 341 340 339 339 338 338 341 344 344 341 339 339 339 338 337 336 335 333 333 333 331 330 330 330 331 331 331 332 333 333 334 335 336 338 341 341 341 340 340 339 338 338 338 337
359 364 363 358 353 351 350 350 351 349 348 349 350 349 348 345 345 342 341 340 338 338 339 339 337 337 341 342 341 339 339 338 338 337 335 334 333 332 331 331 329 330 330 330 330 330 330 331 332 332 333 334 338 342 343 341 340 340 339 337 336 337 337
360 365 365 362 358 354 352 354 352 351 351 350 352 350 348 346 345 344 342 340 337 337 338 339 339 339 340 340 338 337 338 338 337 336 335 334 333 332 332 331 330 329 329 330 329 329 328 329 329 331 331 332 335 341 342 341 341 341 340 338 337 338 337
360 366 366 364 361 356 357 356 353 353 352 352 353 351 348 348 347 344 343 339 337 337 336 338 340 340 340 339 336 335 337 337 337 336 334 333 333 333 332 331 331 331 331 331 331 330 329 328 329 330 330 331 333 337 340 341 341 341 340 340 339 339 337
359 364 365 365 363 359 360 357 354 355 355 356 355 351 351 351 348 347 345 341 337 336 337 338 340 341 342 339 336 335 336 335 335 335 334 333 333 333 332 333 332 332 332 332 331 330 329 329 328 329 330 331 333 336 338 338 338 338 338 339 340 339 337
356 360 363 366 364 362 362 359 358 360 360 359 355 352 353 352 351 349 346 341 339 337 338 340 342 343 342 340 338 337 336 335 335 334 333 333 333 333 333 333 333 333 333 332 332 331 330 330 330 330 331 333 335 337 337 336 336 337 337 336 338 337 334
352 354 360 365 366 364 362 362 362 362 362 359 355 353 353 352 351 348 343 340 338 339 339 341 343 344 342 340 338 337 337 337 336 335 334 334 334 334 334 333 334 335 334 333 331 331 331 331 331 332 331 333 334 335 335 334 335 335 335 335 335 334 332
347 352 355 360 364 364 363 363 363 363 362 358 354 354 353 352 351 346 341 338 338 339 341 342 344 344 342 340 338 337 337 337 337 336 335 335 334 335 334 334 336 336 335 333 332 331 331 330 331 331 331 332 334 335 335 335 334 334 333 335 336 334 332
346 349 352 356 362 364 364 363 364 364 362 358 355 355 353 351 349 342 340 337 337 339 342 342 343 343 343 341 338 337 337 337 337 336 335 335 335 335 335 336 336 337 336 333 331 331 330 330 330 331 331 333 335 336 336 334 333 333 332 333 334 334 331
346 345 349 354 359 363 363 362 363 365 363 359 355 356 352 347 343 339 340 338 338 340 341 341 340 341 343 342 338 337 337 336 336 336 335 336 335 335 335 335 337 338 336 333 331 330 329 330 330 331 331 333 334 335 334 332 332 333 331 328 329 331 331
346 346 349 354 356 359 361 361 363 362 362 360 357 355 349 339 335 338 340 338 340 340 340 340 339 340 343 341 339 337 336 336 337 336 335 335 335 336 336 336 338 339 335 332 331 330 330 330 331 331 332 332 332 331 331 330 330 329 329 326 327 328 330
348 349 351 353 356 357 359 361 361 360 360 359 356 353 346 337 335 339 340 339 341 342 341 340 339 341 341 340 338 337 336 336 336 336 336 336 335 336 337 339 340 337 333 331 330 330 331 331 330 331 331 331 331 330 330 330 328 327 328 327 327 327 329
348 348 350 353 356 357 358 360 360 358 358 358 353 348 344 340 340 341 341 340 341 342 342 341 341 341 341 338 338 336 336 336 335 336 336 336 336 336 337 339 339 335 332 331 331 331 331 329 330 330 329 330 331 331 331 330 328 326 327 328 328 328 329
346 347 351 353 354 355 357 357 357 357 356 354 350 345 343 341 341 341 341 340 341 341 341 340 341 341 339 338 336 336 336 336 335 335 336 335 335 334 334 337 338 334 330 331 331 331 330 329 330 330 329 330 331 330 330 329 329 327 326 326 328 329 330
345 348 351 353 354 355 355 356 358 356 354 350 346 343 342 342 341 341 341 341 340 340 340 340 341 341 339 338 337 335 336 336 335 336 335 334 333 333 333 335 335 333 331 332 332 330 329 330 329 329 329 330 330 330 328 327 327 327 326 326 326 328 330
345 349 352 352 353 355 356 357 357 354 351 348 344 342 343 342 340 340 340 340 340 340 340 340 340 339 339 338 337 335 336 336 336 336 335 333 332 332 332 333 333 332 332 333 332 329 329 329 329 329 330 330 330 329 328 328 329 327 325 325 325 327 329
348 350 352 353 354 356 357 356 355 353 349 346 344 343 343 342 340 340 341 341 341 340 339 340 339 338 338 338 337 336 335 336 337 336 335 333 331 331 332 332 334 334 333 333 332 329 329 329 329 330 330 330 329 329 328 330 330 326 324 324 325 326 329
352 351 351 352 354 357 356 354 354 352 346 345 346 345 343 342 341 342 342 342 343 341 340 339 338 338 338 338 336 335 336 337 336 336 335 333 332 331 331 334 336 335 334 333 331 329 330 331 331 331 331 330 330 329 329 329 328 325 325 325 325 327 328
352 351 351 353 355 356 355 355 353 348 344 345 347 346 343 341 343 345 344 344 344 343 341 339 338 337 338 338 335 335 337 337 336 336 335 333 332 332 332 335 337 335 333 332 330 330 332 333 333 331 330 330 329 329 331 331 326 323 325 326 327 329 328
351 350 352 353 354 354 352 352 350 347 344 345 345 343 342 341 344 347 346 345 344 344 343 340 339 338 338 337 337 337 338 337 336 336 334 332 333 334 335 335 336 334 334 333 332 332 333 332 332 332 330 331 330 329 331 332 328 325 325 326 327 328 327
351 350 352 350 349 351 349 349 350 347 344 342 339 339 341 343 346 349 349 348 347 346 345 342 339 339 339 340 340 339 338 337 336 334 333 333 334 335 336 335 334 334 335 333 333 332 331 331 332 331 331 330 330 330 330 331 330 328 326 327 327 326 324
349 348 346 343 345 347 347 348 350 347 343 341 341 343 346 349 350 351 351 351 348 347 346 344 343 343 344 344 343 340 338 337 335 333 333 334 335 334 334 334 333 334 334 334 333 332 331 331 331 331 331 330 330 331 331 328 328 328 327 327 326 324 323
347 344 342 342 345 345 343 343 345 345 346 347 349 351 351 351 350 350 350 350 349 347 347 347 347 346 345 343 340 336 335 335 334 332 333 335 334 332 332 332 332 332 332 332 333 331 331 331 330 329 330 329 327 327 329 327 326 328 328 326 324 323 323
346 345 346 348 347 345 343 342 342 343 344 347 349 348 347 346 347 347 346 345 344 345 347 348 347 345 342 340 337 335 335 334 332 330 330 331 331 331 331 331 330 330 331 330 329 328 328 329 329 328 329 328 325 325 328 328 327 327 326 323 321 322 321
349 349 350 349 345 343 343 341 340 341 343 345 347 345 343 342 341 340 342 343 340 341 344 345 344 341 340 338 336 335 335 334 332 331 329 328 329 330 331 331 329 329 331 330 328 328 328 328 328 327 327 327 326 326 328 328 327 325 322 319 319 320 320
350 350 348 346 345 345 345 344 344 346 347 346 345 343 342 341 338 334 335 338 337 339 340 341 340 338 336 335 335 333 333 333 331 331 330 330 329 330 330 330 328 328 330 329 327 327 327 326 326 325 325 325 326 325 326 326 323 321 319 317 317 318 318
348 346 345 346 346 348 348 347 346 346 346 344 342 340 341 341 339 335 332 332 336 337 338 338 337 334 332 333 332 332 332 331 329 330 330 329 330 330 329 327 326 325 326 325 324 324 323 323 323 322 322 324 324 322 321 321 319 317 317 317 317 317 317
345 344 344 345 347 346 345 344 344 344 342 341 341 340 339 338 338 336 333 333 336 337 336 336 336 333 331 330 331 332 331 330 329 329 328 328 328 328 328 327 325 323 323 322 321 321 321 320 321 320 320 321 321 320 317 316 316 316 316 316 317 318 317
341 342 342 342 344 344 342 342 343 342 340 339 339 338 336 335 335 335 333 333 335 335 334 335 335 333 332 330 332 332 332 330 329 329 327 327 328 327 328 330 327 323 320 319 319 319 319 319 319 318 318 318 318 317 316 315 314 314 314 315 317 318 317

ECMWFFLT1_925_thetae_012.txt.gz
Theta_e
346 345 350 353 351 352 354 355 355 358 361 362 363 361 357 354 353 353 351 351 350 348 347 347 346 346 343 340 340 340 338 337 338 340 340 339 340 340 339 338 338 337 337 338 339 340 340 340 340 340 340 340 340 340 339 339 339 338 338 338 337 337 338
348 346 349 350 349 351 354 355 354 356 359 362 363 359 353 352 352 351 351 351 349 348 348 347 345 343 340 339 340 340 338 338 339 340 339 339 339 339 338 338 337 337 338 339 339 339 339 339 339 339 340 340 340 340 339 339 339 338 337 337 336 337 337
350 348 349 350 350 351 354 356 355 356 358 361 362 356 351 351 351 350 350 350 349 349 348 346 344 340 337 338 339 339 338 339 340 341 340 339 339 338 337 336 336 337 338 338 338 338 338 338 339 339 339 339 339 339 339 338 338 337 336 336 336 336 336
353 351 351 353 354 352 353 354 354 357 360 361 360 354 350 351 351 350 349 350 350 350 347 345 342 339 337 338 338 338 340 340 340 340 339 339 338 337 336 336 336 337 337 337 338 338 338 338 338 338 338 338 338 338 337 336 336 336 336 335 335 336 336
357 359 358 355 355 353 353 353 354 357 359 362 359 352 350 351 351 351 350 351 351 349 346 344 342 340 339 339 339 339 340 341 341 340 339 338 338 337 336 335 336 336 336 336 337 337 337 337 338 338 338 337 337 337 336 336 336 336 336 335 335 336 337
357 363 360 355 354 355 355 354 355 356 357 360 358 351 350 351 351 351 350 351 351 348 345 344 341 341 341 340 340 340 340 340 340 340 339 339 338 337 336 336 336 336 335 335 336 336 336 336 337 337 337 337 337 337 336 337 337 337 337 337 336 336 336
352 359 357 354 353 355 355 355 357 358 357 358 356 351 350 351 351 349 349 350 349 347 346 344 342 342 342 341 340 340 340 340 339 339 339 339 338 338 337 336 336 335 334 334 335 335 335 335 336 336 336 336 336 337 337 338 339 338 338 338 337 337 336
350 359 358 354 353 352 354 357 359 358 356 354 352 350 350 352 351 347 348 349 348 347 346 345 344 343 343 342 342 341 341 341 340 340 340 339 339 338 337 336 335 334 334 334 333 334 334 334 335 335 335 335 336 336 337 337 338 338 338 338 338 338 338
349 363 360 352 351 352 355 359 360 358 355 352 350 347 348 350 350 346 347 348 347 347 346 345 345 344 343 343 342 342 342 341 341 340 339 340 338 338 337 335 334 333 332 332 332 333 332 332 333 334 334 334 335 336 336 337 338 338 338 338 338 339 339
350 365 366 356 355 359 359 358 360 358 356 353 351 349 348 349 348 346 347 346 345 345 345 344 345 345 345 344 343 342 341 341 341 339 339 339 337 337 336 334 332 331 331 331 330 330 331 331 332 332 333 333 334 335 335 336 338 338 337 337 337 337 337
357 367 369 363 364 366 361 360 365 364 358 353 351 350 351 351 348 345 346 346 344 344 344 343 345 347 347 346 345 342 341 340 340 339 338 338 336 335 334 333 332 330 329 328 329 329 331 331 331 331 331 332 332 333 333 334 337 338 337 337 337 337 336
362 369 367 364 369 369 364 365 369 367 360 353 351 352 352 351 347 345 346 346 344 343 343 340 341 344 346 346 345 343 341 341 340 340 338 337 336 335 333 332 331 330 329 330 331 331 331 331 331 330 330 330 331 331 332 333 335 336 336 337 337 337 337
360 368 366 366 371 370 367 366 367 364 359 355 354 352 351 350 348 345 346 346 344 342 341 339 337 339 342 343 343 342 341 340 340 339 338 337 335 334 333 333 332 332 332 332 333 333 332 332 331 330 331 330 331 331 332 333 334 335 335 336 336 335 336
355 359 362 365 369 370 369 365 364 362 358 356 355 353 352 350 348 346 346 344 342 341 340 340 339 339 340 340 340 339 339 339 338 338 337 336 334 334 333 333 333 333 334 334 334 334 333 333 331 331 331 331 332 332 332 334 337 337 336 335 335 334 333
349 350 357 361 366 371 371 364 363 362 357 356 355 354 353 351 348 347 345 342 340 339 338 338 339 340 341 341 340 338 336 336 336 336 336 336 334 334 334 334 334 334 334 334 335 335 334 333 332 332 332 332 332 332 332 335 337 336 335 334 333 333 333
343 344 353 360 364 368 367 365 364 362 358 356 354 355 353 351 350 348 344 340 337 335 335 336 339 341 342 342 341 338 337 336 336 336 336 335 334 334 334 335 335 335 335 335 336 336 335 333 332 332 332 332 332 331 333 335 334 333 333 333 333 333 333
342 344 350 359 366 366 367 370 368 364 360 357 356 356 354 352 351 347 341 337 333 332 334 338 341 342 343 344 342 340 338 337 337 337 336 335 335 334 335 335 336 335 335 336 337 337 335 333 332 332 331 331 332 332 334 335 333 332 331 331 332 332 330
348 350 352 358 366 368 368 367 366 364 361 357 357 357 355 354 351 346 342 336 332 333 336 339 343 344 345 344 342 340 339 338 338 339 338 337 336 336 336 336 336 336 336 337 338 337 335 333 332 331 331 331 332 333 334 333 332 332 330 330 331 330 328
347 348 352 355 362 367 365 361 360 362 361 359 359 358 356 354 349 343 338 334 333 335 337 340 344 346 345 345 342 340 339 338 339 339 338 338 337 337 337 336 336 337 337 338 338 336 334 332 331 331 331 332 333 333 332 331 331 330 329 329 329 328 328
347 347 348 350 353 359 363 362 360 361 363 360 355 355 355 351 343 336 334 334 335 338 339 341 345 346 346 346 343 341 339 338 338 338 337 337 337 337 337 336 337 337 337 338 338 335 333 332 331 332 332 333 333 332 330 330 330 330 329 328 327 327 328
348 349 348 351 353 356 365 370 365 363 364 356 348 351 353 346 338 335 337 338 337 337 340 344 344 345 346 346 344 342 340 339 338 338 338 337 337 337 337 337 337 337 338 339 337 334 332 332 332 332 332 333 333 332 332 332 331 331 329 328 327 326 326
342 344 347 354 358 362 369 370 366 365 364 358 352 353 349 343 339 339 340 339 337 338 343 346 345 344 345 345 344 343 341 339 339 338 338 338 337 338 337 338 338 338 339 339 337 334 332 332 332 332 331 331 331 332 333 332 331 330 329 328 327 327 326
338 340 348 353 355 360 364 364 364 364 363 361 356 350 346 344 341 339 339 339 337 340 344 345 345 344 343 344 345 343 341 340 338 338 338 338 338 338 338 338 337 337 338 339 337 333 332 332 332 331 330 331 331 331 332 332 331 329 328 327 327 326 325
337 341 350 353 354 358 360 361 363 362 362 362 354 347 346 342 337 337 339 338 338 341 344 345 345 344 343 344 344 343 341 339 338 338 338 338 337 337 337 336 335 335 336 337 336 333 332 332 332 330 330 330 330 331 331 331 330 328 327 328 326 325 325
341 346 350 353 355 358 359 360 360 360 362 361 354 348 346 341 336 335 337 338 340 343 345 345 344 343 344 344 343 341 340 339 338 338 338 338 337 337 335 334 333 333 334 335 334 333 333 333 331 330 330 330 329 330 331 331 330 330 330 329 326 325 325
347 351 354 354 356 357 358 359 359 360 362 361 355 349 345 341 338 338 339 341 342 344 345 345 345 344 344 343 343 340 339 338 338 338 337 337 337 336 334 333 332 332 332 333 334 334 333 333 332 330 330 329 329 330 330 330 330 330 330 327 325 325 326
344 349 351 353 356 358 358 360 360 359 359 358 354 347 341 339 339 342 344 345 344 343 343 344 344 343 343 343 342 340 339 338 337 337 337 338 338 336 334 333 331 331 332 333 335 334 333 333 332 331 330 330 330 330 330 330 330 330 328 325 324 325 327
342 343 346 352 358 359 359 359 359 357 355 353 349 344 341 340 342 345 346 345 345 344 343 343 343 342 342 342 340 340 339 338 337 337 338 338 337 336 335 333 332 332 332 333 335 334 334 333 332 331 330 330 330 329 328 328 330 330 328 326 325 326 327
347 345 348 356 360 359 359 359 358 354 351 348 346 345 344 343 345 346 345 346 346 345 344 344 343 342 341 341 340 340 340 338 338 339 339 338 337 336 335 334 332 333 334 334 334 334 334 332 330 329 328 328 327 327 327 327 328 329 329 328 327 327 327
351 349 351 357 359 358 357 359 357 350 345 344 344 343 343 343 343 344 345 348 348 347 346 346 344 342 342 341 340 340 339 338 339 339 339 338 337 335 334 332 332 332 333 332 331 330 331 331 329 328 328 328 326 326 327 326 326 328 329 328 327 326 325
350 350 347 349 355 356 356 356 353 345 342 342 342 341 341 338 337 342 347 349 350 350 350 348 347 345 343 341 341 341 340 340 339 338 338 337 335 332 332 332 331 331 332 331 330 329 329 331 329 327 328 328 327 325 326 326 326 327 328 328 327 325 323
351 349 342 343 353 353 351 352 348 341 342 347 347 347 347 345 344 348 350 350 350 351 350 349 349 347 344 342 344 343 341 340 337 334 333 333 331 330 331 332 331 330 330 330 330 330 331 331 330 329 329 329 329 327 326 326 327 327 326 326 325 323 321
352 348 342 344 350 348 345 347 345 341 345 351 351 349 350 349 349 348 347 346 346 346 347 349 350 349 348 347 345 343 341 338 334 333 333 332 330 330 330 331 331 329 328 329 332 333 333 332 331 331 330 329 328 326 324 324 325 325 323 322 322 321 321
353 350 345 345 348 344 341 340 340 342 347 349 348 346 345 345 343 340 340 342 341 338 341 347 349 348 348 346 344 342 340 338 336 336 335 333 332 332 331 331 330 330 329 330 332 332 331 330 330 329 328 328 327 326 325 325 324 322 320 319 319 320 320
347 346 343 344 347 345 343 342 342 345 347 346 345 345 343 340 337 333 331 335 336 335 338 343 345 345 343 341 341 340 338 337 336 334 333 333 333 331 328 327 327 329 329 328 327 326 325 325 325 324 324 325 325 325 325 323 320 318 318 317 318 319 319
342 341 342 345 347 349 350 350 349 347 346 344 343 343 341 339 336 332 330 333 336 337 338 340 341 341 338 336 336 336 334 334 333 332 331 332 332 330 327 325 325 326 326 324 323 322 321 321 321 320 321 322 321 320 320 318 316 316 316 316 317 318 319
342 343 346 348 350 351 350 349 347 346 343 342 341 340 339 338 336 332 332 335 336 336 337 337 337 338 336 334 334 333 332 331 331 330 329 329 330 329 327 325 324 324 323 321 321 321 320 320 319 319 320 320 318 317 317 316 315 315 316 316 317 319 319
345 345 346 347 348 348 347 346 345 344 342 341 339 337 336 337 335 332 332 335 335 334 334 335 336 336 336 334 333 333 332 332 332 331 330 330 329 329 328 327 325 322 320 320 320 320 319 319 318 318 318 318 317 316 315 314 314 315 315 316 317 318 319

ECMWFFLT1_925_thetae_015.txt.gz
Theta_e
350 350 349 348 349 350 349 349 349 350 355 360 362 361 362 361 361 360 358 357 355 352 349 346 344 342 339 339 341 340 338 337 337 336 338 339 339 339 339 337 337 337 337 336 337 339 339 339 339 339 339 339 339 339 339 339 339 338 338 337 336 336 335
349 350 350 349 351 352 349 347 348 350 356 361 362 361 362 361 360 358 357 355 352 350 348 345 344 342 339 341 342 342 340 338 336 337 338 339 338 338 337 336 337 337 336 336 337 338 338 338 339 338 338 338 338 338 338 338 338 337 337 337 336 335 335
349 351 352 350 352 354 351 349 349 352 357 361 362 361 361 359 358 357 355 353 352 349 347 345 343 342 342 342 341 340 340 338 337 338 339 338 337 338 338 338 337 335 334 336 337 338 338 337 336 337 337 338 338 337 337 337 336 336 336 336 335 335 335
349 352 353 351 353 354 352 351 351 355 358 361 361 361 360 358 357 356 354 352 351 349 347 345 343 344 343 342 340 339 340 338 337 339 339 339 338 338 338 337 335 334 335 337 337 337 336 336 336 336 336 337 337 337 337 336 336 336 336 335 335 335 335
350 353 354 351 352 354 354 352 352 356 358 360 361 360 358 357 356 354 352 352 350 348 346 344 344 345 342 339 339 339 339 338 338 338 339 339 339 338 337 336 335 335 336 336 336 335 336 336 336 335 335 335 335 336 336 337 336 337 337 337 337 337 336
352 355 356 352 351 353 354 353 353 356 358 359 361 359 357 355 354 353 352 351 350 348 347 345 345 343 338 337 338 338 338 338 339 339 338 338 338 338 337 337 335 335 336 335 334 334 335 335 334 334 335 335 335 335 335 336 336 337 338 338 338 338 337
354 358 360 355 350 351 352 352 353 355 357 359 360 358 355 354 353 352 351 351 350 349 348 347 345 341 337 337 337 337 338 339 340 340 340 338 338 338 337 336 335 335 334 334 334 334 334 334 334 334 334 334 333 333 333 334 335 336 337 338 338 338 337
357 363 365 356 350 350 350 352 352 353 356 359 359 357 354 353 352 351 351 351 350 349 348 346 344 340 337 337 338 338 339 339 340 340 339 338 338 338 337 336 336 334 334 334 335 334 333 333 334 334 334 333 333 333 333 333 333 334 336 338 338 338 338
359 362 362 356 350 350 351 349 350 353 357 359 358 356 353 352 351 350 350 350 350 350 348 345 343 340 338 338 339 339 340 339 339 339 338 338 338 338 338 338 336 335 335 335 334 333 333 333 333 332 332 332 332 333 333 333 333 333 334 335 337 337 337
366 363 359 357 353 352 353 350 351 354 357 360 358 354 352 351 350 350 349 350 350 349 347 345 343 341 340 340 339 339 340 339 339 339 339 339 339 339 338 337 336 335 335 333 332 332 332 332 331 331 331 331 332 332 332 333 333 333 333 333 335 336 337
382 373 360 357 358 356 356 357 358 356 355 359 358 354 352 351 350 350 349 349 350 348 346 345 343 342 341 341 341 340 340 341 340 340 340 340 339 338 338 337 335 334 332 330 330 331 332 332 331 331 331 332 332 332 333 333 333 333 333 332 333 335 335
390 381 364 365 371 364 358 362 363 358 355 356 356 354 351 350 350 349 349 349 349 347 346 345 344 343 342 342 342 342 341 341 341 340 340 339 338 337 337 336 335 333 331 331 332 332 332 331 331 331 331 331 331 332 332 333 333 332 332 333 334 334 335
382 381 370 374 383 372 364 366 365 360 357 355 355 353 350 351 351 349 348 348 347 347 346 345 344 344 343 342 343 342 341 341 340 340 339 338 338 337 336 335 334 332 332 332 333 332 332 332 332 332 332 332 331 331 331 331 332 332 332 334 335 335 335
374 377 373 377 386 379 369 368 367 362 357 355 354 352 349 350 351 348 348 347 347 346 345 345 345 345 344 344 343 343 342 340 339 339 339 339 338 337 336 335 333 333 332 332 332 331 331 333 333 333 333 332 331 331 331 331 332 332 333 333 334 334 334
370 372 371 375 382 381 371 368 368 365 358 354 354 352 350 349 349 348 347 346 345 345 345 345 345 345 345 345 345 344 342 340 339 339 339 338 337 336 335 334 333 332 332 332 332 332 332 333 334 334 333 332 332 331 332 332 332 332 333 333 332 333 333
368 367 368 370 376 376 371 369 369 365 359 355 353 352 351 350 349 348 347 346 345 344 344 345 346 346 346 345 345 345 343 341 340 340 339 338 337 336 335 334 333 332 332 333 333 333 334 334 335 335 334 333 332 331 331 331 332 333 333 333 332 331 332
360 363 367 368 371 371 368 367 367 366 362 356 354 352 351 351 350 347 347 346 344 343 343 344 346 346 345 344 343 343 342 341 340 339 338 337 337 336 335 334 333 333 333 334 334 334 334 335 336 336 334 333 332 331 330 331 332 333 333 332 331 330 331
360 363 368 371 370 369 368 366 365 365 362 356 355 354 351 351 350 347 346 344 343 343 342 341 342 341 342 341 338 336 338 338 338 337 336 336 335 335 334 334 333 334 334 335 335 335 335 336 337 337 334 333 332 331 331 331 332 333 332 331 330 330 329
359 360 364 372 376 373 369 366 362 360 358 355 355 355 353 351 348 343 341 340 341 341 340 339 339 339 340 340 336 335 338 337 335 335 335 335 335 335 334 334 333 334 335 335 335 335 336 336 337 337 334 332 331 331 331 332 333 332 331 330 329 329 328
359 360 360 367 377 376 371 366 360 357 356 355 354 354 352 348 343 339 339 338 339 338 337 339 340 339 339 340 339 339 340 338 336 335 334 335 335 335 335 335 334 335 335 335 335 336 337 337 338 336 334 332 331 331 332 332 332 331 331 331 330 328 327
369 371 367 366 373 378 375 367 359 357 357 355 354 353 349 345 342 339 337 335 335 336 337 339 339 340 341 341 341 342 341 340 338 336 336 336 337 337 336 336 336 336 336 336 336 336 337 338 337 336 334 332 332 332 332 331 331 331 332 332 331 329 328
367 368 368 366 367 374 373 364 357 357 357 355 353 350 346 344 341 338 336 335 336 337 338 338 339 343 344 341 340 342 342 340 339 338 338 338 338 338 337 337 337 336 336 336 336 336 337 338 337 335 333 332 332 332 331 331 331 332 331 331 330 328 327
354 358 364 361 357 362 365 361 359 358 355 354 351 346 344 342 340 337 336 336 336 336 336 336 339 345 345 341 340 343 343 341 339 339 339 339 339 339 338 337 337 336 336 336 337 337 338 338 338 335 333 332 332 331 331 331 330 330 330 329 328 328 327
350 359 364 358 354 358 363 364 363 358 353 352 348 343 341 340 338 336 335 335 334 334 333 334 338 344 346 343 344 345 344 342 340 339 339 339 339 338 338 337 337 336 336 337 337 337 338 337 335 332 331 331 330 329 329 329 329 328 328 328 328 328 326
360 362 358 353 355 360 362 365 364 357 353 350 345 341 340 338 335 333 333 335 334 333 333 334 337 343 346 345 345 345 344 343 341 340 340 339 338 338 338 337 337 337 337 337 336 336 336 335 332 331 331 330 329 329 328 328 328 327 328 329 328 327 324
366 364 358 353 356 359 359 362 363 357 353 348 343 340 339 337 333 331 332 334 333 333 334 334 336 343 346 345 345 345 345 344 343 341 340 340 339 339 338 337 337 337 336 335 335 336 335 334 332 331 331 330 330 329 328 328 328 327 328 328 327 325 324
354 356 354 352 355 358 358 360 361 355 350 346 343 340 338 336 333 330 333 334 334 334 335 334 337 342 346 345 344 344 344 344 343 342 340 340 339 338 337 338 337 335 334 334 334 334 334 333 333 331 331 330 330 329 328 328 327 327 329 329 327 326 325
351 350 349 352 357 358 358 360 360 353 349 345 342 339 338 337 334 333 334 336 336 336 336 336 339 343 345 345 343 343 344 343 342 341 340 339 338 336 337 337 335 335 334 333 333 333 333 333 332 331 330 330 329 329 328 328 327 327 328 329 328 327 326
362 358 354 356 359 358 357 355 349 347 346 344 340 340 339 338 336 336 336 337 337 337 337 340 342 343 344 344 343 343 344 342 341 340 339 338 337 336 336 335 333 333 332 331 331 332 332 332 331 330 330 330 329 328 328 327 326 326 327 328 328 327 326
367 361 357 355 355 355 353 347 341 341 343 343 341 340 339 338 338 339 340 341 341 341 342 344 344 345 345 345 344 344 343 342 340 338 337 337 336 335 335 334 332 330 329 329 330 331 331 330 330 329 329 329 329 328 327 325 325 326 327 329 328 327 326
360 355 352 349 347 348 348 345 342 341 340 342 343 342 341 342 343 345 347 347 346 346 346 345 345 346 346 345 345 343 342 340 338 337 337 337 336 335 334 333 331 329 329 330 330 330 330 329 329 330 330 329 328 328 326 326 327 328 328 328 327 326 325
353 348 346 344 343 344 345 345 344 341 340 343 344 343 344 344 346 348 350 350 348 348 347 347 346 346 344 344 344 342 340 338 337 336 337 336 336 335 334 332 330 329 329 330 329 329 330 330 330 331 331 330 329 328 327 326 327 328 327 326 325 325 323
351 346 345 344 343 344 344 344 343 340 340 344 346 344 343 343 345 349 351 350 349 347 346 347 348 347 346 345 344 342 341 340 338 337 336 335 334 333 332 331 330 329 330 330 329 328 330 330 330 330 330 331 330 327 325 326 326 325 324 323 323 322 320
347 344 344 342 342 343 342 341 341 340 339 342 348 348 345 345 346 346 345 345 344 341 342 346 348 348 348 347 346 345 343 341 338 337 336 335 334 332 332 332 332 331 330 329 328 329 329 328 328 328 328 329 328 326 326 326 325 323 322 321 321 319 318
345 342 343 342 340 340 340 338 338 339 339 341 346 348 345 343 343 343 340 341 341 336 337 344 348 347 346 346 345 345 343 340 338 336 335 333 332 331 332 332 332 331 329 328 327 328 327 326 325 324 324 325 326 326 327 325 322 320 319 318 318 317 318
344 341 342 343 341 339 339 339 338 339 339 339 342 342 337 335 338 340 339 339 338 335 337 343 346 344 343 342 341 342 342 339 336 335 335 332 330 328 327 327 328 328 327 326 325 324 323 323 322 322 322 323 323 323 323 321 319 317 317 316 317 318 319
344 342 342 344 344 343 342 341 340 338 337 336 336 334 332 332 334 335 335 337 337 337 340 343 343 341 339 337 336 337 337 336 334 334 333 332 330 328 325 324 323 323 323 322 321 321 321 321 320 320 321 321 321 320 319 318 317 316 315 315 316 318 318
344 344 346 347 346 343 341 340 338 336 335 335 335 333 331 331 332 333 334 335 335 336 338 339 338 338 337 335 334 333 333 332 332 332 331 330 329 328 325 323 320 318 318 318 318 318 318 319 318 318 318 318 318 317 316 315 314 314 314 314 315 317 317

ECMWFFLT1_925_thetae_021.txt.gz
Theta_e
349 352 353 353 355 355 356 355 354 355 356 355 356 358 358 359 359 359 360 359 360 359 358 357 357 357 357 356 357 358 354 348 344 340 336 334 335 335 336 336 337 338 338 338 337 336 335 337 338 337 337 336 336 337 337 337 338 338 337 336 336 336 335
349 351 353 354 354 354 355 354 353 355 355 355 356 357 358 358 359 359 359 359 359 358 358 358 358 358 358 357 358 356 351 344 342 338 335 334 335 335 335 335 336 337 338 338 337 335 335 336 337 336 335 335 337 337 337 336 337 336 336 335 335 335 335
348 351 353 354 354 354 355 354 352 354 354 355 355 356 358 358 358 359 359 359 359 358 358 358 358 358 357 358 358 355 349 343 339 337 334 334 336 336 335 335 336 337 338 337 335 334 335 335 336 335 336 336 337 337 336 336 336 336 336 336 335 335 335
348 351 352 353 354 354 354 353 351 354 354 354 355 355 357 357 358 358 358 358 358 358 358 357 357 357 357 358 357 355 350 344 339 336 334 334 336 335 335 336 336 337 336 334 332 335 336 336 336 336 336 336 335 335 335 335 336 335 335 336 336 335 335
348 350 351 352 354 353 355 352 350 352 353 353 354 354 356 357 357 358 358 358 358 357 358 357 357 356 356 357 356 354 350 344 339 336 334 335 336 335 335 336 337 336 333 332 333 336 336 336 336 335 335 333 332 332 332 332 334 334 335 335 335 336 335
346 349 352 352 352 353 353 351 349 351 352 353 353 354 355 356 356 357 357 358 358 357 357 357 356 355 355 355 355 352 348 343 339 336 335 336 335 335 336 336 336 335 334 333 333 335 336 336 336 335 334 332 332 332 332 331 332 332 333 334 334 334 334
346 349 351 352 352 352 351 349 348 349 350 352 352 353 354 355 355 357 357 357 358 357 357 356 355 354 354 352 351 349 345 342 338 336 336 336 335 335 334 335 336 337 336 334 332 334 336 336 335 335 333 332 332 332 332 332 332 332 332 332 333 332 333
346 348 349 350 350 349 350 349 347 348 349 350 351 352 352 354 355 356 356 357 357 357 356 355 354 353 351 349 349 347 344 341 337 336 337 336 336 335 334 335 337 337 336 334 333 333 335 335 334 334 333 333 333 332 333 333 333 333 332 332 332 331 332
346 347 348 349 348 348 349 347 345 347 348 349 350 351 352 353 354 356 356 357 356 356 355 354 354 351 349 349 349 347 344 340 337 337 337 336 336 336 336 337 337 337 336 335 332 332 334 334 333 333 332 333 333 332 333 333 333 333 333 333 332 332 332
346 346 347 349 347 348 348 345 345 345 347 348 349 351 352 354 354 355 356 356 356 356 355 354 351 348 348 351 350 347 343 340 338 338 338 337 336 337 337 337 338 337 336 334 331 331 332 332 333 333 333 333 333 333 333 333 333 333 333 333 333 333 332
347 346 348 350 349 350 350 348 349 346 346 347 348 350 352 353 355 355 356 356 356 356 354 352 349 348 349 351 349 345 343 340 339 339 339 338 337 337 337 337 338 337 335 332 330 331 332 333 333 334 334 334 333 333 333 333 332 332 332 332 332 332 333
347 348 349 350 350 350 351 351 351 347 345 346 348 350 352 352 355 355 355 356 356 355 353 350 348 347 348 349 347 344 342 339 339 340 339 338 337 336 337 337 336 335 332 331 330 332 333 333 333 333 333 332 332 332 331 331 331 331 331 330 330 331 331
348 348 348 350 350 350 352 351 351 348 345 344 347 349 351 353 354 354 356 356 355 355 352 349 347 346 347 350 347 342 340 340 340 340 338 338 337 337 338 338 335 332 331 331 332 333 334 332 331 330 330 330 330 331 331 330 331 331 331 330 330 331 331
349 348 348 351 350 349 351 350 351 350 345 343 346 348 351 352 354 355 355 354 354 354 350 347 346 345 346 347 343 340 340 339 338 340 339 338 337 337 338 337 334 331 331 333 333 334 334 333 330 329 330 330 330 331 331 331 332 331 331 331 330 331 331
352 350 349 351 352 352 352 350 351 352 347 344 344 347 349 351 353 355 354 353 353 352 349 347 346 344 344 342 339 339 339 334 333 339 339 337 337 338 338 337 335 332 332 333 335 335 335 334 331 330 330 331 331 331 332 332 332 332 332 331 330 330 330
352 350 349 352 353 353 352 351 349 351 349 347 345 347 349 351 353 353 353 353 352 350 348 347 345 344 342 339 337 338 337 333 334 339 338 337 338 337 337 338 334 329 331 334 335 336 336 334 331 331 331 331 331 332 333 333 333 332 331 331 331 330 330
351 351 352 353 355 354 352 351 350 350 351 347 345 348 349 351 352 352 352 352 350 349 347 345 345 343 340 338 336 338 337 334 336 339 337 336 337 337 338 339 333 329 332 335 335 335 337 334 332 332 332 331 332 333 334 335 334 333 332 331 331 331 331
353 356 357 355 356 356 355 354 354 354 352 346 344 348 350 352 352 350 351 351 349 349 346 344 344 342 338 337 336 338 336 331 334 339 338 336 339 337 336 337 336 335 335 336 335 336 336 333 332 332 332 332 332 333 334 335 335 335 334 333 333 331 331
357 361 362 361 360 359 359 360 357 352 347 344 345 347 349 352 352 350 351 350 348 347 344 343 343 340 336 335 336 338 334 329 333 338 338 339 339 333 329 333 338 338 336 336 336 336 336 334 332 332 331 332 333 334 334 335 335 335 335 334 333 332 332
362 365 365 367 368 366 366 368 360 350 347 347 347 347 350 352 351 351 350 349 348 345 343 342 341 338 336 335 335 336 333 332 335 338 339 339 336 330 327 332 338 338 335 335 336 337 336 334 332 332 332 333 334 334 334 335 335 333 332 332 333 332 332
371 372 371 374 379 380 382 377 361 348 348 351 350 349 350 351 351 350 348 347 347 344 342 341 339 338 337 336 336 334 333 335 338 339 339 337 332 330 331 333 336 337 336 337 336 337 336 334 332 333 332 333 334 334 335 335 335 333 331 331 331 332 332
372 370 371 379 386 388 383 370 356 349 349 351 352 352 351 351 350 349 347 346 345 344 342 341 339 339 338 337 337 335 333 336 339 340 339 335 331 332 333 334 335 336 337 337 337 336 335 333 333 333 332 333 334 334 335 335 335 335 332 331 330 331 330
363 369 371 366 359 357 352 345 343 343 347 351 353 353 352 350 349 347 345 344 344 343 342 341 339 339 338 338 338 336 335 336 339 340 338 335 333 332 331 333 335 337 337 337 337 336 335 334 333 333 333 334 334 335 336 336 336 335 333 331 330 329 328
349 357 356 344 337 337 339 342 347 348 349 352 352 352 351 349 347 346 344 342 342 342 341 340 339 339 339 338 337 338 337 337 339 339 338 337 336 333 331 334 336 337 337 337 337 336 334 334 333 333 334 335 336 336 336 336 336 334 331 330 329 328 328
350 352 344 338 339 343 343 347 351 352 351 351 349 349 349 347 345 344 342 341 342 341 340 340 340 339 338 337 337 337 338 338 339 339 337 336 334 332 333 334 336 336 336 337 336 335 334 334 334 335 336 336 336 336 335 335 334 332 330 329 329 328 328
367 370 360 352 353 353 350 351 353 351 350 349 348 348 346 345 344 342 341 341 341 340 341 340 340 339 337 336 337 338 338 339 340 338 335 333 332 331 332 333 335 336 336 336 336 335 335 336 336 336 337 335 334 333 333 333 332 331 330 329 329 328 327
359 363 360 356 356 357 354 352 351 349 349 349 348 346 345 344 343 341 341 341 340 340 341 340 340 339 337 336 337 338 338 339 338 335 333 331 332 333 333 335 336 337 336 336 336 336 336 337 336 336 335 333 332 332 332 332 331 330 330 329 328 327 326
363 363 360 356 356 355 352 349 347 346 347 347 346 345 344 344 342 340 340 340 339 339 340 339 339 338 336 336 337 337 338 338 336 335 334 334 335 335 337 338 337 338 337 338 338 337 337 336 335 333 332 331 330 331 331 331 330 329 328 327 327 326 327
374 368 361 355 354 353 350 347 344 343 343 344 343 342 342 341 340 339 338 337 337 338 338 338 339 337 336 337 336 337 337 336 335 335 335 336 338 337 338 339 338 338 338 337 337 337 335 335 333 331 330 329 329 330 330 330 329 328 327 326 326 326 327
372 360 353 351 353 353 349 345 342 341 341 340 339 339 340 340 339 337 336 335 335 337 337 337 336 335 336 337 336 336 337 336 336 336 338 339 339 339 339 339 338 338 337 336 336 335 334 333 332 330 328 328 329 330 329 329 328 327 326 325 325 326 327
360 351 348 346 347 349 348 344 342 339 337 337 336 337 337 338 338 336 335 334 334 335 336 335 335 335 336 336 335 336 338 339 338 338 339 339 340 340 340 338 338 337 336 335 335 334 333 332 330 328 328 328 329 329 329 329 328 326 326 326 325 325 326
351 342 342 344 344 346 346 343 340 338 337 336 335 336 336 336 337 336 335 334 335 335 335 334 334 334 334 334 334 335 337 339 339 338 340 341 341 341 340 338 337 336 335 334 333 332 331 330 329 328 329 328 329 329 329 328 327 327 327 326 326 326 326
359 343 341 344 345 344 344 342 339 338 337 336 336 336 335 335 335 336 335 335 336 335 335 334 333 333 333 334 334 335 337 338 337 338 340 341 340 340 339 337 336 335 334 333 332 331 331 330 329 329 329 329 329 330 329 328 327 327 327 326 326 326 325
359 345 342 344 344 344 343 341 339 338 337 337 336 335 335 334 335 335 336 337 338 337 335 333 333 334 334 334 335 336 337 337 337 338 339 338 338 337 336 336 335 334 333 332 332 332 330 330 329 328 328 329 329 329 329 328 327 327 326 325 324 323 322
345 340 341 343 343 343 342 341 340 339 338 337 336 335 335 334 334 335 336 338 340 340 337 335 335 335 335 335 336 336 337 337 337 338 338 337 336 334 333 332 332 332 331 331 331 331 330 329 329 328 328 328 328 328 328 327 326 325 324 324 323 321 319
337 337 340 341 341 341 341 340 340 339 338 337 337 336 336 336 335 336 338 339 341 342 340 339 339 338 337 336 335 335 336 337 337 337 337 336 334 333 331 330 330 330 329 329 329 329 329 329 328 327 326 325 325 325 325 325 325 323 322 321 320 318 317
338 338 339 339 339 340 339 339 340 339 337 338 338 337 337 338 338 339 339 340 341 342 340 339 338 338 338 337 335 335 336 336 336 335 335 334 333 332 330 328 328 327 327 327 327 327 327 327 326 324 324 323 322 322 321 321 320 319 318 317 316 316 316
340 340 339 339 339 338 338 338 339 338 338 338 338 338 339 339 339 340 340 341 340 338 337 335 333 335 337 337 336 336 336 335 335 334 333 331 330 329 329 328 325 323 322 323 324 324 324 323 323 322 322 321 321 320 319 317 317 316 315 315 315 315 316

ECMWFFLT1_925_thetae_024.txt.gz
Theta_e
347 348 349 348 349 350 352 353 351 352 353 352 353 354 354 354 354 355 355 355 354 354 355 355 355 356 356 357 356 357 356 356 355 353 354 353 344 336 335 335 335 335 335 335 336 337 337 336 335 337 339 338 337 337 336 337 337 337 337 337 336 336 335
347 348 349 349 350 351 352 351 351 352 353 353 354 354 355 355 355 356 355 356 355 356 356 356 356 356 356 356 356 356 356 355 354 354 355 351 341 335 334 334 335 334 334 336 337 338 337 335 336 338 339 338 336 336 337 337 337 336 337 336 335 335 335
347 348 349 349 350 351 352 351 351 352 353 354 354 354 355 356 356 356 356 357 357 356 357 356 356 356 356 356 356 356 355 355 354 354 355 351 340 335 334 334 334 335 335 337 337 337 337 335 336 337 337 336 335 335 336 337 336 335 335 335 335 335 334
347 348 348 350 351 350 352 352 350 352 353 353 354 354 355 356 356 357 356 357 357 356 357 357 356 356 356 356 355 355 355 355 355 355 355 350 341 336 335 335 335 335 336 337 337 337 336 335 335 336 336 335 334 335 336 337 336 335 335 335 335 335 334
346 348 348 349 351 351 352 352 350 352 352 353 354 354 355 355 356 357 356 357 357 356 357 356 356 356 355 355 355 355 355 355 355 355 354 349 341 336 335 334 335 335 335 336 337 337 335 334 334 335 334 334 334 335 335 335 334 334 334 335 335 335 334
345 346 348 349 350 351 351 351 350 351 352 353 354 354 355 355 355 357 356 357 357 357 357 357 356 356 355 355 355 354 354 354 355 356 353 346 339 335 334 334 335 335 334 335 337 335 333 333 334 334 334 334 334 333 332 332 332 332 333 333 333 333 332
345 346 347 348 349 350 350 350 349 351 352 353 354 354 354 355 355 356 356 357 357 357 357 356 356 356 355 355 354 354 354 354 355 354 349 341 337 335 334 334 335 334 333 335 335 332 332 334 335 334 335 334 334 332 331 331 331 330 331 331 331 331 331
345 347 346 347 348 348 350 351 349 350 352 352 353 354 354 355 355 356 356 356 357 357 356 356 356 355 355 354 353 354 354 354 354 352 346 340 336 335 334 335 335 333 333 335 333 331 332 335 335 335 335 335 334 333 331 332 332 332 332 332 332 332 332
345 346 345 346 346 347 350 350 348 349 350 351 352 353 353 354 355 355 356 356 356 357 356 356 356 355 355 354 353 353 353 353 353 351 345 341 337 335 334 335 335 333 333 334 333 332 333 333 334 334 334 334 334 333 332 332 332 332 333 333 333 333 333
348 347 347 347 346 348 350 349 349 349 349 350 351 352 353 353 354 354 355 356 356 357 356 356 355 354 354 353 351 351 351 350 352 350 344 340 337 334 334 335 334 332 332 334 335 334 333 332 332 334 334 334 334 333 333 332 332 332 333 333 333 333 333
349 347 347 348 348 352 353 352 352 350 348 349 350 351 352 352 353 353 354 355 356 356 356 356 355 355 353 351 349 349 348 349 350 347 341 338 337 335 334 335 334 333 332 335 336 335 334 332 332 332 333 334 333 333 332 332 333 333 333 332 332 332 332
349 348 348 350 351 353 354 352 353 351 348 347 349 350 351 351 352 352 353 354 355 355 356 355 355 354 352 350 348 347 347 346 345 341 338 337 337 335 335 335 335 335 334 335 336 336 335 334 332 332 332 333 333 333 333 333 334 333 332 332 331 331 330
348 347 346 349 350 352 354 352 352 352 347 346 347 348 349 350 351 351 352 353 354 354 355 355 354 353 351 349 347 347 345 341 339 338 338 337 334 331 335 337 336 336 336 336 336 336 334 333 331 330 331 332 333 333 333 333 333 332 331 330 330 330 330
350 349 347 350 350 351 354 353 352 352 347 344 346 347 348 349 350 351 352 352 353 354 354 354 354 352 350 348 347 345 341 339 341 340 337 337 330 323 331 338 337 336 336 336 336 335 333 331 330 330 332 333 333 331 330 331 331 331 330 331 331 331 331
351 351 349 351 352 352 353 352 352 352 347 343 343 345 346 347 349 350 351 352 353 353 354 354 353 351 349 348 346 343 339 342 345 338 333 336 330 320 327 337 337 335 336 336 335 333 331 330 330 331 333 334 332 329 329 330 330 330 330 331 331 331 331
350 350 349 350 352 351 351 352 352 352 348 343 341 343 345 346 349 350 351 352 352 353 354 353 352 350 348 346 344 342 340 343 342 335 333 336 329 319 326 336 338 336 336 337 335 331 328 328 331 332 334 335 332 329 330 330 330 330 330 331 331 331 330
348 347 349 349 350 351 352 352 351 352 353 346 340 342 344 345 348 350 351 352 353 353 353 351 350 348 347 345 343 341 341 342 339 336 337 338 332 325 327 333 337 337 337 337 334 329 327 328 331 333 335 336 334 330 330 331 330 331 332 333 333 332 331
347 348 350 350 351 354 354 353 353 355 353 345 340 342 343 344 347 349 351 352 352 352 352 349 348 347 345 344 342 341 341 341 339 338 338 339 338 335 331 333 337 337 337 337 331 327 328 329 330 333 335 336 334 331 331 331 331 332 334 335 334 334 334
349 350 351 351 353 355 354 354 353 349 344 340 340 343 343 343 347 348 350 352 351 351 350 348 347 347 345 343 342 340 340 339 337 338 338 337 338 339 337 336 337 337 337 336 330 328 328 328 329 333 335 336 334 332 332 331 331 332 334 334 335 335 335
352 351 352 353 354 354 355 358 352 342 340 341 341 343 343 345 346 347 349 351 351 350 349 347 347 346 344 342 341 340 339 336 334 335 334 331 332 336 338 337 336 336 338 336 334 333 331 329 331 334 335 336 334 333 332 332 332 333 333 334 335 334 332
353 354 355 357 360 359 361 367 358 343 341 343 342 342 344 345 346 347 349 350 350 349 348 347 346 344 343 341 340 339 337 334 332 332 330 327 327 333 337 337 336 337 335 331 332 334 334 334 335 336 335 335 334 333 332 331 332 333 333 334 334 332 331
354 356 357 360 367 368 363 360 355 347 344 346 344 344 344 345 346 348 349 349 349 348 346 345 344 342 341 339 339 338 335 333 332 331 330 329 330 334 338 337 337 335 329 325 327 331 334 335 336 336 335 336 335 334 332 332 332 333 334 335 334 332 331
350 357 364 362 358 355 348 344 345 346 346 348 348 347 346 346 347 349 348 348 348 346 345 344 342 341 339 338 338 337 334 332 331 330 330 330 332 335 337 338 337 332 327 328 330 333 335 336 336 336 336 336 335 334 332 332 332 334 335 335 334 332 330
344 349 356 350 341 340 341 343 345 346 347 349 350 349 349 348 348 348 348 347 346 344 343 342 341 340 339 338 337 336 333 330 328 327 329 332 333 336 338 338 335 331 330 332 334 335 335 335 335 336 336 335 334 333 332 332 333 335 336 335 333 331 330
351 351 348 341 337 340 345 347 347 347 348 349 350 350 350 349 348 348 346 345 345 343 342 341 341 340 339 338 337 335 332 330 327 327 330 332 333 335 337 336 333 331 332 333 333 333 333 333 335 336 336 335 334 333 333 334 335 335 335 333 332 330 329
367 369 358 347 345 345 347 349 347 348 349 349 350 350 350 349 349 347 345 344 343 342 342 341 340 340 339 338 337 335 332 331 330 329 331 333 335 336 336 334 332 332 332 332 332 332 333 334 335 336 336 335 334 333 334 335 334 333 333 332 330 329 329
359 359 354 348 348 350 349 350 349 349 350 350 350 350 349 349 348 345 344 343 341 341 341 341 340 340 339 338 336 334 332 332 332 332 333 335 336 337 336 334 332 332 332 332 333 333 334 336 335 335 335 334 334 334 334 334 332 331 331 330 330 329 329
359 358 354 350 350 351 351 351 350 349 349 349 349 348 348 348 346 344 342 341 340 341 341 340 340 340 339 338 337 334 333 333 333 333 334 335 336 336 336 334 333 333 333 332 333 333 335 335 335 334 334 334 335 335 334 332 331 330 330 330 329 328 327
360 359 355 351 351 351 349 348 346 345 346 347 347 347 347 345 343 342 341 340 340 340 340 340 341 340 339 338 337 335 335 335 334 334 334 335 336 336 335 334 333 333 332 332 334 335 335 335 334 334 334 334 334 334 333 331 330 330 329 329 328 327 327
354 352 348 346 349 351 349 347 345 345 346 346 345 344 343 343 342 340 340 340 339 339 340 340 340 340 339 338 336 336 336 336 336 336 335 335 335 335 334 334 333 332 332 334 335 335 334 334 334 334 334 333 332 331 330 330 329 329 329 329 328 327 326
349 347 344 343 346 349 350 348 346 345 344 342 341 340 339 340 340 340 339 338 338 338 339 339 340 340 338 337 336 336 337 337 337 336 336 335 335 334 334 333 332 332 334 335 336 335 334 334 334 333 332 332 330 329 329 329 328 329 328 328 327 326 325
350 342 341 344 345 347 347 346 344 342 341 339 338 337 337 337 339 340 338 337 337 338 339 339 339 339 337 336 337 336 337 337 337 336 336 336 335 335 334 333 332 333 335 335 335 334 334 333 333 331 331 330 329 328 328 328 329 328 328 327 326 326 325
360 344 338 342 345 344 345 345 342 340 340 338 336 336 336 336 338 338 337 336 336 336 337 338 338 337 336 336 336 336 336 337 336 336 337 336 335 334 334 335 335 335 335 334 333 333 333 332 331 330 329 329 328 328 328 329 329 328 327 327 326 326 326
360 347 340 341 344 344 343 343 341 340 340 339 338 337 336 335 336 337 336 336 335 335 336 336 336 336 335 335 335 336 337 337 337 337 338 337 337 336 336 336 336 335 335 334 334 334 333 331 331 330 330 329 328 328 328 328 328 327 327 327 326 325 325
346 340 339 340 342 342 342 341 341 341 340 339 338 338 337 335 335 336 336 336 335 335 335 335 334 335 334 334 335 335 336 337 338 339 339 338 337 336 335 334 333 333 333 333 333 333 332 331 331 330 330 329 328 328 327 327 327 327 326 325 324 324 323
337 335 338 340 341 342 343 342 341 340 339 339 339 338 337 336 335 335 336 336 336 336 335 334 334 333 333 333 334 334 335 335 337 338 337 336 335 333 331 330 330 331 331 331 330 330 330 330 330 329 329 328 327 327 327 326 326 326 324 324 323 322 320
337 337 338 338 339 340 340 341 341 340 339 339 339 338 338 337 335 335 335 336 336 338 337 335 334 333 334 334 334 334 335 335 336 336 336 335 334 332 329 327 327 328 328 328 328 329 329 329 328 328 328 327 326 325 325 323 322 322 321 321 320 318 317
338 339 339 339 339 338 338 338 339 339 338 338 339 338 338 337 336 335 336 336 336 338 338 337 335 334 334 334 334 335 335 336 335 335 334 333 331 330 329 328 326 323 323 325 326 327 327 327 327 326 325 324 323 323 321 320 319 319 318 317 316 316 316

ECMWFFLT1_925_thetae_027.txt.gz
Theta_e
346 346 348 350 350 349 350 352 354 355 355 355 354 353 353 354 354 354 354 353 352 353 353 352 352 352 352 352 351 351 352 353 353 352 353 353 354 354 354 351 346 341 338 337 336 336 336 336 336 336 336 335 336 338 338 337 337 336 337 338 338 339 338
345 346 347 348 349 349 350 353 355 355 355 355 354 354 354 355 355 355 354 354 353 353 352 352 352 352 352 352 352 352 352 353 352 352 353 353 354 355 353 351 348 342 338 336 336 335 336 336 336 336 336 335 337 338 338 337 336 337 339 338 338 339 338
346 346 347 348 350 350 351 353 355 355 355 354 355 355 355 356 354 354 355 355 354 354 354 353 352 351 352 352 352 352 352 353 352 353 354 354 355 355 353 351 347 339 336 336 335 335 335 336 336 336 335 335 338 339 338 337 337 337 339 338 339 339 338
347 347 347 349 351 352 351 352 354 355 355 355 355 355 356 355 353 353 355 355 355 356 356 354 352 353 353 353 353 353 354 353 353 354 355 355 355 354 353 350 344 337 335 335 334 334 335 336 337 336 335 336 338 338 337 336 337 337 337 337 338 338 337
349 348 348 349 349 350 351 351 354 355 354 355 356 356 356 356 355 356 357 356 356 356 354 353 354 354 353 353 353 354 354 355 355 355 355 355 355 353 353 350 342 335 335 334 334 334 336 337 337 336 336 336 338 337 336 335 336 337 337 336 337 338 338
348 348 349 349 348 349 350 350 352 354 354 355 356 356 357 357 356 357 357 357 357 357 356 356 355 354 354 354 354 354 355 355 355 355 355 355 354 353 353 351 342 335 334 334 334 336 337 337 337 336 336 336 336 336 336 336 336 337 337 335 335 336 337
348 349 349 349 348 349 349 349 350 353 354 355 356 357 357 357 357 357 357 358 358 358 359 358 356 355 355 356 356 356 356 355 355 355 354 353 353 353 354 350 341 335 334 335 335 336 337 337 336 335 334 335 335 335 335 335 335 334 333 333 333 333 333
347 350 348 349 348 347 348 349 350 353 354 356 356 357 356 356 357 357 358 359 359 359 359 359 358 357 356 357 357 357 356 354 354 353 352 352 353 353 354 349 341 335 335 335 334 335 336 336 335 332 333 333 334 335 334 333 333 332 331 331 331 332 332
346 350 348 347 346 346 349 350 352 354 356 357 357 357 357 357 358 358 358 359 359 359 359 359 360 358 357 358 357 356 355 354 353 352 352 353 353 353 353 349 341 335 334 334 334 335 335 335 332 331 332 334 334 334 334 333 332 332 332 332 332 332 333
348 350 349 348 347 349 350 351 354 356 357 359 358 358 358 358 358 358 358 359 359 360 360 359 360 360 359 359 356 355 353 353 352 351 351 352 352 354 353 346 338 334 334 334 334 334 333 331 330 331 333 334 334 334 333 332 332 332 333 333 332 333 333
349 351 350 350 349 351 352 351 356 357 358 360 358 358 359 358 359 358 358 360 359 360 360 360 361 360 358 358 356 354 353 351 350 350 350 350 352 354 350 342 336 334 333 335 335 333 331 330 330 332 333 334 333 333 332 331 332 332 333 333 332 332 333
349 352 351 351 352 353 354 355 357 357 358 359 357 358 359 359 359 358 358 359 359 359 360 360 361 359 358 358 355 353 352 350 348 348 348 350 352 352 346 339 336 334 334 334 331 328 330 330 330 332 333 332 332 331 331 330 331 332 333 332 333 333 333
349 351 350 351 352 353 356 357 357 357 358 358 357 357 359 358 358 358 359 359 358 359 360 360 360 358 357 357 354 352 351 349 347 347 347 350 350 347 342 338 335 334 334 333 326 324 328 331 332 334 333 332 331 330 330 331 331 332 333 333 333 333 333
347 348 348 351 352 353 356 356 357 357 357 357 357 357 358 357 357 358 358 358 358 358 359 360 359 358 358 356 354 351 350 348 346 345 347 349 346 342 341 339 335 333 334 333 329 328 330 329 331 335 334 332 331 330 330 331 331 332 333 333 333 332 331
345 345 346 349 351 354 355 355 356 356 356 357 357 356 357 357 357 358 357 357 358 358 359 359 358 358 358 356 353 351 350 348 345 344 345 348 347 343 341 339 335 332 332 334 333 329 327 327 331 336 336 334 332 330 330 331 332 332 332 331 331 330 330
345 345 346 348 351 353 354 354 355 356 356 357 356 356 356 356 356 356 357 356 357 357 358 358 358 358 358 356 353 351 349 346 345 343 343 345 345 342 338 336 334 331 330 333 332 324 322 328 334 336 336 335 333 331 330 331 333 333 331 330 330 330 331
345 346 346 347 350 351 352 353 354 354 354 355 356 356 355 355 356 355 355 356 357 357 357 357 356 357 357 356 354 351 348 346 345 342 342 343 340 338 337 334 331 331 332 331 328 321 321 331 336 336 336 335 333 331 330 331 334 333 330 330 330 331 332
347 348 348 348 350 351 351 352 353 353 353 354 355 354 354 355 355 355 355 356 356 357 356 356 356 357 356 355 354 351 347 346 344 342 341 341 338 337 338 333 329 332 334 329 324 321 325 334 337 335 333 330 328 328 329 332 334 333 330 330 331 332 333
348 348 348 349 349 349 349 349 350 352 352 352 353 352 352 353 353 353 354 355 355 355 355 355 356 356 355 355 353 350 347 345 344 342 340 339 338 339 337 332 329 331 330 326 325 328 331 336 337 333 329 326 326 328 329 331 334 335 331 330 331 332 334
348 346 347 347 347 348 348 349 349 351 352 352 350 349 348 348 349 350 352 353 354 353 354 354 355 355 355 354 351 349 346 345 343 342 339 338 339 338 334 330 328 327 325 325 330 335 336 337 336 330 326 326 328 328 327 327 332 335 333 331 331 332 333
346 346 346 348 348 348 349 349 349 350 350 349 346 346 347 347 348 349 350 352 353 353 353 354 354 355 354 352 350 348 346 345 343 341 339 338 337 335 333 331 327 323 322 325 331 336 336 337 336 330 326 327 327 325 324 325 330 335 334 332 332 332 332
344 345 346 347 348 350 351 350 349 350 349 347 345 347 349 349 349 350 351 352 353 353 354 354 354 354 353 351 349 347 345 344 342 340 338 336 334 332 332 331 327 322 323 327 333 337 337 337 335 330 328 328 328 327 327 328 332 335 335 333 332 331 332
342 343 345 347 348 352 353 352 351 351 348 347 347 348 349 349 349 351 352 353 353 353 353 353 353 353 352 350 348 346 344 342 341 340 337 334 333 332 332 330 329 328 330 333 337 338 337 337 336 332 331 332 332 329 328 329 332 334 335 335 333 331 333
340 343 346 346 349 352 353 353 354 351 348 350 350 348 347 347 349 352 353 353 353 352 352 353 353 352 350 349 348 345 343 341 340 339 336 333 332 333 332 332 333 334 335 337 338 338 336 336 334 332 331 331 330 328 328 331 334 334 335 335 332 332 334
342 343 346 348 351 353 353 353 353 351 351 352 351 347 344 346 349 352 354 353 352 351 351 352 352 351 349 348 347 345 341 339 339 339 336 333 332 332 333 333 335 337 337 337 337 337 335 333 332 330 328 327 328 330 333 335 336 335 335 334 332 333 334
348 347 349 351 353 354 354 354 354 356 357 354 351 348 346 348 350 353 353 352 351 351 351 351 350 349 348 347 346 344 341 339 339 338 336 334 333 332 332 334 335 336 336 336 337 336 335 333 332 333 333 332 333 334 335 335 335 335 334 333 334 335 333
352 353 353 353 353 353 354 354 354 355 354 351 349 349 348 349 352 353 352 351 351 352 351 350 349 348 346 346 344 342 340 339 338 337 336 335 334 334 334 335 336 336 336 337 337 335 334 333 333 335 337 337 337 336 335 335 334 334 333 333 334 333 331
354 355 354 354 354 353 354 355 352 350 348 347 348 349 348 349 352 352 350 350 351 351 349 348 347 346 345 345 343 342 340 338 337 336 335 334 335 336 336 337 337 337 337 337 336 335 335 335 335 336 337 336 336 336 335 334 333 333 334 334 333 331 330
355 354 354 355 354 352 353 354 351 348 346 345 346 347 347 349 350 350 350 351 350 348 346 346 346 345 344 344 342 342 340 338 336 335 334 334 335 337 337 338 338 337 337 337 336 336 337 338 338 336 335 334 334 334 333 333 333 333 334 333 331 330 330
353 353 354 356 354 353 353 354 351 348 345 343 344 345 346 348 350 350 350 350 347 344 344 345 344 345 344 343 342 342 340 338 337 335 334 336 337 337 338 338 338 337 337 335 336 338 339 339 337 334 333 333 332 332 332 332 331 331 331 331 330 330 329
351 353 354 355 354 353 353 353 352 349 345 342 342 343 344 346 348 350 349 347 343 342 343 344 344 344 344 343 342 342 340 339 338 336 336 338 339 338 338 338 338 338 337 336 337 339 339 337 334 333 334 333 331 332 332 330 329 329 329 329 329 329 328
350 352 354 354 353 352 351 352 351 350 348 344 341 343 345 344 345 348 347 344 342 342 343 343 344 344 343 343 342 341 340 340 339 338 338 339 338 338 339 338 338 338 337 337 338 338 338 336 334 333 333 333 333 334 333 330 329 329 328 328 328 328 326
348 348 349 350 349 349 350 352 351 350 350 346 342 343 344 342 342 344 343 341 341 342 342 343 343 343 342 342 342 341 341 340 339 338 339 339 338 339 338 338 338 338 338 338 338 337 336 336 334 332 332 333 334 334 332 329 328 328 327 326 326 326 326
347 347 347 347 347 347 349 352 351 349 349 347 343 342 341 340 340 340 340 340 341 340 341 343 343 342 342 342 341 340 340 340 339 339 339 339 338 338 338 338 338 338 338 338 337 336 336 335 333 331 332 333 334 333 331 329 328 327 326 326 326 325 325
346 347 347 347 347 346 348 350 349 348 348 346 342 341 341 340 339 339 339 339 339 339 340 341 341 341 341 340 340 340 339 339 340 340 339 339 338 337 336 336 336 337 336 336 335 335 335 335 333 332 333 334 333 332 331 330 329 327 327 327 326 325 324
347 346 345 344 345 345 346 347 346 346 346 344 341 341 341 340 340 339 339 339 338 337 339 340 340 340 340 340 340 340 339 340 340 340 339 338 336 334 332 332 334 335 335 335 335 335 336 335 333 333 333 333 332 331 331 331 329 327 326 325 325 323 323
343 345 345 344 345 346 346 345 344 345 345 343 341 341 341 341 340 339 339 339 338 336 337 339 340 339 339 339 339 339 339 340 340 339 337 335 333 332 332 331 332 332 333 333 333 332 333 332 331 331 331 330 329 328 328 327 326 324 323 322 322 321 321
337 340 342 343 344 345 346 345 344 344 343 341 340 341 341 341 340 339 339 339 339 337 337 338 339 339 338 338 338 338 338 338 337 335 333 333 332 332 331 330 327 326 326 328 329 330 330 329 329 329 328 327 326 326 325 323 322 321 320 320 319 318 318

ECMWFFLT1_925_thetae_030.txt.gz
Theta_e
353 354 354 354 355 355 356 356 358 359 359 360 361 360 360 360 360 361 362 363 364 364 365 365 365 365 365 364 363 363 364 364 364 363 363 362 360 359 358 357 357 355 353 351 349 347 346 345 344 343 343 342 343 343 343 343 342 341 340 340 340 340 340
353 353 354 354 354 356 356 357 359 360 359 360 361 360 360 360 360 361 362 363 364 364 365 365 366 365 365 364 364 364 364 364 364 364 363 363 361 360 359 357 357 356 354 352 349 348 346 345 344 343 342 343 343 343 343 343 343 342 341 340 340 340 340
352 352 353 354 355 357 357 358 359 360 359 359 360 360 360 360 360 361 361 363 364 364 365 365 365 365 365 365 364 364 364 364 365 364 362 362 362 361 359 359 358 356 355 353 351 349 347 346 344 343 343 343 343 343 343 343 343 343 342 340 339 339 339
352 352 353 354 356 357 357 357 359 360 359 358 359 359 360 360 361 361 361 363 364 364 365 365 365 365 365 365 365 365 365 365 364 364 362 362 362 361 360 359 358 356 354 352 350 348 346 344 344 343 343 343 343 343 343 343 342 342 342 340 340 339 340
352 352 352 354 354 357 358 357 358 360 358 358 359 359 360 361 361 361 362 363 363 364 364 364 365 365 365 365 365 365 366 365 364 364 363 362 361 361 359 358 358 356 354 352 350 348 345 343 342 343 343 343 343 342 343 343 342 342 341 340 340 340 340
352 352 353 353 353 355 357 356 357 360 358 358 359 360 360 360 360 361 362 362 363 363 364 364 365 366 365 365 365 365 366 365 364 364 363 362 361 360 358 358 357 355 353 351 349 346 344 342 342 342 343 343 342 341 342 342 342 341 341 340 340 340 339
352 354 354 353 353 354 354 355 357 358 358 358 358 360 360 359 360 360 360 362 363 363 364 364 365 365 365 365 365 365 365 365 365 364 363 361 359 358 358 357 356 354 353 350 347 343 342 342 341 343 343 342 341 341 341 341 341 341 341 340 341 340 339
354 356 355 353 353 352 353 355 356 357 358 358 358 359 359 358 359 359 360 362 362 362 363 363 365 366 365 365 365 365 365 365 366 364 361 360 357 357 357 357 355 353 352 350 345 342 341 340 342 344 343 342 342 341 340 341 341 341 340 340 340 339 338
353 356 354 353 351 350 352 354 356 357 358 359 359 359 360 359 360 360 359 361 361 362 362 362 364 365 366 366 366 365 365 365 365 362 360 358 357 356 357 356 355 353 352 350 345 340 340 341 344 343 340 340 338 336 336 340 341 340 339 339 339 338 338
353 356 356 354 351 350 352 353 357 358 359 361 360 360 361 360 360 360 360 360 361 361 362 362 362 365 366 367 366 366 366 365 363 361 359 357 356 356 357 356 354 353 352 349 344 340 340 341 340 337 336 336 331 327 333 340 341 340 339 339 339 339 338
354 358 358 355 353 353 353 356 360 360 361 364 362 362 363 361 361 361 360 361 360 361 362 362 362 364 367 367 366 366 366 364 362 360 358 357 356 356 356 355 354 353 351 347 344 341 339 336 333 333 334 334 327 323 331 338 340 340 339 339 339 338 338
356 359 359 356 355 355 355 359 362 362 364 365 364 363 364 363 362 361 361 361 361 361 363 363 362 364 366 367 366 365 365 364 361 359 358 356 356 356 356 354 353 352 350 346 343 341 338 333 331 332 333 332 327 322 325 332 339 341 339 338 339 339 339
357 358 357 356 357 357 359 363 364 364 366 366 365 364 364 364 363 362 363 363 361 362 363 363 363 364 366 367 365 364 365 363 360 358 357 356 355 355 355 354 352 350 348 344 341 340 338 335 333 332 331 330 327 323 323 329 337 339 336 336 338 337 338
356 355 356 356 358 360 362 364 365 366 366 366 365 364 365 365 363 364 365 364 363 362 363 364 365 366 367 367 365 364 365 362 360 358 357 355 355 355 354 352 351 349 346 342 341 339 335 334 334 332 330 329 325 324 327 332 335 335 333 332 332 333 336
354 352 355 356 359 361 362 364 366 366 365 366 366 364 365 364 364 365 365 365 364 363 363 365 366 367 368 368 366 364 364 362 360 358 356 354 355 355 353 352 350 348 345 342 340 338 333 331 332 331 331 330 326 328 334 334 331 331 331 330 330 333 337
354 352 353 357 360 361 361 363 366 365 364 365 365 364 365 364 365 365 365 366 365 363 364 366 367 368 368 366 365 364 363 362 360 358 355 353 354 354 353 351 349 348 346 342 339 338 334 330 331 332 333 331 328 332 337 334 328 329 331 329 329 333 337
354 352 352 356 359 361 360 362 364 364 364 364 365 366 365 365 366 366 365 365 365 365 365 366 368 369 367 365 364 362 362 362 359 357 354 353 354 354 352 350 349 348 346 340 336 335 331 327 330 335 335 330 329 334 336 332 328 329 331 328 327 331 335
355 354 354 357 359 360 360 360 363 364 363 363 365 367 366 366 367 365 365 365 365 366 365 365 368 368 367 365 363 362 361 360 358 356 354 353 354 353 352 350 349 347 344 340 338 335 331 330 334 337 335 334 336 337 335 330 329 331 332 329 328 330 333
355 355 355 357 360 360 359 359 361 362 363 364 366 366 365 366 366 366 365 365 365 366 365 365 367 367 367 366 363 362 361 358 356 355 354 353 353 353 352 350 348 347 344 343 341 339 337 337 338 338 337 337 337 336 334 333 333 333 332 328 327 330 332
354 355 355 356 358 359 359 359 360 361 363 364 365 365 364 365 365 365 365 364 365 366 365 365 366 366 367 366 362 362 360 357 356 355 353 352 352 352 351 349 347 347 345 344 342 340 339 338 338 340 340 337 334 334 336 336 334 331 329 326 326 330 332
355 355 354 356 358 358 359 359 359 360 363 363 363 364 363 363 364 365 364 365 366 365 365 366 365 365 366 366 362 361 359 357 355 354 352 351 351 351 350 349 348 346 345 343 341 339 338 337 338 340 337 332 332 336 337 336 333 330 328 325 325 329 333
352 352 353 356 357 357 358 358 358 361 363 362 362 361 361 361 362 363 364 364 364 365 365 365 365 365 366 364 362 360 358 356 354 354 352 351 351 350 349 349 348 346 345 343 340 338 336 334 336 338 333 328 332 338 336 333 332 332 329 325 325 328 332
347 348 350 352 354 357 359 358 359 361 360 360 358 357 357 358 360 363 364 363 363 364 364 364 364 365 364 363 361 359 357 355 353 353 352 351 350 349 348 348 347 345 342 340 338 336 334 332 337 339 334 329 333 338 337 333 332 331 327 324 325 328 332
345 347 349 352 355 358 358 357 357 358 358 357 356 355 356 357 360 363 363 363 363 363 364 364 364 364 363 362 360 357 356 355 353 352 352 350 349 348 348 348 346 342 339 337 335 333 332 333 337 338 333 331 334 338 337 334 334 333 330 328 328 331 334
346 348 351 353 354 355 356 357 358 358 358 358 358 358 359 360 362 363 362 362 362 362 362 363 362 362 363 362 359 356 355 354 353 352 351 350 349 348 348 348 344 339 336 333 331 331 332 335 337 337 334 334 335 337 336 335 335 336 336 336 335 334 335
350 350 351 353 356 359 362 362 360 359 360 361 362 361 360 360 361 362 361 361 361 361 361 362 362 362 362 360 358 355 353 352 352 351 350 349 348 348 348 345 341 338 335 332 330 329 332 335 336 336 337 336 335 335 336 336 336 338 338 337 336 335 335
353 354 352 355 359 361 363 362 360 361 362 363 362 360 359 361 362 362 363 362 361 361 361 361 362 361 360 359 356 353 352 352 350 349 349 349 348 348 346 342 338 337 335 334 332 332 334 336 337 336 336 336 335 336 337 338 339 339 339 337 336 335 334
353 355 356 359 361 361 360 362 362 362 362 362 361 360 361 362 363 364 364 362 361 361 360 360 361 360 359 358 355 352 352 350 348 348 349 348 347 345 342 339 337 337 336 336 337 337 337 338 337 337 336 337 338 339 339 339 339 339 339 337 335 334 333
355 356 357 359 359 359 360 362 361 360 361 361 361 362 363 364 364 364 363 363 362 361 360 360 359 358 357 355 353 351 351 350 347 346 347 348 346 343 340 338 337 337 337 338 340 340 339 339 339 338 339 341 341 338 338 338 338 337 337 335 334 333 333
353 353 354 355 357 358 360 361 361 360 360 360 361 362 363 362 362 362 363 363 361 358 358 358 357 356 354 353 351 351 350 349 347 346 345 346 344 342 340 339 339 339 340 340 340 340 339 339 338 339 340 342 341 338 336 337 337 336 335 334 333 333 332
356 357 358 359 360 360 360 362 362 360 359 359 360 361 361 361 361 363 363 360 357 356 357 356 355 354 352 351 350 349 349 348 346 345 345 343 342 342 341 341 341 342 341 340 340 340 339 338 339 339 339 340 340 340 338 337 336 336 334 333 332 332 331
358 359 362 363 363 363 361 361 361 359 359 358 357 358 359 360 361 362 359 355 354 355 355 353 352 352 350 349 349 348 347 347 346 344 344 343 342 342 341 341 342 342 342 341 340 339 339 339 339 339 338 339 339 339 337 336 335 334 333 331 329 329 330
354 356 359 361 362 361 360 360 359 358 357 356 355 355 355 356 358 357 354 353 353 354 353 352 351 350 349 349 348 347 347 346 345 344 343 342 342 342 341 342 342 342 341 340 340 339 339 339 339 339 339 339 338 337 337 336 334 332 331 330 329 328 328
352 354 356 357 358 358 358 358 358 356 355 355 354 353 353 353 353 353 351 351 351 352 352 351 349 348 349 348 347 347 346 345 345 344 343 343 342 342 342 342 341 341 341 339 339 340 339 339 340 339 338 338 337 336 337 335 334 333 333 331 331 330 329
353 354 354 355 355 356 356 356 355 354 353 353 353 352 352 352 352 351 351 350 350 350 350 349 348 348 348 347 346 346 345 345 344 344 343 343 341 339 338 336 337 339 340 339 340 340 339 339 339 338 338 337 335 334 335 335 334 334 333 332 331 331 330
352 353 353 352 352 353 354 354 354 353 353 353 353 353 352 351 350 350 349 349 348 349 349 347 347 347 346 346 345 345 344 344 344 344 344 343 339 335 333 332 333 336 337 337 339 340 339 339 338 337 337 336 333 332 333 333 333 333 332 331 330 329 328
349 350 350 351 351 352 353 352 352 352 352 352 352 352 351 350 349 348 347 347 347 347 347 346 346 345 345 344 344 343 343 343 344 343 343 341 337 333 330 329 331 333 334 335 337 337 337 336 335 335 335 334 333 333 332 331 332 332 331 330 329 328 327
346 347 348 349 351 353 353 353 352 351 351 351 351 351 350 349 348 347 346 346 345 345 345 345 345 344 343 343 343 343 343 343 343 342 340 339 336 333 330 329 329 330 330 332 333 333 334 335 334 334 334 333 333 333 332 331 331 329 328 327 326 325 324

ECMWFFLT1_925_thetae_033.txt.gz
Theta_e
352 348 346 351 357 357 355 358 357 357 357 358 360 359 357 357 359 361 364 367 370 371 372 371 370 369 368 368 367 365 365 364 363 363 364 363 361 359 358 357 356 354 353 351 350 350 349 348 346 345 347 345 343 344 344 344 343 340 340 340 340 340 340
352 349 347 352 357 358 356 357 358 358 357 357 359 359 357 357 359 361 363 367 370 371 373 372 371 370 369 369 368 367 366 365 364 364 364 364 362 361 360 358 357 356 354 352 351 350 348 348 346 345 346 344 343 344 344 344 343 341 340 340 340 340 340
349 350 351 354 358 359 358 357 359 359 357 357 358 359 359 359 360 361 362 367 371 371 372 373 372 371 370 370 369 368 368 366 365 365 364 363 363 362 360 359 358 357 356 355 353 350 348 348 347 345 345 345 344 344 344 343 343 342 341 340 340 340 339
344 349 353 357 358 360 360 358 359 361 358 358 360 361 362 361 362 362 363 367 371 371 372 373 372 371 370 370 369 369 369 367 365 365 365 364 363 362 361 360 360 358 357 356 353 350 348 348 347 346 345 345 345 344 344 343 342 342 342 341 340 339 339
348 351 353 357 357 359 360 359 360 361 360 359 361 363 363 363 365 364 364 368 369 370 371 372 371 371 371 371 369 369 369 368 367 366 365 364 363 363 362 361 360 359 357 356 353 350 349 348 348 347 345 345 345 344 344 344 342 342 342 341 340 340 339
346 349 353 356 357 359 359 359 360 361 360 360 362 363 364 365 365 365 365 367 368 369 370 371 371 371 372 371 369 369 369 369 368 367 366 365 364 364 363 362 361 359 357 356 354 351 350 349 347 346 345 344 345 344 344 343 343 343 343 341 340 340 340
342 348 354 357 357 358 358 359 360 362 361 359 361 364 364 364 364 363 363 366 367 369 369 369 370 371 371 371 370 369 369 369 369 368 367 366 365 365 364 363 362 360 358 356 354 352 351 348 345 345 345 344 344 343 342 343 343 343 343 341 340 340 341
340 347 354 357 357 356 358 359 359 361 362 359 360 363 363 362 363 361 361 364 366 367 368 367 369 370 371 371 370 370 369 369 370 369 368 367 366 366 365 363 362 360 359 357 355 354 352 348 344 344 345 344 344 342 342 343 343 343 343 342 341 342 341
345 354 357 356 353 354 357 359 360 362 363 361 360 363 363 361 361 360 360 362 364 365 365 365 367 370 371 370 370 371 370 369 370 370 368 367 366 366 364 362 361 360 359 357 356 354 351 347 344 343 345 345 345 343 341 343 344 343 343 343 342 342 341
349 359 361 357 353 354 356 357 363 365 366 366 365 363 363 362 361 360 360 362 363 363 364 363 364 368 371 372 371 371 370 369 369 370 368 367 367 365 363 360 360 360 359 357 356 354 351 347 344 344 345 345 344 342 341 342 343 343 342 341 341 341 340
350 360 365 361 356 357 355 359 367 370 371 372 367 364 365 363 361 361 361 362 361 362 363 363 363 367 370 371 370 370 371 370 369 370 368 367 366 364 362 359 359 360 359 358 356 353 350 346 343 344 347 345 344 343 342 342 342 342 341 340 340 340 340
356 365 368 364 360 359 361 367 371 372 374 372 366 365 366 365 363 362 362 362 360 361 363 363 362 366 370 371 369 369 371 370 369 369 369 368 365 363 361 359 359 360 359 359 357 353 350 346 343 346 347 344 343 343 342 341 341 342 341 339 340 340 339
364 368 368 364 361 361 365 370 371 370 371 370 366 365 366 366 364 363 364 363 361 361 363 364 364 365 370 371 369 369 370 371 370 369 369 368 365 362 360 359 360 360 358 358 356 353 349 345 346 348 347 343 341 340 339 339 341 343 341 338 339 339 338
368 367 367 364 362 363 365 368 370 370 369 369 368 366 367 367 365 365 365 364 362 362 364 365 365 366 370 371 369 370 371 371 371 370 369 367 365 362 360 360 360 360 359 357 354 353 349 346 347 348 345 342 340 339 338 339 341 343 341 337 337 338 339
365 364 365 363 362 364 365 367 370 371 370 369 369 368 368 368 366 366 367 366 364 362 364 366 367 367 371 372 371 371 371 372 372 370 368 366 365 363 362 361 361 360 359 357 354 352 349 346 346 345 342 339 338 339 339 340 341 341 340 338 337 338 341
355 358 361 364 365 365 366 368 371 372 371 371 369 369 370 369 368 368 367 367 365 362 364 367 368 369 371 371 372 372 372 373 372 370 368 366 365 364 363 362 361 360 359 357 355 352 349 346 344 341 338 337 337 340 341 341 340 337 336 338 339 339 340
342 344 346 356 363 366 366 369 372 373 372 371 370 371 371 370 370 369 368 368 366 365 365 368 370 371 371 372 373 373 373 372 371 369 368 365 365 364 363 362 360 360 359 357 356 353 348 345 342 340 338 337 337 339 339 340 339 332 328 334 338 339 338
338 338 339 347 362 369 368 369 372 374 372 370 371 371 371 371 371 369 369 370 368 367 367 370 372 372 372 374 374 373 372 371 370 369 366 365 364 362 361 361 360 360 359 356 356 353 347 344 342 339 338 337 337 338 337 339 339 330 323 326 331 333 335
336 337 338 344 356 365 368 367 369 372 373 371 372 371 370 371 372 370 370 371 370 368 368 371 373 373 374 374 373 373 372 370 369 368 366 364 363 360 360 359 359 360 358 356 355 351 346 344 341 337 336 337 338 337 337 341 342 334 325 325 327 329 331
337 337 338 341 346 355 366 369 368 370 373 372 370 370 370 371 372 371 371 371 371 370 369 371 373 374 375 374 373 372 370 369 368 366 365 364 362 360 359 359 359 360 357 356 355 350 346 342 339 337 337 339 339 337 338 343 342 333 326 326 328 328 329
341 340 338 344 348 353 364 370 368 369 372 370 369 369 370 371 372 371 371 373 372 371 371 372 373 375 375 374 373 371 369 368 366 364 365 364 360 360 359 358 359 359 356 356 355 351 347 342 339 337 338 339 338 337 339 341 337 327 324 327 329 330 329
337 336 338 348 355 362 369 369 367 370 370 369 369 369 369 371 372 372 372 374 373 372 372 372 373 375 375 374 373 370 368 367 365 362 363 362 360 360 359 358 358 357 357 356 354 352 348 342 338 339 340 341 341 339 338 337 332 325 325 328 330 331 329
334 335 339 345 353 365 371 368 367 370 369 368 369 369 369 371 372 373 374 373 373 373 373 373 373 375 375 374 373 370 368 367 364 361 361 361 360 359 357 357 357 356 356 355 353 352 348 343 341 342 343 343 341 337 335 334 332 330 330 330 330 329 329
335 335 342 349 356 366 370 368 368 368 368 369 369 368 369 371 371 373 373 373 373 373 373 373 373 374 374 373 372 370 368 366 363 360 359 359 359 357 355 356 355 355 355 353 352 350 348 345 343 343 342 340 336 333 330 330 333 334 333 331 329 327 329
337 336 344 353 359 365 367 365 366 367 368 370 369 368 370 370 371 373 372 372 371 371 371 371 371 372 373 372 370 368 366 363 361 360 358 358 357 356 355 355 354 354 353 351 350 348 347 344 342 341 340 336 332 330 328 329 334 335 333 331 328 325 328
341 338 343 352 357 363 365 365 367 369 370 369 367 367 367 369 372 372 369 368 368 368 369 369 369 371 371 370 369 367 364 361 360 358 356 356 356 356 355 354 354 352 350 349 347 344 342 341 338 338 339 336 333 331 330 330 334 335 333 332 330 328 329
345 345 349 355 360 364 366 367 369 368 366 365 364 364 366 369 371 369 366 367 367 367 368 368 369 371 370 368 367 365 361 359 358 357 355 355 356 355 353 353 353 350 348 347 344 340 338 338 336 336 338 338 335 333 331 331 334 334 334 335 334 333 334
349 352 355 357 361 364 365 365 365 363 363 363 363 363 367 369 369 367 367 367 367 368 368 369 369 370 368 366 365 362 359 357 356 355 355 354 355 354 353 352 352 350 347 345 342 338 336 336 335 335 338 339 337 334 333 334 335 337 338 337 337 337 336
354 356 358 361 362 362 363 364 363 364 364 364 364 366 368 368 368 368 368 368 368 368 368 368 368 368 366 364 362 360 358 356 354 353 353 353 353 353 352 351 349 347 345 342 339 336 335 334 334 336 339 339 338 336 336 337 338 339 340 338 338 339 337
358 360 362 362 361 361 362 364 366 366 365 365 366 368 368 368 368 368 368 368 367 366 367 367 365 365 363 362 361 359 356 354 353 351 351 352 352 352 351 349 346 345 343 341 339 337 336 336 335 337 340 339 338 339 339 340 339 338 337 337 337 337 336
360 360 360 360 361 363 365 367 368 366 366 367 368 367 367 368 368 368 368 367 365 365 365 364 362 361 361 359 359 357 355 353 352 351 351 351 351 351 350 347 346 344 342 341 341 340 340 339 339 340 341 340 340 340 340 340 339 337 336 336 335 334 334
361 361 362 364 365 366 365 365 366 366 367 366 364 365 366 367 366 367 365 364 363 364 363 361 360 360 359 358 357 355 353 352 351 351 351 350 350 350 348 346 345 344 342 342 342 342 343 342 341 341 340 339 340 340 339 339 339 336 335 336 335 333 333
361 360 362 362 362 361 361 361 362 363 365 365 364 364 364 363 363 363 362 362 362 361 361 360 359 358 357 356 355 353 351 350 350 350 350 349 348 348 347 345 345 344 344 343 343 343 343 342 341 341 340 339 340 340 340 340 338 336 335 335 334 333 332
361 361 361 361 361 362 362 362 362 362 363 364 363 362 361 360 360 360 359 359 359 359 359 358 356 355 355 353 352 351 349 350 350 349 349 348 347 346 346 346 345 345 345 344 344 344 343 341 341 340 339 339 340 340 340 339 338 337 335 334 333 332 331
359 359 361 361 361 361 362 362 361 361 361 360 360 359 359 358 358 357 358 358 357 357 356 354 353 354 353 351 350 349 348 348 349 348 347 345 342 341 342 341 342 343 344 343 343 343 342 340 340 340 338 338 339 340 340 339 338 337 335 333 332 332 331
354 355 357 358 357 357 359 359 358 358 357 357 357 357 357 356 356 356 356 356 356 355 354 353 352 352 350 349 348 347 347 347 348 347 346 342 339 337 336 336 338 340 341 340 340 341 340 339 339 338 338 339 339 339 339 339 338 336 334 333 332 332 332
350 350 353 355 355 356 356 356 357 358 357 356 356 355 354 354 353 353 353 354 354 354 353 352 351 350 349 348 346 346 346 346 346 348 345 339 336 335 334 333 334 336 337 338 339 339 338 339 339 339 339 339 339 337 337 337 337 336 334 333 332 331 331
350 349 350 352 354 355 355 355 356 356 355 355 354 353 352 352 352 351 352 353 353 354 353 352 351 350 348 346 346 346 345 346 347 348 344 338 335 334 333 332 332 332 333 336 338 338 338 338 338 338 338 337 335 334 335 336 336 334 333 333 332 330 329

ECMWFFLT1_925_thetae_036.txt.gz
Theta_e
351 352 351 353 357 357 358 362 361 358 359 360 361 361 361 361 362 362 365 368 370 371 370 368 366 366 367 367 367 365 364 364 364 364 364 363 362 361 359 359 358 356 354 351 350 350 350 350 349 348 347 344 343 343 344 344 342 341 340 340 340 340 339
351 350 349 350 354 357 357 359 360 358 358 361 361 361 361 361 361 362 364 368 370 371 371 369 366 367 367 367 366 365 364 364 364 364 364 364 363 362 360 358 357 355 353 351 350 350 350 349 348 347 348 345 344 344 344 344 343 341 340 339 340 340 340
350 350 349 350 354 357 358 358 358 359 359 360 361 361 361 360 361 362 364 368 370 371 371 370 367 367 367 367 366 365 365 364 365 364 364 364 364 363 360 359 358 356 354 352 351 350 349 350 348 347 348 346 344 345 345 344 343 341 341 340 340 340 340
352 351 351 353 355 359 358 357 357 359 359 358 358 359 361 361 361 362 363 367 369 371 372 371 369 367 368 368 367 366 365 365 365 364 364 364 364 362 361 360 358 357 356 353 352 352 350 350 348 347 347 346 344 344 345 345 343 342 341 340 340 341 341
358 355 353 354 354 358 358 356 356 360 360 358 358 359 362 362 361 362 363 366 369 371 373 372 370 369 368 368 367 366 365 365 365 364 363 364 364 363 361 360 359 358 357 356 353 352 351 349 348 347 347 346 344 344 344 344 343 342 342 341 340 340 340
358 358 358 354 351 354 357 355 355 358 360 359 358 361 362 362 360 361 362 365 368 371 373 373 372 370 368 367 367 367 366 366 366 364 363 364 363 363 362 361 361 359 358 357 355 354 351 349 349 347 346 346 344 344 344 344 344 342 342 342 341 340 340
353 356 357 356 354 353 354 354 355 358 360 359 358 360 362 361 360 359 361 364 367 371 372 374 374 371 369 368 368 367 366 366 366 364 364 364 363 363 363 362 362 360 359 358 356 354 351 349 349 348 347 346 345 345 344 344 344 343 341 342 341 341 341
351 356 356 355 355 352 354 359 359 359 360 360 358 360 361 361 360 358 359 362 365 370 372 373 374 372 368 369 369 368 366 367 367 365 364 365 364 363 364 363 362 361 360 359 357 355 352 349 349 348 347 345 345 345 345 345 344 343 343 343 342 341 340
351 357 358 356 351 350 354 359 362 362 362 362 361 360 360 360 359 358 359 362 364 369 372 372 374 373 369 369 369 368 367 367 367 366 365 365 364 364 364 364 363 362 361 360 358 356 352 350 349 349 347 345 344 345 345 344 344 343 344 344 343 341 341
354 358 361 356 351 352 354 357 364 368 368 366 362 361 362 361 361 361 360 362 364 368 371 371 372 372 370 370 369 368 367 368 369 367 366 366 366 365 364 364 364 363 361 360 359 356 353 351 350 349 347 345 344 345 345 344 344 344 344 344 342 340 339
359 362 363 359 358 360 359 359 366 374 375 371 365 363 365 364 363 363 362 362 364 366 369 369 369 371 371 370 370 369 368 368 369 369 367 367 367 366 364 365 365 364 362 361 359 357 355 352 350 349 347 345 344 344 344 343 343 345 344 342 342 339 338
360 367 368 366 368 367 365 367 372 378 380 373 367 366 367 366 365 364 363 362 363 364 366 367 366 369 372 373 371 369 370 368 368 370 368 367 367 366 365 364 365 365 363 361 360 358 356 354 351 348 346 345 345 345 343 342 343 344 343 342 342 340 340
367 373 372 372 376 372 374 382 380 380 381 375 368 366 367 367 365 364 364 362 362 362 364 365 365 367 372 373 370 369 371 369 367 369 369 366 366 366 365 364 364 364 363 362 361 359 357 356 352 349 346 345 346 345 343 342 343 344 342 340 340 339 341
372 373 374 376 380 378 382 389 387 383 381 378 370 366 368 368 365 365 364 361 360 361 363 364 364 366 371 372 370 368 370 369 367 367 367 367 365 365 365 364 363 363 362 361 361 359 357 356 353 349 346 345 346 345 343 342 342 343 342 340 338 338 341
368 368 372 374 379 382 383 388 391 387 382 380 374 368 369 368 366 366 363 362 360 359 362 364 364 366 370 371 371 370 370 370 368 366 366 367 366 365 365 365 363 362 361 361 360 359 357 356 352 349 347 346 346 345 343 341 341 343 340 336 335 338 341
357 360 368 372 376 380 381 384 390 388 385 384 378 371 370 369 368 367 365 364 362 359 361 364 364 367 370 372 372 370 371 371 369 367 367 368 368 366 366 366 364 362 361 361 360 359 358 356 351 348 348 348 347 345 344 342 342 342 337 330 331 336 340
348 351 361 372 375 376 378 383 387 387 385 384 379 373 370 369 369 368 367 366 364 361 362 364 366 367 370 372 372 371 371 371 370 370 368 369 369 368 367 366 364 362 361 362 361 359 358 355 352 349 349 350 347 344 343 342 340 341 336 331 333 338 339
347 350 359 371 375 376 377 378 381 384 381 378 377 375 371 372 372 369 367 367 365 363 364 367 368 369 369 372 372 372 373 372 372 372 370 370 370 370 368 366 363 363 362 363 362 360 358 356 352 350 350 350 346 343 341 339 338 340 336 331 334 338 338
347 350 358 370 376 376 374 371 373 379 378 374 375 374 371 372 373 370 369 368 366 365 367 369 370 369 370 372 373 373 374 373 374 373 372 372 371 369 368 366 365 364 363 363 363 361 359 357 353 351 350 349 345 342 340 337 337 339 335 330 334 337 336
350 349 352 365 373 373 372 372 374 377 377 375 374 372 371 371 372 371 370 369 368 367 368 371 371 370 372 374 374 375 375 374 375 374 373 372 370 369 369 366 365 364 362 363 362 362 360 357 353 351 348 346 344 341 340 337 336 338 336 332 336 337 336
353 352 350 360 370 375 377 378 380 379 378 376 373 371 370 371 372 372 371 371 371 369 368 371 372 372 373 375 376 375 375 376 375 374 372 371 369 368 367 365 364 363 362 362 362 361 361 356 352 349 346 344 342 340 339 336 336 337 335 332 335 337 338
341 343 345 352 364 379 384 379 377 380 378 375 373 371 370 371 372 372 373 373 372 369 370 373 375 374 375 376 377 376 376 376 374 373 371 369 368 367 365 364 363 361 361 361 361 360 358 354 350 347 344 343 342 340 337 335 335 337 336 332 334 338 339
335 335 340 343 346 365 380 378 373 376 378 375 373 372 370 371 372 373 374 374 372 371 373 375 377 377 376 377 378 376 376 374 373 372 370 368 367 366 364 363 361 361 361 361 360 359 355 351 348 345 343 342 340 338 337 335 336 338 336 331 331 335 336
332 331 337 342 337 348 369 376 375 374 377 377 374 371 371 372 373 374 375 375 373 371 373 376 377 378 378 378 377 375 374 373 371 369 369 368 366 364 363 362 360 361 361 361 360 358 354 350 348 345 343 342 340 339 338 338 341 342 338 332 330 331 333
335 332 335 340 339 347 365 373 374 374 376 376 374 372 372 372 374 375 376 376 374 372 374 376 377 378 378 377 376 374 372 371 369 367 366 365 363 362 361 361 359 360 360 359 358 357 355 351 348 344 343 342 341 341 339 340 342 341 337 334 332 331 332
344 344 341 339 348 364 373 374 375 378 377 375 374 372 372 374 376 376 376 376 374 373 375 376 377 377 376 375 375 373 371 369 367 365 364 362 361 361 360 358 358 358 359 357 356 355 354 351 348 345 343 342 342 341 339 339 339 335 332 331 330 330 330
352 352 342 334 353 373 378 376 377 377 374 373 374 371 372 375 376 376 377 376 375 375 375 376 376 377 375 374 373 370 369 367 365 363 362 360 359 359 358 357 356 357 357 356 354 353 352 351 349 347 345 344 344 342 338 336 334 331 330 331 330 329 329
357 357 349 351 366 375 375 374 376 373 371 373 373 371 372 376 377 378 377 376 376 376 375 375 376 375 373 372 370 368 366 365 363 362 360 359 358 357 357 356 356 356 355 354 351 350 349 348 346 345 344 343 341 338 336 332 330 329 331 333 333 331 330
363 361 360 368 373 371 370 372 373 372 371 372 372 372 375 377 377 377 376 376 376 375 374 375 374 373 371 370 368 366 364 362 361 359 358 357 357 356 356 355 355 354 353 351 349 346 346 345 343 342 342 341 339 337 334 331 329 328 329 333 334 333 330
360 359 363 369 370 367 368 373 375 374 372 371 372 373 375 376 375 374 374 376 374 373 373 373 371 370 369 367 364 362 361 360 358 357 356 356 356 356 356 355 354 353 351 350 347 345 344 343 342 341 340 339 339 338 336 334 332 328 328 332 334 334 331
359 359 363 368 369 368 370 373 375 374 372 373 373 373 373 373 372 373 374 374 372 371 371 370 369 368 366 363 361 359 358 357 356 355 355 355 355 356 355 353 353 351 349 347 345 343 342 342 340 339 339 339 339 339 339 340 337 333 332 334 334 333 332
360 361 363 366 369 369 369 371 371 371 373 374 373 372 372 372 372 373 372 371 371 371 369 367 366 365 364 361 360 358 356 355 353 352 353 353 354 355 354 352 351 349 346 345 344 342 342 341 340 340 339 340 340 341 343 343 340 337 336 336 334 334 335
349 351 354 357 362 367 369 370 371 372 373 373 372 372 371 370 370 370 369 368 368 367 365 365 364 363 362 360 358 357 355 354 352 351 351 352 353 354 352 351 350 348 346 345 344 343 343 342 341 341 340 340 342 343 343 342 339 338 337 336 336 336 337
349 350 348 346 349 354 357 360 362 364 365 366 367 368 368 367 367 366 365 365 365 364 363 362 361 361 360 359 357 356 354 353 352 351 351 351 352 352 351 350 349 347 346 345 344 344 345 344 344 343 341 341 342 342 343 341 339 337 337 336 336 336 335
347 348 346 345 347 349 350 350 351 353 356 359 362 363 364 364 363 363 363 363 363 362 361 360 359 359 357 356 355 353 352 351 351 350 350 349 348 348 347 346 345 346 345 344 344 345 345 345 344 343 342 342 342 341 342 341 339 337 335 335 335 335 334
347 348 346 345 347 348 349 351 353 355 358 360 362 362 362 362 361 361 361 361 361 360 358 357 356 355 353 353 352 351 351 350 349 349 348 346 345 344 342 341 341 342 343 343 343 344 345 344 343 343 342 341 341 341 341 340 339 336 334 334 334 334 333
346 348 347 348 350 352 353 354 357 358 358 359 359 359 359 360 360 358 358 358 357 357 356 355 354 352 351 351 350 348 349 349 348 347 345 343 342 341 338 336 336 337 338 340 340 341 342 342 341 341 340 339 340 341 339 338 338 337 334 333 333 333 333
345 348 350 352 354 355 356 356 357 356 356 356 356 355 356 356 356 356 357 356 356 355 354 354 353 351 349 349 348 346 347 348 348 346 343 341 340 339 337 335 334 332 333 335 336 338 339 339 339 339 339 339 339 339 337 337 338 337 334 333 332 332 332

ECMWFFLT1_925_thetae_039.txt.gz
Theta_e
349 349 351 353 353 354 355 356 355 352 352 356 357 357 358 359 359 361 363 364 364 364 364 363 364 364 363 362 361 361 362 362 362 362 361 361 360 360 359 357 355 354 354 355 354 354 353 352 351 350 348 345 344 343 340 338 340 341 341 340 340 339 337
350 348 351 353 353 355 357 356 353 352 353 355 357 358 358 360 360 362 363 365 366 365 364 364 364 364 364 363 362 362 362 362 362 362 361 361 360 360 358 356 356 355 354 354 354 354 353 351 350 350 348 345 343 341 340 339 338 341 342 341 342 340 337
350 350 352 354 355 355 358 357 354 353 353 355 357 358 359 360 360 362 364 365 366 366 366 365 364 364 364 364 364 363 363 362 363 363 362 361 360 359 358 357 356 356 355 354 353 352 351 350 349 350 348 345 343 341 342 340 334 338 342 341 341 340 338
351 353 353 353 356 356 358 359 356 353 352 354 357 358 359 360 360 362 363 365 367 367 367 366 365 365 364 364 365 364 364 363 363 363 362 362 361 360 360 358 357 357 356 355 353 350 350 349 348 348 348 346 343 340 343 341 335 338 342 340 340 341 338
353 354 354 353 354 357 359 359 357 354 352 354 357 358 359 360 360 361 362 364 367 367 367 367 366 365 364 364 365 365 365 364 363 363 362 362 362 362 361 360 358 358 356 354 352 349 349 349 348 348 348 347 344 340 341 342 337 340 342 338 338 340 339
353 353 354 354 352 355 357 356 356 355 354 354 356 358 359 359 360 361 362 363 366 366 367 368 367 366 365 365 365 365 365 364 363 362 362 362 363 363 362 361 359 357 356 354 352 349 349 349 349 348 347 347 345 341 341 342 340 340 342 339 337 338 338
351 352 353 353 351 352 353 354 354 354 355 355 356 358 359 359 360 361 361 363 365 367 367 368 368 366 366 365 365 365 365 364 363 362 362 362 362 363 363 361 360 358 356 354 351 350 349 349 349 348 347 347 345 342 342 343 342 341 342 341 339 338 338
350 352 351 351 351 349 351 354 353 353 355 355 356 359 359 359 360 360 361 362 364 367 368 368 368 367 366 366 365 365 365 364 364 362 362 363 362 363 362 362 361 358 357 355 352 351 350 349 349 348 347 347 346 344 342 343 343 342 341 342 342 339 338
348 351 351 350 349 349 351 354 354 352 353 354 355 358 359 359 360 360 360 362 363 366 367 368 369 368 367 366 365 365 365 364 364 363 363 363 363 363 363 362 361 359 357 356 354 352 351 350 349 348 347 347 346 344 342 343 344 342 340 341 342 341 339
350 350 351 351 349 350 352 354 355 355 355 356 356 357 359 359 360 359 360 361 362 364 367 368 368 368 367 367 366 366 365 364 364 363 363 363 362 363 363 362 361 360 358 357 355 354 352 351 350 349 347 347 346 345 343 342 343 343 340 340 342 342 340
354 353 353 353 352 352 354 355 357 358 358 358 356 357 359 359 359 360 359 360 361 363 366 367 368 369 368 367 366 366 366 365 364 364 363 363 362 362 362 362 362 360 359 358 357 355 354 352 351 349 348 347 346 345 343 342 343 344 342 340 341 342 341
356 356 356 356 355 354 356 358 358 360 361 360 357 358 359 358 360 359 358 359 360 362 364 366 368 369 369 368 367 366 366 365 365 364 364 363 363 362 362 362 362 361 360 359 358 357 356 353 351 350 348 347 346 345 344 343 343 344 344 342 341 341 341
355 355 355 356 355 356 360 363 362 364 364 361 358 358 359 359 360 359 359 359 359 360 363 365 367 370 369 369 368 366 366 366 365 365 364 363 363 362 363 362 362 362 361 360 360 358 357 355 352 351 349 348 347 345 344 344 343 344 344 343 342 341 341
353 353 356 355 354 358 362 364 366 368 368 364 359 358 359 360 359 360 359 359 358 359 362 365 367 370 370 370 369 367 366 365 365 365 364 363 363 362 363 362 362 362 362 361 360 359 358 356 353 351 350 348 348 346 345 345 344 344 344 342 341 342 343
353 353 356 356 357 361 365 365 366 369 370 368 362 358 360 360 360 360 359 359 358 359 361 365 367 369 371 371 369 367 366 366 365 365 365 364 363 362 362 362 361 362 362 362 361 360 359 357 355 353 351 349 348 347 345 345 345 344 344 340 339 342 344
356 356 357 359 361 363 365 365 366 368 371 373 367 361 360 361 360 361 360 360 359 359 361 365 366 369 370 370 370 367 366 366 366 365 365 365 364 363 362 362 361 362 363 362 361 361 359 358 356 354 351 350 349 347 346 345 345 344 344 340 334 338 343
365 365 366 370 373 371 370 371 370 369 373 376 371 362 361 363 362 361 362 361 360 359 361 364 366 368 368 369 369 367 367 366 365 365 365 365 365 364 363 363 363 362 363 363 362 361 360 359 357 355 353 351 349 348 346 345 345 344 344 342 333 332 340
376 376 375 380 383 381 382 387 384 377 374 374 370 364 362 364 364 363 362 362 362 361 361 363 365 366 366 369 369 368 367 366 365 365 365 366 365 365 364 364 364 363 363 364 363 362 361 359 358 356 354 352 349 348 347 346 345 343 343 343 336 332 337
369 373 374 378 380 378 379 382 386 383 376 371 368 365 364 365 364 364 364 363 363 362 361 362 364 364 365 367 368 369 368 367 367 366 365 365 365 365 365 364 364 364 363 363 363 362 361 359 358 356 355 353 350 349 347 346 345 344 342 342 339 334 336
364 363 363 366 371 372 370 373 379 378 372 369 368 367 365 365 365 365 364 363 363 362 361 361 363 364 365 366 368 369 369 368 368 367 365 366 366 366 366 365 365 364 364 364 363 362 361 359 358 356 355 353 351 349 347 346 345 344 343 342 340 337 335
370 369 363 363 368 369 367 369 377 378 372 367 367 368 366 366 366 366 365 364 363 362 360 361 363 364 364 365 367 369 369 369 368 368 367 366 366 367 367 366 365 365 364 364 363 361 361 359 358 356 354 352 351 349 348 346 345 344 343 342 340 338 335
361 368 367 368 372 373 372 368 368 371 371 368 368 368 366 366 366 366 366 366 365 363 361 360 362 365 364 366 367 368 369 370 369 369 369 368 368 369 368 367 366 365 364 364 363 362 361 360 359 357 354 351 350 349 348 347 345 345 344 342 341 339 337
344 350 357 365 368 367 365 363 362 362 366 367 368 368 367 366 367 367 367 367 366 365 364 362 364 366 365 366 368 368 370 371 370 371 370 370 370 369 369 368 366 365 365 364 363 363 362 361 360 357 354 351 350 349 348 346 345 345 344 342 341 340 338
332 332 342 354 364 366 361 360 362 362 365 368 368 368 367 366 367 368 367 367 367 366 365 365 366 367 367 367 368 370 371 372 371 372 371 371 370 369 368 368 366 365 364 363 363 363 362 362 360 357 354 352 350 349 347 345 345 344 343 341 339 339 337
340 341 341 338 343 353 360 362 363 362 365 368 368 367 368 367 367 369 368 368 368 368 366 366 368 369 368 369 370 371 372 372 372 372 371 370 369 368 368 367 365 365 364 362 362 361 360 361 359 356 353 351 349 348 346 345 344 343 341 339 338 338 336
351 357 364 356 344 340 347 358 366 368 368 369 369 368 368 367 368 369 369 368 368 368 367 367 368 370 370 371 373 373 373 373 372 372 370 369 368 367 366 365 365 364 362 361 361 360 359 359 357 354 351 348 347 346 344 343 342 341 339 338 337 337 336
355 357 368 372 359 343 344 354 363 369 369 370 370 369 368 368 369 369 369 369 368 369 368 367 370 373 373 373 375 374 374 373 371 370 369 368 367 366 365 364 363 362 361 361 360 360 358 357 355 351 348 345 344 343 342 342 341 340 339 337 336 336 335
359 361 366 371 366 360 360 364 366 368 371 372 371 370 368 368 369 369 369 369 369 369 369 369 373 374 374 375 375 374 373 372 371 370 368 367 366 364 362 362 361 360 361 360 359 359 357 355 353 350 348 345 343 343 342 341 341 341 340 337 336 336 336
355 359 362 365 364 362 364 366 364 363 368 371 370 370 371 370 369 370 370 370 370 369 370 373 375 375 375 375 373 372 371 370 369 368 366 365 364 362 361 360 359 359 359 358 357 356 354 353 352 350 347 345 343 343 343 341 341 341 340 339 339 338 337
353 352 352 356 357 354 356 362 360 353 355 361 362 365 369 371 372 370 370 371 371 371 373 375 376 375 374 373 371 370 369 367 366 365 363 362 362 361 359 358 358 358 358 356 355 353 351 350 350 348 346 344 342 342 341 340 340 340 340 341 342 340 338
350 350 349 350 350 348 351 359 359 351 350 355 356 355 359 364 368 370 371 372 372 373 375 376 375 374 372 370 368 367 365 364 363 361 360 360 359 358 357 356 356 356 355 354 353 351 349 347 346 346 344 342 340 340 339 338 337 337 338 339 338 336 335
347 347 347 347 347 347 347 350 352 350 349 351 353 353 353 355 358 363 370 374 375 374 376 374 372 370 368 366 365 363 361 361 360 359 358 358 357 357 356 355 355 353 351 350 349 348 347 345 344 343 342 341 340 339 338 337 336 335 335 334 332 330 331
346 347 347 346 345 345 345 346 350 351 349 348 349 351 352 352 350 350 358 370 374 373 373 370 367 364 363 362 361 360 359 358 357 357 357 357 356 355 354 354 353 351 349 347 346 345 345 343 342 342 341 340 340 339 339 339 338 337 336 334 331 330 331
344 345 346 347 346 345 344 345 347 348 347 346 347 348 348 350 349 347 352 363 369 369 367 364 362 361 360 359 358 357 357 356 356 355 355 354 354 353 351 352 352 350 348 346 345 344 344 343 342 342 340 340 340 340 340 341 340 340 338 336 334 331 329
343 343 343 345 345 345 346 347 348 348 346 345 346 346 346 347 349 350 352 357 362 363 361 359 359 359 358 356 355 354 353 354 353 352 351 350 349 347 347 348 349 347 346 345 344 344 343 342 342 341 341 340 340 340 341 342 341 341 340 339 336 333 330
343 342 343 343 342 342 344 346 348 347 346 344 345 345 345 346 349 352 353 354 356 357 355 355 356 356 355 354 353 351 351 350 349 349 349 347 346 343 342 343 345 345 345 344 344 344 343 343 343 343 342 342 341 340 341 342 341 340 340 338 336 334 332
342 343 343 343 343 342 342 344 345 345 343 341 342 344 344 346 348 351 351 352 353 354 354 354 354 353 353 352 351 350 349 347 346 347 346 345 344 343 339 339 340 341 342 343 343 343 344 344 344 344 343 343 342 342 342 342 341 340 338 337 335 334 334
336 340 342 344 345 344 342 343 344 343 342 342 343 344 345 347 350 351 351 352 352 352 353 353 352 351 350 350 350 349 348 346 345 344 343 341 342 342 340 339 337 336 337 339 340 341 343 343 344 344 343 342 342 341 341 341 340 338 336 335 335 335 334

ECMWFFLT1_925_thetae_042.txt.gz
Theta_e
346 346 345 346 346 346 348 349 347 346 346 348 348 348 351 352 355 357 357 357 358 358 359 358 358 358 359 359 358 358 358 357 357 357 358 358 357 356 355 356 356 356 356 356 356 355 355 355 354 353 352 351 348 347 347 348 347 343 339 338 338 336 334
347 348 347 347 347 347 348 348 347 346 347 349 349 349 350 352 354 357 358 358 358 358 360 359 359 359 358 359 359 359 359 358 357 357 358 358 358 357 356 355 356 356 355 355 355 355 354 355 354 353 353 351 349 348 347 347 344 340 338 340 339 336 335
347 348 348 347 349 348 348 348 347 346 346 349 350 350 351 352 354 356 358 359 359 359 360 360 360 359 359 359 359 359 359 359 358 358 358 358 358 358 357 356 356 356 355 354 355 354 354 354 353 352 352 350 349 348 347 346 342 339 339 341 339 336 337
348 348 348 347 349 349 348 349 348 347 347 348 351 350 351 352 353 355 357 359 359 359 360 361 361 360 360 360 359 359 359 359 358 359 358 359 358 358 358 357 357 356 356 355 354 354 353 353 352 352 351 350 350 348 347 345 341 339 340 341 339 337 338
348 348 349 348 349 349 349 349 348 347 347 348 350 351 352 353 353 355 356 358 359 359 360 360 361 361 361 360 360 359 359 359 359 359 359 359 359 359 359 359 358 357 356 354 353 353 353 352 352 352 351 350 350 348 346 344 340 338 340 341 339 339 340
348 348 349 348 349 349 350 349 348 348 347 348 350 352 352 353 354 355 356 358 359 360 360 360 361 361 361 361 361 360 359 360 359 360 360 360 359 359 359 360 359 357 355 354 353 353 352 352 352 351 351 350 349 347 345 343 340 337 339 341 340 340 341
346 348 348 348 349 349 349 349 348 347 348 349 350 352 353 354 355 356 357 358 360 360 361 361 361 361 361 361 361 361 360 360 360 360 360 360 360 360 359 359 359 358 356 354 353 353 353 353 352 351 351 349 348 347 345 343 340 338 338 340 341 341 341
346 348 348 348 348 348 349 350 350 348 349 349 350 353 353 354 356 357 357 359 360 361 361 361 361 361 362 362 362 362 361 361 361 360 360 360 360 360 359 359 359 357 357 355 354 354 353 353 352 352 351 349 347 347 345 342 341 339 338 339 340 341 340
346 348 348 348 347 347 349 350 351 350 349 350 351 353 354 355 356 357 358 360 360 362 362 362 362 362 362 362 362 362 362 361 362 361 361 361 360 361 360 359 359 357 357 356 354 354 353 353 352 351 350 349 347 346 345 343 342 341 338 337 339 341 340
347 347 349 349 347 349 349 350 353 354 353 352 351 353 355 355 357 357 358 359 360 362 363 363 363 363 363 363 362 362 362 362 362 362 361 362 361 361 361 360 359 358 357 356 355 354 354 352 351 350 349 348 347 346 345 344 343 341 340 337 338 340 340
348 348 349 349 349 350 350 352 356 357 357 353 351 353 355 355 357 357 357 359 360 362 363 363 364 364 363 363 362 363 363 362 363 362 362 361 361 361 361 360 360 359 358 357 356 355 354 352 351 349 348 347 347 346 346 345 343 342 340 338 338 340 340
349 350 350 351 351 351 352 354 357 358 358 354 351 353 355 355 357 357 357 359 360 361 364 364 365 365 364 364 363 363 363 362 363 363 362 362 361 361 361 361 360 359 359 357 356 355 354 352 350 349 348 348 347 346 346 345 344 342 341 339 338 340 340
350 351 350 351 351 351 353 355 355 357 357 355 351 352 355 355 356 357 357 358 359 361 363 364 365 365 365 365 364 363 363 363 363 363 362 362 362 361 361 361 360 360 359 358 357 355 354 352 351 349 349 348 347 347 346 345 345 343 342 341 340 340 341
351 349 349 351 351 351 354 354 354 355 355 355 352 352 354 355 356 357 357 358 359 360 362 363 365 365 365 365 364 364 364 363 363 363 362 362 361 361 361 361 360 360 360 359 358 356 355 353 351 350 349 348 347 347 346 345 345 344 343 342 341 340 341
350 348 347 350 350 351 353 353 355 354 354 354 353 351 353 354 355 357 357 357 358 359 361 363 364 365 366 365 365 364 364 363 363 363 362 362 362 361 360 360 361 360 360 359 358 357 356 354 353 351 349 349 348 347 346 345 345 344 343 343 342 341 340
353 349 347 348 350 351 351 352 354 355 354 355 354 352 352 354 355 356 357 357 358 358 360 362 363 365 365 366 365 365 364 364 364 363 363 362 361 361 360 360 360 360 360 360 359 358 357 355 354 352 350 349 348 347 347 346 345 345 344 343 342 341 340
352 350 348 348 349 351 351 352 353 354 356 357 354 352 352 354 355 356 357 357 357 358 359 360 363 364 365 365 365 365 365 364 363 363 363 363 362 361 361 360 360 360 360 360 359 358 358 357 355 354 352 351 349 348 348 347 346 345 344 343 342 341 340
352 351 351 351 353 355 354 353 355 356 357 356 354 352 352 354 355 356 356 357 357 357 359 360 362 363 364 365 365 365 365 364 364 364 363 363 362 361 361 360 360 360 360 360 360 359 358 358 357 355 354 352 350 350 348 347 346 345 345 344 343 342 340
358 353 354 356 357 359 357 354 355 357 358 356 353 352 354 354 355 356 357 357 357 357 357 359 361 362 363 365 365 366 366 365 364 364 363 363 362 362 362 361 360 360 360 360 360 360 359 359 357 357 355 353 352 351 350 349 347 346 345 344 344 343 341
363 357 358 357 356 357 356 356 357 356 355 355 354 355 355 354 356 357 357 357 358 357 357 358 360 361 363 364 365 366 366 365 365 364 363 363 363 362 362 361 360 360 360 360 360 360 360 359 358 357 357 355 354 352 351 350 348 347 346 345 345 345 343
365 362 359 359 358 357 355 357 359 358 355 354 355 356 356 355 356 357 357 358 357 357 357 358 359 361 362 363 365 366 366 366 365 365 364 363 363 363 362 361 361 360 360 360 360 360 360 360 359 358 357 356 355 353 352 350 349 348 346 345 346 345 344
357 359 359 360 362 365 364 358 355 355 354 353 355 358 358 357 357 358 358 359 358 357 358 358 358 360 361 363 365 365 366 366 365 365 364 363 363 363 362 362 361 361 360 360 360 360 360 360 360 359 358 357 356 353 352 351 350 348 347 346 347 346 344
346 351 358 363 362 362 360 354 353 353 353 353 355 357 359 359 358 359 359 359 358 359 358 358 358 359 361 362 363 365 366 366 366 365 364 364 363 363 362 362 362 361 361 360 360 361 361 361 360 359 359 357 356 354 353 351 350 349 347 347 347 346 344
352 353 356 359 362 361 354 351 354 354 355 358 358 357 359 360 359 360 360 359 360 359 359 359 358 358 360 361 362 364 365 366 365 365 364 363 363 363 362 363 362 362 362 361 361 361 360 361 361 360 359 357 356 355 353 352 350 349 348 348 347 346 344
358 359 358 355 358 360 353 350 355 355 356 360 361 360 361 361 360 361 361 361 361 360 359 359 358 358 360 360 362 363 364 366 366 365 365 364 363 363 363 363 363 363 362 362 362 361 361 361 360 359 359 357 356 355 354 352 351 349 348 348 347 346 344
356 358 359 356 355 356 349 347 354 359 357 357 360 362 364 363 363 362 361 362 361 360 360 360 359 359 359 360 361 362 363 365 365 365 365 364 364 363 363 363 363 363 362 362 362 362 361 361 360 359 358 357 356 355 354 353 351 349 348 348 347 346 344
351 352 353 353 353 355 354 350 351 355 356 356 358 361 362 364 364 362 362 363 362 361 362 361 360 360 359 360 361 362 363 365 365 366 366 365 365 364 363 364 364 363 363 362 362 362 361 360 359 358 358 357 356 354 353 351 350 349 348 347 347 346 344
349 349 349 350 350 351 352 353 354 356 358 359 360 360 362 364 364 363 363 363 362 363 362 362 362 361 359 360 362 362 363 364 365 366 366 366 366 365 365 364 364 363 363 362 361 360 360 359 359 358 357 356 354 353 351 350 349 349 348 347 346 346 345
347 347 347 348 347 348 351 354 354 353 357 361 362 363 364 364 364 364 364 364 364 364 364 364 363 362 361 361 362 363 364 365 366 367 366 366 366 366 365 365 364 363 363 361 360 359 357 357 357 356 353 350 348 348 348 348 348 348 347 346 345 345 345
346 345 345 345 345 346 348 351 351 351 354 359 361 363 365 364 364 364 364 365 366 365 365 365 364 364 365 364 364 365 366 367 367 367 367 367 366 365 365 364 363 363 362 361 359 358 355 354 352 350 348 345 343 344 345 346 346 346 346 345 345 344 344
345 345 346 344 343 344 346 348 349 348 349 352 355 359 362 364 363 362 362 365 366 366 367 367 367 367 368 367 367 368 368 368 368 367 367 366 366 365 363 363 362 361 360 359 358 357 354 351 349 348 346 344 342 342 342 342 343 343 343 343 342 342 341
342 343 345 345 344 344 345 346 347 347 347 348 349 351 355 358 360 360 361 363 366 367 368 369 370 371 370 369 370 369 369 368 367 366 365 365 364 364 363 362 361 359 357 356 355 354 352 350 348 348 346 344 343 342 342 342 342 342 342 341 340 340 339
341 342 343 344 345 345 345 345 346 347 347 347 347 349 351 353 354 354 356 359 363 365 367 368 370 370 369 369 369 368 367 367 365 363 363 362 361 361 360 359 358 356 354 354 352 350 350 349 348 346 344 343 342 342 341 341 341 341 341 341 340 339 339
342 342 342 342 344 345 345 344 344 345 345 345 346 347 350 351 352 351 351 354 356 359 363 365 365 365 365 365 363 361 360 360 359 359 358 357 357 357 356 355 355 354 353 353 352 350 348 347 346 346 345 344 342 340 338 338 337 338 339 340 339 340 339
340 342 343 342 343 344 344 342 341 342 342 342 343 344 347 350 351 351 351 352 354 356 359 359 359 359 358 356 353 351 349 348 349 350 352 351 351 351 350 351 352 353 353 352 353 354 352 349 347 346 346 345 343 341 339 337 337 339 340 339 339 339 339
338 340 342 343 342 342 342 341 340 340 341 341 342 343 345 347 349 350 351 352 353 353 354 353 352 350 349 348 346 344 344 342 341 342 345 346 345 345 345 346 349 352 352 351 351 352 352 351 349 347 346 345 343 343 342 342 342 342 340 339 338 337 337
336 338 341 343 343 342 341 341 341 341 341 342 343 343 345 347 348 347 347 348 348 348 349 348 347 345 345 344 342 341 341 340 338 338 339 340 342 343 342 341 343 346 348 348 347 347 347 347 346 345 344 343 343 342 342 342 342 341 340 339 338 337 335
334 336 338 340 343 343 343 342 342 341 342 343 343 344 346 346 346 346 346 346 346 344 344 344 344 343 343 342 341 340 339 338 339 339 339 340 341 342 340 338 336 336 339 342 343 344 343 344 343 343 343 343 342 342 341 340 340 340 340 340 339 337 334

ECMWFFLT1_925_thetae_045.txt.gz
Theta_e
341 342 341 343 345 344 345 345 343 342 342 343 344 345 347 349 350 351 351 352 353 353 354 354 356 356 356 357 356 356 355 355 356 355 355 355 354 354 354 355 356 356 357 357 357 356 355 355 356 357 357 356 355 355 354 351 347 346 346 345 344 342 339
341 341 341 342 344 345 346 344 343 342 341 343 344 344 346 348 350 351 351 352 353 353 354 354 355 356 356 356 356 356 356 355 356 355 355 355 354 354 354 355 356 356 356 356 356 356 355 354 355 356 356 355 355 354 352 349 347 347 348 347 345 342 338
342 342 341 342 344 344 345 345 343 343 342 342 344 344 345 347 349 351 351 352 352 353 353 354 355 356 356 356 356 356 356 355 356 355 355 355 354 354 354 355 356 356 356 356 356 355 354 354 356 356 355 354 354 352 350 348 348 349 349 348 346 343 339
343 343 342 342 344 344 345 346 344 343 343 342 343 344 345 346 349 350 351 352 352 353 353 354 355 356 356 356 356 356 356 356 355 355 355 355 355 354 354 355 355 355 355 355 355 354 354 355 356 355 354 353 352 350 349 349 348 349 349 349 347 344 341
344 344 343 342 343 344 344 345 345 343 343 343 343 344 345 346 348 350 351 352 352 353 353 354 354 355 356 356 356 356 356 356 356 355 355 355 355 355 355 355 355 355 354 354 354 354 354 355 355 355 354 353 352 350 350 349 349 349 349 348 347 345 341
345 345 345 343 342 344 344 344 344 343 343 343 343 344 345 345 347 350 351 352 353 353 353 354 354 355 356 356 356 356 356 356 356 356 356 355 355 355 356 356 355 355 354 354 354 354 354 355 355 355 354 353 352 351 351 351 349 348 348 347 348 346 341
345 345 346 344 343 343 343 343 343 343 344 344 344 344 345 346 347 349 351 353 353 353 354 354 355 355 355 356 356 356 356 357 356 356 356 356 355 355 355 355 356 355 355 354 354 355 355 355 355 354 354 353 353 352 351 351 350 348 347 347 346 343 339
344 346 345 345 344 343 343 344 343 343 344 344 344 345 346 346 347 348 350 353 353 354 354 355 355 356 355 356 356 356 357 357 357 357 357 356 356 356 355 356 356 356 356 355 355 355 354 354 354 354 354 353 353 352 351 351 350 348 347 346 344 341 339
344 346 345 345 344 343 344 344 344 343 343 344 344 345 347 346 347 348 350 352 353 355 355 355 356 356 356 356 356 357 357 357 357 357 357 357 356 357 356 356 356 356 356 356 355 354 354 354 354 353 353 353 352 352 351 350 350 348 347 345 343 341 339
344 346 347 347 344 345 345 344 346 346 345 345 344 345 347 348 348 349 350 351 353 354 355 355 356 357 357 357 357 357 357 357 357 357 357 358 357 357 357 356 356 356 356 356 355 355 354 354 354 353 353 352 351 351 351 350 349 348 347 345 343 341 339
347 347 347 348 346 347 347 346 348 349 348 347 344 345 347 348 349 349 349 351 352 354 356 355 356 357 357 358 358 358 358 358 358 357 358 358 358 358 357 357 357 357 357 357 356 355 355 354 353 353 352 351 351 350 350 349 349 348 347 345 344 341 339
347 349 348 348 348 347 348 349 350 351 351 347 344 346 347 348 350 350 350 352 352 353 355 356 357 357 357 358 358 359 359 358 358 358 358 358 358 358 358 358 357 357 357 357 356 356 355 354 353 352 352 351 351 350 350 349 348 348 347 345 343 342 339
347 349 347 347 348 347 349 352 352 351 351 348 346 346 347 348 350 350 351 352 352 354 355 356 357 357 358 358 359 359 359 359 359 359 358 358 358 358 358 358 358 358 357 357 357 356 355 354 353 352 352 351 351 350 349 349 348 347 346 345 343 342 340
346 348 346 347 348 348 350 352 352 352 352 349 346 346 348 349 350 351 351 352 353 354 355 356 358 358 358 359 359 359 360 359 360 359 359 359 359 358 359 359 358 358 358 357 357 356 356 355 353 352 352 351 351 351 350 348 348 347 345 344 343 342 341
349 347 345 348 350 350 351 350 352 353 352 351 348 346 348 350 350 351 352 352 354 354 356 357 358 359 359 359 360 359 359 360 360 360 360 360 359 359 359 359 359 358 358 358 357 357 356 355 354 353 352 351 351 350 350 348 348 347 346 344 343 342 342
350 347 346 349 351 351 351 349 351 352 352 353 351 348 348 349 351 352 352 353 354 355 356 358 359 360 360 360 360 360 360 360 360 360 361 360 360 360 359 359 359 359 359 359 358 357 356 355 354 353 352 351 350 350 349 349 348 347 345 345 344 343 342
350 347 347 347 348 350 350 349 351 351 353 354 352 349 348 349 351 352 352 353 354 355 356 358 359 360 360 361 361 360 360 361 360 360 361 360 361 360 360 360 359 359 359 359 358 358 357 356 354 353 352 351 351 350 349 349 348 347 346 345 344 344 343
351 349 347 348 349 349 350 350 350 351 352 352 350 348 348 350 351 352 353 353 354 355 356 358 360 361 361 362 361 361 361 361 361 361 361 361 361 360 360 360 359 360 359 359 359 358 357 356 355 354 353 352 351 350 349 349 348 347 346 345 345 344 344
348 348 347 347 349 349 348 348 348 349 351 349 348 348 349 350 351 352 353 353 354 355 356 358 360 361 361 362 362 362 362 361 361 361 361 361 361 361 360 360 360 359 359 359 359 358 358 357 356 355 354 353 352 351 350 349 348 347 346 346 345 345 345
354 352 350 348 350 351 349 348 348 347 346 345 346 348 349 350 351 352 353 353 354 355 356 357 359 360 361 361 362 362 363 362 362 362 361 362 361 361 361 360 360 359 359 359 359 358 358 358 356 356 355 354 353 352 351 350 349 348 347 346 346 345 345
364 360 356 354 352 350 349 349 350 349 345 344 345 347 349 350 351 352 353 353 354 355 356 357 358 359 360 361 362 363 362 363 363 362 362 362 361 361 360 360 360 359 359 359 358 358 358 358 357 357 356 355 354 353 352 351 350 349 348 347 346 346 346
369 360 357 359 359 357 355 350 347 346 345 344 345 346 348 349 350 351 352 353 354 355 355 356 357 358 359 360 361 362 363 363 363 362 362 362 361 361 361 360 360 359 359 359 358 358 358 358 358 357 356 356 355 354 352 352 351 350 349 348 347 346 346
360 357 357 359 359 357 352 346 344 344 344 345 347 347 347 349 349 350 352 353 354 354 355 355 356 357 358 359 361 361 362 363 363 363 362 362 362 361 361 361 360 359 359 358 358 358 358 357 358 357 357 356 355 354 354 353 352 352 350 349 348 347 347
353 355 356 355 360 360 351 345 345 346 345 347 348 348 348 349 349 350 352 352 354 354 354 355 355 356 357 358 360 361 362 363 363 363 362 362 362 362 361 361 360 360 359 359 358 358 358 358 358 357 357 357 356 356 355 354 353 353 352 351 349 348 347
352 353 352 351 357 361 353 347 346 347 348 348 348 349 350 351 351 351 352 353 354 354 354 355 355 355 356 357 359 360 361 362 363 363 363 362 362 362 361 361 361 360 360 359 359 358 358 358 358 358 358 357 357 357 356 355 355 354 353 352 350 349 349
351 352 351 348 348 351 351 350 350 351 351 350 350 351 351 352 354 354 353 353 354 354 355 355 355 355 355 356 357 359 360 362 362 363 363 363 363 362 361 361 361 360 360 359 359 358 358 358 358 358 358 358 357 357 356 356 355 354 354 352 351 350 349
347 347 348 347 346 348 350 350 351 353 353 353 354 355 354 355 355 355 355 355 354 355 355 355 355 355 355 356 357 358 360 361 362 363 363 363 363 362 362 362 361 361 360 360 359 359 358 358 358 358 358 358 358 357 357 356 356 355 354 352 352 351 349
346 346 345 345 345 347 348 349 349 350 352 356 357 358 359 358 357 356 357 356 356 357 356 356 356 356 356 356 356 357 359 360 361 363 363 363 363 363 362 362 361 361 361 360 360 359 359 358 358 358 358 358 357 357 357 356 356 355 354 353 352 351 350
346 347 346 345 345 345 347 349 349 346 348 354 357 360 360 360 359 359 357 357 358 358 357 357 357 357 357 357 357 357 358 360 361 362 363 363 363 363 362 362 361 361 361 360 360 359 359 358 358 357 357 357 356 356 357 356 355 355 354 353 353 351 350
344 345 345 345 345 345 346 348 347 346 347 350 354 357 359 359 360 359 358 359 359 359 359 359 358 358 358 357 357 357 358 359 360 361 362 363 363 363 362 362 362 361 361 361 360 359 358 358 357 357 355 354 353 354 354 354 354 354 354 353 353 351 350
343 343 345 345 345 344 345 346 347 346 346 347 349 353 355 356 358 358 358 359 360 361 361 360 360 360 359 358 358 357 357 358 359 360 361 363 363 363 363 362 362 361 361 360 359 359 358 356 355 355 353 351 349 350 351 351 352 352 352 352 352 351 350
342 342 343 345 345 345 344 345 346 346 347 346 346 348 351 353 353 353 354 356 359 361 362 362 362 362 360 360 359 358 357 358 359 360 361 362 362 363 363 362 362 361 361 360 359 358 357 355 353 352 350 348 347 347 347 348 350 350 350 350 350 349 348
342 343 343 344 345 344 343 344 345 345 345 344 343 345 348 350 351 351 351 353 356 358 361 363 364 363 362 361 360 359 359 359 359 360 361 362 363 363 362 363 362 361 360 359 358 357 355 352 350 349 347 345 344 345 345 346 346 347 347 347 346 346 346
342 343 343 342 342 342 341 341 342 343 342 342 342 344 346 347 349 350 352 353 354 356 358 360 362 362 363 364 363 362 361 360 361 362 362 362 363 363 363 362 362 360 360 359 358 356 353 350 348 347 346 344 342 341 341 341 343 345 346 346 344 343 343
342 342 342 342 341 341 341 341 341 342 342 342 343 345 345 346 347 348 350 352 353 355 357 357 358 358 360 362 364 364 363 362 362 362 363 363 362 361 361 362 362 360 358 357 356 353 350 348 347 347 346 346 344 342 340 338 341 345 346 344 344 343 342
340 341 342 343 342 342 342 342 342 343 343 343 344 345 345 346 345 345 346 347 350 354 356 356 357 357 358 359 359 359 362 364 363 363 362 358 354 351 351 353 358 359 355 351 351 350 348 348 348 347 348 348 348 348 347 346 347 348 345 343 343 343 342
338 339 340 341 341 342 342 342 343 343 343 343 344 344 345 346 345 345 344 343 345 349 351 353 353 353 353 352 350 350 352 355 359 362 359 349 343 342 340 338 341 346 350 350 348 346 345 348 348 348 349 349 349 348 349 349 349 347 345 344 342 341 340
333 335 336 336 337 337 338 338 339 339 340 340 341 343 345 346 345 345 344 342 342 344 345 345 344 343 342 342 343 343 343 343 345 350 350 343 339 339 337 332 330 332 338 346 349 346 345 346 346 345 348 350 350 348 347 347 346 345 344 343 341 339 338

ECMWFFLT1_925_thetae_048.txt.gz
Theta_e
343 345 345 345 346 346 347 346 344 343 343 343 343 344 346 348 350 351 351 352 352 352 353 353 353 354 354 354 354 354 354 354 354 353 353 353 352 352 353 353 353 354 354 354 354 354 354 353 354 355 355 354 355 356 356 357 356 355 355 354 353 348 345
343 344 344 344 345 346 347 346 344 342 342 343 343 343 345 347 349 350 350 351 352 352 353 353 353 354 354 354 354 354 354 354 354 354 353 353 353 353 353 353 353 353 353 353 353 354 353 353 353 354 355 355 355 356 356 356 356 355 354 355 353 349 345
342 342 343 343 345 345 346 346 344 343 342 342 342 343 344 346 347 349 350 351 351 352 352 352 353 353 354 354 354 354 354 354 354 354 354 353 353 353 353 353 353 352 352 353 353 353 353 352 352 354 355 355 355 355 355 355 356 355 354 355 354 349 345
341 341 342 342 344 344 345 345 344 343 342 342 343 342 343 345 346 348 349 350 350 351 352 352 352 353 353 354 354 354 354 354 354 354 354 354 353 353 353 353 353 353 352 352 352 352 352 352 353 354 355 355 356 355 355 355 355 354 354 354 354 348 345
341 341 341 341 342 343 344 345 343 342 342 342 342 342 343 344 345 347 348 349 350 350 351 352 352 353 353 354 354 354 354 354 354 354 354 354 354 353 353 353 353 353 352 352 351 351 352 353 354 355 355 355 356 355 355 355 355 354 353 354 353 349 346
342 342 341 340 341 342 342 343 342 342 342 342 342 342 343 343 344 346 347 349 350 350 350 351 352 352 353 354 354 354 354 354 354 354 354 354 354 353 353 353 353 353 353 352 351 351 352 354 355 355 355 355 355 355 355 355 354 353 353 353 351 349 347
342 342 342 340 340 340 341 342 342 341 342 342 342 342 342 342 343 345 346 348 349 349 350 350 351 352 353 353 354 354 354 354 354 354 354 354 354 354 353 353 353 353 353 352 351 351 352 354 354 354 354 354 354 354 354 355 354 353 352 351 350 348 347
342 343 343 341 340 339 339 341 342 341 341 342 342 342 342 342 343 344 346 347 348 349 350 350 351 352 352 353 354 354 354 354 354 354 354 354 354 354 354 353 354 353 353 352 352 352 352 353 354 354 354 354 353 354 354 355 354 352 351 350 349 348 348
342 344 344 342 340 339 340 341 341 341 341 342 341 341 342 342 343 344 345 346 348 349 349 350 351 351 352 353 353 354 354 354 355 354 354 354 354 354 354 354 354 353 353 353 352 352 352 352 354 354 354 354 353 354 354 355 354 352 351 350 349 349 348
344 344 344 344 342 341 341 340 342 343 343 343 342 341 342 342 343 343 344 346 347 349 349 350 350 351 351 353 353 354 354 354 355 354 354 354 354 354 354 354 354 354 353 353 352 352 353 352 353 353 353 353 353 354 354 354 354 352 351 351 349 349 349
345 345 346 348 347 345 343 343 345 346 346 344 342 342 342 342 343 343 344 346 346 348 349 349 350 351 351 352 353 354 354 354 355 354 354 355 354 354 354 354 354 354 354 354 353 353 353 353 353 353 353 353 353 353 353 353 353 352 351 351 350 350 349
348 351 352 353 351 348 346 346 346 347 347 344 341 342 342 342 343 343 343 345 346 347 349 349 350 351 351 352 352 353 354 354 355 355 355 355 354 355 355 354 354 354 354 354 354 354 353 353 353 353 353 353 353 353 353 353 352 352 352 351 351 350 349
349 352 352 352 351 349 348 349 348 347 347 344 341 342 342 342 343 344 344 345 345 347 348 350 351 351 352 353 353 353 354 354 355 355 355 355 355 355 355 355 355 355 354 354 354 354 353 353 353 353 353 353 352 352 352 352 352 352 351 351 350 349 348
345 348 349 350 350 349 350 350 349 348 347 344 342 342 343 343 343 344 344 345 346 347 348 350 351 351 352 353 353 354 354 354 354 355 355 355 355 355 355 355 355 355 355 355 355 354 354 353 353 353 353 353 352 352 352 351 351 351 351 350 350 349 348
348 347 347 350 350 350 351 349 349 349 348 346 343 342 342 343 343 344 345 345 346 347 348 350 351 352 353 353 354 354 354 354 354 354 355 355 355 356 356 356 356 356 355 355 355 355 355 354 353 353 353 352 352 352 352 351 351 351 351 350 349 348 347
347 345 343 347 348 348 348 349 349 349 349 349 347 343 342 343 344 345 345 346 346 347 348 349 351 353 353 354 354 354 355 355 355 355 355 355 355 356 356 356 356 356 356 356 355 355 355 355 354 353 353 352 352 352 351 351 350 351 351 350 349 348 347
342 344 343 344 346 346 347 348 349 350 350 350 348 344 342 343 344 345 345 346 347 347 348 350 351 353 353 354 354 354 355 355 355 356 356 356 356 356 356 356 356 356 356 356 356 356 355 355 355 354 353 353 352 351 351 351 350 351 351 350 349 348 347
351 350 348 346 345 347 347 347 348 349 349 348 345 343 343 344 344 345 346 347 347 348 349 350 351 353 353 354 354 355 355 356 356 357 357 356 357 356 356 356 356 356 357 357 357 356 356 355 355 354 354 353 352 352 351 351 351 351 350 350 349 349 348
358 351 349 348 349 348 346 345 346 347 347 346 344 343 343 344 344 345 346 346 348 348 349 351 352 352 353 354 355 355 356 356 356 357 357 357 357 357 357 357 357 357 357 357 357 357 356 356 356 355 354 353 353 352 352 351 351 351 350 350 350 349 348
361 358 354 351 350 348 347 346 346 346 344 344 344 343 344 344 345 346 347 347 348 349 350 351 352 353 354 354 355 356 356 356 357 357 357 358 357 358 358 357 357 357 357 357 357 357 357 356 356 355 355 354 353 352 352 351 351 351 350 350 350 349 348
368 370 368 360 354 353 353 354 353 350 344 341 343 344 344 345 345 346 347 348 349 350 351 352 353 353 354 355 355 356 356 357 357 357 358 358 358 358 358 358 358 358 357 358 357 357 357 357 356 356 355 354 354 352 352 351 351 351 350 350 350 349 348
362 363 363 360 359 359 357 353 349 348 344 340 342 344 344 345 346 347 348 349 349 351 351 352 353 354 355 356 356 357 357 357 358 358 358 358 358 358 358 358 358 358 358 358 358 358 358 357 357 357 355 355 354 353 352 352 351 351 350 350 350 349 348
351 353 354 352 352 353 350 345 340 339 340 340 342 344 345 346 346 347 349 350 350 351 352 352 354 354 355 356 357 358 357 358 358 358 358 358 359 358 359 359 359 359 359 358 358 358 358 357 358 357 356 356 355 354 353 352 352 351 350 350 350 348 347
347 349 349 347 349 350 347 346 343 339 340 341 342 343 344 346 347 348 349 350 351 352 352 353 354 354 355 356 357 358 358 358 359 359 359 359 359 359 359 359 359 359 359 359 358 358 358 358 358 357 357 356 355 355 354 353 353 352 351 351 350 349 347
346 346 345 346 348 350 348 348 345 342 341 341 342 343 344 346 348 349 349 350 351 352 352 353 353 354 355 356 357 358 358 359 360 360 360 360 360 360 359 359 359 359 359 359 359 358 358 358 357 357 357 357 356 355 354 354 353 352 352 351 350 349 347
346 346 345 346 347 348 348 348 347 348 348 346 345 344 344 346 347 348 349 350 350 351 352 352 353 354 354 355 356 358 358 359 360 360 360 360 360 360 360 360 360 360 359 359 359 358 358 358 358 357 357 357 356 356 355 355 354 353 353 352 351 350 348
345 345 345 345 346 347 348 347 348 349 348 349 351 349 345 346 347 348 349 349 350 351 352 352 353 353 354 354 355 357 358 359 360 360 361 361 361 360 360 360 360 360 360 360 359 358 358 358 357 357 357 357 356 356 356 355 354 354 354 353 352 351 349
345 345 346 345 345 347 347 347 347 347 346 349 353 353 351 349 348 348 349 349 350 351 351 352 352 352 353 354 355 355 357 358 359 360 361 361 361 361 360 360 361 360 360 360 359 359 358 358 357 357 357 356 356 356 356 356 355 355 354 353 353 352 350
346 346 346 345 346 346 346 346 346 345 345 347 350 354 355 354 352 351 350 349 350 351 351 351 352 352 353 353 354 355 356 357 358 359 360 360 361 360 361 361 361 360 360 360 359 359 358 358 357 357 356 356 356 356 356 356 356 355 355 354 354 353 352
345 345 346 345 345 346 346 346 346 345 344 344 346 350 353 355 355 354 353 352 353 355 355 354 353 352 353 353 353 354 355 356 357 358 359 360 360 360 361 361 360 361 360 360 359 359 359 358 357 357 356 356 356 356 356 356 356 356 355 355 355 354 353
344 344 345 344 343 344 345 345 345 344 343 343 345 347 350 352 353 351 351 353 355 357 359 357 355 354 353 353 353 353 354 355 356 357 358 359 360 360 361 361 361 361 360 360 360 359 359 358 357 356 356 356 355 355 355 355 355 355 355 355 355 355 354
343 342 342 342 342 342 342 343 344 344 344 343 343 345 346 348 350 349 350 353 355 356 358 359 359 357 355 354 354 354 354 354 355 356 357 358 359 360 361 361 361 361 360 360 360 359 359 359 358 357 357 356 356 355 354 353 353 354 354 355 354 354 354
342 342 341 342 342 342 342 344 344 345 345 343 343 343 344 345 345 346 348 351 354 354 355 358 361 360 359 358 356 355 355 355 354 355 356 356 358 359 360 361 361 361 360 360 359 360 359 359 358 357 357 357 356 354 352 349 348 350 352 353 353 352 353
342 342 342 342 342 343 343 344 344 345 344 343 343 344 344 344 343 343 343 347 350 353 354 356 358 360 361 361 360 359 359 358 357 356 355 355 357 358 359 361 360 361 360 360 360 360 360 359 358 357 357 357 355 352 348 345 345 347 350 351 352 351 350
343 342 342 342 342 343 343 343 344 344 344 343 344 344 344 345 343 342 341 342 345 350 353 354 356 357 358 359 360 361 361 362 362 360 357 356 357 357 358 359 360 360 361 360 360 360 360 359 359 357 357 357 354 350 346 343 345 348 351 353 354 354 351
339 339 340 340 340 341 341 342 342 342 342 342 343 344 345 345 343 341 341 341 342 345 348 351 353 352 352 353 353 353 354 356 356 356 356 356 357 357 358 359 359 360 360 360 360 360 360 360 359 358 357 355 353 350 348 347 348 350 351 353 353 353 352
335 335 336 336 337 337 338 339 339 340 339 340 341 343 344 345 343 341 340 341 341 342 344 346 346 344 343 343 344 344 345 345 345 345 346 347 348 351 353 354 356 357 355 356 358 359 360 359 358 358 357 353 350 348 347 346 347 349 350 351 351 350 349
331 331 332 332 333 334 335 336 337 338 338 339 341 343 343 344 343 340 338 339 340 340 340 341 341 339 338 339 340 341 341 340 340 340 340 339 340 341 344 345 346 347 348 350 355 358 359 359 358 356 354 351 348 347 345 343 344 347 349 349 348 347 346

ECMWFFLT1_925_thetae_051.txt.gz
Theta_e
349 350 350 351 351 351 351 352 352 353 353 353 353 353 353 354 355 357 357 357 357 358 358 357 357 357 357 357 356 355 355 355 354 353 353 354 353 354 353 352 353 354 354 354 353 351 350 351 351 352 353 354 356 358 358 357 356 353 354 356 356 356 354
349 349 349 349 350 350 351 352 353 353 352 352 353 352 352 353 355 356 356 357 357 357 358 357 356 357 357 357 357 356 356 355 355 354 354 353 352 352 351 351 351 351 352 352 351 351 350 350 350 351 353 353 355 357 358 358 356 354 354 356 356 356 355
348 349 349 349 350 350 351 351 352 352 351 351 352 351 352 352 354 355 356 357 357 356 357 357 356 356 356 356 356 356 355 356 356 355 354 354 352 352 352 351 351 351 351 351 351 351 351 351 351 351 352 353 354 356 357 358 357 356 355 355 356 356 355
348 347 348 349 350 351 351 351 351 352 351 350 350 350 351 351 351 353 355 356 356 357 357 356 356 356 356 356 357 356 356 356 356 355 355 355 354 353 353 353 351 351 352 352 351 352 352 352 352 352 352 352 353 355 357 357 357 357 356 355 355 356 356
346 347 347 348 349 350 349 349 350 351 350 349 349 350 350 350 351 352 353 355 356 356 356 356 356 357 357 356 357 357 356 356 356 356 356 356 355 354 354 353 353 352 352 352 352 352 352 352 353 352 353 353 353 355 357 357 357 357 357 356 355 356 355
344 345 346 347 346 348 349 348 348 350 350 349 349 349 350 349 349 351 352 354 355 355 356 356 356 357 356 357 357 357 357 356 356 356 356 356 356 356 354 353 353 353 353 352 352 352 352 352 353 353 353 353 354 355 355 356 357 357 357 356 355 356 355
344 346 346 345 345 346 346 346 347 349 349 349 348 348 348 348 349 349 351 353 354 355 356 356 356 356 356 356 357 357 357 357 357 356 356 357 356 356 355 354 354 353 353 353 352 352 352 353 353 352 353 353 354 354 353 354 356 355 356 356 355 355 355
345 348 345 344 344 343 345 346 347 348 348 348 348 348 347 347 348 348 350 352 352 353 355 355 355 356 356 356 357 357 357 357 357 356 357 357 357 357 356 355 354 353 353 353 353 353 352 353 352 352 353 353 353 353 352 352 354 353 354 355 355 355 354
342 347 347 343 341 341 343 345 346 348 350 349 348 347 347 347 347 348 349 350 351 353 353 354 355 356 355 356 356 357 357 357 358 357 357 357 357 357 357 356 355 354 353 354 353 353 352 352 353 352 352 352 352 352 351 351 353 352 352 353 354 354 354
343 347 349 345 341 342 343 344 347 349 351 351 350 349 348 347 347 347 348 350 350 352 353 353 355 355 355 356 356 357 357 358 358 357 357 357 357 357 357 357 356 355 354 354 354 354 353 352 353 353 352 352 352 353 352 351 351 352 352 353 353 354 354
346 350 352 348 346 346 344 344 349 352 352 352 350 349 349 347 347 347 347 349 349 350 352 352 354 355 355 355 356 357 358 358 358 358 358 357 357 357 357 357 357 356 355 355 355 355 354 353 353 353 353 352 352 352 352 351 351 351 353 353 353 353 354
346 351 352 351 350 350 348 349 351 352 353 352 350 350 349 348 348 347 347 348 348 349 351 352 353 355 355 355 355 357 358 357 358 357 357 358 357 357 357 357 357 357 356 355 355 355 355 354 353 353 353 352 352 352 351 351 351 351 352 353 353 353 353
344 346 348 350 352 352 354 355 354 352 353 352 349 349 349 348 348 347 347 348 347 349 351 353 354 354 355 355 355 356 358 357 358 357 358 358 358 357 357 357 357 357 357 356 356 356 356 355 354 354 353 352 352 352 352 351 352 352 352 353 352 353 353
340 341 343 347 350 354 357 356 354 354 353 351 350 349 349 348 348 347 347 348 348 348 351 352 352 353 354 355 355 357 358 357 357 358 358 358 358 358 357 357 357 357 357 357 357 356 356 356 356 355 353 353 352 352 352 352 352 352 353 353 353 353 352
342 338 341 346 349 354 356 356 355 356 354 351 350 350 349 348 348 347 347 348 349 348 349 351 350 351 354 355 356 357 357 357 357 358 358 358 358 358 358 358 358 358 358 357 357 357 357 356 356 356 355 354 353 353 353 353 352 352 353 353 353 352 352
339 337 338 343 350 353 354 354 355 356 357 354 352 350 350 349 348 348 348 348 348 347 348 349 349 351 354 356 356 355 355 355 357 358 358 358 358 358 358 358 358 358 358 358 357 357 357 357 357 357 356 355 354 353 353 354 352 352 352 352 352 352 351
340 341 339 340 345 348 350 353 354 355 356 354 353 351 349 348 348 348 348 348 348 347 348 349 350 352 353 355 354 353 354 354 356 358 358 358 358 358 358 358 358 358 358 358 358 357 357 357 357 357 357 356 355 355 354 354 353 352 352 352 352 352 351
356 351 342 339 342 344 347 349 350 354 354 351 351 351 349 348 349 348 348 348 348 348 349 351 352 352 353 354 353 353 354 355 356 357 358 358 359 358 358 359 359 359 359 359 359 358 358 358 358 357 357 357 357 356 355 354 353 352 352 352 351 351 351
357 348 340 340 342 342 343 344 346 350 351 350 350 349 348 348 348 348 348 348 347 349 350 351 352 352 353 354 354 353 355 356 357 357 357 358 358 358 358 359 359 359 360 359 359 359 359 359 358 358 358 357 357 357 356 355 354 353 352 352 351 351 350
356 349 346 347 346 344 343 345 346 347 350 351 350 348 347 347 347 348 347 347 348 349 349 350 351 352 353 354 354 354 355 357 357 358 358 358 358 359 359 359 360 360 359 359 359 359 359 359 359 359 358 358 358 357 356 356 355 354 353 352 352 350 350
356 354 355 355 354 352 350 349 347 346 349 349 348 347 348 348 347 347 347 348 349 349 349 350 351 352 353 355 355 356 356 357 358 359 359 359 359 360 359 360 360 360 360 360 360 360 360 359 359 359 359 359 358 357 357 356 355 354 353 352 351 351 349
354 353 353 353 353 353 353 353 350 347 347 348 347 348 348 348 348 349 349 348 349 351 351 351 352 353 355 356 357 357 357 357 358 359 360 360 360 360 360 360 360 361 360 360 360 360 360 360 360 359 359 359 358 358 358 357 356 354 354 352 352 351 349
351 350 350 349 349 351 353 355 354 351 348 348 348 347 348 349 349 350 351 351 351 353 354 354 355 356 355 356 358 358 358 358 359 360 360 361 361 361 360 361 361 361 361 361 360 360 360 360 360 360 359 359 359 358 358 358 357 355 354 353 351 351 349
348 348 348 347 348 351 353 355 355 352 348 347 349 349 349 350 348 349 354 354 353 353 354 355 356 356 356 357 358 358 357 358 359 360 360 360 361 361 361 361 361 361 361 360 360 360 360 360 360 360 360 360 359 359 358 358 358 356 354 353 352 351 349
348 347 347 348 350 351 351 354 356 352 347 348 351 350 350 350 349 351 355 354 352 352 354 355 356 357 357 357 356 356 356 357 358 359 360 361 361 361 361 362 362 361 361 361 361 361 361 360 360 360 360 360 360 359 358 359 358 356 355 354 352 351 349
347 346 348 350 350 351 351 353 355 354 353 354 354 350 349 351 351 353 356 355 354 354 356 357 357 357 356 355 354 355 357 358 358 359 360 361 361 361 361 362 362 362 362 362 361 361 361 360 360 360 360 360 360 360 358 359 359 357 356 354 353 352 350
346 346 347 349 350 351 351 352 353 354 354 355 353 351 350 353 355 356 357 357 357 357 357 357 356 355 354 355 356 358 359 359 359 359 360 361 362 362 362 362 362 362 362 362 362 362 362 361 360 360 360 360 360 360 359 359 359 358 356 355 354 353 351
346 347 348 349 350 351 351 352 352 352 352 353 353 353 352 353 357 359 358 358 359 358 357 356 354 354 354 355 357 359 359 360 360 360 361 362 363 363 363 363 362 362 362 362 362 362 362 362 361 361 361 360 360 360 360 359 359 358 357 355 354 353 352
346 346 346 348 348 349 351 351 351 351 352 353 354 355 354 355 357 358 358 359 358 355 355 356 355 355 355 355 357 359 359 361 361 361 362 363 362 363 363 363 363 363 363 363 362 362 362 362 362 361 361 361 361 360 360 360 359 358 357 355 355 353 353
345 344 344 346 348 348 350 350 350 350 351 352 354 355 357 358 360 360 360 359 355 353 355 356 354 354 355 356 357 358 359 361 361 362 363 363 363 363 364 364 364 363 363 363 362 363 362 362 362 362 361 361 361 360 360 360 360 358 357 356 355 354 353
344 344 344 345 346 347 348 349 349 349 349 350 351 352 354 357 359 359 357 355 355 357 360 359 356 355 356 357 358 358 359 360 360 362 363 363 363 364 364 365 364 364 363 363 363 363 363 363 362 362 362 361 361 361 361 360 360 359 358 356 355 354 354
344 345 345 345 346 348 348 348 348 348 348 348 348 349 350 351 352 353 352 352 354 357 360 362 361 360 359 359 359 359 358 359 360 361 362 362 363 364 364 364 364 364 363 364 363 363 363 363 362 362 362 361 361 361 361 361 360 359 357 356 355 354 353
345 346 346 346 347 348 348 349 348 348 347 347 347 347 347 347 348 348 348 350 353 355 358 361 363 363 362 361 360 359 359 359 358 358 360 361 361 362 363 363 364 364 364 363 363 363 363 363 363 362 362 362 362 362 361 360 359 358 357 355 353 353 352
345 346 347 347 348 348 348 348 348 347 348 347 347 346 345 345 346 346 346 348 351 353 356 358 360 361 363 363 362 362 361 361 360 358 359 359 359 359 360 361 362 362 363 363 363 363 364 363 363 362 362 362 362 361 361 361 359 358 356 354 353 352 351
345 346 346 347 347 347 347 347 347 347 347 346 346 345 345 344 344 344 344 345 348 352 354 355 355 356 357 357 358 358 359 359 359 359 360 361 360 360 361 361 361 361 361 362 363 364 363 363 363 363 363 363 362 362 362 361 359 358 357 355 353 352 351
344 345 345 346 345 346 346 347 347 347 346 346 345 345 344 343 343 343 343 343 346 349 351 351 352 351 351 351 352 352 352 353 352 352 352 351 351 351 351 351 351 351 352 354 356 358 360 361 361 362 361 362 362 362 362 361 360 358 357 354 350 351 352
342 343 344 344 344 345 345 345 346 346 346 345 345 345 345 345 344 344 343 343 343 344 345 346 347 347 347 347 346 345 345 345 344 342 339 337 336 336 336 337 336 335 337 339 342 344 348 352 356 359 361 360 360 360 360 360 360 357 356 352 349 350 353
340 340 342 343 343 343 344 344 345 346 345 345 345 345 345 345 345 345 345 344 343 343 343 343 343 344 345 345 343 342 342 341 339 337 337 337 337 337 338 340 340 337 334 333 334 334 336 338 342 347 351 355 358 359 360 359 357 356 354 351 349 351 354

ECMWFFLT1_925_thetae_054.txt.gz
Theta_e
350 353 354 355 357 357 358 359 360 363 362 362 363 363 362 362 362 363 364 364 365 365 365 364 363 362 361 361 361 362 362 361 361 361 361 361 361 361 361 361 362 361 360 361 361 362 361 361 361 362 365 365 363 362 361 360 359 359 359 360 360 359 359
348 351 353 354 356 357 358 359 361 363 362 362 363 363 363 362 363 363 364 365 365 365 365 364 363 362 362 361 361 363 363 361 362 362 362 362 361 361 361 361 362 362 361 361 361 362 363 363 363 363 365 365 364 363 361 360 360 359 359 360 360 360 359
347 349 352 354 356 358 358 358 361 362 361 362 362 362 362 362 363 363 363 365 365 365 365 365 363 363 362 363 362 363 364 363 363 363 362 362 362 361 361 362 362 362 362 362 361 362 363 364 364 364 364 365 364 364 362 361 361 359 359 359 360 360 359
348 349 351 354 356 357 358 357 359 362 361 361 361 361 362 363 363 363 363 364 365 366 365 365 364 364 363 364 363 364 365 364 363 363 362 361 362 362 361 362 362 361 361 362 361 362 362 363 365 365 364 364 364 364 363 362 361 360 359 359 359 359 359
349 350 350 354 355 356 358 357 358 361 360 360 361 361 362 363 363 363 363 364 364 365 365 365 365 364 364 364 364 364 365 364 364 363 363 362 362 362 361 361 362 362 361 361 361 362 362 363 364 365 365 364 364 364 364 362 361 361 360 359 358 358 358
346 349 351 352 353 355 357 355 357 360 360 359 360 360 361 361 361 362 362 363 364 364 364 365 365 364 364 364 364 364 364 365 365 364 364 363 362 362 362 361 362 361 361 361 361 362 362 363 363 363 364 364 363 363 364 363 361 361 361 359 358 358 357
343 350 352 353 353 354 355 355 356 358 359 358 358 359 360 360 360 360 362 363 363 364 364 364 365 365 365 364 364 365 364 365 365 364 364 364 363 363 363 362 362 362 362 362 362 362 363 363 363 362 363 363 363 363 363 363 362 361 361 360 360 359 357
341 350 352 353 352 351 353 354 355 357 358 357 357 357 358 359 359 359 360 362 362 363 364 363 364 364 365 365 364 364 364 365 365 365 365 364 364 363 363 363 363 362 362 362 362 362 363 363 364 363 363 363 363 363 363 364 363 362 362 362 361 360 358
341 350 353 352 349 349 352 353 355 357 358 357 356 356 357 357 358 358 358 360 360 361 362 362 363 364 365 365 364 364 365 365 365 365 365 365 364 364 363 363 364 363 363 362 362 363 363 363 363 363 363 363 364 365 364 364 364 363 363 363 362 361 358
343 351 354 352 348 349 350 351 355 356 357 358 358 357 356 356 356 357 357 357 358 359 360 360 362 363 365 365 364 364 365 365 364 365 365 364 364 364 363 363 363 364 363 362 362 363 363 363 363 364 365 364 364 365 365 364 364 364 363 364 363 361 360
350 353 354 352 349 350 348 349 355 358 359 361 359 357 357 357 356 356 356 357 356 357 358 359 360 362 364 365 364 364 365 365 364 364 364 364 364 363 363 362 362 363 363 363 362 362 363 363 363 364 365 365 365 365 365 365 365 364 364 364 363 362 362
349 353 356 354 351 351 350 352 356 359 361 361 359 357 357 357 356 355 355 355 356 356 357 359 359 360 363 364 363 363 364 365 364 363 364 364 363 362 363 362 362 362 363 363 363 362 363 363 364 364 365 366 365 365 365 365 365 365 364 364 364 363 363
347 350 354 355 355 353 354 355 356 359 361 360 358 357 357 356 356 354 355 355 354 355 357 358 359 360 362 363 363 362 364 364 364 363 363 363 363 362 362 361 361 361 362 363 363 363 362 363 364 364 364 365 366 365 366 366 365 365 364 364 364 364 363
348 347 351 353 355 357 358 358 359 360 361 360 358 357 356 356 355 355 355 355 354 354 356 358 359 360 362 362 363 363 363 364 364 363 363 363 364 363 362 362 361 361 361 362 363 363 362 362 363 364 364 365 365 365 365 366 366 366 365 365 364 363 363
344 343 348 352 355 358 360 360 362 361 360 359 357 356 356 355 355 355 355 355 355 354 354 356 359 360 361 363 363 363 364 364 364 364 363 364 365 364 363 362 362 362 362 362 363 363 362 362 362 364 365 365 365 365 365 365 366 365 365 365 364 363 362
335 335 342 351 356 357 360 360 361 362 362 360 358 356 356 355 355 355 355 355 355 354 354 356 359 361 362 364 364 363 364 364 364 364 365 364 365 365 364 363 363 363 363 363 363 363 363 362 362 363 364 365 365 365 365 365 365 363 361 362 363 363 362
332 332 331 342 354 356 357 360 360 362 363 362 360 358 356 356 356 355 354 355 355 355 354 355 359 362 363 364 363 363 364 365 365 365 365 365 365 366 365 364 363 364 364 364 364 364 364 363 363 363 363 364 365 365 365 365 364 361 359 359 360 361 362
331 334 331 339 354 358 357 357 359 361 360 359 361 360 357 357 357 356 355 355 356 355 353 354 359 363 364 363 363 364 365 365 366 366 366 366 366 365 366 365 364 364 364 364 365 365 365 364 364 363 362 363 364 365 364 364 363 359 358 358 357 358 360
331 332 330 339 354 357 354 353 354 356 357 356 357 359 357 357 356 356 356 355 355 355 353 353 358 363 364 363 363 364 366 365 366 367 366 367 366 366 367 366 365 365 365 365 365 365 365 365 364 364 363 363 364 364 364 364 363 360 358 357 356 355 356
332 333 333 341 350 352 353 356 354 353 355 356 355 356 356 355 355 357 357 354 355 356 354 354 357 360 362 362 363 365 365 365 366 367 367 367 366 366 367 366 366 365 365 365 365 365 366 365 365 365 365 364 364 364 364 364 363 361 358 357 356 355 354
336 340 343 350 355 358 361 364 362 358 355 354 353 354 355 354 353 355 357 355 356 357 356 355 356 358 361 363 363 365 365 366 366 366 366 367 367 367 366 366 366 366 365 365 365 365 366 366 365 365 365 365 365 364 364 364 362 362 360 358 356 355 354
334 340 348 356 361 365 368 368 366 364 362 357 353 353 355 354 352 354 357 357 357 358 357 356 357 359 361 364 363 364 365 365 365 365 365 366 366 366 366 366 366 366 365 365 364 365 366 366 366 366 365 366 365 364 364 364 362 361 360 359 357 356 354
339 348 356 360 361 363 365 366 366 367 366 361 355 352 353 353 352 354 358 358 357 357 357 358 359 360 361 364 363 363 364 365 364 365 365 365 366 366 366 366 366 366 366 365 364 365 366 366 366 366 365 365 365 363 363 363 363 361 359 359 358 356 354
347 353 356 358 359 361 362 364 365 366 365 363 357 352 352 352 352 355 359 358 356 356 358 358 359 360 361 363 363 363 364 365 364 365 365 365 366 365 366 365 366 366 366 366 365 364 364 365 366 365 365 364 363 363 363 363 363 362 360 359 358 356 354
353 354 356 358 359 359 361 363 364 364 364 362 357 353 352 352 352 356 359 358 355 355 357 358 358 359 361 362 362 363 364 364 364 364 365 365 365 365 365 366 365 366 366 365 365 365 364 364 365 366 366 364 362 362 362 362 363 362 361 360 358 356 354
357 356 357 359 359 359 360 362 363 365 363 361 358 354 353 353 355 358 360 358 354 354 357 358 358 359 360 361 362 363 363 363 364 364 364 365 365 365 365 366 365 365 365 365 366 365 364 364 364 365 365 365 364 363 362 361 362 362 361 360 359 357 355
356 356 355 357 358 358 360 361 362 363 362 362 361 357 354 354 357 360 360 357 356 356 357 358 359 360 361 362 363 362 363 364 364 365 364 365 365 366 365 365 366 365 365 366 366 365 366 365 364 365 365 364 363 363 362 362 362 362 361 360 359 357 355
354 355 355 355 355 356 360 362 362 362 360 360 359 356 355 356 359 361 361 359 357 356 356 358 361 362 363 363 363 362 363 363 363 365 365 364 365 366 366 366 365 365 366 366 366 367 366 365 364 364 363 363 362 362 362 362 362 362 361 360 359 358 356
354 354 354 355 355 356 359 361 362 362 362 362 362 359 357 359 361 362 361 361 361 360 360 362 364 364 365 365 364 363 363 363 364 365 365 365 365 365 366 367 366 366 366 367 367 366 366 365 364 364 363 362 362 362 362 362 362 362 361 360 359 358 356
353 352 353 355 355 356 357 359 360 360 360 362 365 364 361 361 364 365 366 367 366 364 363 364 364 365 365 364 364 364 363 364 365 366 365 364 364 365 367 367 367 366 366 366 366 365 365 364 364 364 364 363 362 363 363 363 363 363 362 361 360 358 356
351 352 353 354 355 356 358 358 359 359 359 361 363 364 365 365 366 367 367 367 366 364 362 362 362 364 364 364 364 364 363 363 365 365 365 364 364 366 367 367 367 366 366 365 365 365 365 364 364 364 365 364 364 363 364 363 363 364 363 362 361 358 356
350 351 353 354 355 357 358 358 358 359 360 359 359 361 363 362 363 363 362 362 364 366 365 363 362 362 362 362 363 362 362 363 363 364 365 366 365 366 366 366 366 366 365 365 365 365 365 365 364 364 364 364 364 364 364 364 364 364 364 363 361 359 357
351 352 354 354 354 355 357 358 358 358 358 357 357 358 358 358 359 360 359 360 363 365 366 366 366 365 364 363 363 363 363 363 363 364 365 365 364 364 363 364 364 364 364 365 364 365 365 365 365 364 364 364 364 364 364 365 364 364 364 362 359 358 357
351 353 354 354 354 354 356 357 356 355 355 355 354 354 355 355 356 357 358 360 361 363 367 368 368 367 367 366 366 365 365 364 363 362 362 362 361 361 362 363 363 363 364 365 365 366 366 365 366 365 365 364 365 364 365 365 365 365 365 363 359 357 356
351 352 353 353 353 353 353 353 353 352 352 351 351 351 352 352 353 354 356 358 359 361 363 364 365 367 366 366 366 366 366 365 364 363 363 363 363 363 364 363 363 364 364 365 365 365 365 365 365 366 365 365 365 365 365 365 364 364 364 363 361 359 358
350 351 352 351 351 351 351 351 350 350 350 349 349 349 349 349 350 351 353 355 356 358 358 359 360 361 361 362 362 362 363 363 363 362 363 363 362 361 360 359 359 359 359 359 358 357 356 355 355 356 356 355 356 360 362 363 364 365 365 364 362 361 360
349 350 350 350 350 350 350 349 349 349 349 349 349 348 349 349 349 348 349 351 352 353 354 355 356 356 356 356 356 357 357 357 356 355 356 355 354 353 352 350 349 347 344 343 344 344 342 340 340 341 340 338 339 343 346 349 351 353 354 357 359 359 359
348 349 349 349 349 349 348 348 348 348 347 347 347 347 348 349 348 348 348 348 349 349 350 351 353 353 352 351 351 351 351 350 349 347 347 347 346 348 347 347 346 344 339 334 332 332 332 333 334 334 334 333 332 332 333 334 336 336 337 342 349 354 356

ECMWFFLT1_925_thetae_057.txt.gz
Theta_e
346 349 354 356 359 359 361 364 363 365 365 365 365 363 363 363 364 366 366 368 369 368 369 368 366 367 366 365 364 362 363 364 363 363 361 360 358 358 361 364 365 363 361 359 360 360 360 359 359 360 361 364 365 364 362 363 363 363 363 364 363 361 360
346 346 351 355 358 360 361 363 366 366 365 365 367 365 364 364 365 366 367 369 370 369 370 369 368 367 366 365 364 363 364 363 363 363 362 361 360 359 360 361 363 364 362 359 359 360 361 360 360 360 362 364 366 365 364 364 364 363 362 364 364 363 361
346 345 347 352 359 360 361 363 365 366 366 365 367 366 366 365 365 366 367 369 371 371 371 370 368 368 366 366 365 365 365 364 364 363 362 360 360 360 359 361 362 363 364 362 359 359 361 363 363 362 362 363 365 366 364 364 364 363 361 362 364 364 363
345 344 346 352 358 360 360 361 364 366 366 366 367 367 367 366 366 366 368 370 370 370 371 370 368 366 366 366 365 366 366 364 364 364 362 360 361 360 360 361 362 363 364 363 361 359 359 363 365 364 364 364 365 365 364 363 363 363 361 361 363 364 363
345 344 344 350 356 360 362 361 363 366 366 365 367 368 368 367 367 367 368 369 370 370 371 370 368 367 366 366 365 365 366 365 364 364 363 361 361 362 362 361 362 362 363 363 362 361 360 362 365 366 366 366 366 365 364 364 364 364 364 363 362 362 363
341 344 345 348 352 358 360 359 361 366 366 365 366 367 367 368 367 367 369 368 369 370 370 369 368 367 368 367 365 365 366 365 365 364 364 363 362 363 363 362 362 363 363 362 363 363 363 363 364 365 366 367 366 364 365 365 363 363 364 364 363 361 361
341 345 347 347 349 354 360 360 361 363 365 364 365 367 366 367 367 367 367 368 369 369 369 369 369 368 369 368 365 365 366 365 366 366 365 365 363 363 363 363 363 362 362 362 362 363 364 364 364 365 366 367 366 364 364 365 364 363 364 365 364 362 360
341 346 347 346 349 350 356 360 359 361 364 364 363 367 367 367 367 366 367 368 368 368 368 368 368 368 369 368 365 366 366 365 366 367 366 366 365 364 363 364 364 363 363 363 364 364 364 365 366 365 366 367 366 366 364 364 366 365 365 366 366 363 360
340 344 347 348 345 347 352 358 360 361 363 363 363 364 365 366 366 366 366 367 366 367 367 367 366 367 369 369 367 366 367 367 366 368 368 366 366 365 364 364 365 365 364 363 364 364 364 365 367 366 366 366 367 366 366 366 366 366 365 365 365 364 362
339 343 346 346 346 346 349 354 361 363 365 367 365 364 365 365 365 366 366 366 365 366 366 366 366 366 369 369 367 367 368 368 367 367 368 365 365 364 363 362 363 365 366 364 362 363 365 366 366 367 368 366 366 367 367 366 368 367 366 365 365 365 363
340 348 350 350 350 349 346 354 365 368 369 370 367 363 364 366 365 365 365 364 365 366 366 366 365 366 369 369 367 367 368 368 367 368 367 365 364 363 361 360 361 364 366 365 362 362 364 367 367 368 369 368 367 367 368 367 368 367 366 365 366 366 364
346 354 356 354 353 353 353 364 370 371 373 371 366 363 363 364 364 365 364 365 364 365 365 366 365 366 368 369 366 367 369 369 367 366 365 364 362 361 360 359 359 361 365 365 364 361 362 366 367 367 369 369 368 367 368 369 368 368 367 365 365 366 366
347 353 357 355 354 355 360 366 367 370 371 368 364 361 361 362 362 363 364 364 363 364 365 365 366 366 368 369 367 368 369 368 367 365 364 364 362 360 359 359 358 359 362 365 365 363 361 363 367 368 368 370 369 368 369 370 368 369 368 366 365 366 367
344 348 353 357 357 358 360 362 364 367 367 365 362 361 361 360 361 362 362 363 363 363 364 365 365 367 369 369 368 369 369 369 368 366 364 364 364 361 358 359 359 357 360 363 366 365 362 361 365 368 369 370 370 369 369 370 370 370 369 368 366 366 367
338 340 349 356 360 362 362 362 363 366 365 364 361 361 360 360 360 362 361 362 363 362 362 363 366 366 368 370 369 369 369 369 368 368 366 364 366 364 361 359 359 359 359 362 364 365 364 362 362 367 369 369 370 369 370 371 371 370 370 369 368 367 367
335 336 342 349 356 361 362 363 366 366 366 366 364 362 361 361 361 361 361 362 362 362 360 362 364 366 367 370 370 370 370 370 370 370 369 367 368 369 365 361 361 362 361 362 364 365 365 364 363 364 367 369 370 370 370 371 371 369 367 367 367 367 367
333 335 336 343 352 357 360 361 364 368 369 368 367 364 361 361 361 361 361 361 360 360 359 360 363 365 366 369 371 370 371 372 371 371 371 369 370 371 369 365 364 363 362 363 364 365 366 365 365 364 365 368 370 370 371 371 369 368 366 365 365 366 367
333 335 334 337 344 352 356 358 361 368 369 366 367 364 362 361 362 361 360 360 360 360 359 359 361 364 366 369 370 371 372 372 372 372 372 372 371 372 371 369 366 366 366 366 366 366 366 366 367 365 364 367 369 370 371 371 369 367 365 364 362 363 366
333 334 335 335 337 341 348 351 353 360 363 363 364 364 362 361 361 362 361 360 360 360 360 358 359 364 367 368 369 371 372 372 373 373 372 372 371 372 372 371 369 368 368 369 368 367 368 367 367 368 366 366 368 369 370 371 370 367 364 363 362 361 362
332 333 334 335 334 335 338 344 350 353 354 357 360 361 361 359 359 361 361 360 360 361 360 359 359 361 367 368 369 372 372 373 373 373 373 373 372 372 372 371 371 370 368 368 368 368 370 369 368 370 369 366 367 368 369 369 370 369 365 363 362 361 360
336 336 336 335 338 344 349 353 358 357 354 353 353 356 360 360 359 360 361 361 362 361 361 360 359 361 367 368 369 372 373 373 373 373 373 374 372 372 372 372 372 370 369 368 368 370 370 370 370 370 369 368 367 367 367 368 368 368 368 364 362 361 360
333 336 337 333 339 356 368 367 364 363 364 364 360 355 355 358 359 361 361 361 361 361 362 362 360 361 365 369 371 372 372 372 373 372 373 373 373 373 371 372 372 372 370 368 368 369 370 370 370 369 370 370 368 367 367 367 366 367 367 366 363 361 360
335 335 333 335 346 364 372 370 365 365 366 368 364 357 353 355 357 360 361 362 361 361 362 362 361 361 364 370 371 371 372 372 372 372 373 372 373 372 372 371 372 372 371 368 367 369 370 370 370 370 370 370 369 369 368 367 366 365 365 366 365 363 361
330 335 343 350 359 365 365 366 368 367 367 369 368 364 358 354 357 361 362 363 362 362 363 362 362 361 364 369 372 370 372 371 371 371 372 372 373 372 371 372 372 371 372 369 369 367 367 369 370 370 370 370 369 370 369 368 368 366 365 364 365 363 362
347 353 358 361 363 361 363 367 370 368 368 369 370 369 364 357 357 361 361 362 362 361 362 363 363 362 364 368 370 370 370 370 370 372 372 372 373 371 371 372 371 372 371 370 369 367 366 367 367 370 371 369 369 369 369 368 369 368 366 365 364 363 362
361 360 359 360 362 363 365 367 368 368 369 368 369 369 364 358 359 360 361 362 362 360 361 363 363 363 363 366 369 370 370 369 371 371 370 371 371 370 370 371 370 370 371 370 369 368 367 367 366 367 368 370 369 369 368 368 369 368 367 366 364 363 361
358 359 357 358 362 362 362 364 368 369 368 369 371 369 363 357 358 361 361 363 363 361 361 363 363 363 365 366 368 369 369 369 370 370 369 369 370 369 369 369 369 369 369 369 369 368 369 368 367 366 367 367 369 369 369 368 367 366 366 365 364 364 361
358 359 360 361 363 362 361 364 369 369 367 368 367 365 362 359 359 361 363 365 364 363 359 361 364 364 365 367 367 368 369 369 369 370 369 368 369 369 369 368 369 368 368 368 369 369 368 368 367 367 366 366 366 367 366 366 366 365 364 364 363 363 362
358 357 357 359 361 362 362 365 369 369 368 368 366 363 361 361 360 363 366 366 366 362 360 361 364 365 366 367 367 367 367 367 368 368 368 368 368 370 369 369 368 369 369 369 368 369 369 369 369 367 366 366 365 365 365 365 364 364 364 364 363 362 362
356 356 356 357 359 360 361 364 367 366 365 368 369 365 362 362 365 366 367 367 364 361 360 363 365 366 368 368 367 367 366 367 368 369 368 369 368 369 371 371 370 369 370 370 369 370 370 369 368 367 366 366 365 364 364 363 363 364 363 363 363 361 361
353 354 355 357 358 359 361 362 365 364 363 365 367 367 365 365 366 367 367 368 366 364 364 366 368 369 369 368 368 367 366 366 367 368 369 369 369 370 371 371 371 370 370 370 369 368 367 366 367 366 367 366 366 366 365 364 364 363 364 364 364 363 361
352 353 355 357 358 359 360 361 362 363 362 363 364 366 367 368 368 368 369 370 369 367 368 369 370 370 370 369 369 368 367 367 367 368 369 368 369 369 369 369 369 369 368 368 367 366 365 365 365 366 365 366 366 366 366 366 364 365 365 364 365 364 363
353 355 357 358 358 360 360 361 361 362 362 361 361 362 363 365 367 367 366 367 368 368 368 368 369 368 368 369 368 367 367 366 366 368 369 368 367 366 366 366 366 366 367 366 365 365 366 365 365 366 365 365 366 365 365 365 366 365 366 365 364 363 362
355 357 358 358 358 359 360 360 360 360 360 361 360 360 360 362 363 363 363 364 366 368 368 367 367 367 368 368 367 367 367 366 366 367 368 367 366 366 366 365 364 364 365 365 365 366 366 366 367 367 366 366 367 366 367 367 366 365 362 361 359 356 355
355 357 358 358 357 358 358 358 358 358 358 358 358 360 360 361 362 363 364 365 367 369 370 369 369 368 368 369 367 367 367 366 366 367 366 364 365 367 367 367 367 367 366 365 366 367 368 368 368 365 363 363 364 365 366 366 366 363 360 357 355 351 347
354 356 357 356 356 356 355 355 356 356 356 355 356 356 357 358 359 362 362 363 366 369 369 369 370 369 368 369 368 368 367 366 367 367 367 366 366 365 361 360 364 367 363 361 361 361 361 360 358 354 353 351 350 349 349 348 347 346 344 344 342 340 337
354 355 355 355 355 355 354 353 353 353 353 353 354 354 353 355 355 357 358 359 361 364 365 365 366 366 366 366 365 366 366 366 366 368 368 367 367 366 359 353 351 351 349 347 347 345 344 343 342 340 339 337 336 335 334 333 333 333 333 332 332 332 332
353 354 354 353 353 353 353 352 352 351 351 352 352 352 352 352 352 353 355 356 358 359 359 359 359 359 360 360 359 359 359 360 360 362 361 360 359 359 356 349 343 338 335 333 334 335 335 335 335 334 332 331 331 331 331 331 331 330 330 330 331 331 331

ECMWFFLT1_925_thetae_063.txt.gz
Theta_e
354 353 353 354 356 356 358 358 355 354 354 357 358 359 360 360 360 361 360 361 360 359 359 359 359 357 356 356 355 355 356 356 356 357 357 356 357 360 359 358 358 358 357 357 358 358 357 356 357 358 358 358 359 359 359 361 362 360 360 360 360 360 359
354 354 354 354 356 356 357 357 355 353 353 356 358 359 360 361 361 361 360 361 360 360 360 360 360 359 357 356 356 356 357 356 357 357 358 357 358 360 360 359 358 358 357 357 358 358 358 358 358 358 359 359 359 359 360 361 361 360 358 359 360 361 360
355 353 352 354 355 356 357 356 354 353 353 355 358 359 360 362 361 361 361 361 360 360 360 360 360 360 358 357 357 357 357 357 357 357 358 359 358 360 361 360 358 357 357 357 358 360 359 360 359 358 359 360 360 360 361 361 360 359 358 359 360 361 361
354 352 351 353 356 357 357 356 354 353 353 355 358 359 360 361 362 362 361 362 361 361 361 360 360 361 359 358 358 358 358 357 357 357 357 358 359 359 360 361 359 357 356 357 357 359 360 361 360 359 360 360 361 360 360 360 360 360 358 358 359 360 360
352 353 352 353 355 355 357 356 354 354 353 355 358 358 360 361 362 362 362 361 362 360 361 360 360 360 360 360 359 358 359 358 357 357 357 357 358 358 360 361 361 359 357 357 358 358 359 360 361 360 360 360 360 360 360 360 360 360 359 358 358 360 360
351 352 353 354 354 354 356 355 354 354 355 357 358 358 360 361 362 363 363 363 362 361 361 361 361 361 360 360 360 359 359 359 358 357 357 357 358 357 357 359 361 361 360 358 359 360 360 359 360 360 361 360 360 360 360 360 360 360 360 359 359 360 361
352 352 353 353 354 354 354 354 355 355 356 358 359 359 360 362 362 362 363 363 363 363 362 362 361 361 361 360 360 360 359 360 360 359 358 357 357 358 356 356 358 362 363 362 360 361 362 361 360 360 360 360 360 360 360 360 360 360 360 360 360 361 361
352 352 351 353 352 352 354 355 355 355 356 357 361 361 360 361 362 362 363 364 364 364 363 362 362 361 361 361 361 360 360 359 360 359 359 359 357 358 356 356 356 358 362 363 363 362 362 362 361 360 359 359 361 361 361 361 361 361 362 361 362 361 363
351 353 352 352 350 351 353 353 355 356 357 358 361 363 361 362 362 362 363 364 364 365 364 363 363 361 362 361 361 361 361 360 360 359 360 359 359 358 357 356 355 356 358 360 362 363 361 360 361 360 360 359 359 361 362 362 362 362 363 363 363 363 363
352 353 353 352 350 351 352 351 354 356 358 361 363 363 363 363 363 362 363 364 365 366 365 364 363 362 362 362 361 362 361 360 360 359 359 360 358 358 357 357 356 356 356 357 358 361 362 361 360 359 361 360 359 360 361 362 363 363 363 363 363 363 363
351 353 353 352 351 352 351 353 356 358 360 361 363 365 364 363 364 363 363 364 365 366 366 366 365 364 363 363 362 362 361 361 360 360 359 359 358 358 357 358 357 355 355 356 356 358 360 362 361 360 360 361 361 360 359 360 362 363 363 364 363 363 362
350 353 353 352 351 352 355 358 363 365 365 363 363 365 365 364 364 364 363 364 365 368 368 367 367 366 364 363 363 363 362 361 361 360 359 359 358 358 358 357 357 356 355 355 356 356 358 360 361 360 359 360 362 363 361 360 361 362 363 364 364 363 362
351 353 352 352 351 354 361 365 368 371 369 365 363 365 366 365 365 364 363 363 364 368 369 368 368 368 365 365 363 363 363 362 361 360 360 359 358 357 357 357 357 357 356 355 355 356 358 359 361 361 360 359 360 362 364 363 362 362 363 365 364 363 362
353 351 352 353 352 357 364 365 368 373 371 367 364 365 367 366 365 364 364 364 364 368 369 369 369 368 367 366 364 363 363 362 361 360 359 358 358 357 357 356 356 355 356 356 356 356 358 359 360 361 361 360 360 360 362 363 363 363 364 364 364 364 363
352 350 354 355 350 357 364 363 368 372 372 368 365 365 368 367 366 366 365 365 365 367 369 370 369 369 368 367 365 364 363 361 361 360 359 359 357 357 356 355 355 354 355 356 357 356 357 358 360 361 361 361 360 360 361 363 364 364 364 364 364 364 363
350 354 362 358 352 356 361 362 367 371 372 371 366 365 368 368 367 367 366 366 366 366 368 369 370 369 368 368 367 365 363 362 361 360 360 359 358 357 356 356 355 355 355 355 356 356 356 356 357 360 361 361 363 363 362 362 363 364 364 363 363 364 364
354 362 369 367 364 369 372 373 374 374 375 373 367 365 367 367 368 367 367 368 367 367 368 368 370 370 368 368 368 366 365 363 362 361 360 360 360 359 358 357 357 356 356 356 356 357 356 356 356 357 360 361 362 362 363 363 363 364 364 364 364 364 363
360 365 368 373 379 384 385 385 383 380 376 370 365 365 365 367 369 368 368 369 368 368 368 367 369 370 368 368 368 368 367 364 362 362 360 360 360 360 359 359 358 357 356 356 358 359 358 357 356 357 359 361 361 362 363 363 363 363 363 364 364 364 364
357 360 364 373 379 382 382 384 385 382 377 370 366 366 366 367 368 368 368 368 368 369 368 368 369 369 369 369 369 368 368 365 364 363 362 360 360 360 360 359 358 358 357 357 358 359 360 360 359 358 358 360 362 363 362 363 364 363 363 363 363 363 363
353 359 367 372 372 374 375 379 384 380 372 369 369 367 367 366 367 369 369 367 369 369 368 368 369 369 370 368 368 369 368 368 366 364 363 363 361 360 361 360 359 358 358 358 357 358 361 362 362 360 359 360 362 364 363 363 363 364 364 363 363 363 363
348 353 366 371 374 380 382 381 384 378 369 368 369 368 367 366 366 366 368 367 368 368 368 368 367 369 370 369 368 369 369 368 368 366 365 364 363 362 361 361 361 359 358 359 358 357 359 361 362 362 361 360 361 363 365 365 364 364 365 364 364 363 363
360 357 367 376 383 388 384 376 375 372 365 363 365 366 365 364 364 365 366 365 366 367 367 368 367 368 370 370 369 369 369 369 369 367 367 366 365 364 362 362 362 360 359 359 358 358 358 359 361 363 363 363 361 361 364 365 364 365 365 364 365 365 365
366 364 366 369 372 375 373 367 365 363 360 357 359 361 362 363 362 364 364 365 366 367 367 367 366 367 369 371 371 370 371 370 370 368 368 367 367 366 365 363 364 362 360 359 358 359 359 358 359 361 362 364 363 362 362 363 364 366 365 365 366 367 367
361 361 362 362 363 365 365 363 362 360 360 358 357 357 358 361 362 363 365 366 365 366 367 367 366 365 367 371 371 371 371 371 371 370 369 369 369 368 366 366 364 363 363 361 359 359 359 359 359 359 360 363 364 364 363 362 363 365 366 367 368 368 368
360 359 358 360 363 362 361 362 363 362 362 361 360 360 359 359 361 363 365 365 365 366 366 367 366 364 365 368 371 372 373 372 372 371 371 370 370 369 369 367 366 366 365 363 361 359 359 360 360 361 361 361 362 363 364 363 363 363 364 367 368 369 370
361 359 357 359 363 362 360 362 366 367 368 367 365 366 366 364 364 364 366 366 365 365 365 366 366 365 364 365 368 371 372 372 372 372 372 372 371 370 371 369 368 367 367 366 364 362 361 361 361 362 362 362 362 363 363 364 364 363 364 365 366 368 369
358 358 356 356 360 361 359 361 363 366 368 368 368 369 369 368 367 366 367 368 367 365 364 363 365 365 365 364 367 370 372 373 374 373 373 373 372 371 371 371 370 370 370 369 368 365 364 363 364 364 364 364 364 364 363 365 365 366 366 365 365 366 366
357 357 356 354 355 358 358 360 364 365 366 367 367 367 368 368 367 368 369 370 369 367 364 362 363 364 365 365 366 369 372 372 374 374 373 374 373 373 373 372 372 371 371 371 370 369 367 366 365 366 367 367 366 366 366 366 365 366 367 367 367 367 366
359 357 357 355 355 356 357 359 362 364 366 366 365 365 367 369 369 368 369 370 370 368 365 364 362 363 365 365 366 369 371 372 373 374 374 373 373 374 374 374 373 372 371 372 371 370 369 368 366 366 366 368 369 368 368 367 367 367 367 367 368 368 367
358 357 356 356 357 358 358 359 361 362 363 366 365 363 367 370 369 367 369 370 368 368 367 366 364 365 366 365 366 368 371 372 373 374 374 374 374 373 374 375 374 373 372 371 371 371 370 369 368 367 366 366 368 370 370 369 369 369 369 370 368 368 368
356 356 356 356 359 360 360 360 362 362 363 363 363 364 367 370 370 369 369 369 368 369 369 367 367 367 366 366 367 369 371 372 373 374 374 374 373 374 374 374 374 373 372 372 371 371 371 370 369 368 367 366 367 368 369 370 370 370 370 369 369 368 368
358 356 356 358 360 360 359 360 362 363 364 362 361 363 366 367 367 370 371 370 369 368 366 368 370 370 367 367 367 369 371 373 373 374 374 373 373 373 374 374 374 372 372 372 372 371 372 371 371 370 369 368 367 368 368 368 367 365 364 365 364 363 363
359 358 357 359 360 360 359 361 361 362 362 361 360 361 363 363 364 366 368 368 369 367 365 367 370 371 369 369 369 369 372 374 374 374 374 373 374 374 374 373 373 372 373 372 372 372 372 372 371 371 371 370 370 370 368 364 360 357 358 359 358 357 357
359 359 357 358 358 359 359 360 360 360 360 360 360 360 362 364 364 365 366 367 368 369 369 370 371 372 372 370 370 371 372 372 373 374 373 372 373 372 373 374 373 372 372 373 372 372 372 372 372 372 371 371 371 367 358 353 353 353 352 352 351 347 345
356 355 357 358 357 357 358 358 358 359 358 357 358 358 360 362 363 365 368 368 367 370 371 372 372 372 371 370 370 371 370 371 372 373 371 368 366 365 365 369 371 371 371 371 372 372 371 371 371 369 368 368 368 362 354 347 345 345 343 342 340 337 335
352 352 355 357 356 356 357 356 356 356 356 355 355 355 357 358 360 363 367 369 371 371 370 370 372 372 371 371 370 370 370 370 370 368 365 363 360 357 355 357 362 366 366 368 371 370 370 371 368 365 365 363 358 354 351 344 337 334 333 333 332 331 331
351 353 355 356 356 357 356 354 355 355 355 355 354 354 355 356 358 359 363 368 372 371 369 369 370 371 373 372 371 370 372 370 365 361 358 357 357 355 350 346 347 352 355 358 363 365 366 363 358 356 358 355 346 339 337 335 331 329 329 329 329 330 331
350 351 353 355 356 355 354 354 354 354 354 354 354 354 355 356 356 356 359 363 368 370 369 369 366 365 366 369 370 371 371 367 359 354 351 350 350 350 347 340 335 336 339 342 345 348 348 346 343 342 342 342 338 333 330 330 329 328 328 329 330 332 333

ECMWFFLT1_925_thetae_069.txt.gz
Theta_e
348 349 349 350 351 350 350 349 347 347 348 348 348 348 350 351 352 353 353 353 353 354 354 354 354 354 354 354 354 354 354 353 354 353 353 353 353 352 352 352 352 352 352 352 352 352 352 352 351 351 351 352 352 351 348 347 348 350 353 355 357 359 357
347 349 350 350 350 350 350 349 347 347 348 348 348 348 350 351 351 352 353 353 353 353 354 354 355 355 354 354 354 354 354 353 353 354 353 353 352 353 352 352 351 351 351 351 351 352 352 352 351 350 351 351 352 352 350 348 349 351 353 355 358 359 359
348 349 349 349 351 351 351 349 347 346 347 348 348 349 349 350 351 352 352 353 353 353 353 354 354 354 354 354 354 354 354 354 353 353 353 353 353 353 352 352 352 351 351 350 351 352 352 351 351 350 350 350 352 353 351 349 350 351 352 354 356 358 359
349 350 350 350 351 350 351 350 347 347 347 348 348 349 350 350 351 351 352 352 353 353 353 354 354 354 354 354 354 354 354 354 354 353 353 353 352 353 353 352 352 352 351 351 350 351 352 352 351 351 351 351 352 353 352 351 350 352 352 353 355 356 358
348 349 350 351 352 351 351 350 348 347 347 348 349 348 349 351 350 351 352 352 352 353 353 353 354 354 354 354 353 353 354 353 353 353 353 352 352 352 353 353 352 352 352 352 351 351 351 352 352 352 351 351 352 353 353 352 352 353 353 354 355 355 356
348 349 351 351 352 351 352 351 349 348 348 347 348 349 350 350 351 351 352 352 353 352 353 353 353 354 354 354 354 353 353 353 353 353 352 352 352 352 352 353 353 352 351 352 352 352 352 353 352 353 352 352 353 353 353 353 353 353 354 354 355 355 355
347 348 350 351 351 352 351 351 349 348 348 348 348 349 350 350 351 351 352 352 352 353 353 353 353 353 354 353 353 353 353 353 353 353 353 352 352 352 351 352 353 353 352 352 353 352 352 353 353 353 353 352 353 353 353 352 353 353 354 355 355 356 356
348 348 349 351 351 352 352 351 350 348 348 349 348 349 350 350 351 351 352 352 352 352 352 353 353 353 354 353 353 353 352 353 353 352 353 352 352 353 352 352 353 353 354 353 353 354 352 352 354 354 353 353 353 354 354 353 353 353 354 355 355 356 357
348 349 349 350 350 351 352 351 351 349 349 349 349 350 350 351 351 352 352 353 352 353 353 353 353 353 353 353 352 353 353 352 353 352 352 353 352 352 352 352 352 352 354 354 354 354 354 353 354 354 354 354 354 354 354 353 353 353 354 355 356 356 357
349 350 350 350 350 351 353 351 352 351 350 349 349 350 351 351 352 352 353 353 353 354 353 353 354 354 354 354 353 353 353 352 353 352 352 352 352 352 352 352 352 352 352 354 354 354 354 354 355 355 356 355 355 354 354 354 354 354 355 355 356 356 356
350 351 352 352 351 352 353 352 354 354 351 350 349 351 351 351 353 353 353 354 354 354 354 353 354 354 354 354 354 353 353 353 353 352 353 352 352 353 352 352 352 352 352 353 353 354 354 355 355 356 356 356 356 355 355 355 355 355 355 355 356 356 356
351 352 352 353 352 353 354 354 355 355 353 351 350 351 352 352 353 353 353 355 354 354 354 354 355 355 354 355 355 354 353 353 353 353 353 352 353 352 353 353 353 353 353 353 353 354 355 355 356 356 356 356 356 356 356 355 356 356 356 356 357 357 356
350 352 352 353 353 352 354 355 355 355 353 351 350 351 352 353 353 353 354 355 355 356 355 355 355 355 354 355 355 355 355 354 354 353 353 353 353 353 353 353 353 353 353 353 353 354 355 355 356 355 356 356 356 357 357 356 356 356 357 357 357 357 357
352 352 351 353 353 353 355 354 355 355 354 351 350 351 352 353 354 354 355 355 356 356 356 356 356 356 356 355 355 355 355 355 355 354 353 354 353 353 353 353 353 353 353 353 353 354 355 355 355 355 356 356 356 357 357 357 357 357 357 357 358 357 357
352 351 351 352 352 354 354 354 354 355 354 352 350 350 352 353 354 355 355 356 357 356 357 357 357 356 357 356 356 356 356 356 355 355 355 355 354 354 354 353 353 353 353 353 353 354 354 355 356 356 356 356 356 356 356 357 356 357 356 356 357 358 357
350 350 351 351 352 353 353 353 354 354 354 354 351 350 351 352 354 355 356 356 357 357 358 358 358 357 357 357 357 357 356 356 356 356 356 355 355 355 355 354 354 354 353 354 353 353 353 354 356 357 357 356 356 356 356 356 356 355 355 355 356 357 357
349 350 351 350 351 351 351 353 354 354 355 353 350 350 351 352 353 354 356 357 357 358 359 358 359 358 358 358 357 357 357 356 357 357 356 356 355 355 355 355 354 354 354 354 353 353 353 353 354 355 356 357 357 357 357 356 356 355 355 356 355 357 358
349 350 350 350 351 352 352 353 354 354 355 351 350 350 351 351 353 353 355 356 357 358 358 359 359 359 358 358 358 358 358 357 357 357 357 356 356 356 356 355 355 355 355 354 354 354 353 353 353 353 354 355 356 357 357 357 356 356 356 356 357 357 357
349 350 349 350 351 350 351 351 352 353 352 350 349 351 351 351 352 353 354 356 356 357 358 360 360 359 359 359 359 358 358 358 358 358 357 357 356 356 356 356 356 356 355 355 355 354 354 354 353 353 352 353 354 355 356 356 357 357 357 357 357 357 358
348 347 349 350 349 350 351 350 351 351 350 350 350 350 352 352 353 353 354 355 356 357 358 360 360 360 360 359 360 359 359 358 358 358 358 357 357 357 356 356 356 356 356 355 355 355 355 354 354 353 353 353 352 353 353 354 355 356 356 356 357 357 358
362 353 351 349 348 350 350 351 353 351 349 351 351 351 353 354 354 355 355 356 356 357 358 359 360 361 361 360 360 360 359 359 359 359 359 358 358 357 357 356 356 356 356 355 355 355 354 354 354 354 353 353 352 352 352 353 353 353 354 355 355 356 357
377 372 369 365 363 363 357 352 350 350 349 351 352 353 354 356 356 356 357 356 357 357 358 360 361 361 361 361 361 361 360 361 359 359 359 359 358 358 357 357 357 357 356 355 355 355 354 354 354 354 353 353 353 352 352 352 352 352 353 354 354 355 356
367 371 375 375 373 370 361 352 350 351 351 352 353 354 356 358 359 359 358 358 358 359 359 360 361 362 362 362 362 362 362 362 361 360 359 359 359 359 358 358 357 357 356 356 356 355 355 354 354 353 354 353 353 353 353 353 352 353 353 353 354 355 356
359 362 365 367 367 363 358 357 358 358 357 358 357 356 357 359 360 361 361 360 360 360 360 361 361 362 363 363 363 363 363 362 362 361 361 360 360 360 359 358 358 358 357 356 356 355 355 355 354 354 353 353 353 353 353 353 352 352 353 353 354 355 356
359 359 359 361 363 363 361 361 362 362 362 362 362 361 360 360 362 362 362 362 362 361 361 361 361 362 362 364 364 364 364 364 364 363 362 362 361 361 360 360 359 359 358 357 357 356 355 355 354 354 353 353 353 353 353 353 352 352 353 352 353 354 355
359 359 359 357 359 360 360 361 361 361 362 363 364 363 361 361 363 364 363 363 363 363 363 362 362 362 363 364 365 364 365 365 365 364 364 363 363 361 362 361 360 360 359 358 357 356 356 355 355 354 353 353 353 353 353 353 352 353 353 352 352 353 354
357 358 359 358 358 359 359 359 360 359 360 362 364 364 363 363 365 364 364 364 363 363 363 363 363 363 363 363 364 365 365 365 366 365 364 365 364 363 362 362 361 360 359 359 358 357 357 356 356 355 354 354 353 353 354 354 353 354 353 354 354 353 353
357 357 357 359 358 358 357 358 358 358 360 362 363 364 363 364 365 365 364 363 363 363 364 364 364 364 364 365 364 364 366 365 365 365 365 365 365 364 363 362 361 361 359 359 358 357 357 357 356 355 355 354 354 354 354 354 354 355 355 355 355 355 356
356 357 357 357 358 357 356 356 356 356 358 360 361 363 362 363 364 364 364 364 365 365 364 363 365 364 364 365 365 365 366 366 366 366 366 366 365 365 364 363 362 361 360 359 359 358 358 357 357 356 356 355 355 355 355 355 355 356 356 356 357 357 357
354 355 355 355 356 356 355 354 354 354 356 358 359 360 361 362 363 363 363 365 367 367 365 364 364 364 363 364 364 365 365 365 366 366 366 366 366 365 365 364 363 362 362 360 359 359 358 358 357 356 356 355 355 355 355 355 356 356 356 356 356 357 357
351 353 353 353 354 355 354 354 354 353 354 356 357 357 358 360 361 362 362 363 365 367 368 367 365 366 364 363 363 364 364 365 366 367 366 366 366 365 365 364 363 363 363 361 360 359 359 359 358 358 357 356 356 356 356 356 356 356 357 356 357 357 358
349 349 350 352 353 353 353 353 353 353 353 354 356 357 357 358 359 360 361 362 363 366 368 368 368 368 367 364 363 362 364 365 366 367 367 366 366 366 366 365 365 364 363 363 362 361 360 360 360 359 358 358 357 357 357 357 358 357 358 358 358 358 359
347 347 348 350 352 353 352 352 351 351 351 351 354 356 356 357 358 358 359 361 362 364 366 368 370 370 368 366 363 361 363 364 366 367 367 367 367 367 366 366 366 365 365 364 363 362 362 362 361 361 360 359 359 359 359 359 360 360 360 361 360 361 361
345 344 345 348 351 351 351 350 350 350 350 350 352 354 354 355 356 357 358 360 361 362 365 367 370 370 369 367 364 362 362 364 366 367 368 368 368 368 367 366 366 365 365 365 364 364 364 363 363 363 362 361 362 361 360 359 360 362 362 363 363 364 363
342 341 342 345 348 349 350 350 350 350 350 351 351 353 353 353 353 355 356 357 360 361 363 366 369 369 369 368 365 363 362 364 366 368 368 367 366 365 365 366 366 367 367 366 366 366 365 365 365 364 364 364 363 363 360 358 360 362 363 363 364 365 365
338 338 341 343 345 347 348 349 350 350 350 351 351 352 352 352 353 354 354 354 355 357 359 364 368 369 370 368 366 364 363 365 367 368 367 364 362 361 359 360 362 365 366 367 368 368 367 366 367 366 367 366 365 364 362 362 363 362 362 362 363 362 362
337 338 341 342 343 346 347 348 349 350 351 351 351 351 351 352 351 352 353 353 354 354 357 360 366 369 369 370 367 365 365 366 367 366 363 360 360 359 357 355 357 359 363 365 367 367 368 368 368 368 368 368 366 365 363 361 361 360 359 359 358 356 353
337 338 341 342 343 344 346 347 347 348 350 351 351 350 351 351 350 352 353 355 356 357 358 361 365 368 369 369 368 367 366 366 365 362 359 356 356 357 357 355 354 352 353 358 362 365 366 367 367 368 368 368 368 365 360 356 356 356 354 351 347 344 341

ECMWFFLT1_925_thetae_072.txt.gz
Theta_e
348 349 349 349 349 348 349 348 347 347 347 348 349 349 350 351 352 353 353 353 354 353 354 354 354 355 354 355 354 353 353 352 351 351 351 351 351 352 352 352 353 353 353 353 352 353 353 352 351 350 350 350 351 351 350 351 351 350 348 347 348 351 353
348 348 348 348 349 348 349 347 346 347 347 347 348 349 350 351 352 352 352 353 353 353 354 354 354 355 354 354 355 354 354 353 352 352 351 351 352 352 352 352 352 353 353 352 352 353 353 352 352 350 350 350 351 351 350 350 351 351 349 348 349 352 353
347 348 348 348 350 349 349 348 346 346 347 347 348 348 349 350 351 352 352 352 353 353 353 353 354 354 354 354 354 354 354 353 353 352 352 351 352 352 352 352 352 352 352 352 352 352 352 352 352 351 350 350 351 351 350 350 351 351 351 350 349 351 353
347 347 347 348 349 349 349 348 346 346 346 347 347 348 349 350 351 351 352 352 353 353 353 353 353 354 354 354 354 354 354 354 353 353 352 352 352 351 352 352 352 352 352 352 352 351 352 352 352 352 350 350 351 350 350 350 350 351 352 351 350 351 352
347 346 347 348 348 349 349 349 347 346 346 347 347 348 348 349 350 351 351 352 352 352 353 353 353 353 354 354 354 354 354 353 353 353 352 352 352 352 352 352 352 352 351 351 351 351 351 351 351 351 350 350 351 350 349 349 349 351 352 352 350 350 351
347 346 347 347 347 348 349 348 347 346 346 346 347 348 348 349 350 350 351 352 352 352 353 353 353 353 354 354 353 354 353 353 353 353 353 352 352 352 352 352 351 351 351 351 351 351 350 350 350 350 350 350 351 350 350 349 349 350 352 353 351 350 350
345 346 346 347 346 348 348 348 347 346 347 346 346 348 347 348 349 350 351 351 352 352 352 352 353 353 353 353 353 353 353 353 353 353 352 352 352 352 352 352 352 351 351 351 351 350 350 350 349 349 349 349 350 351 350 350 350 350 351 353 353 352 351
346 346 346 346 346 346 347 347 347 347 347 346 346 347 348 348 349 350 350 351 351 352 352 352 353 353 353 353 353 353 353 353 353 352 353 352 352 352 352 352 352 352 351 351 351 351 350 350 350 349 349 349 350 350 350 350 350 350 352 353 353 353 353
345 346 346 346 345 345 347 347 346 347 346 346 346 347 347 348 348 349 350 350 351 352 352 352 352 352 353 353 353 353 353 353 353 353 353 352 352 352 352 352 352 351 352 351 351 351 350 351 351 350 350 350 350 350 350 351 351 351 352 353 353 353 353
345 346 346 347 346 346 348 347 348 348 347 347 346 347 347 348 348 349 350 350 351 351 351 352 352 352 352 353 353 353 353 353 353 352 352 352 352 352 352 352 352 351 351 351 351 351 351 351 351 351 351 350 350 351 351 351 351 351 352 352 353 353 353
345 347 347 347 347 348 350 350 351 351 349 346 346 347 347 347 348 349 349 350 350 351 352 352 352 352 352 353 353 353 352 352 352 352 352 352 352 352 352 352 352 351 351 351 351 351 351 351 351 351 351 351 351 351 351 351 351 352 352 352 352 353 352
343 347 348 348 348 349 351 352 353 353 350 347 346 347 347 348 349 349 349 350 350 351 351 351 352 352 352 352 352 352 352 352 352 352 352 352 352 352 352 352 351 351 351 351 351 352 352 352 352 352 352 352 352 352 352 351 352 352 352 353 353 353 353
344 345 347 348 348 349 353 354 354 353 351 348 346 347 348 348 349 349 350 350 350 351 351 351 352 352 352 352 352 352 352 352 352 352 352 352 352 352 352 352 352 351 351 351 351 351 352 352 352 353 352 352 352 352 352 352 352 353 353 353 353 353 353
346 345 345 348 348 350 354 354 354 354 351 349 347 347 348 348 349 349 350 350 350 351 351 351 351 352 352 352 352 352 352 352 352 352 352 352 352 352 352 351 352 351 351 352 351 351 351 352 352 352 352 352 352 352 353 353 353 353 353 353 354 354 354
344 344 344 348 349 351 353 354 354 354 352 349 348 348 348 349 349 350 350 350 351 351 351 352 351 352 352 352 352 352 352 352 352 352 352 352 351 352 352 351 352 351 351 352 352 352 351 351 352 352 352 352 352 353 353 354 354 353 353 353 354 354 354
340 344 345 347 349 350 351 353 354 354 354 352 349 348 349 349 349 350 350 351 351 351 352 352 352 352 352 352 352 352 352 352 352 352 352 352 351 352 352 352 352 351 352 352 352 352 352 352 352 352 352 352 352 353 354 354 353 353 353 353 354 354 354
339 345 346 347 349 349 350 353 354 354 355 353 350 348 349 350 350 350 351 351 352 352 352 352 352 352 352 352 353 352 353 352 352 352 352 352 352 352 352 352 352 351 352 352 352 352 352 352 352 352 353 353 353 353 353 353 353 353 353 354 354 355 355
343 346 348 348 349 351 351 352 353 354 354 352 349 349 349 350 351 351 351 351 352 353 353 353 353 353 353 353 353 353 353 353 353 353 352 352 352 352 352 352 352 352 352 352 352 352 352 352 352 352 353 353 353 354 354 353 353 353 353 354 354 355 355
346 345 348 350 350 351 351 351 351 353 352 350 349 349 349 350 351 351 351 352 353 353 354 354 354 354 354 353 353 353 353 354 354 354 353 353 353 353 353 352 352 353 352 352 352 352 352 352 352 352 352 352 354 354 354 354 354 353 354 354 354 354 354
348 347 347 348 350 350 350 351 351 350 349 349 349 349 349 350 351 352 352 353 353 354 354 355 355 354 355 354 354 354 354 354 354 354 354 354 354 354 354 353 353 353 353 353 353 352 352 352 352 352 352 352 353 353 353 354 354 354 354 354 355 355 355
352 352 351 349 350 351 351 352 353 351 349 349 350 350 349 350 351 352 353 354 354 355 355 355 355 355 355 356 355 355 355 355 355 355 355 355 354 354 354 354 354 354 354 354 353 353 353 353 352 352 352 352 352 352 352 352 352 353 354 354 355 355 355
362 355 352 352 352 353 353 351 350 349 349 349 349 350 350 350 351 352 353 354 355 355 356 356 356 356 356 356 356 356 356 356 356 355 355 355 355 355 355 355 355 354 355 354 354 354 354 353 353 353 352 352 352 352 352 352 351 352 352 352 353 354 355
364 359 354 353 351 349 347 346 347 348 349 349 349 350 349 350 351 352 353 354 355 356 357 356 357 357 357 357 357 357 357 356 356 356 356 356 356 356 356 355 355 355 355 355 355 354 354 354 354 354 353 353 352 352 352 352 352 351 351 351 351 352 353
360 363 362 358 352 347 344 345 347 348 348 349 349 350 350 350 351 352 353 354 355 356 356 357 358 357 357 358 357 357 357 357 357 357 357 357 356 356 356 356 356 356 355 355 355 355 355 355 354 354 354 353 353 353 352 352 352 352 351 351 351 351 352
359 362 362 358 353 350 347 348 349 349 349 350 350 350 350 351 351 352 353 354 354 355 356 357 357 358 358 358 358 358 358 358 358 357 357 357 357 357 357 357 357 356 356 356 356 355 355 355 354 354 354 354 354 353 353 353 353 352 352 352 352 351 351
358 360 360 357 355 354 352 352 352 351 350 350 351 351 352 352 353 354 354 354 354 355 356 356 357 358 358 358 359 359 359 358 359 358 358 358 358 357 357 357 357 357 357 356 356 356 356 355 355 355 354 354 354 353 353 353 353 353 353 352 352 352 352
356 357 359 359 359 358 358 357 356 355 354 353 353 353 354 354 355 356 355 355 355 355 356 356 356 357 358 359 359 359 360 360 359 359 359 358 358 358 358 358 358 357 357 357 357 356 356 356 355 355 355 354 354 354 353 353 353 353 353 352 352 352 352
354 355 356 357 358 359 359 359 359 359 359 358 356 356 356 356 357 358 358 357 357 357 356 356 356 357 358 358 359 360 360 361 360 360 360 360 359 359 359 358 358 358 358 358 357 357 356 356 356 355 355 355 354 354 354 353 353 353 353 353 352 352 352
352 353 354 353 355 356 357 357 358 357 359 360 359 358 359 359 360 360 360 359 359 359 359 358 358 358 358 359 360 360 361 361 361 362 361 361 361 360 360 360 359 359 359 358 358 357 357 357 356 355 355 355 355 354 354 354 354 354 353 353 353 352 352
348 351 352 352 352 353 353 354 355 355 356 358 360 361 361 361 362 362 362 363 363 361 361 361 361 361 361 360 360 361 361 362 363 363 363 363 362 362 361 361 360 360 360 359 358 358 357 357 357 356 356 355 355 355 355 354 354 354 353 353 353 353 353
345 348 350 351 351 351 351 352 352 352 353 355 357 360 361 362 363 363 363 365 365 364 362 362 362 362 362 362 362 362 362 362 363 363 364 364 363 363 363 362 362 361 360 359 359 358 358 358 357 357 356 356 356 355 355 355 355 354 354 354 354 354 354
342 344 346 349 350 350 349 350 350 350 351 352 353 356 358 360 362 362 362 364 365 366 364 362 362 362 362 362 363 362 363 363 363 363 364 364 364 364 364 363 363 362 361 360 360 359 358 358 357 357 357 356 356 356 356 355 355 355 355 355 354 354 354
339 341 343 346 348 349 348 348 349 350 349 349 351 353 354 357 359 360 362 363 364 366 366 365 365 364 363 363 363 362 363 363 363 363 364 364 364 364 364 364 363 363 362 361 360 360 359 358 358 357 357 356 356 356 356 356 356 355 355 355 355 355 355
337 338 340 342 345 347 348 347 347 348 348 348 350 351 352 354 355 357 359 360 361 364 366 368 368 367 366 366 364 362 362 362 363 364 363 363 364 364 364 364 363 363 363 362 361 361 360 359 359 358 358 357 357 357 357 356 356 356 356 357 357 356 356
336 336 339 341 342 344 346 346 347 347 347 348 350 351 351 352 353 353 354 355 356 359 362 366 368 368 368 366 364 363 361 360 362 363 363 364 363 362 362 363 363 363 363 363 362 362 361 361 360 359 359 359 358 358 358 357 357 359 359 359 359 358 358
335 335 337 340 341 343 345 346 347 347 347 348 349 350 350 352 353 353 353 353 354 355 358 362 366 368 368 367 364 363 362 360 361 363 364 364 362 360 359 359 360 362 363 363 363 363 363 362 362 361 362 361 360 360 360 360 361 361 361 360 360 360 360
334 334 336 339 340 342 343 344 346 347 347 348 349 348 349 351 352 354 355 355 356 356 356 359 364 367 368 368 366 363 362 361 362 363 363 362 360 358 357 355 356 358 360 362 363 364 364 364 363 363 363 363 362 362 361 361 362 362 362 362 361 361 361
333 334 336 338 339 340 342 343 344 345 347 348 349 348 349 350 352 353 354 355 356 358 358 360 363 366 367 368 367 364 363 363 363 363 360 357 356 356 356 355 354 353 355 359 362 363 364 365 364 364 365 365 364 364 363 363 363 362 361 360 360 360 361

ECMWFFLT1_925_thetae_075.txt.gz
Theta_e
350 350 350 350 350 350 350 351 352 353 354 355 354 354 354 355 356 356 356 356 356 357 357 356 356 356 355 355 354 353 354 354 354 353 353 353 353 353 352 351 350 349 350 350 351 351 351 351 352 352 352 352 352 351 350 351 351 351 351 350 351 351 350
350 350 350 349 350 350 350 351 352 353 352 354 354 354 354 355 356 357 357 357 357 357 357 357 356 356 356 356 355 355 354 354 354 353 353 353 352 352 352 350 350 349 348 349 349 349 350 351 352 351 352 352 352 351 350 350 350 351 351 350 352 353 352
349 350 349 349 350 350 350 350 352 352 352 353 353 353 354 355 356 357 357 357 357 357 357 357 357 357 356 356 356 355 355 355 354 353 353 353 352 352 352 351 350 350 349 348 349 349 350 351 351 351 351 351 352 351 350 351 350 351 351 350 352 354 352
349 350 350 350 350 351 350 350 351 351 351 352 352 353 354 355 356 356 357 357 357 358 358 357 357 357 357 357 357 356 355 355 354 354 353 353 353 353 354 352 351 351 351 349 349 350 351 352 352 352 351 351 352 351 350 350 350 351 351 351 353 355 355
349 349 350 350 350 350 350 350 351 351 350 351 352 352 354 355 355 355 356 356 356 357 358 357 357 357 357 357 357 357 356 355 355 354 354 354 354 354 353 352 352 352 351 350 350 351 351 352 352 352 351 351 352 352 351 350 350 351 351 351 354 357 358
348 349 350 351 349 350 349 349 350 351 350 350 351 352 353 354 354 355 355 356 356 357 357 357 357 357 357 357 357 357 357 356 355 355 355 355 354 354 353 353 352 352 352 352 351 351 351 351 352 352 351 352 353 353 352 351 350 351 352 353 356 358 359
347 349 350 350 349 349 349 349 350 350 350 350 350 351 352 352 353 354 354 355 356 356 357 357 357 357 357 357 357 358 357 357 356 355 355 355 355 354 353 353 353 352 353 352 351 351 351 351 351 351 351 352 353 352 351 351 350 351 353 353 355 357 358
347 349 349 349 349 348 348 349 350 350 350 350 350 351 351 352 353 353 354 355 355 356 356 356 357 357 358 357 357 357 356 356 356 356 356 356 355 355 354 354 353 352 353 352 351 351 351 351 351 350 351 351 352 351 350 350 349 350 352 352 353 356 358
346 350 349 347 347 347 348 349 350 351 351 350 350 351 351 351 352 353 354 355 355 356 356 356 356 357 357 357 357 357 357 356 357 356 356 356 356 355 355 355 354 353 352 352 352 352 351 351 351 351 350 350 350 350 349 349 349 350 351 351 351 354 356
346 349 350 348 347 347 348 349 351 352 352 351 351 351 351 351 352 353 354 354 354 355 355 355 356 357 357 357 356 357 357 357 357 356 356 356 356 356 355 355 355 354 352 352 353 353 351 351 351 351 350 350 349 350 349 349 349 349 350 350 351 352 354
346 351 352 349 348 349 348 350 353 354 354 353 352 351 351 352 352 352 353 354 354 355 355 355 356 356 357 357 356 357 357 357 357 356 356 356 355 356 355 354 355 354 353 353 354 354 353 352 351 351 350 350 350 349 350 350 350 350 350 351 351 351 353
342 350 353 352 350 350 351 353 355 356 356 354 352 351 352 352 352 353 353 354 354 354 355 355 356 356 357 356 356 357 357 357 357 356 356 356 355 356 355 354 355 355 354 354 354 354 354 353 352 352 350 350 350 350 350 350 350 350 350 352 352 352 352
343 345 350 352 351 352 355 358 358 357 357 354 351 351 352 352 352 352 353 354 353 354 355 355 356 356 356 356 356 357 357 356 356 356 356 356 355 355 355 355 354 354 354 354 354 354 355 354 354 352 351 350 350 350 350 350 351 351 350 351 352 352 352
342 342 346 349 351 354 356 358 359 358 356 354 352 351 351 352 351 352 354 354 353 354 355 355 356 356 356 356 357 357 357 357 356 356 356 356 355 355 355 355 354 355 354 354 355 355 355 355 355 354 352 351 350 351 351 351 351 351 351 351 352 353 353
335 337 342 346 350 355 357 356 358 358 356 354 353 352 352 352 352 353 353 353 354 354 355 356 356 356 356 356 357 357 357 356 356 356 355 356 355 355 355 355 355 355 354 354 354 354 355 355 355 355 354 353 353 353 353 353 352 351 352 352 352 353 355
328 330 334 342 348 352 354 355 357 358 357 356 354 352 352 352 353 353 353 353 354 354 355 356 355 355 356 356 357 357 356 355 355 356 356 355 355 355 355 355 355 355 355 354 354 354 355 355 355 356 355 355 355 355 355 355 353 352 351 351 351 353 355
334 329 329 335 343 349 352 354 356 358 358 357 355 353 353 353 353 352 352 353 354 354 355 355 355 356 356 357 357 356 355 355 355 356 355 355 355 355 354 355 355 355 355 355 354 354 355 355 355 355 355 356 356 356 356 355 353 351 350 350 350 352 355
349 340 333 332 337 345 351 351 354 357 355 354 354 354 353 353 353 352 352 353 353 354 355 354 355 356 356 357 357 356 355 355 356 356 355 355 355 354 354 354 355 355 355 355 355 355 355 355 355 355 355 355 356 356 356 355 353 351 351 350 349 350 353
357 351 342 336 335 339 345 348 350 354 354 353 353 353 352 352 353 353 353 354 354 354 354 354 355 356 356 357 357 356 356 356 356 356 356 355 355 354 354 354 355 356 355 355 355 355 355 355 355 356 356 356 356 356 356 355 354 351 350 350 350 350 351
358 355 349 341 336 336 342 349 351 353 355 355 353 352 352 352 353 354 354 355 355 355 355 355 355 356 357 357 357 356 356 356 356 356 356 355 355 355 355 355 355 355 355 355 356 356 355 355 356 356 356 356 356 356 356 356 355 353 351 350 350 350 351
357 358 353 345 339 342 346 352 353 354 355 354 352 353 353 352 353 355 354 355 355 355 356 356 357 357 357 357 357 357 357 356 356 357 357 356 355 355 356 356 356 356 355 355 356 356 356 355 355 356 356 356 356 357 357 356 355 353 353 351 351 351 352
356 357 357 351 345 348 352 352 351 353 354 353 352 353 353 353 353 354 355 355 355 355 356 357 358 358 357 357 357 357 357 357 357 358 357 357 356 356 356 357 356 356 356 356 356 356 356 355 356 356 356 356 356 356 356 356 355 354 353 352 352 352 353
355 356 357 353 347 351 355 353 352 354 355 354 353 352 352 353 354 355 356 355 355 356 357 357 358 358 357 357 358 357 358 358 358 358 358 358 358 357 357 357 357 357 356 356 357 356 357 357 356 356 356 356 356 356 356 356 355 353 353 352 352 353 353
355 356 356 351 347 351 354 353 354 355 355 354 353 353 354 354 356 357 358 356 357 358 358 358 358 358 358 358 358 358 358 358 358 358 358 359 359 358 358 358 358 358 357 357 357 357 357 357 357 357 357 356 356 356 356 356 355 354 353 352 352 352 353
355 356 357 353 348 350 354 355 355 354 355 355 354 354 354 355 357 358 358 357 357 357 358 358 359 359 359 359 359 359 358 358 358 359 358 359 359 358 359 359 358 358 358 358 358 357 358 358 357 358 358 357 357 356 355 356 356 354 354 353 352 352 351
355 356 358 356 353 352 355 357 357 354 354 355 355 354 354 355 357 358 358 357 357 357 358 359 360 360 360 360 359 359 358 358 359 359 359 360 359 359 359 359 359 359 359 359 359 358 359 359 358 359 359 358 358 357 356 356 356 355 355 354 353 352 351
354 356 358 360 359 358 356 356 356 354 354 355 355 354 354 356 359 360 360 360 358 359 359 360 361 360 360 360 360 359 360 360 360 359 360 360 360 359 360 360 360 360 360 359 359 359 360 360 359 359 359 359 359 358 358 357 357 356 356 354 353 353 352
351 354 356 359 361 361 359 358 356 354 354 354 354 355 355 356 359 361 361 361 360 360 361 360 360 359 359 360 361 361 361 361 360 361 360 360 361 361 361 361 360 361 360 360 360 360 360 360 360 360 360 360 359 359 359 358 357 356 356 355 354 354 353
346 350 353 355 357 359 361 362 361 359 357 355 354 356 355 356 360 361 361 361 361 360 360 359 358 359 360 361 362 362 362 362 362 361 361 362 362 362 361 362 361 361 362 361 361 361 361 361 360 360 360 360 360 360 359 358 358 357 356 355 355 354 354
342 346 350 353 355 357 359 361 363 363 362 360 359 358 356 357 361 362 361 361 360 358 358 358 357 359 361 362 363 363 363 363 363 362 362 362 363 362 362 363 362 362 362 362 362 362 361 361 361 360 360 360 360 360 360 359 359 358 356 355 355 354 354
339 342 347 350 353 355 357 359 361 362 363 364 364 362 360 360 362 363 363 361 358 356 357 357 357 359 361 362 363 364 364 364 364 363 363 364 363 363 363 363 363 364 363 362 362 362 361 361 361 361 361 361 361 361 361 360 360 359 358 356 355 355 354
337 339 344 348 350 353 355 357 358 360 361 362 363 364 365 364 364 365 364 361 356 355 356 357 358 360 361 363 364 364 364 365 365 365 365 365 364 364 364 364 364 365 364 364 363 362 362 362 362 362 362 362 362 363 362 362 361 360 359 358 356 355 355
336 337 341 345 348 351 354 355 357 358 358 359 360 362 364 365 365 365 364 361 359 357 356 357 358 359 360 363 364 364 365 365 365 366 367 366 366 366 365 365 365 366 365 365 364 363 363 363 362 363 363 362 362 363 363 363 363 362 360 359 356 355 355
334 335 339 342 345 349 352 353 355 355 356 356 357 358 360 361 363 364 365 366 364 362 360 358 358 359 360 361 363 364 365 365 365 366 367 367 367 367 367 366 366 367 366 366 365 365 364 364 364 363 363 363 363 364 364 364 363 362 362 360 358 357 355
332 334 337 340 342 345 349 351 353 354 354 354 355 356 357 357 358 360 363 366 368 367 365 362 361 361 361 362 362 363 363 364 365 366 367 368 368 366 366 367 367 367 367 367 366 365 365 365 365 365 364 364 364 364 365 365 364 363 362 361 359 358 357
332 333 336 338 340 342 345 348 350 353 354 353 354 355 355 355 355 356 358 361 366 369 368 365 364 364 364 364 364 363 362 362 364 366 367 368 366 364 362 362 364 365 366 366 366 365 364 364 365 364 364 364 364 364 364 364 364 363 362 361 360 359 357
331 332 333 335 337 339 341 344 347 350 352 352 353 354 355 354 354 354 355 357 360 365 368 368 369 369 368 367 366 364 364 364 365 366 367 365 362 361 358 357 358 360 362 364 364 363 363 363 363 363 363 364 364 364 363 362 363 362 361 361 360 359 358
331 330 332 333 335 336 338 340 342 345 349 352 352 352 353 354 353 353 355 356 357 361 364 368 371 372 370 369 366 364 365 366 366 365 364 361 359 357 356 355 355 355 356 359 362 362 362 362 362 362 362 362 363 363 362 362 362 361 361 360 360 359 358

ECMWFFLT1_925_thetae_081.txt.gz
Theta_e
353 355 355 354 353 352 355 359 362 362 362 362 362 360 359 360 360 360 362 364 364 365 365 363 364 364 362 362 361 360 360 360 361 361 360 359 356 355 358 357 357 354 353 354 354 353 354 355 354 356 358 360 361 361 361 362 361 360 360 360 360 359 359
351 351 351 353 351 351 357 362 363 363 363 363 362 361 361 361 361 363 363 365 366 365 366 365 365 364 363 363 361 361 361 361 362 362 361 361 359 358 358 358 357 356 353 352 353 354 356 356 356 356 358 361 360 361 362 361 362 360 359 360 361 361 360
351 349 350 352 351 352 358 363 363 363 363 363 364 362 362 361 362 363 364 366 367 366 367 366 366 365 364 363 362 362 361 361 362 362 361 361 361 359 359 358 358 357 355 352 352 354 355 357 358 357 357 359 359 359 361 361 361 361 360 359 360 360 361
351 349 350 351 353 355 358 361 363 364 363 364 365 364 363 363 363 364 365 366 368 368 368 368 367 366 365 363 363 362 361 361 361 362 360 361 361 361 359 359 359 358 357 355 352 353 355 357 359 359 359 360 359 359 360 360 360 361 361 360 361 360 361
351 349 348 351 352 354 357 360 363 363 363 362 364 364 364 364 364 365 366 367 368 369 368 368 367 366 366 364 363 362 362 362 362 361 360 360 362 362 361 360 361 359 357 356 354 353 355 356 359 360 360 360 359 358 359 360 359 360 360 361 361 359 359
347 349 349 350 351 353 355 358 362 364 363 362 364 365 365 363 364 364 365 367 368 368 369 368 367 366 366 364 362 363 363 363 363 362 361 361 362 364 362 361 362 360 357 357 356 355 357 357 358 360 360 360 359 356 357 359 359 359 360 361 361 360 357
343 346 350 352 352 350 351 356 361 362 362 362 362 365 364 364 364 364 365 367 367 368 368 368 367 366 366 363 363 364 364 363 364 363 362 362 362 363 364 362 362 360 358 357 357 356 358 359 359 359 359 359 357 354 355 358 359 358 359 361 361 360 359
341 343 347 350 349 347 347 354 360 361 361 362 362 364 365 363 364 364 364 365 366 367 367 367 367 366 365 364 364 365 364 363 364 363 363 362 362 364 365 364 362 361 359 357 357 357 358 360 360 359 359 358 357 355 354 356 358 358 358 360 361 361 359
339 341 345 347 346 345 349 353 360 361 361 361 360 362 364 364 364 364 364 365 365 366 366 366 365 366 366 366 365 365 364 363 363 363 363 363 363 364 364 364 363 362 360 358 358 359 359 360 361 359 360 360 358 358 356 356 359 359 357 358 360 361 360
337 341 345 346 345 346 347 351 358 361 362 363 361 361 364 364 364 363 363 365 365 365 366 365 365 366 367 367 365 365 364 364 364 363 364 363 363 364 363 363 362 361 361 360 358 359 360 360 361 361 361 361 359 360 360 359 360 360 358 357 358 361 361
338 343 346 346 346 347 346 349 360 365 365 364 362 362 363 363 363 364 363 365 364 364 365 363 363 365 367 366 365 364 364 364 363 363 364 363 362 363 362 360 361 362 362 361 358 359 361 361 362 363 363 362 362 362 363 362 362 362 360 358 358 359 361
341 348 349 349 348 347 348 357 365 367 369 365 362 362 363 363 363 364 363 364 364 363 364 363 362 364 367 366 364 364 365 364 363 363 363 363 363 363 361 358 358 360 362 361 359 358 360 362 362 362 364 364 363 363 364 364 364 363 361 359 358 359 360
341 348 351 352 352 351 354 364 365 366 367 365 361 361 363 363 363 363 363 364 364 364 363 363 362 364 367 367 364 364 365 364 363 363 364 364 363 361 360 358 355 358 360 361 360 358 358 361 363 362 363 364 365 364 365 365 365 365 364 360 358 360 361
337 341 346 349 352 354 357 363 367 366 365 363 363 360 361 363 362 361 363 364 363 364 363 363 363 364 367 367 364 365 366 365 364 363 364 364 362 360 359 358 355 356 359 361 360 358 356 358 361 361 362 364 365 365 365 366 366 366 366 363 360 358 361
336 336 338 342 346 352 356 360 366 367 364 363 363 360 360 362 362 361 363 363 364 363 364 363 364 365 367 367 366 366 367 367 365 364 363 364 363 361 359 359 356 355 358 361 360 358 357 355 358 361 361 362 365 365 364 365 366 366 366 365 363 358 358
342 340 341 343 347 350 353 357 362 366 367 366 364 361 359 360 361 362 363 363 363 363 363 363 364 366 368 368 367 367 368 368 366 364 364 364 365 363 361 359 359 357 358 361 362 360 358 356 356 359 361 362 364 365 364 364 365 366 364 364 363 361 357
344 345 343 344 347 349 353 356 358 364 368 367 365 362 359 360 362 361 362 362 363 362 363 363 364 367 368 368 368 368 369 370 368 365 365 365 366 365 363 361 360 358 359 361 363 361 358 357 357 357 360 362 364 365 365 364 364 364 363 361 361 361 360
345 344 345 346 348 353 358 356 355 359 364 365 364 362 360 359 360 360 361 362 361 362 362 364 365 367 368 369 369 369 370 370 369 368 367 367 368 367 365 363 362 361 360 363 364 364 362 359 359 358 358 360 362 363 364 363 362 362 362 360 357 358 359
347 345 346 346 348 352 357 356 355 358 360 363 363 361 358 359 360 361 361 360 362 362 361 362 364 367 368 370 369 370 372 370 370 370 369 369 369 369 368 365 364 364 363 364 365 365 364 361 360 361 359 359 361 363 362 363 363 361 361 359 357 354 355
351 349 350 349 349 354 359 361 362 364 365 362 362 361 359 357 359 361 362 360 362 362 361 363 365 367 368 369 370 371 371 372 371 371 371 371 370 370 369 367 366 366 365 365 365 366 366 364 362 363 361 360 360 362 363 362 363 363 361 360 358 354 352
350 351 352 354 355 357 361 363 366 368 369 365 360 359 360 358 358 360 362 362 362 362 362 363 364 367 369 369 370 372 371 372 373 371 372 372 371 371 370 368 368 367 365 364 365 367 368 366 365 364 365 363 361 362 363 362 361 363 362 360 359 357 354
345 347 349 353 355 358 361 363 364 367 369 368 363 358 358 359 357 359 362 361 362 363 363 363 365 367 370 370 371 372 372 373 372 372 373 372 372 372 371 370 370 369 366 365 364 366 368 368 367 366 366 366 364 361 362 362 361 361 363 362 360 359 357
340 343 347 350 354 358 361 362 364 366 367 366 364 357 355 358 358 358 361 362 362 364 362 363 365 368 369 370 371 371 373 373 372 372 373 372 373 372 371 371 371 369 368 367 365 366 367 368 367 367 367 367 366 364 363 361 361 361 361 362 362 360 358
337 341 345 349 353 358 360 360 364 365 364 364 363 357 353 357 358 359 362 363 363 363 363 363 366 368 370 371 371 372 373 372 373 372 372 373 372 372 371 372 371 370 368 367 365 364 365 367 367 367 367 367 366 366 365 362 360 360 360 361 361 360 359
335 340 344 347 352 357 360 360 361 363 364 362 360 355 351 354 358 360 361 362 362 363 364 364 365 368 371 370 370 373 373 372 372 372 372 373 372 371 372 372 371 371 369 368 366 363 362 364 367 367 367 366 366 366 366 363 362 361 361 360 360 360 359
333 338 343 347 351 355 358 361 361 363 365 362 358 354 352 354 360 361 362 363 363 363 364 364 365 369 371 371 371 372 372 372 373 372 372 372 372 371 370 371 371 370 369 368 366 364 362 362 363 366 367 366 366 365 365 364 363 362 362 361 360 359 358
334 338 342 344 348 352 356 361 362 362 363 361 358 354 352 355 359 363 365 364 364 364 363 364 367 370 370 370 370 371 372 372 372 372 371 372 372 371 370 370 370 370 369 368 366 365 364 362 362 363 365 366 365 365 364 365 364 364 363 363 362 360 358
333 337 339 342 346 349 355 360 362 363 361 358 356 356 354 357 361 365 367 365 363 363 363 364 367 368 370 371 370 370 371 371 371 372 371 371 371 370 369 370 369 369 369 368 366 366 365 363 362 363 363 364 365 365 364 365 364 364 364 363 362 361 359
332 335 337 340 343 346 352 357 362 365 361 356 357 357 356 358 364 367 367 365 364 363 363 366 367 369 370 371 369 370 370 370 371 371 369 369 371 370 371 370 368 368 368 368 367 367 366 366 365 364 364 364 365 366 366 366 365 364 364 363 363 362 360
331 334 336 338 341 345 350 356 362 366 362 357 356 358 357 358 363 367 366 365 365 364 363 366 368 369 372 372 370 370 370 370 371 370 369 370 371 371 370 370 369 368 369 368 368 368 368 368 367 366 365 365 365 366 366 366 366 365 364 363 363 362 362
329 334 334 336 339 343 349 356 363 366 365 363 359 357 358 359 362 367 368 366 365 363 364 367 369 371 372 370 370 369 369 369 370 370 368 369 370 371 370 369 369 369 369 369 368 369 369 369 368 367 366 365 365 366 366 365 366 365 365 364 363 363 362
328 333 334 335 338 342 347 355 362 365 366 367 363 359 359 361 364 368 368 366 365 364 365 368 370 372 372 371 370 370 369 369 370 370 368 368 370 371 371 370 370 369 369 369 369 368 368 368 367 366 366 366 366 366 365 365 366 365 366 365 363 363 363
327 332 334 334 336 340 344 352 359 364 366 367 366 363 362 363 365 367 368 367 366 364 366 370 371 372 372 371 369 369 368 368 369 369 368 369 369 370 370 370 370 369 370 368 367 367 368 366 365 365 366 366 366 365 366 367 367 366 367 366 365 364 363
328 332 333 333 335 339 342 348 355 360 364 365 366 366 366 364 365 366 367 367 365 364 368 372 372 372 372 371 369 368 368 369 369 368 368 368 368 369 369 369 369 369 369 369 367 367 367 365 365 366 366 366 367 367 367 368 367 367 367 366 365 363 362
328 332 332 332 334 338 342 347 351 355 358 362 365 367 367 368 367 367 367 368 366 366 370 372 372 372 372 371 370 369 369 369 368 368 369 368 367 367 369 370 368 368 369 369 367 367 366 366 366 366 366 366 366 367 367 368 368 368 367 367 367 364 361
327 330 332 331 332 337 341 344 347 349 352 356 362 365 367 367 369 368 367 367 367 367 370 372 371 372 371 372 371 369 369 369 368 367 368 369 367 366 366 367 367 367 370 370 369 368 367 368 368 367 368 368 367 367 368 369 369 369 368 368 368 366 364
327 330 332 331 332 335 339 340 342 345 347 350 356 362 364 366 367 367 367 369 368 368 369 371 371 370 370 371 369 369 369 369 368 368 368 370 370 367 364 364 363 365 368 370 369 368 368 368 369 368 368 368 369 369 368 368 370 369 368 367 367 366 366
327 330 331 331 331 334 336 338 339 341 343 347 352 355 357 361 363 364 365 368 369 369 369 370 370 370 369 370 370 369 369 369 369 369 369 370 372 371 369 366 363 361 362 365 367 368 368 367 368 367 367 368 371 371 369 367 368 368 367 367 366 366 366

ECMWFFLT1_925_thetae_084.txt.gz
Theta_e
352 351 353 355 355 355 356 358 357 356 358 359 360 358 356 356 358 360 363 365 365 363 360 359 361 358 353 353 353 351 350 348 347 347 347 346 345 347 352 353 352 352 353 354 354 353 353 354 356 357 358 359 360 360 358 359 359 359 361 359 358 359 359
351 348 351 353 354 357 358 357 357 357 356 357 359 358 357 358 358 359 362 365 366 364 361 360 360 359 355 353 352 352 352 350 349 349 348 349 347 347 350 354 355 353 352 353 354 354 352 352 353 355 357 358 361 361 361 361 361 361 361 360 359 359 359
350 349 352 353 355 359 358 360 363 362 358 357 357 359 360 359 359 360 361 365 366 365 363 362 360 360 357 355 354 353 352 352 352 351 351 351 351 349 349 352 355 355 352 351 352 354 353 352 352 355 356 359 361 362 362 362 362 362 361 360 361 360 360
351 351 351 353 355 357 360 362 365 363 359 359 359 360 361 360 359 360 361 365 367 366 366 364 362 362 361 357 354 354 353 354 354 352 352 352 352 352 350 352 355 355 355 352 351 352 354 353 354 355 356 358 361 362 362 363 363 363 362 360 361 361 361
354 352 353 354 355 358 360 361 363 361 359 359 358 359 360 359 360 360 361 364 367 368 367 365 364 364 362 359 358 358 355 355 354 353 353 354 354 353 352 354 356 356 356 354 351 351 353 354 355 356 357 357 360 362 361 362 362 362 362 361 361 362 361
355 354 355 355 355 357 358 356 359 360 359 358 356 357 359 359 360 360 361 364 366 367 367 366 365 364 363 362 362 360 357 355 354 354 355 355 355 357 355 355 355 356 356 354 354 352 352 355 357 358 358 358 360 361 360 361 362 361 362 361 361 362 361
352 354 354 353 352 355 355 354 356 358 358 357 356 357 358 358 359 360 362 365 366 367 368 366 365 363 364 364 362 360 358 357 356 357 358 357 357 359 359 357 357 358 357 355 355 353 352 354 357 359 360 359 360 361 360 360 361 361 361 360 361 362 360
353 355 352 351 352 353 352 354 356 358 358 357 356 357 357 356 357 360 363 366 366 367 368 367 365 365 365 363 361 359 360 360 358 358 359 360 358 360 361 359 358 358 358 357 356 355 352 353 356 358 360 360 360 359 359 359 360 360 360 360 361 362 361
353 354 353 353 351 351 351 354 357 357 357 358 357 356 357 356 357 359 363 365 367 368 368 367 366 365 366 364 361 361 362 361 360 359 361 361 360 360 361 361 360 359 360 358 358 356 354 354 356 357 359 361 361 359 357 357 358 359 360 360 361 362 361
353 354 354 353 351 352 353 352 357 358 358 359 358 356 358 360 360 360 363 366 367 369 369 368 367 367 367 365 363 362 362 362 362 361 361 360 360 360 362 363 362 361 361 359 358 357 356 355 357 358 359 361 360 360 358 357 357 358 359 360 359 361 361
353 356 355 353 354 355 354 354 361 362 359 359 359 358 359 361 363 363 365 366 367 369 370 368 367 368 368 367 363 363 363 363 362 363 362 361 361 361 361 363 363 362 362 360 358 357 358 357 358 359 360 359 360 359 357 356 356 357 358 358 359 360 360
352 357 357 356 358 358 357 360 365 365 362 360 359 359 360 364 365 364 365 366 366 368 369 368 368 367 369 368 363 363 365 364 363 363 363 361 361 361 361 362 363 362 362 361 358 357 358 358 359 360 360 359 359 360 358 356 356 357 357 359 358 359 360
352 356 357 356 357 358 361 364 365 367 364 361 357 358 361 365 365 365 366 366 366 368 368 369 368 368 368 367 363 364 365 365 363 363 363 361 361 361 361 362 362 362 363 361 359 356 357 358 359 360 360 359 359 360 359 357 358 358 358 358 358 358 359
350 350 354 355 356 361 365 365 365 367 366 360 358 359 362 365 365 366 367 366 366 367 368 368 368 368 368 367 364 365 365 365 363 363 362 361 360 360 361 361 361 362 361 362 360 357 356 358 360 361 362 361 360 360 360 360 359 360 360 359 359 358 357
342 341 348 355 358 364 369 367 364 367 368 365 363 362 363 364 365 366 366 367 366 365 367 368 367 368 369 367 366 366 365 364 363 362 362 362 361 360 361 360 360 361 361 362 361 358 357 358 360 362 362 363 362 361 361 361 361 361 361 360 359 358 358
342 344 349 352 353 358 365 372 372 371 373 372 366 364 364 364 365 367 366 366 366 365 366 367 367 368 369 368 367 366 365 364 363 363 362 362 362 361 361 362 361 360 360 361 361 359 357 356 359 362 362 363 365 364 363 363 363 362 362 362 359 358 358
346 346 349 349 352 354 358 370 378 374 373 375 371 365 365 364 366 365 365 365 366 366 366 366 367 367 368 368 367 365 365 364 363 363 363 363 363 362 362 362 361 359 359 360 361 360 358 355 357 361 362 362 364 365 364 364 364 364 363 362 360 358 356
349 349 350 352 353 355 354 359 370 368 362 365 368 365 364 364 366 364 364 365 365 366 365 366 367 367 368 369 369 367 366 366 364 364 363 363 364 363 362 362 362 360 358 359 360 360 359 357 357 358 361 362 363 365 366 365 364 365 364 362 361 358 356
351 350 352 354 354 357 357 357 362 364 362 362 360 357 358 361 362 363 365 365 366 366 365 365 367 367 368 369 369 368 368 367 366 365 365 365 365 364 363 362 361 361 358 358 360 361 361 360 358 357 358 361 362 363 365 365 364 364 364 362 360 359 357
348 348 349 353 353 356 359 360 362 364 365 364 361 356 355 354 358 363 364 364 365 366 365 366 367 367 369 369 369 369 369 368 368 367 366 366 365 365 364 362 363 361 359 359 360 361 362 361 360 358 357 359 361 362 364 364 364 364 363 362 360 358 357
343 345 347 349 352 353 356 359 360 363 363 364 364 363 360 356 355 360 364 364 364 365 365 365 367 368 369 370 370 370 370 370 369 367 367 366 366 367 365 364 363 362 360 359 359 362 364 363 361 360 358 358 360 361 362 363 363 364 363 362 360 359 358
340 341 344 347 349 351 354 356 358 360 362 363 365 366 367 362 355 355 362 365 364 365 365 366 367 369 370 371 371 371 372 371 370 369 368 367 367 367 367 365 364 363 362 360 360 362 364 364 363 362 359 359 359 361 362 361 362 363 362 362 360 360 360
337 339 341 344 347 349 352 353 356 359 362 364 365 365 367 366 360 357 360 362 363 364 365 365 368 370 370 371 372 371 372 372 372 371 369 368 368 369 368 366 365 363 362 361 360 362 364 366 364 363 362 360 359 360 361 360 360 361 362 362 361 360 360
335 338 341 343 346 347 349 351 353 356 359 362 363 363 364 366 365 362 362 362 363 363 364 364 368 370 371 372 371 372 372 373 372 372 371 369 369 369 369 368 366 364 364 363 362 363 364 366 366 364 363 362 361 360 360 360 360 361 361 362 362 361 361
333 337 339 342 343 345 346 348 351 355 358 361 364 365 364 364 365 364 365 364 362 362 363 364 366 369 372 371 371 373 374 374 374 373 372 371 371 371 371 370 366 365 364 363 362 363 363 366 367 367 365 363 363 362 362 361 359 359 360 361 361 362 361
331 334 338 340 340 342 344 347 350 354 357 359 362 366 367 364 362 363 364 365 363 362 364 364 364 368 371 371 372 373 374 374 375 373 373 374 373 372 372 370 367 366 365 364 362 361 362 364 367 368 367 365 364 365 364 363 361 360 360 360 361 362 361
330 331 335 337 338 340 342 345 348 352 355 358 362 366 367 365 362 360 361 364 364 363 363 364 365 366 370 371 372 373 373 374 375 374 373 374 374 373 371 370 369 368 366 365 363 362 361 362 363 366 367 366 365 365 366 366 364 363 361 360 360 360 361
329 329 332 335 336 338 340 343 346 350 354 359 363 366 368 365 361 360 362 366 365 363 363 365 365 365 369 371 372 373 373 374 373 373 373 373 374 373 371 371 371 370 368 366 364 364 362 360 360 362 366 367 367 366 366 366 365 364 363 362 360 360 360
328 328 331 333 334 335 338 341 344 348 352 357 363 367 369 365 359 361 365 368 366 363 364 366 365 367 370 372 372 373 373 373 373 373 373 373 374 373 371 372 372 371 369 368 366 366 364 362 361 361 364 365 366 366 365 365 365 365 364 364 363 361 360
327 328 331 332 333 334 336 339 342 346 351 357 363 368 371 369 362 362 369 371 366 364 365 367 366 368 372 374 373 373 373 374 374 373 372 373 374 372 372 372 372 371 371 369 368 367 366 365 364 362 363 364 365 365 365 364 364 365 364 364 364 363 361
327 328 329 331 332 333 334 337 341 345 351 358 365 369 372 371 365 367 374 372 365 365 366 367 368 371 373 375 374 374 373 373 374 374 373 373 374 373 372 372 372 372 372 370 369 368 367 368 366 364 363 363 363 364 364 365 366 366 364 364 364 363 363
327 327 328 330 332 332 334 336 340 344 349 356 363 368 371 370 365 369 376 373 367 367 367 368 370 372 373 374 374 373 373 373 372 374 373 373 374 373 373 372 372 371 372 371 370 369 369 368 367 366 365 364 363 365 365 365 367 367 367 365 364 364 364
327 327 327 330 332 333 334 336 339 341 345 351 359 366 368 369 369 369 373 371 370 368 366 370 372 372 373 374 374 373 372 372 371 372 372 372 373 373 372 372 371 370 372 371 369 369 369 369 368 368 366 365 365 365 366 366 367 367 368 366 365 365 364
327 328 328 330 332 333 334 335 337 339 341 347 357 362 365 368 371 370 370 371 370 367 367 370 373 372 374 374 373 373 372 371 371 371 371 371 372 372 371 371 371 370 371 369 369 369 370 370 369 368 369 367 367 366 365 367 367 367 368 367 366 365 364
327 328 329 330 332 333 333 334 336 337 339 345 354 358 361 363 366 368 369 370 368 365 367 371 373 373 373 374 373 371 372 371 371 371 371 371 371 371 371 371 371 371 370 369 369 369 369 369 369 369 368 367 366 365 366 367 365 365 367 367 367 366 365
327 329 329 329 329 331 332 333 334 336 338 344 350 353 355 359 362 364 367 369 369 367 367 371 373 373 373 373 374 371 370 371 373 372 370 370 371 369 367 367 369 370 370 369 369 369 368 368 368 368 368 366 365 366 366 367 366 366 366 367 367 367 367
326 327 328 328 328 329 331 332 333 335 337 342 346 348 351 356 358 360 362 366 369 369 369 372 374 376 374 373 372 371 370 371 371 372 370 370 369 365 363 362 363 367 369 371 370 368 368 368 367 368 366 365 365 366 366 366 367 366 366 367 368 368 367
324 325 327 327 327 328 331 332 333 333 335 338 341 344 347 350 352 355 360 366 367 368 369 369 370 372 374 372 372 371 369 369 371 371 372 371 367 364 364 362 360 360 363 366 368 367 367 367 367 367 366 366 367 367 367 367 369 368 367 368 368 367 368

ECMWFFLT1_925_thetae_087.txt.gz
Theta_e
353 351 351 353 354 355 356 354 351 351 352 353 353 353 352 353 355 356 357 356 355 355 355 356 357 354 351 349 347 346 343 342 343 342 343 344 344 343 340 338 340 342 344 349 353 354 354 357 358 359 360 358 358 359 356 356 356 356 356 357 358 358 358
353 352 352 354 355 356 356 354 352 352 353 353 354 354 353 354 355 356 358 358 356 356 355 356 357 354 352 350 348 348 345 343 343 343 342 343 343 343 343 340 339 341 342 343 347 349 352 357 357 358 359 358 357 358 357 356 356 356 357 357 357 359 358
352 352 352 353 355 356 357 355 354 353 353 354 354 355 354 354 355 357 358 359 358 358 356 356 357 356 352 351 349 349 347 345 344 343 343 342 343 344 344 343 342 341 342 343 344 345 348 354 356 357 358 357 357 357 356 357 357 357 358 356 356 358 358
352 352 353 354 356 356 356 356 355 354 354 355 355 355 356 355 355 358 358 360 359 358 358 356 356 357 354 351 350 349 348 347 345 345 343 343 342 343 346 348 346 343 343 344 345 346 346 350 354 356 357 357 357 357 356 357 358 357 356 356 355 355 355
353 353 354 357 357 356 356 355 355 355 354 355 356 355 356 355 356 358 359 360 360 359 359 357 357 357 355 352 351 350 349 347 347 345 345 343 342 342 345 348 349 348 346 346 348 349 348 348 351 353 356 357 356 356 357 358 359 358 357 357 357 355 354
353 353 354 356 356 355 356 355 355 355 354 355 357 356 356 356 357 357 360 361 361 361 360 359 357 357 356 354 351 351 350 348 347 346 345 345 344 343 344 346 349 350 349 348 349 351 351 351 349 351 354 356 356 357 357 359 360 360 358 359 359 357 356
353 352 352 354 354 355 356 355 355 355 356 357 357 357 356 356 357 357 359 362 362 362 361 360 359 358 358 356 353 351 351 350 348 347 346 345 345 344 344 345 347 350 351 351 350 351 353 354 352 350 351 355 357 357 358 360 361 361 360 360 360 359 358
352 352 352 353 354 355 356 358 356 356 356 355 357 358 357 357 358 357 359 362 363 364 363 362 360 359 358 357 355 353 350 351 350 348 348 347 346 346 345 345 346 349 352 353 352 351 351 354 353 352 351 354 357 357 358 360 360 361 361 360 360 359 359
353 352 352 354 354 355 358 359 358 356 356 357 357 360 359 359 359 359 359 360 363 364 364 362 362 360 359 359 357 355 352 351 351 350 349 349 348 348 347 347 347 349 351 353 353 353 351 351 352 354 353 354 355 357 359 360 360 361 362 360 360 359 358
353 352 353 353 353 356 359 358 359 358 357 357 358 359 359 360 359 359 360 360 363 364 364 364 363 361 361 360 359 356 354 353 352 351 352 351 349 349 349 349 349 350 351 352 353 354 352 350 352 354 355 354 355 357 358 360 360 360 361 360 359 358 357
354 354 354 355 354 356 357 357 359 359 358 357 357 358 359 359 359 360 360 360 362 364 365 365 364 363 362 360 360 358 357 355 354 353 353 352 352 351 351 352 351 351 352 353 354 354 353 352 353 355 357 356 356 357 358 359 359 359 359 360 359 358 357
355 356 357 355 355 356 357 358 359 359 358 357 356 356 357 357 359 359 359 359 360 363 365 366 365 364 363 361 361 360 358 357 355 354 354 353 353 353 353 354 354 354 354 355 355 355 355 354 352 354 357 358 357 357 358 358 359 359 358 359 359 358 358
354 354 356 354 353 353 355 358 360 359 358 356 356 357 357 356 357 357 358 359 359 360 364 366 366 365 364 363 362 360 360 359 357 356 354 353 353 354 354 355 356 356 356 356 356 356 356 355 354 354 355 357 357 358 358 359 359 359 358 358 358 358 358
355 354 355 355 355 360 362 359 358 358 357 355 356 356 355 357 357 357 356 357 358 360 362 365 367 366 365 364 363 362 360 359 358 356 355 354 354 353 355 355 356 357 357 357 357 357 357 357 355 354 354 355 357 358 359 359 359 359 358 357 358 358 358
355 355 356 357 358 365 372 372 369 363 357 354 356 356 355 355 356 357 356 357 357 358 361 364 367 366 366 365 363 362 361 359 359 357 356 356 355 355 355 356 357 358 359 358 358 358 357 357 356 355 355 355 357 358 359 360 359 359 358 357 357 357 358
354 355 356 359 359 361 367 374 378 378 372 362 357 357 357 356 356 358 358 358 357 358 360 365 367 368 367 366 365 363 362 360 360 359 358 357 356 356 356 357 357 359 360 360 359 358 358 357 357 357 356 356 358 359 360 360 359 358 357 357 357 357 358
351 353 354 357 359 360 361 364 370 380 381 366 357 357 357 356 356 357 358 359 360 360 362 364 368 368 367 368 367 365 363 361 360 360 359 358 358 357 357 357 358 359 361 361 360 359 359 357 357 357 357 357 359 359 359 359 359 359 357 356 356 356 357
348 349 350 351 352 355 357 357 359 369 373 363 357 358 358 356 357 357 358 358 360 362 364 366 368 369 367 368 368 366 364 363 361 361 360 360 360 358 357 359 358 360 361 361 361 361 359 358 357 357 357 358 359 359 359 359 359 358 358 357 356 356 356
344 345 347 349 350 352 354 354 354 358 362 360 358 357 357 358 359 359 359 358 357 360 365 366 367 368 368 369 368 366 365 363 363 362 361 360 360 360 358 359 359 360 361 362 362 361 359 358 357 358 358 358 360 360 360 360 359 358 358 358 357 357 356
340 341 343 346 348 350 352 352 352 353 357 359 360 358 356 355 357 359 359 360 358 358 363 366 367 367 369 368 368 367 366 364 363 363 361 361 361 360 360 359 360 360 360 362 362 361 360 359 357 358 359 359 359 361 361 360 360 359 359 359 358 358 358
337 338 341 343 344 346 348 350 349 350 352 354 356 358 359 356 355 357 357 358 359 359 363 365 366 367 368 368 368 367 366 366 364 364 363 362 361 361 361 360 360 361 360 360 361 361 361 359 358 358 360 361 361 362 362 362 361 360 360 360 360 359 359
334 335 337 340 341 342 344 345 346 346 349 351 353 357 359 360 360 359 358 359 359 361 365 365 367 368 368 369 368 368 367 366 366 364 363 362 362 362 361 360 360 361 360 361 361 361 361 360 359 358 359 360 361 361 362 362 361 361 361 360 360 360 360
332 332 334 336 339 339 340 341 343 345 347 350 352 355 358 360 362 363 363 362 361 363 365 365 365 367 368 368 369 368 368 366 366 365 364 364 363 363 362 362 360 361 361 361 360 361 361 361 360 359 358 359 361 361 362 363 362 362 362 361 361 362 362
330 330 331 333 336 337 336 339 342 344 345 348 351 353 355 357 359 362 365 365 365 364 365 366 365 366 367 368 368 368 368 368 367 366 365 364 364 364 364 363 362 361 362 361 361 360 361 361 360 360 359 358 359 361 361 362 362 362 362 362 362 362 362
330 329 330 331 334 335 335 337 340 341 343 345 347 349 352 354 357 361 363 366 367 365 364 366 365 366 367 368 368 368 368 368 367 366 365 365 364 364 364 364 363 362 361 362 361 360 361 362 361 360 360 359 358 359 360 362 362 362 362 362 362 362 363
329 329 329 331 332 333 334 334 336 339 340 343 344 346 349 352 356 361 364 367 367 366 365 365 365 366 367 369 368 368 369 368 368 368 366 365 365 365 365 364 364 363 362 361 361 360 359 361 362 362 361 361 360 358 358 359 361 361 361 362 362 362 363
328 328 329 329 331 332 333 333 335 337 339 341 343 345 348 351 356 360 364 367 368 367 365 364 364 364 366 368 369 368 369 369 369 368 368 367 366 365 365 365 364 364 362 361 362 360 359 361 363 363 362 362 361 361 360 359 359 359 360 360 361 361 362
326 327 328 329 330 331 332 333 334 336 338 340 342 344 347 351 355 360 364 367 369 369 367 363 364 364 364 368 369 370 369 370 370 370 369 367 367 367 366 366 365 365 363 363 361 361 360 361 363 363 363 363 363 362 362 360 359 358 359 358 359 359 361
326 327 327 328 329 331 332 333 334 335 336 338 340 342 344 347 353 358 364 369 370 370 368 363 363 363 364 368 369 369 370 370 370 371 370 369 369 368 367 367 367 366 365 363 362 361 361 361 364 364 365 365 364 363 362 362 361 360 358 357 358 358 359
325 326 327 328 329 330 332 332 333 334 335 336 337 339 341 345 350 357 363 367 369 370 368 363 362 364 364 367 369 370 370 371 371 372 371 370 370 369 368 368 367 366 365 364 362 362 360 360 362 364 365 365 365 365 363 362 362 362 361 360 359 358 359
325 325 327 328 328 328 330 331 332 333 334 334 336 338 340 344 350 357 363 365 367 370 370 365 362 364 365 367 370 370 370 372 372 372 372 371 371 370 370 370 369 368 367 365 363 362 361 360 360 362 364 366 366 366 365 364 364 364 363 363 362 361 360
325 325 327 328 327 327 329 330 331 333 334 334 335 337 339 343 349 353 359 362 364 369 372 367 364 365 365 367 369 370 370 372 372 373 373 373 372 371 371 371 370 369 367 366 365 363 362 360 360 360 360 364 365 366 366 365 365 365 365 365 364 363 362
325 325 326 327 327 327 328 329 330 332 333 333 335 336 338 341 344 348 353 359 362 366 372 370 366 366 366 367 369 370 371 371 372 373 373 372 372 372 372 372 370 370 369 368 367 364 363 362 361 360 359 360 362 365 365 366 366 366 366 365 365 365 364
325 325 324 326 326 327 328 329 330 331 333 333 334 335 336 339 340 343 348 354 357 362 370 371 367 368 368 368 369 371 371 371 371 372 373 372 372 372 372 372 371 370 370 369 368 366 364 364 362 361 360 359 360 361 363 365 366 366 365 365 365 365 365
325 324 324 325 325 325 327 329 330 331 333 332 332 333 335 336 337 339 343 347 351 360 368 372 370 369 368 369 371 371 370 371 372 371 373 373 373 372 373 373 372 372 370 370 369 368 366 365 363 362 361 360 359 359 361 364 365 365 366 364 364 364 364
325 323 324 325 324 323 326 328 329 331 332 330 330 332 334 335 335 338 340 342 348 357 365 370 372 371 370 370 371 371 371 371 371 371 373 373 372 373 373 371 371 372 370 370 370 370 367 366 365 363 362 362 361 359 359 360 362 362 364 364 364 364 363
324 324 325 324 324 324 324 326 329 331 331 329 328 330 332 333 334 336 338 340 345 352 359 364 369 373 372 372 371 371 371 371 370 371 371 372 372 372 370 367 366 368 369 369 370 370 369 367 366 364 363 363 361 361 360 359 360 362 363 365 366 365 365
324 326 326 323 324 325 324 325 329 331 329 327 327 328 330 331 332 335 337 339 344 352 358 361 364 368 371 370 371 371 370 371 371 371 370 370 370 370 367 364 362 361 363 365 368 370 369 367 366 365 364 364 362 362 362 361 361 361 363 363 365 366 365

ECMWFFLT1_925_thetae_093.txt.gz
Theta_e
353 354 352 351 351 349 347 345 343 343 342 342 342 341 343 344 345 347 349 350 350 350 350 350 351 351 351 350 350 350 350 349 349 349 348 348 347 348 348 348 349 349 349 349 347 346 347 350 354 355 354 355 355 355 353 353 354 353 354 354 354 355 355
353 353 353 351 351 350 347 345 343 344 342 342 342 341 343 343 345 347 348 349 350 349 350 350 351 351 351 350 349 349 349 349 348 348 348 347 347 346 346 347 349 348 348 348 347 347 346 349 353 355 355 355 356 356 353 353 354 354 354 355 355 355 355
353 354 353 351 351 350 349 346 344 344 343 343 342 341 342 342 344 346 347 348 349 349 350 350 351 351 350 350 349 349 349 348 348 348 347 347 345 345 345 345 347 347 346 346 347 348 348 349 352 355 355 356 355 356 355 352 352 353 354 355 356 355 356
354 353 352 352 351 350 351 347 345 345 344 343 343 341 342 342 343 346 347 348 348 349 350 350 350 350 351 350 349 349 348 348 348 347 346 345 344 343 344 344 346 346 344 343 343 346 348 349 351 354 356 356 356 356 356 354 352 352 354 355 355 355 355
355 354 352 353 352 351 350 348 346 346 344 343 344 342 342 342 343 345 346 347 348 349 350 349 350 350 350 350 349 348 347 347 348 347 346 345 344 343 343 343 344 343 342 341 341 343 347 349 350 352 354 355 356 355 356 356 353 353 355 354 355 354 355
354 354 353 352 352 351 351 349 348 346 345 345 344 343 342 342 343 344 345 347 347 348 349 349 350 350 349 350 349 348 347 346 346 347 346 345 345 344 342 342 343 342 341 342 342 342 344 348 349 350 352 353 354 355 355 356 355 354 355 356 355 354 355
354 353 354 351 351 351 350 349 349 347 347 346 344 344 343 343 342 343 345 347 347 348 348 349 349 349 349 349 349 348 346 345 345 345 346 345 345 344 342 342 342 342 341 343 343 343 343 346 348 349 350 350 351 352 353 355 355 356 357 356 355 354 355
353 353 353 351 351 351 350 349 349 348 347 346 345 345 344 343 344 343 345 346 347 348 347 349 349 349 349 348 348 347 347 346 345 344 344 344 344 344 343 342 342 341 342 343 344 343 343 343 345 346 349 349 349 349 351 353 355 355 356 355 355 354 355
354 353 352 351 349 350 350 349 348 348 348 347 346 346 345 344 344 344 344 345 346 347 347 348 348 349 349 349 348 347 346 346 345 343 343 342 342 344 344 343 342 341 342 343 343 342 342 343 343 344 346 347 348 349 349 351 353 355 356 356 355 354 355
353 351 351 351 350 350 350 348 349 348 348 347 346 347 346 346 345 344 345 345 346 347 347 348 349 349 349 349 348 347 346 346 346 345 344 342 341 342 343 344 344 343 343 342 342 341 340 340 341 343 345 347 347 348 349 349 350 354 355 356 356 355 354
358 355 353 349 349 351 350 350 351 349 349 348 347 347 347 346 347 346 345 346 346 347 348 347 348 349 350 350 350 348 348 346 346 345 345 344 342 341 342 343 344 344 344 343 342 340 338 337 338 342 345 346 346 347 346 345 346 351 354 356 356 355 354
354 357 358 355 353 352 351 351 352 351 349 349 348 348 348 347 347 347 348 347 347 347 348 348 348 349 349 350 350 350 349 348 347 346 345 344 344 341 341 341 341 342 343 343 343 341 340 338 338 340 342 343 343 342 341 341 343 347 351 354 356 356 355
344 346 350 354 359 360 359 357 356 354 349 348 349 348 348 349 348 348 349 349 349 349 349 349 349 349 350 350 351 351 350 349 348 348 346 345 345 343 342 341 341 341 341 341 342 342 342 342 341 341 341 341 341 341 340 340 342 345 348 351 354 356 355
337 340 341 343 346 351 357 361 363 359 350 347 350 349 349 350 348 349 350 350 350 351 351 351 350 350 351 351 351 351 351 351 350 349 348 347 346 345 344 343 342 341 341 341 341 342 343 344 344 343 343 343 342 342 341 342 343 345 347 350 353 355 356
333 335 337 337 338 341 345 349 357 360 353 349 350 350 350 350 350 350 351 350 352 352 351 353 352 351 352 351 352 352 352 351 351 350 349 349 348 347 346 345 344 343 342 341 341 341 342 343 344 345 345 345 345 344 345 345 345 346 348 350 352 353 354
333 333 333 335 335 336 338 341 346 349 349 349 351 352 351 352 351 351 351 351 352 353 353 354 353 353 353 353 352 352 352 352 352 351 351 350 349 348 347 346 346 344 343 343 342 342 342 342 344 345 346 346 347 346 347 348 348 347 348 350 351 352 353
332 332 332 333 334 334 335 337 340 343 344 345 347 349 352 354 353 352 352 352 352 353 355 355 355 355 354 354 354 353 353 353 352 353 352 351 350 349 348 347 347 345 345 344 343 343 343 343 343 345 346 346 347 348 348 349 349 348 348 349 351 352 353
333 332 331 331 332 333 333 334 336 340 343 343 344 346 349 351 354 353 353 353 353 354 356 355 356 356 356 355 355 354 355 354 354 354 353 352 351 350 350 349 348 347 346 345 344 344 344 343 344 344 345 345 347 347 348 348 349 348 348 349 350 351 353
333 332 332 331 331 331 331 332 334 337 340 341 342 345 346 347 351 353 354 355 355 355 356 357 358 357 356 357 356 356 356 355 355 355 353 353 353 351 350 349 348 349 348 347 346 345 345 345 344 344 344 345 346 347 348 348 348 348 349 348 350 350 352
332 332 332 331 331 331 331 332 334 335 337 339 341 344 345 344 347 350 353 355 356 356 357 358 358 359 359 358 357 357 357 356 356 356 355 355 354 352 352 351 350 350 348 347 347 347 346 346 346 346 346 345 346 347 348 348 348 349 349 349 350 351 352
330 330 331 331 331 331 331 333 334 334 335 337 339 341 342 343 345 348 351 354 354 355 356 357 359 360 360 360 359 358 358 358 357 357 357 356 356 354 353 352 351 351 350 350 349 348 348 348 348 347 347 348 348 348 348 349 348 349 350 350 350 351 352
328 328 329 331 330 330 331 332 332 333 334 335 336 337 339 340 343 346 349 352 354 355 356 355 356 357 359 360 360 360 360 360 359 358 358 357 357 356 355 354 353 352 351 351 350 349 350 349 349 350 349 349 349 350 350 350 349 350 350 350 351 352 354
327 326 327 328 328 329 329 330 331 332 333 334 335 335 336 338 341 344 347 350 353 354 355 354 355 355 356 357 358 359 359 359 360 360 359 359 358 357 356 356 355 354 353 352 351 350 351 350 350 351 351 351 351 351 352 351 351 352 351 352 352 353 354
324 324 325 326 327 328 327 328 330 330 331 333 334 334 334 336 339 342 345 348 350 353 354 355 354 354 354 355 356 357 356 356 358 359 360 360 359 358 358 357 357 356 355 354 353 352 352 352 351 352 352 352 352 353 352 352 352 352 352 353 353 353 354
325 323 323 325 326 327 327 327 329 329 330 332 332 332 333 335 338 341 343 345 347 351 354 355 355 356 357 357 356 357 357 357 357 359 361 361 360 360 360 358 358 357 356 355 355 353 353 353 352 352 353 353 353 353 353 353 353 353 353 353 353 354 354
326 324 322 323 325 326 326 327 328 328 329 330 331 332 332 334 337 340 342 344 346 349 351 351 352 355 358 360 360 359 359 358 359 361 363 363 361 361 360 359 359 358 357 356 355 355 354 354 353 354 354 354 354 354 354 354 354 354 354 354 354 354 354
324 324 322 323 323 324 325 326 326 327 329 329 330 330 330 332 336 338 340 341 342 342 342 342 345 349 353 357 359 360 361 361 362 362 363 363 362 362 361 360 359 358 358 357 357 355 355 354 354 355 355 354 355 355 355 355 355 355 355 355 354 355 355
324 324 322 322 322 322 324 325 325 327 328 329 329 328 328 330 333 336 337 338 337 337 337 338 341 344 347 352 355 358 360 363 364 363 364 364 363 363 362 361 360 360 359 358 357 356 356 355 355 355 355 355 356 356 356 356 355 356 355 355 356 355 356
323 324 323 322 322 322 323 324 324 326 328 328 327 326 326 329 331 333 335 335 333 334 334 336 339 340 343 348 351 355 359 362 364 364 364 365 364 364 363 362 361 361 359 358 358 357 356 356 355 355 356 356 356 356 356 357 356 357 356 356 356 356 356
323 324 323 323 322 322 322 322 323 325 327 328 326 325 325 328 329 331 332 332 331 332 333 335 337 339 342 347 350 353 357 361 364 365 364 365 365 364 364 363 362 361 360 359 358 358 357 357 356 356 356 356 357 357 357 357 357 357 357 356 357 357 356
323 323 323 322 322 322 322 322 323 325 326 327 326 324 325 327 328 329 330 330 330 331 332 334 336 338 341 345 350 353 357 360 364 365 365 365 366 365 364 363 362 361 360 360 359 358 358 358 357 357 356 356 356 357 357 358 357 357 358 357 357 357 357
323 323 323 323 323 323 322 322 323 325 326 327 325 323 324 326 327 328 329 328 329 330 332 333 336 338 341 344 348 352 356 359 363 364 365 365 365 365 365 364 363 362 361 361 360 359 358 358 357 357 357 356 357 357 357 358 357 357 357 357 357 358 357
322 323 323 323 323 323 322 322 323 325 327 326 324 323 324 324 326 327 328 328 328 330 332 334 336 338 341 343 347 351 356 360 362 364 365 365 365 365 364 364 363 362 361 361 360 360 359 359 358 357 357 357 357 357 357 357 357 357 358 357 357 357 357
321 322 323 324 323 323 323 322 323 325 326 325 322 322 323 324 325 326 327 327 328 330 332 333 336 338 340 342 347 352 356 359 361 362 364 365 365 365 365 364 363 363 362 362 361 361 360 360 359 358 358 357 357 357 357 358 357 358 358 358 358 358 357
320 321 322 323 324 324 322 321 323 326 325 323 321 321 323 323 324 325 326 326 328 330 331 333 336 338 340 344 348 353 355 355 357 361 364 365 365 365 365 365 364 364 363 363 362 362 362 361 360 360 359 358 358 358 357 358 357 358 358 358 358 358 358
319 320 321 322 324 324 322 321 325 327 325 322 320 321 323 323 323 324 325 325 327 329 330 333 336 339 341 343 347 350 351 351 355 359 362 364 365 365 366 366 365 365 364 364 363 363 363 363 362 362 360 360 359 358 358 358 358 358 358 358 358 359 358
319 319 320 321 323 324 322 322 325 327 324 321 320 322 323 323 322 323 323 324 326 328 330 332 334 337 338 339 342 345 347 350 354 358 361 364 365 366 366 365 365 365 365 364 364 364 363 363 362 362 361 361 360 359 359 359 359 358 358 359 359 358 359
319 320 320 321 324 324 322 322 326 327 324 321 321 322 322 322 322 321 322 323 324 327 329 330 331 333 334 336 338 341 344 349 353 356 360 364 365 365 367 365 365 364 364 364 364 364 363 363 363 362 362 362 361 361 360 359 359 359 358 358 359 359 359

ECMWFFLT1_925_thetae_096.txt.gz
Theta_e
352 350 350 349 348 347 346 345 344 343 343 343 344 345 345 345 345 346 347 348 349 349 349 349 349 349 348 349 349 350 351 350 350 350 349 349 349 350 350 350 350 350 350 349 350 349 348 346 347 347 349 352 354 355 356 355 355 354 352 352 352 353 353
351 351 351 349 348 348 346 344 344 344 343 343 343 344 344 344 345 346 347 348 349 349 349 349 349 349 349 349 350 350 350 350 350 349 349 349 349 349 350 349 349 349 349 349 348 349 347 346 345 345 349 353 353 354 356 356 355 354 353 353 353 353 354
351 351 351 350 350 349 347 344 343 344 343 342 343 343 343 344 344 345 346 347 348 349 349 349 349 349 349 349 350 350 350 350 349 349 349 349 349 349 349 349 349 348 348 348 348 348 347 346 345 345 348 352 352 352 354 355 355 354 353 353 353 353 354
351 352 350 350 351 349 348 345 343 343 343 342 343 343 343 343 344 345 346 347 348 348 348 349 349 349 349 349 349 350 350 350 349 349 349 349 349 349 349 348 348 348 348 347 347 347 347 346 346 345 346 349 351 351 353 354 355 354 353 353 353 353 354
350 351 351 351 351 350 349 346 344 343 343 342 342 342 343 343 343 344 345 346 347 348 348 349 349 349 349 349 349 349 349 349 349 349 349 349 348 348 348 348 348 348 348 347 346 346 346 345 345 345 346 347 349 351 353 353 354 355 354 353 352 353 354
348 349 352 352 350 350 350 347 345 344 343 343 342 342 342 342 343 344 344 346 347 348 348 348 349 349 349 349 349 349 349 348 348 348 348 348 348 348 348 348 348 348 347 347 346 345 345 345 343 343 345 347 348 349 351 352 354 355 355 354 352 352 353
345 347 351 352 350 350 349 348 347 344 343 343 342 342 342 342 343 343 344 345 346 348 348 348 348 349 349 349 349 349 349 348 348 348 348 348 347 347 347 347 347 347 347 346 345 345 344 344 342 340 341 345 347 348 348 350 351 353 355 355 353 352 352
341 345 349 351 351 350 349 349 348 345 344 343 342 342 342 342 342 342 343 345 346 347 348 348 349 349 349 349 349 349 348 348 348 347 347 347 347 346 346 346 346 346 345 344 344 343 343 343 341 340 340 342 345 347 348 348 349 351 353 354 354 353 353
338 339 344 349 350 351 350 349 348 347 345 344 343 343 342 342 342 342 343 344 345 346 347 348 348 348 349 349 349 349 348 348 348 347 347 347 346 346 345 345 345 345 344 343 342 342 342 342 341 340 341 341 343 346 347 348 347 348 350 351 354 354 354
336 336 337 341 346 351 350 348 349 348 346 344 343 343 342 342 341 342 343 343 345 346 346 347 348 348 349 348 349 349 348 348 348 347 346 346 346 345 344 345 345 344 343 342 342 342 342 342 341 341 342 342 343 344 345 346 346 347 347 348 351 353 354
335 335 336 335 338 343 348 350 351 349 347 346 345 343 343 342 342 342 342 343 345 345 346 347 347 348 348 348 349 348 348 348 347 347 346 345 345 344 343 344 344 344 343 343 343 343 341 342 342 342 343 343 343 343 343 344 344 345 345 345 346 349 352
333 334 335 335 335 336 339 344 347 348 348 346 345 345 344 343 342 342 342 342 344 344 345 346 346 347 348 348 348 348 348 348 347 347 346 345 345 344 343 343 343 343 344 344 344 343 342 342 342 342 343 343 343 343 342 342 343 343 344 344 345 346 348
333 333 333 334 334 334 335 338 341 344 347 347 346 345 344 344 343 342 342 342 343 344 345 346 346 347 347 348 348 348 347 348 347 346 346 345 344 343 342 342 342 343 343 343 344 343 342 342 342 342 343 342 342 343 342 342 342 342 342 343 345 346 346
332 332 332 332 333 333 334 335 337 340 343 344 348 347 345 345 343 343 343 342 343 344 344 345 346 346 347 347 348 348 348 348 347 346 346 345 345 344 342 342 341 341 341 342 343 343 343 342 342 342 342 341 341 340 340 341 340 341 342 342 343 344 345
332 332 331 331 332 332 333 334 334 337 339 340 343 346 348 347 345 344 344 343 343 343 344 345 345 346 347 347 348 348 348 347 347 346 346 346 345 344 343 342 341 340 340 340 341 341 342 342 343 343 343 342 342 340 340 339 339 339 339 340 341 341 342
331 331 331 331 331 331 331 332 333 335 337 338 340 343 345 347 348 347 345 344 345 344 344 345 346 346 347 347 348 348 348 348 348 347 347 346 345 345 344 344 343 342 340 340 340 339 340 341 342 343 342 342 342 341 340 340 339 338 338 338 339 340 341
331 331 330 330 331 331 331 331 333 334 335 336 338 340 341 343 346 349 349 346 345 346 345 345 346 346 346 347 347 347 348 349 348 348 348 347 347 346 345 345 344 343 342 341 340 340 339 340 340 340 340 340 341 341 341 340 339 338 338 338 339 340 342
330 330 330 330 330 331 330 330 331 333 334 335 336 337 338 339 342 345 348 350 348 346 347 347 347 347 347 347 347 347 348 349 349 349 349 348 348 347 346 346 345 345 344 343 342 341 340 340 340 340 340 340 341 341 341 341 340 339 339 339 339 341 343
327 328 329 330 330 330 329 329 331 332 333 334 335 336 336 337 339 341 344 348 351 349 348 348 348 348 348 348 348 348 349 349 349 350 349 349 349 348 348 348 347 346 346 345 344 343 342 342 341 341 341 341 341 342 342 341 341 340 340 340 340 341 342
325 326 327 328 329 329 329 329 330 331 332 333 334 335 335 335 337 339 342 347 351 352 350 350 350 350 349 349 349 349 349 349 350 350 350 350 350 349 349 349 348 348 347 346 346 345 344 343 343 342 342 342 342 342 342 342 342 342 342 341 341 342 343
324 323 325 327 328 328 328 328 329 330 331 332 333 334 334 334 335 338 342 347 351 353 352 351 351 351 351 351 351 351 351 350 351 351 351 351 351 350 350 349 349 349 348 348 347 346 346 345 344 344 343 343 343 342 343 342 342 342 343 342 342 343 344
324 322 322 325 326 327 328 327 328 329 330 330 331 332 332 332 333 337 341 345 349 352 353 353 353 353 353 353 352 352 352 352 352 352 352 352 352 351 351 351 350 349 349 349 348 348 347 347 346 345 345 344 344 343 343 343 342 342 343 342 343 343 345
325 324 322 322 324 325 326 326 327 328 328 329 330 330 331 330 331 336 340 344 348 352 354 354 354 355 354 354 354 354 354 354 354 353 353 353 353 353 352 352 351 351 350 350 349 349 348 348 347 347 346 345 345 344 344 344 344 344 343 343 343 344 346
326 325 324 323 323 324 324 325 326 327 327 328 329 329 328 328 330 334 339 341 344 348 351 352 353 355 356 356 356 356 355 355 355 355 355 354 354 354 354 354 353 353 351 351 350 350 349 349 349 348 348 347 347 346 346 346 345 345 345 344 344 345 346
325 325 324 323 323 323 323 323 325 326 326 327 328 328 327 327 329 333 337 339 339 340 342 343 345 349 353 356 357 357 358 357 356 356 356 356 356 355 355 355 354 354 353 353 352 351 351 350 350 349 349 349 348 348 348 347 348 347 346 346 346 346 347
324 324 324 324 323 322 322 323 323 325 326 326 327 327 326 326 328 332 335 337 336 335 335 335 337 342 347 352 355 356 357 358 358 358 357 357 357 356 356 355 355 355 355 354 353 353 353 352 351 351 351 350 350 350 349 349 349 349 349 348 348 348 348
321 323 324 324 323 322 322 323 323 323 324 325 326 326 325 325 327 330 333 334 334 333 332 332 334 338 341 346 352 355 356 356 357 357 357 358 357 357 356 356 355 355 355 355 354 353 354 354 353 353 352 352 351 351 351 351 350 350 350 350 349 350 350
319 321 322 323 323 322 322 323 323 323 323 324 324 325 324 324 326 329 331 332 331 330 330 331 333 336 340 342 345 351 355 356 357 357 356 357 356 356 356 356 356 357 356 355 355 354 354 354 354 353 354 353 353 352 352 352 352 352 352 351 351 351 351
317 319 321 323 324 323 323 323 323 323 323 323 323 323 323 324 325 328 329 330 329 329 330 331 331 335 339 340 341 346 350 352 355 358 359 359 358 356 356 357 358 358 358 356 356 355 354 354 354 354 354 354 354 354 353 353 353 353 352 352 352 352 352
316 317 319 320 322 323 323 323 323 323 323 324 322 321 322 323 324 327 328 328 328 328 330 331 331 333 337 339 340 343 346 348 352 357 360 361 362 360 359 359 359 360 359 358 357 356 356 355 355 355 355 355 355 355 354 354 354 354 353 353 353 353 353
314 316 317 319 321 322 323 324 323 322 323 324 322 321 322 323 323 325 326 326 327 328 329 330 332 333 336 338 340 342 344 346 351 354 356 359 362 363 362 361 361 361 360 359 358 357 357 357 356 356 356 356 355 355 355 355 354 354 355 354 354 354 353
314 315 316 317 319 321 323 324 324 322 323 325 323 320 321 322 323 324 325 325 326 327 328 329 331 333 336 338 340 342 344 346 350 353 355 358 361 363 363 363 362 361 361 360 359 358 358 358 357 357 357 356 356 356 356 355 355 355 355 355 355 355 355
314 314 315 316 318 320 323 324 323 323 323 325 323 320 320 321 323 323 324 324 324 326 327 329 332 334 336 338 340 342 344 346 350 355 357 358 360 362 363 364 363 362 362 361 360 360 359 359 358 358 357 357 357 356 356 356 356 356 356 355 355 355 355
314 314 314 315 316 319 322 323 323 323 323 324 324 320 319 321 322 322 323 323 323 324 326 329 331 333 335 338 340 342 345 347 350 352 353 354 357 361 363 363 363 363 362 362 362 361 360 360 359 359 358 358 357 357 357 357 356 356 356 356 356 356 356
313 313 314 315 316 318 321 322 324 323 322 324 325 322 320 320 321 321 322 322 322 323 325 327 330 331 333 336 338 340 342 345 347 347 349 352 355 359 362 363 364 364 363 363 363 363 362 361 360 360 359 359 358 358 358 357 357 357 357 357 357 356 357
313 313 314 314 316 318 319 321 323 323 322 324 325 323 321 321 320 320 321 321 322 322 323 326 328 330 331 332 335 336 338 340 342 344 347 350 353 356 359 362 363 363 364 363 363 363 363 362 362 361 360 360 359 359 359 359 359 359 358 357 357 357 357
313 313 314 314 315 317 318 320 322 323 322 324 325 324 321 320 320 320 320 320 321 322 322 324 326 328 328 328 331 333 335 337 338 340 344 348 351 353 357 361 363 364 364 364 364 363 363 363 362 362 361 360 360 360 359 359 360 360 358 358 357 357 357
313 313 314 314 315 316 318 319 321 323 323 324 324 323 321 320 319 319 319 319 320 321 322 323 325 327 327 326 328 331 333 334 334 335 338 343 347 350 354 359 363 364 364 364 364 363 363 363 363 362 362 361 360 360 360 359 360 359 358 359 359 358 357

ECMWFFLT1_925_thetae_102.txt.gz
Theta_e
352 353 354 353 353 351 352 353 354 353 353 353 354 354 355 356 356 357 359 361 362 363 363 362 362 361 361 360 360 360 358 357 357 357 357 356 355 355 356 356 357 358 358 358 358 357 358 358 358 359 360 361 361 362 359 358 360 362 362 361 360 361 360
349 351 351 352 353 353 354 354 353 353 353 353 354 355 355 355 356 357 359 361 362 362 363 362 362 361 360 360 360 360 359 358 357 357 356 356 356 355 356 356 356 357 358 358 358 359 358 358 358 358 359 360 360 362 360 359 362 362 362 363 362 363 362
347 348 348 350 351 353 355 356 354 353 354 352 353 355 354 355 356 357 359 361 362 362 363 362 362 361 361 360 360 360 360 358 357 356 355 354 355 355 354 356 357 356 356 357 358 359 357 357 358 357 358 357 358 360 360 361 362 362 363 364 362 363 364
346 346 347 348 349 351 355 356 354 354 354 354 354 354 355 355 356 357 358 360 361 362 362 362 361 361 361 361 361 360 360 359 357 355 354 352 353 355 354 355 356 354 354 355 356 356 355 356 358 358 358 357 356 358 360 360 361 360 362 362 361 364 364
346 346 345 347 348 348 352 355 355 354 354 354 354 353 354 355 356 357 358 358 359 360 361 361 360 361 361 360 360 360 360 359 357 354 353 352 352 355 354 354 355 354 353 353 354 355 357 357 356 357 358 357 356 357 358 359 360 359 360 361 361 362 362
345 346 345 346 347 348 350 353 355 356 355 354 354 354 354 354 355 356 357 357 357 359 360 361 360 360 361 360 359 360 360 359 358 355 353 353 353 355 355 354 354 353 352 353 353 355 357 356 355 354 356 356 354 354 356 358 358 358 360 360 360 360 359
344 346 346 346 346 347 350 353 354 353 355 355 354 353 353 353 355 354 355 356 356 357 359 359 359 359 360 360 360 359 359 359 359 356 354 353 354 355 355 355 354 353 352 353 354 353 354 356 355 354 354 353 353 354 355 357 357 357 358 360 360 360 359
342 343 344 344 344 344 348 354 355 354 355 354 353 353 353 353 353 354 353 354 354 355 357 358 358 359 360 360 359 359 359 359 358 357 355 353 353 355 354 354 354 354 353 352 354 354 354 355 354 355 355 352 352 353 354 356 358 357 357 358 359 360 359
339 341 341 341 342 343 347 351 353 354 355 356 354 353 352 354 353 352 353 353 354 355 355 356 357 358 360 360 360 359 359 358 358 358 356 353 352 352 352 352 353 354 354 353 351 354 354 354 353 355 356 355 354 355 355 356 357 355 355 358 358 359 358
337 339 339 338 339 341 345 347 350 352 354 354 356 355 353 353 352 352 352 351 352 353 354 355 356 357 359 360 360 359 359 359 358 357 356 354 352 351 350 350 352 353 354 352 350 351 353 354 352 354 357 357 356 357 357 356 358 356 354 355 357 357 357
335 336 337 336 336 338 340 343 347 350 351 352 352 352 354 355 352 352 352 352 351 351 352 354 354 356 358 360 359 359 359 359 358 356 356 355 352 351 350 349 349 352 353 353 350 348 350 354 353 353 357 357 356 357 357 357 357 357 355 353 355 356 356
332 334 334 334 334 335 336 339 343 346 348 349 350 350 351 353 353 352 351 351 352 352 351 352 354 354 356 358 358 358 358 358 357 357 357 356 354 352 351 350 348 349 352 352 351 348 348 351 353 353 355 356 354 355 357 357 357 358 356 352 352 354 354
330 330 331 333 333 334 334 336 338 341 344 346 348 349 349 351 352 354 353 352 351 351 351 351 352 354 355 357 357 358 358 358 357 357 356 356 355 352 351 350 349 348 350 350 351 349 347 348 351 353 353 354 352 352 354 357 356 357 357 354 351 352 354
329 329 329 330 332 333 333 334 335 338 339 342 345 346 348 348 350 352 354 354 352 351 350 350 351 353 355 355 357 356 357 358 357 357 357 356 357 355 352 352 351 349 349 350 350 349 347 346 348 351 353 353 352 351 353 355 356 356 356 355 352 351 353
329 327 328 328 329 330 331 331 334 336 337 338 340 343 345 346 346 349 351 353 354 353 351 350 351 354 355 355 356 356 357 358 358 357 357 357 358 356 355 353 353 352 351 351 350 349 347 345 345 348 350 351 352 351 352 353 355 356 354 354 354 351 350
328 327 327 328 328 328 329 330 332 334 335 336 337 339 342 342 344 346 348 350 353 355 355 352 351 353 355 355 355 356 357 359 358 358 358 357 357 357 357 355 354 354 352 353 352 351 349 348 345 345 346 349 352 352 352 351 353 353 349 348 350 353 352
328 328 327 327 327 327 327 329 331 332 334 335 335 336 338 339 341 344 346 348 351 353 354 353 351 352 353 355 355 355 357 358 359 358 358 359 358 358 357 356 355 354 354 354 354 353 352 351 349 346 344 346 349 351 351 350 350 350 345 340 341 346 352
328 328 328 327 328 327 327 328 330 331 332 333 334 335 336 336 337 340 343 347 350 352 352 353 352 351 352 354 354 355 357 358 359 359 359 360 359 359 358 358 356 356 355 355 355 355 355 353 352 350 348 346 346 348 348 348 348 347 344 338 335 337 344
327 327 327 327 328 327 328 329 330 330 330 332 333 334 334 335 335 336 341 346 349 350 352 353 354 353 353 353 352 354 356 358 360 360 359 360 359 359 359 358 357 357 355 355 355 355 355 354 354 354 352 350 348 347 346 346 347 346 344 340 336 334 337
326 327 327 327 327 328 329 330 330 329 330 331 331 332 333 334 334 336 339 344 346 347 350 352 354 355 355 355 353 353 355 357 359 359 359 360 360 359 358 359 358 356 355 355 355 355 355 355 354 354 354 353 351 350 349 348 348 347 346 343 340 338 337
325 325 326 326 327 328 329 330 329 330 331 330 330 331 333 334 334 335 338 341 342 344 346 348 351 354 355 356 356 354 354 356 357 358 359 359 359 359 358 358 358 357 356 354 354 354 355 355 354 354 354 354 353 352 352 350 349 348 347 346 344 343 341
322 322 324 325 326 327 329 329 330 330 330 331 330 330 331 332 333 334 337 340 340 341 341 342 345 348 350 353 355 356 356 355 354 356 357 359 359 359 358 358 358 357 356 355 353 354 355 354 354 353 353 353 353 353 352 351 350 349 347 346 346 346 344
321 321 322 324 324 325 326 327 328 329 330 330 329 329 331 331 331 333 337 338 339 339 340 340 340 342 345 347 350 351 354 357 356 355 356 358 359 358 358 358 358 357 357 356 354 353 353 354 355 354 354 353 353 353 352 352 351 350 348 347 346 345 345
320 320 321 321 322 323 324 325 327 328 329 329 329 329 330 330 330 333 335 337 337 338 338 339 339 339 341 343 344 345 348 352 356 357 356 357 358 358 358 358 358 358 357 356 355 354 353 353 354 355 355 354 353 354 353 353 353 351 349 348 348 346 345
319 319 319 319 320 321 322 323 325 327 328 328 329 329 329 329 329 331 334 335 336 337 337 337 337 338 339 340 340 342 344 346 350 355 357 357 357 357 357 357 356 357 357 357 357 355 354 354 354 355 355 355 355 354 353 354 354 353 352 350 349 348 346
318 318 318 319 318 319 320 322 324 325 326 327 328 328 329 328 328 330 332 333 335 336 335 335 336 336 337 339 339 340 342 344 348 352 355 358 357 356 356 356 356 357 357 357 357 356 356 355 354 355 356 356 356 355 355 355 355 354 353 352 351 350 347
317 317 318 318 318 319 319 320 322 323 324 326 326 327 328 329 328 329 330 331 334 334 333 333 334 335 336 338 339 340 341 344 346 349 352 356 357 357 356 355 356 357 357 358 358 357 358 356 355 356 356 356 357 357 357 357 356 355 355 353 352 352 349
317 317 317 318 318 318 318 318 320 321 322 324 324 325 327 328 328 328 329 329 331 332 331 331 332 334 335 337 338 339 341 343 345 347 350 353 355 355 354 353 354 356 357 357 358 358 358 358 357 357 357 357 358 358 358 358 358 356 356 355 353 353 352
318 318 318 318 318 318 318 318 319 320 321 322 324 325 326 328 328 329 328 329 330 330 330 330 330 332 334 336 338 339 340 341 343 345 348 350 350 352 354 355 354 354 354 354 356 358 359 360 360 359 359 359 359 359 359 360 359 358 357 356 355 354 353
317 317 318 318 318 319 319 319 320 320 320 321 323 325 326 327 328 329 329 329 329 329 329 330 329 330 333 336 337 337 338 340 342 344 347 348 348 350 353 355 356 355 354 354 356 358 361 361 361 361 361 361 360 360 360 359 360 360 358 357 356 355 354
316 317 317 318 318 319 319 320 320 321 320 321 322 324 326 326 327 328 329 329 329 329 329 329 329 329 331 333 336 337 337 339 341 344 345 347 348 349 351 352 355 356 355 356 357 359 361 362 361 361 362 363 362 362 361 360 360 361 360 359 358 356 355
316 316 316 317 318 318 319 320 321 321 321 321 321 323 325 326 326 328 328 329 329 329 329 328 329 329 330 331 334 336 336 338 340 342 342 342 345 348 349 350 354 356 357 358 359 360 361 361 360 360 362 363 362 362 361 361 361 362 362 362 360 359 357
315 315 316 316 317 317 318 319 320 321 321 321 322 322 324 325 326 326 327 328 329 328 328 329 329 329 329 330 331 334 336 337 338 339 339 341 343 345 345 346 350 353 356 356 357 358 360 360 360 359 360 360 362 361 360 361 362 363 363 363 362 361 359
314 314 315 315 316 316 317 318 319 320 320 322 322 322 322 324 325 326 326 328 328 327 327 328 329 329 330 329 330 333 335 335 336 337 338 338 340 341 341 343 345 348 350 352 353 356 358 360 359 360 360 360 360 360 361 362 363 363 362 362 363 362 360
313 313 314 314 315 315 316 316 318 318 319 320 321 322 322 323 324 326 326 327 327 327 327 327 328 328 329 329 329 331 332 333 334 336 337 337 336 337 338 339 339 340 342 345 348 350 352 353 355 358 359 359 358 358 359 361 361 360 359 360 362 363 362
313 313 313 314 314 314 315 316 317 318 319 320 321 321 322 322 324 326 326 325 325 325 325 327 327 327 328 329 329 329 329 330 332 334 336 336 335 334 335 335 335 336 337 340 343 345 346 348 350 353 355 357 357 356 356 357 358 358 357 356 357 359 361
313 313 314 314 314 315 315 315 316 317 318 319 319 320 322 322 323 325 325 325 324 324 325 325 325 325 326 328 328 328 328 328 330 332 333 334 334 333 333 333 334 334 335 337 339 341 344 346 348 350 353 355 357 357 356 357 357 358 357 356 355 355 358
313 313 314 314 314 315 315 315 316 316 317 318 318 320 321 322 322 324 324 324 324 324 324 324 324 324 325 326 326 327 327 328 329 330 330 332 332 331 331 332 334 335 335 336 337 338 340 344 347 350 353 356 358 359 359 358 359 359 358 357 356 355 357

ECMWFFLT1_925_thetae_105.txt.gz
Theta_e
358 359 359 356 355 355 354 357 355 354 354 354 354 352 350 351 352 352 356 360 363 363 364 364 363 362 360 359 358 357 357 356 357 358 356 355 353 352 353 353 356 359 359 360 360 359 360 360 360 360 361 361 363 365 364 362 364 365 364 362 361 362 361
356 356 358 356 356 356 356 357 355 355 356 356 355 354 353 352 352 353 356 361 363 364 365 364 364 364 362 360 358 358 358 357 356 357 356 356 354 353 353 352 353 356 359 359 359 358 358 358 358 360 361 360 361 363 364 363 364 364 364 363 362 364 363
353 356 356 355 356 356 356 358 356 356 355 355 357 355 355 354 353 355 357 361 364 365 365 365 365 364 363 361 359 359 359 358 357 357 356 354 354 353 352 353 353 353 356 358 359 359 357 357 358 358 359 360 360 362 363 364 364 363 366 367 364 366 366
349 352 351 352 356 356 357 358 357 358 356 354 355 355 355 356 355 356 358 362 364 365 364 365 364 363 363 363 361 360 361 358 357 356 355 351 352 352 351 353 353 352 353 355 357 358 356 356 358 358 358 358 358 360 360 363 363 362 366 367 363 365 367
349 349 349 351 353 356 358 358 358 358 357 354 353 355 355 355 356 357 358 361 363 362 363 364 362 361 362 363 361 361 361 359 356 356 354 351 351 352 351 351 352 351 351 352 354 355 355 355 356 357 358 357 356 357 358 360 362 363 364 364 362 364 365
348 349 349 349 350 352 355 357 357 358 356 355 353 355 355 355 356 357 358 360 360 359 361 361 359 360 363 362 359 360 362 362 359 355 354 352 351 352 352 352 351 349 350 350 351 353 355 355 355 355 357 356 355 354 355 358 359 359 361 362 362 361 359
346 346 347 349 349 349 353 356 357 356 357 358 357 357 357 355 356 356 357 358 359 358 358 359 358 359 363 363 360 361 362 363 361 357 353 352 352 352 352 352 352 350 348 349 350 350 353 356 355 355 355 354 353 352 352 355 356 356 358 360 361 360 357
343 344 345 347 347 348 351 357 357 356 358 360 359 358 356 355 355 356 356 355 357 357 358 357 356 358 362 363 361 362 362 362 362 360 355 351 351 352 352 353 354 352 348 348 350 349 350 353 354 354 355 354 353 352 352 354 356 355 356 357 359 359 357
340 341 342 343 343 346 350 353 354 357 358 358 359 357 355 354 354 355 356 355 356 357 356 357 356 358 362 364 363 363 362 361 361 360 357 351 349 349 349 352 354 354 351 349 349 349 350 350 351 353 355 355 353 353 354 354 356 356 355 355 357 358 357
338 339 340 340 340 344 348 348 349 353 355 356 356 354 354 355 354 354 355 354 355 355 354 356 357 358 362 364 363 363 363 361 359 358 357 352 348 347 347 348 350 352 354 351 346 348 349 350 349 351 355 355 354 354 354 355 357 357 355 355 356 357 357
336 337 336 336 338 340 341 344 346 348 350 354 355 354 355 355 355 355 353 352 353 352 353 355 356 356 361 363 364 362 362 361 358 355 355 353 348 347 346 346 347 348 352 351 348 345 348 351 351 350 354 356 355 355 356 356 356 356 356 354 354 355 355
333 334 334 334 335 336 338 341 343 344 346 349 352 354 355 355 355 355 353 352 352 352 352 353 354 356 359 362 363 363 362 361 359 355 355 354 349 346 346 344 343 345 348 350 348 346 345 349 351 351 353 356 356 355 356 356 357 356 357 354 351 353 353
332 332 331 332 333 334 336 338 341 343 343 344 346 349 351 353 353 354 355 355 353 351 351 351 352 354 358 360 361 362 362 361 360 357 354 354 352 348 346 345 344 343 345 347 349 347 344 345 350 352 352 355 357 355 355 357 357 356 357 356 351 350 351
332 331 331 331 332 332 334 336 338 341 341 341 342 344 347 349 351 352 353 354 355 354 354 353 351 353 356 358 360 362 362 361 360 359 356 354 354 352 349 346 344 344 343 344 346 348 345 343 345 350 351 353 356 354 354 356 358 357 357 357 355 350 349
332 330 330 331 331 332 332 333 335 338 338 339 340 341 343 345 347 350 351 353 355 355 355 353 352 353 355 357 358 360 361 361 360 360 359 357 356 355 353 349 346 346 344 344 345 346 345 343 342 345 349 351 355 354 352 353 357 358 356 358 357 352 349
331 331 331 331 331 331 331 332 334 335 336 338 340 341 342 343 346 348 350 351 353 354 353 353 352 353 354 356 358 358 359 360 360 360 360 360 359 359 358 354 349 347 346 346 346 345 346 344 343 343 345 349 352 354 352 349 351 355 355 355 356 354 349
331 331 331 331 332 331 331 332 333 334 334 336 338 340 340 341 342 345 348 350 352 352 352 352 352 351 352 354 356 357 358 359 360 361 361 361 361 361 361 359 354 350 348 348 348 348 347 347 346 343 342 345 348 351 352 348 347 350 352 353 352 353 351
330 331 331 331 332 331 331 331 333 333 334 334 335 337 338 339 340 342 345 348 349 350 351 352 352 351 352 354 354 356 358 357 358 360 361 361 362 362 362 362 359 356 354 351 351 352 351 351 350 347 344 342 344 348 350 349 346 346 348 349 347 346 347
330 330 330 330 330 330 331 333 333 333 334 334 333 334 336 337 338 340 343 345 347 348 349 351 352 350 351 352 353 356 357 357 357 359 361 361 362 363 363 363 362 360 356 355 354 354 355 355 353 352 349 346 343 343 345 347 347 346 346 347 345 341 340
328 329 329 329 329 330 331 333 333 333 333 334 332 332 334 335 336 338 341 342 344 346 347 349 350 350 351 352 354 355 355 354 355 357 360 361 361 363 363 363 363 361 358 356 356 357 358 358 357 357 355 352 348 346 345 344 345 346 346 346 346 343 340
327 328 328 328 328 330 330 331 332 332 333 333 333 331 333 333 334 336 339 340 342 343 344 346 346 348 350 351 353 354 354 356 357 357 359 359 359 360 360 361 362 362 359 357 356 357 358 359 358 358 358 357 355 353 350 347 345 347 347 346 346 345 343
325 324 326 327 327 328 329 329 330 331 332 333 333 332 333 333 332 335 337 339 339 340 341 343 343 344 346 348 351 352 354 356 358 359 359 359 359 360 359 359 362 362 361 359 356 356 357 358 360 359 358 358 358 357 354 351 349 348 348 347 346 346 346
323 323 324 325 324 326 327 327 327 329 330 332 333 332 333 333 332 333 336 337 338 338 340 340 341 341 342 344 346 348 350 352 354 357 359 359 359 359 359 360 360 360 361 360 357 356 355 357 358 359 358 358 359 359 357 355 353 351 349 349 348 347 347
323 323 322 322 323 323 324 324 325 327 329 330 331 331 331 333 333 333 334 335 336 337 338 338 339 339 340 341 342 343 346 348 351 353 356 358 359 358 357 358 358 359 359 359 357 356 354 355 356 358 359 358 358 359 358 357 356 354 352 351 350 349 348
321 321 320 321 321 322 323 323 323 325 326 327 329 328 328 331 333 333 333 334 334 337 337 337 337 337 337 339 339 340 343 346 348 351 353 355 357 356 353 352 354 355 357 356 356 357 356 355 354 355 357 357 358 358 358 358 357 356 354 352 352 351 349
320 319 319 319 320 321 322 322 322 323 324 325 326 327 327 330 332 333 333 333 333 335 336 336 336 337 336 336 338 339 341 343 345 348 350 352 355 354 353 352 352 353 353 353 354 353 355 356 356 355 355 355 357 357 357 357 358 356 356 354 353 352 350
319 319 319 319 320 321 320 321 322 322 322 323 324 325 326 328 329 331 333 333 333 335 334 333 334 336 336 336 336 338 341 343 343 345 347 349 353 354 354 353 353 353 353 353 353 353 354 355 356 357 356 354 355 356 356 357 357 357 356 356 355 354 352
319 320 320 320 320 320 320 321 322 322 323 322 322 323 325 327 328 329 331 332 333 334 333 333 333 334 335 335 336 337 339 341 342 343 345 347 351 354 354 353 353 354 354 353 352 353 354 355 356 358 358 357 356 356 356 357 357 358 358 357 356 355 353
320 320 320 320 320 320 321 321 322 322 323 323 323 323 324 325 327 329 330 330 331 332 333 333 333 333 334 335 336 336 337 340 341 342 343 346 350 353 353 353 353 354 354 353 353 354 356 357 358 360 360 359 360 359 358 357 358 358 358 357 357 357 355
319 319 319 319 320 320 321 321 322 322 323 323 324 324 323 324 325 328 329 330 330 331 332 332 332 333 333 333 335 336 336 338 340 341 342 346 349 351 352 353 354 354 354 355 355 356 356 356 359 360 362 361 362 360 360 360 360 360 360 359 358 357 357
319 318 319 319 319 320 320 321 321 322 322 323 324 324 325 324 324 326 328 329 330 330 331 331 332 332 332 333 334 335 335 336 338 341 342 343 345 348 351 353 355 355 355 356 356 357 356 357 359 360 360 360 359 359 360 361 360 360 360 360 360 359 358
318 318 318 318 318 319 319 320 320 320 321 322 323 324 325 325 324 325 326 328 330 330 329 330 331 332 332 332 333 333 333 335 337 339 341 341 342 344 348 351 353 354 354 355 356 357 357 357 358 357 355 354 353 353 354 354 353 354 358 360 360 360 360
317 316 317 317 317 317 318 319 319 319 320 320 322 323 323 324 325 325 325 325 327 328 329 329 330 331 331 332 332 332 333 335 336 336 338 339 341 342 344 348 350 351 352 354 354 354 354 355 355 353 352 352 351 351 352 352 352 354 356 357 359 360 360
315 315 315 316 316 317 317 318 318 318 319 320 320 321 322 323 324 325 324 325 325 326 328 329 329 329 330 330 332 332 332 334 335 335 335 337 339 341 341 343 345 347 349 351 352 352 351 352 352 350 350 351 351 351 351 351 354 356 355 354 357 359 359
314 314 314 315 316 316 317 317 317 317 318 319 319 320 321 322 323 324 324 325 325 326 328 328 327 328 329 329 331 331 332 333 334 333 334 335 336 338 339 340 340 341 343 345 347 347 346 347 348 350 349 348 350 352 352 353 355 357 355 354 356 357 356
314 314 314 314 314 315 316 316 316 316 317 318 319 320 321 321 322 323 324 324 325 325 327 328 327 327 327 329 329 330 331 332 332 332 333 334 335 335 337 337 337 337 338 339 340 339 339 341 344 346 346 346 347 349 351 353 354 355 355 355 355 354 355
313 313 314 314 314 315 316 316 316 316 317 317 318 318 319 320 321 322 323 323 324 325 326 327 326 326 326 327 328 329 329 330 331 332 332 333 333 333 333 334 335 336 337 338 338 337 336 337 339 341 342 342 344 346 348 349 352 354 356 356 357 355 355
313 313 313 314 314 314 315 315 315 316 316 317 317 318 319 319 320 321 322 323 324 325 325 326 326 325 325 325 327 327 328 329 330 331 331 331 332 331 331 333 333 334 336 338 338 337 336 337 338 339 340 341 342 345 347 349 351 353 356 357 358 358 357

ECMWFFLT1_925_thetae_108.txt.gz
Theta_e
361 360 361 358 355 358 357 355 353 351 349 349 348 348 348 348 350 353 358 361 362 362 361 361 362 363 360 358 356 357 358 358 359 358 357 357 356 357 358 358 359 360 361 361 359 360 360 357 358 358 358 360 361 362 362 361 361 362 361 360 363 362 359
362 360 360 359 358 359 357 358 357 354 352 349 348 348 348 349 351 354 357 361 363 363 361 361 363 363 361 359 356 357 358 358 358 359 358 358 356 355 356 356 357 358 359 359 358 359 360 359 359 359 359 360 362 363 362 361 360 362 360 357 360 362 361
362 361 359 359 359 358 357 357 357 355 354 352 351 349 348 348 350 353 358 361 363 364 363 363 363 363 361 360 358 357 357 357 358 358 358 358 355 353 353 353 354 357 358 359 359 359 359 358 359 360 360 360 360 362 363 362 361 362 361 358 359 361 361
357 358 358 358 358 358 358 359 358 358 357 356 354 352 352 351 351 352 358 361 363 364 364 363 364 364 362 361 359 358 357 357 357 358 357 357 355 353 353 354 352 355 358 358 359 359 358 358 359 359 361 359 359 360 362 363 361 362 363 361 360 362 361
352 354 355 357 357 357 359 359 360 360 360 358 356 354 355 354 352 352 354 360 363 365 365 364 364 364 363 361 360 359 359 358 357 357 356 355 355 353 352 354 353 353 355 356 358 358 356 357 358 359 360 360 360 360 361 362 361 362 362 362 362 362 362
349 351 352 355 356 355 357 359 359 359 359 358 355 355 355 354 354 355 354 359 363 364 364 364 363 363 363 362 359 359 360 360 357 356 355 354 354 353 351 352 353 352 352 354 356 357 357 357 358 359 359 359 359 359 360 361 362 363 363 363 363 362 360
347 350 351 352 353 353 356 358 358 359 359 357 355 354 353 353 354 354 354 357 361 362 362 363 362 360 362 362 359 358 359 360 359 357 356 354 353 353 352 351 352 352 351 352 354 355 356 356 357 358 359 358 357 356 357 359 360 361 362 363 363 362 360
344 347 348 350 350 349 353 357 358 359 359 357 356 356 355 355 354 354 354 354 359 361 361 360 359 357 359 361 360 358 359 359 359 357 355 355 353 352 352 351 352 351 350 351 351 353 355 357 356 356 357 357 355 354 354 355 357 358 359 360 361 362 362
341 343 344 346 346 347 351 353 355 359 359 359 359 358 358 359 357 356 356 355 357 360 358 358 358 355 356 359 359 358 359 360 360 359 355 353 352 351 352 352 351 351 350 350 350 351 354 356 356 355 355 356 355 353 353 353 355 356 356 358 360 360 360
338 341 342 343 346 347 350 350 351 354 355 358 359 357 358 358 357 356 356 357 357 358 358 358 359 357 355 357 357 357 357 360 361 359 356 352 351 351 351 351 352 351 350 349 349 349 352 354 355 355 355 355 355 354 352 353 354 355 356 357 357 359 359
336 339 340 342 344 345 346 347 348 349 350 352 355 355 354 354 355 356 357 358 356 356 356 357 356 357 354 354 356 355 356 357 358 358 357 353 349 349 349 349 351 352 352 349 348 349 350 351 353 354 353 354 355 354 353 353 354 356 357 357 355 356 358
336 337 338 339 340 341 343 345 345 346 346 348 350 352 353 353 355 357 357 358 358 355 355 354 353 354 353 353 355 355 355 354 355 355 355 354 350 346 347 348 348 351 353 351 348 349 349 350 351 352 353 354 354 355 354 353 355 355 357 357 356 356 357
335 336 336 336 337 338 341 342 344 345 345 346 348 349 351 353 353 355 355 357 358 357 356 354 353 353 352 352 353 355 355 353 353 354 353 353 352 346 345 345 346 349 351 351 349 348 348 349 349 350 352 353 355 355 355 354 355 356 357 357 356 355 355
335 335 335 334 335 336 338 339 342 344 344 346 348 347 348 349 350 352 354 355 357 357 357 357 356 354 355 355 353 354 355 354 353 354 353 352 351 348 345 344 344 345 348 350 350 348 346 347 349 350 351 353 355 356 356 355 355 356 356 356 356 355 354
335 333 333 333 334 335 336 337 339 341 340 343 344 344 346 347 348 349 351 352 355 354 354 356 356 354 354 355 354 353 353 353 354 354 353 354 353 350 347 345 344 344 344 347 348 348 347 345 347 349 351 351 353 356 357 356 356 357 356 356 356 356 354
334 333 333 332 333 334 335 335 338 338 338 339 340 341 343 345 346 347 348 350 352 351 350 353 356 355 352 351 351 352 352 353 353 354 354 353 353 354 352 347 345 343 343 345 346 346 347 345 345 347 350 351 353 355 357 356 356 357 356 355 356 355 355
333 333 333 332 333 334 333 334 336 337 336 336 338 338 339 342 344 345 345 347 348 349 349 352 356 356 353 352 353 353 354 354 353 353 354 354 353 353 354 354 351 347 344 343 344 345 346 346 344 344 346 350 352 354 355 355 354 356 356 355 354 354 355
332 332 332 332 333 333 333 333 334 335 336 334 335 336 336 338 342 343 343 344 346 346 348 351 354 354 354 356 355 353 353 354 354 354 354 354 355 355 355 356 357 355 352 347 344 343 344 345 346 343 344 346 348 351 354 354 353 353 354 355 354 354 355
331 331 331 331 331 331 332 333 333 335 335 334 333 334 335 335 338 341 342 343 344 345 346 349 350 350 350 353 354 353 353 353 354 354 355 354 354 355 356 357 357 359 359 356 349 345 345 346 346 345 343 344 345 347 350 353 353 352 351 352 353 352 353
330 330 330 329 329 330 331 332 332 333 334 334 333 334 334 334 335 339 341 341 342 343 344 345 346 346 346 348 350 350 351 352 353 354 355 355 355 357 358 359 358 359 361 360 355 350 348 347 347 347 346 345 344 344 346 349 352 351 350 350 350 350 350
327 328 328 328 328 330 330 329 330 331 332 334 333 333 334 335 334 335 338 339 340 341 342 342 343 343 343 345 346 345 345 347 349 351 353 354 355 356 356 356 357 357 356 355 355 354 354 353 351 350 350 350 348 345 345 345 345 349 350 349 348 347 348
326 325 326 326 326 328 329 327 327 329 330 331 332 331 332 335 335 335 335 336 337 339 340 340 340 340 341 342 342 342 342 342 345 347 350 352 353 353 352 351 353 355 355 354 354 353 351 353 354 355 354 354 353 351 350 346 343 344 345 348 348 346 346
324 323 324 325 324 326 326 324 325 327 328 329 330 329 330 333 335 336 336 335 335 337 339 338 339 339 339 339 340 341 341 341 343 345 347 349 351 352 352 351 352 354 356 356 356 356 352 351 353 355 357 356 356 356 355 354 350 347 345 345 347 346 346
323 322 322 322 322 324 324 324 324 326 325 326 328 327 328 330 333 334 336 335 335 337 338 337 337 338 339 339 339 339 339 341 343 344 345 347 348 351 352 352 352 354 355 355 355 355 354 353 352 353 355 357 358 358 358 357 356 354 350 348 346 346 346
322 321 321 320 322 322 321 322 323 324 324 324 325 325 325 328 331 332 333 334 334 336 337 336 336 336 337 338 338 338 339 340 342 344 344 344 345 348 351 352 352 353 354 355 355 354 354 354 353 352 353 355 357 358 358 359 359 358 356 354 351 349 346
321 321 321 320 321 321 320 321 323 323 324 324 325 325 324 326 329 329 331 332 333 335 336 336 335 335 335 337 338 338 338 338 340 342 343 343 345 347 350 351 351 352 353 355 354 354 353 354 354 353 353 353 355 356 357 357 358 359 358 357 356 353 349
320 321 321 321 321 321 321 322 322 323 323 324 325 325 325 326 326 326 328 330 332 333 334 334 335 335 335 335 336 337 338 338 339 341 342 343 344 347 350 351 352 352 353 353 354 354 354 354 353 354 355 355 356 357 356 357 357 356 357 358 358 357 353
321 321 321 320 321 321 322 322 322 322 323 324 323 324 325 326 326 326 327 328 330 331 332 333 334 334 334 335 335 336 337 338 339 340 341 343 344 347 349 351 352 353 352 353 354 355 354 354 353 354 355 356 357 357 356 354 354 353 354 355 356 355 355
321 320 320 320 320 321 321 322 322 323 323 322 323 324 326 326 327 327 327 327 328 329 331 333 333 333 334 334 334 334 335 337 338 338 340 342 344 345 346 347 349 351 353 353 354 355 356 356 355 355 356 357 358 358 357 355 355 355 355 354 353 353 354
320 319 320 319 320 321 321 321 321 321 322 322 323 323 324 325 327 327 328 327 327 327 330 332 332 331 333 334 334 334 334 334 335 336 339 342 342 342 344 345 346 348 352 354 354 355 356 357 357 357 358 358 358 357 357 356 356 355 354 355 355 354 354
318 319 319 319 319 320 319 320 320 320 321 321 322 323 323 324 325 326 327 328 327 327 328 329 329 331 332 332 332 333 333 333 333 335 339 340 339 340 342 344 345 346 349 351 353 354 355 356 356 356 357 357 358 357 356 356 356 355 355 354 354 355 355
318 318 318 318 319 318 318 319 319 320 320 320 321 321 322 322 323 324 325 326 327 327 326 326 327 329 330 331 331 331 332 332 332 334 337 338 338 339 341 343 344 345 347 349 350 351 352 354 354 355 356 356 357 357 356 356 356 355 356 355 355 355 356
317 317 317 317 317 317 318 318 319 319 320 320 320 320 321 321 322 323 323 324 325 326 326 326 326 328 329 330 330 330 330 332 333 334 335 337 337 337 338 340 342 343 344 345 344 344 347 350 351 353 355 355 356 355 355 355 355 355 355 355 355 356 356
316 317 316 316 317 317 317 318 318 319 319 319 319 319 320 321 321 322 322 323 324 325 326 327 326 327 328 329 329 329 330 331 332 333 335 335 335 336 336 339 340 340 340 340 340 341 343 343 344 345 348 352 354 355 355 355 354 354 354 354 356 356 357
316 316 316 316 316 316 316 317 317 318 318 319 318 319 319 320 320 320 321 322 323 324 325 326 326 327 328 328 328 329 329 330 331 333 333 333 333 335 336 337 337 336 336 336 337 337 338 339 339 338 339 341 345 349 352 354 354 355 355 356 356 355 355
315 315 315 315 315 315 316 316 316 317 317 317 318 318 318 319 319 320 320 321 322 322 324 325 326 326 327 328 328 328 328 329 330 330 330 331 332 334 335 335 335 334 334 334 334 334 335 336 337 337 336 337 337 340 343 347 350 353 353 352 352 352 353
314 314 315 315 314 315 315 315 315 316 316 317 317 317 318 318 318 319 319 320 321 321 322 324 325 326 327 327 327 327 327 328 328 329 330 331 332 333 334 334 334 333 333 333 333 333 334 334 335 337 338 337 337 338 339 340 343 345 346 347 348 349 351
313 313 314 313 314 314 314 314 315 315 315 316 316 316 317 317 318 318 319 319 320 321 321 322 324 325 326 326 326 326 326 326 327 328 329 330 331 331 332 333 333 332 332 332 332 332 332 333 335 337 337 339 340 341 341 342 342 343 344 346 347 349 350

ECMWFFLT1_925_thetae_111.txt.gz
Theta_e
363 366 368 365 364 369 367 355 351 352 348 348 349 345 347 352 356 357 355 357 357 355 357 357 355 356 358 358 357 352 353 354 351 352 353 354 355 357 359 360 359 358 359 358 358 358 357 358 358 356 357 359 357 356 356 356 357 357 356 357 358 358 357
361 362 365 364 364 368 363 354 352 353 351 349 349 346 347 351 355 359 357 357 358 356 357 359 356 357 358 359 357 354 353 355 355 353 355 356 356 357 358 359 360 359 359 359 359 357 357 358 358 356 358 360 358 356 356 357 358 359 358 358 360 358 357
359 359 361 362 363 366 362 356 354 355 355 352 350 347 346 350 355 358 358 357 358 358 357 360 359 358 359 359 358 356 355 356 357 356 356 356 357 357 357 358 359 360 360 360 359 358 358 359 358 357 357 359 360 358 358 359 360 360 359 359 361 360 358
360 359 359 361 362 363 362 358 355 356 354 352 353 352 350 352 354 356 358 357 358 359 359 360 361 360 360 359 357 357 356 356 357 356 357 356 356 357 356 356 357 359 359 359 358 358 360 359 358 358 357 359 361 361 359 358 357 359 360 358 358 358 357
359 357 357 360 361 361 363 359 355 355 354 354 356 355 353 354 355 357 359 359 359 359 359 360 361 361 362 360 358 357 356 357 357 357 357 356 357 356 355 355 355 355 358 360 358 358 359 358 358 359 358 358 361 361 361 359 357 359 362 359 356 356 357
355 356 357 359 359 359 359 358 356 354 355 355 354 353 353 354 354 357 360 361 361 361 361 360 360 362 362 362 359 357 356 357 358 357 357 357 357 355 354 354 354 353 354 357 359 358 359 358 357 359 360 359 360 360 361 361 359 359 361 361 358 357 359
352 355 357 357 358 358 356 356 356 356 356 354 351 351 352 353 353 354 356 359 360 359 359 361 361 361 362 362 360 358 356 357 357 357 357 357 356 355 353 352 353 352 353 356 357 358 359 359 357 358 359 359 359 360 360 360 361 360 360 361 360 360 360
348 351 354 353 355 356 354 354 356 358 357 354 353 355 353 353 353 352 353 355 356 354 352 355 359 359 359 359 360 359 358 357 356 357 357 356 356 355 352 352 353 352 353 354 355 355 357 358 358 357 358 359 359 360 360 359 361 361 361 360 361 360 360
344 346 348 348 349 351 351 350 352 355 357 355 355 357 354 353 354 355 353 352 353 353 351 352 355 356 356 356 356 358 359 357 357 357 356 356 356 355 353 352 352 352 352 353 353 353 355 357 357 357 357 358 357 357 359 359 358 359 360 361 360 360 360
341 341 343 343 344 346 347 347 347 351 354 354 354 355 355 354 353 353 353 352 352 353 353 353 354 353 353 352 351 355 359 359 358 357 357 356 356 355 354 352 351 352 351 352 352 352 353 354 356 357 357 358 357 355 355 357 357 357 358 360 359 358 359
337 338 339 340 341 344 345 345 345 347 349 351 352 353 355 355 354 352 353 353 353 352 353 353 353 354 353 352 350 353 357 359 359 359 358 357 355 355 354 352 351 351 351 352 351 351 352 353 354 355 357 357 356 356 355 354 355 355 356 357 357 357 357
336 337 338 339 340 341 343 345 346 347 347 348 348 349 351 354 355 355 355 355 354 355 355 354 353 352 351 351 349 350 355 357 358 358 357 357 356 354 353 351 351 351 351 351 351 350 350 352 353 353 355 355 355 355 355 354 353 354 354 354 356 356 356
336 336 337 337 338 339 340 341 343 345 346 346 346 347 348 350 353 355 356 355 355 355 355 354 353 352 352 351 349 349 353 355 355 355 355 356 356 353 351 350 350 350 351 351 350 351 349 350 351 352 353 354 354 354 354 354 353 354 353 354 354 356 356
335 335 335 336 337 338 338 339 339 341 341 342 345 346 347 347 349 351 353 353 353 354 354 353 353 354 354 352 350 349 350 352 354 354 354 354 354 353 351 349 348 349 350 351 351 351 350 349 349 351 352 353 354 353 353 354 353 354 354 354 354 356 356
334 335 335 335 335 336 337 337 337 338 338 338 340 343 346 345 346 348 350 350 352 353 353 355 353 352 353 353 351 351 350 351 354 355 353 354 353 352 350 348 348 349 349 352 351 350 350 349 349 350 351 352 353 353 352 353 354 353 353 354 355 356 356
334 334 335 334 334 335 335 336 335 335 336 337 337 340 344 344 345 347 348 349 350 350 351 353 354 354 355 355 354 354 353 353 354 354 354 354 354 352 351 350 348 347 349 352 353 352 350 349 348 349 349 350 351 352 353 353 353 353 353 353 353 355 356
333 334 333 333 333 334 334 335 335 334 335 336 335 336 339 342 343 346 347 347 348 348 348 348 351 353 354 354 353 354 354 354 354 354 353 353 354 354 353 353 351 351 351 352 353 352 351 349 348 347 348 349 349 351 353 353 353 354 354 353 353 354 354
333 333 332 333 333 333 333 334 334 335 335 334 334 334 334 337 339 342 345 346 345 344 344 344 346 347 347 348 348 349 350 352 353 355 354 354 354 354 354 355 355 355 352 351 352 353 350 349 349 347 345 348 350 350 352 352 353 353 354 354 353 353 354
333 332 332 332 331 331 332 332 332 333 333 333 334 334 334 334 336 337 341 343 343 341 340 341 343 343 343 342 343 344 346 348 349 351 352 353 354 353 354 356 357 356 354 351 350 352 351 349 349 350 347 346 348 350 351 351 351 352 353 354 354 354 354
333 333 333 331 330 329 329 330 330 331 332 331 331 334 335 335 335 335 336 339 341 340 340 339 340 340 340 340 340 340 343 345 346 347 349 351 352 353 354 356 357 356 356 354 351 353 352 350 349 350 351 349 346 348 350 351 352 351 351 352 353 353 354
331 334 334 332 331 328 326 327 328 329 330 329 327 331 335 336 336 335 334 336 339 338 338 338 339 339 339 338 338 339 341 343 344 345 346 348 349 351 352 354 356 357 357 356 355 354 354 352 350 350 351 352 351 348 347 349 351 352 352 352 352 352 352
328 329 331 331 329 327 325 325 325 327 329 327 324 327 332 334 334 334 333 335 337 337 336 336 337 338 338 338 338 338 339 342 343 343 344 346 347 348 350 351 353 354 355 356 355 355 355 354 353 351 350 351 353 353 350 346 346 348 350 351 351 352 352
324 324 326 327 325 323 323 324 324 325 326 325 323 326 330 332 331 332 332 333 335 336 336 335 335 335 336 337 337 337 338 339 341 342 343 343 344 346 348 349 351 352 353 354 354 354 355 355 354 353 352 351 351 354 354 351 348 346 347 349 349 351 351
321 321 323 323 321 321 322 323 324 324 324 323 324 326 328 328 328 329 330 331 334 335 335 335 335 334 334 334 335 337 338 338 339 341 341 342 344 345 346 347 348 349 351 351 352 353 353 354 355 354 354 355 352 352 354 355 354 353 351 351 350 350 350
321 321 321 321 320 322 323 323 323 324 324 323 324 325 326 325 325 326 327 328 332 333 333 333 334 334 334 334 334 335 338 338 338 338 340 342 343 344 346 347 348 349 350 351 351 352 352 353 354 354 355 354 354 353 353 353 354 355 355 355 354 353 351
321 321 320 321 321 322 322 322 323 323 323 323 323 325 325 325 326 326 326 327 329 330 330 332 333 333 333 333 333 333 334 336 337 337 338 340 342 343 345 347 347 348 349 350 350 352 352 352 353 354 354 354 354 354 353 353 353 355 355 355 356 356 355
321 320 320 321 322 322 321 322 323 322 322 322 323 324 325 325 327 327 326 327 327 327 328 330 332 332 331 333 334 332 331 334 335 335 336 337 340 343 342 341 343 344 345 348 350 352 354 353 354 354 354 354 354 354 355 355 355 355 355 354 354 355 357
320 320 320 321 321 321 321 322 321 321 321 322 322 323 323 324 325 326 327 328 328 327 327 328 330 331 330 332 334 332 331 332 331 332 334 335 338 342 338 336 340 343 343 345 349 352 353 353 354 355 355 354 354 354 354 355 356 356 356 354 354 354 354
320 320 320 320 320 320 320 320 320 320 320 321 321 322 322 322 323 324 326 326 326 326 326 325 326 326 327 330 333 332 331 331 328 328 331 334 338 339 336 335 340 343 343 345 349 352 352 351 353 354 355 354 354 354 355 356 355 356 356 355 355 355 354
319 319 319 319 319 319 319 319 319 320 320 320 320 320 321 321 322 323 324 324 324 324 325 325 325 325 326 329 331 331 330 330 328 327 332 335 336 336 335 336 338 340 342 346 347 347 346 346 348 350 352 355 355 355 355 356 357 357 357 355 355 354 355
319 318 318 318 318 318 318 319 319 319 319 320 319 319 320 320 320 321 322 322 322 323 324 325 325 326 325 326 328 330 330 329 328 329 331 333 334 334 336 337 337 338 341 343 342 341 341 342 342 342 345 348 350 351 353 354 356 356 356 355 356 355 355
318 317 317 317 317 317 318 318 318 319 319 319 319 319 319 319 319 320 320 320 321 322 323 323 324 325 325 325 326 328 329 329 329 329 330 332 333 335 336 335 336 338 339 338 338 338 339 339 339 338 339 341 342 343 346 349 353 355 355 354 355 354 354
316 316 317 316 317 317 317 317 317 318 318 318 318 318 318 318 319 319 319 320 320 321 322 322 323 324 325 325 326 326 328 329 328 328 330 331 332 333 333 334 336 337 336 335 335 336 336 336 336 336 337 338 338 338 338 341 346 352 354 354 354 354 355
316 316 316 316 316 316 316 316 316 316 317 318 318 317 317 318 318 318 318 318 318 319 320 321 322 323 324 324 324 325 326 329 328 328 329 330 330 330 331 332 333 334 335 334 334 334 334 334 334 335 336 336 336 337 337 337 340 345 350 353 353 353 353
315 316 315 315 315 315 315 315 316 316 317 317 316 316 317 317 317 317 317 317 318 318 318 319 320 321 322 323 324 325 326 328 328 327 328 328 328 329 329 330 331 333 334 333 333 333 332 332 333 333 333 334 335 336 336 337 338 340 343 345 347 347 348
315 315 314 314 314 314 315 315 315 315 315 315 315 315 316 316 316 316 317 318 319 319 319 319 319 320 321 322 323 324 326 327 327 326 326 326 327 328 329 329 329 331 332 332 332 332 332 332 332 331 331 333 335 335 336 338 340 341 341 342 343 343 344
314 314 313 313 313 314 314 315 314 314 314 315 315 314 315 315 316 316 316 317 319 320 321 321 320 320 320 321 322 323 323 324 325 326 325 325 326 328 328 326 327 328 329 331 332 332 331 332 331 330 332 333 334 336 337 339 339 338 337 339 341 342 343
313 313 313 313 313 314 314 313 314 314 314 314 314 314 315 316 315 314 315 317 318 319 319 320 321 321 321 321 322 323 323 323 325 326 326 326 327 326 325 324 326 328 329 329 330 330 331 331 331 331 332 332 333 336 338 339 336 334 334 337 339 341 342

ECMWFFLT1_925_thetae_114.txt.gz
Theta_e
365 364 360 359 357 354 350 345 342 345 346 346 348 348 350 351 352 351 352 353 353 353 354 353 352 353 352 350 350 352 354 354 353 354 354 355 354 353 353 354 356 356 356 356 356 356 355 356 356 354 353 354 356 357 356 356 356 356 357 357 358 357 355
363 361 359 359 359 356 354 353 349 345 345 346 347 349 350 352 352 352 352 352 353 353 354 354 352 352 353 352 350 350 352 354 354 354 353 354 355 354 353 354 356 356 356 355 355 355 355 355 355 354 354 355 357 357 356 356 356 356 357 357 357 356 356
357 358 357 359 361 359 357 356 355 350 346 345 346 348 351 353 352 352 352 353 353 353 354 355 354 352 354 355 352 350 351 353 354 354 353 353 355 356 355 356 357 356 356 355 355 356 356 356 355 355 355 355 357 358 356 355 355 356 356 357 357 357 357
355 356 356 358 359 359 357 356 355 355 353 348 346 347 351 353 353 352 352 353 352 352 354 355 354 354 355 355 354 352 351 352 353 354 352 353 354 356 357 358 358 358 356 356 357 357 357 356 356 356 357 355 357 359 358 356 356 357 358 357 358 358 358
354 354 355 358 360 359 357 356 355 355 355 352 350 349 351 353 354 353 352 352 353 352 352 354 354 355 356 356 355 355 353 351 353 354 353 352 354 354 356 356 358 358 358 357 358 358 358 357 356 357 357 356 357 359 358 357 357 358 359 358 359 359 360
353 353 354 356 358 357 356 356 355 352 353 353 353 352 353 353 355 355 354 354 354 354 354 355 356 355 355 355 356 357 356 353 353 355 354 353 355 355 355 356 356 358 359 358 358 358 358 358 357 359 358 357 356 358 359 359 358 358 358 358 359 358 358
353 352 352 353 354 353 354 356 355 352 352 353 352 353 353 354 356 357 356 356 356 356 355 357 359 358 356 356 356 357 357 355 353 355 356 356 355 356 356 356 356 356 358 359 359 359 357 358 359 358 358 357 356 357 358 358 359 357 357 358 359 359 356
351 352 350 349 350 351 353 355 355 353 354 353 351 352 352 353 357 358 358 357 357 357 357 357 359 360 359 359 357 357 357 357 355 355 356 356 356 356 356 356 355 354 355 357 357 359 358 358 359 359 357 358 358 358 357 358 358 358 357 357 358 359 358
346 348 348 347 347 348 350 352 353 354 354 353 352 352 351 352 355 357 357 357 358 359 358 358 359 360 361 361 360 359 358 357 356 355 356 357 356 356 356 356 356 354 353 353 354 357 359 358 358 358 356 357 358 358 358 358 358 358 359 358 358 358 358
341 344 346 346 346 347 348 349 351 352 354 354 354 353 354 353 353 354 354 353 355 357 357 358 358 359 360 361 360 360 359 358 356 356 356 357 357 356 356 356 356 354 352 352 352 354 357 358 358 358 357 357 357 358 358 358 359 359 358 359 359 359 358
341 340 341 344 346 346 346 347 347 349 350 351 353 354 354 353 352 352 352 351 351 352 353 355 356 357 357 358 359 359 358 358 358 357 356 357 356 356 356 355 356 354 352 352 352 352 354 355 356 357 357 357 356 357 357 357 358 359 358 358 358 358 358
340 339 339 340 344 345 345 345 345 347 348 348 349 350 351 352 353 353 352 352 351 350 350 352 354 355 356 356 356 357 357 356 356 357 357 355 356 356 356 356 356 354 352 352 352 352 353 353 354 354 356 358 356 357 356 355 355 356 357 357 357 357 357
337 338 337 338 341 342 341 342 343 344 346 347 346 348 349 352 354 354 353 353 353 351 350 351 352 353 354 354 354 354 355 355 354 356 357 356 354 355 355 356 356 354 353 352 351 351 351 352 352 352 354 355 356 356 356 355 354 354 355 356 356 356 356
336 336 335 336 339 340 338 338 339 340 343 345 346 346 347 347 349 352 352 352 352 351 351 350 351 352 353 352 351 352 353 353 353 353 355 355 355 354 353 354 353 352 352 352 351 351 351 351 351 351 352 352 354 354 355 355 355 354 354 354 354 355 354
335 335 335 335 336 337 337 337 337 337 339 342 344 346 347 347 347 347 349 351 352 352 351 351 352 352 352 350 349 350 350 351 351 351 351 353 354 354 353 352 351 351 349 349 351 351 351 351 350 350 350 351 352 352 353 354 354 353 354 354 354 354 354
334 334 334 334 334 335 335 335 335 335 334 336 339 342 345 347 347 346 346 348 349 349 350 351 351 352 353 353 352 351 351 350 351 350 350 351 351 351 352 351 350 349 349 349 349 350 351 351 350 350 350 350 351 351 351 353 353 352 351 351 352 352 353
333 333 332 332 332 333 333 333 333 334 333 334 335 337 341 345 347 344 344 344 346 346 345 346 347 347 350 352 353 354 354 354 353 351 351 351 350 350 351 351 350 350 350 349 349 350 351 351 350 349 349 349 350 351 351 351 351 351 351 350 351 350 351
332 332 331 331 331 332 332 332 331 332 333 335 334 335 337 341 344 342 341 341 342 342 342 340 341 342 343 346 348 350 352 352 353 353 353 352 353 352 351 352 351 352 351 350 350 349 350 351 351 350 349 349 349 350 351 351 349 350 350 350 350 350 350
331 330 330 331 331 331 330 330 330 330 331 334 335 335 335 337 340 341 340 339 339 339 339 339 339 339 340 341 343 346 347 348 350 351 352 353 353 353 354 353 354 354 353 353 352 352 351 351 351 351 349 349 349 349 351 351 350 350 349 349 349 349 350
330 330 330 331 330 327 326 328 328 327 328 333 334 334 333 335 337 337 336 335 335 337 337 337 338 338 339 340 340 342 344 345 346 347 349 350 351 352 353 354 354 355 355 355 355 354 353 353 352 351 349 349 349 348 349 350 350 351 350 349 348 348 350
329 329 331 332 330 325 324 327 328 326 329 333 334 332 332 333 335 336 335 333 333 333 333 334 334 335 336 338 338 339 341 341 343 344 345 346 347 348 350 351 352 353 354 354 355 354 354 355 354 353 351 350 350 350 349 349 349 350 351 351 349 349 350
327 328 329 328 326 324 324 326 326 326 327 330 330 330 330 330 332 334 335 335 334 333 332 332 332 332 334 336 337 338 339 339 340 341 342 343 344 345 346 348 349 350 351 352 353 353 354 354 355 354 354 353 352 351 351 351 350 350 350 351 351 351 350
325 325 324 323 322 324 324 325 325 325 326 326 326 327 327 327 328 331 333 334 333 333 333 332 332 331 331 333 335 336 337 337 337 339 340 341 343 345 346 346 346 348 350 350 351 351 352 352 353 354 354 354 354 353 352 351 352 352 351 350 351 351 352
322 322 322 322 323 323 323 323 323 324 325 325 325 326 326 325 325 327 329 330 329 331 332 332 332 332 331 332 332 332 335 336 335 336 337 338 341 344 343 340 341 344 346 348 349 350 351 351 352 352 353 353 354 354 354 353 353 353 353 351 350 351 351
320 321 322 322 322 322 322 322 322 323 323 323 324 325 325 326 325 326 327 327 326 327 328 329 331 332 331 332 332 331 331 331 330 332 334 334 338 343 340 335 337 341 343 345 347 349 351 351 352 352 352 353 353 354 354 354 354 353 353 353 352 352 351
320 322 322 322 321 321 321 321 321 322 322 323 323 324 324 325 326 326 326 326 325 325 325 325 327 327 327 330 333 331 330 328 325 326 331 333 336 341 339 334 337 341 342 343 345 349 352 352 352 352 352 352 353 353 353 354 354 353 353 353 353 353 353
322 322 321 321 321 320 320 320 321 320 321 321 321 322 323 323 324 324 325 324 324 324 325 324 325 325 325 329 333 332 330 329 325 323 329 334 336 338 336 334 337 340 342 344 347 349 350 349 349 350 351 352 353 354 354 354 354 354 353 354 355 355 355
321 321 320 320 320 319 319 319 320 320 319 320 320 320 321 321 322 322 322 322 322 323 323 324 324 325 324 326 330 331 330 329 326 323 326 331 334 334 334 334 336 340 343 345 344 344 343 343 343 345 346 349 351 352 354 355 354 354 354 355 354 355 354
319 319 319 319 318 318 318 319 319 319 319 319 319 319 320 320 320 321 321 320 321 322 322 323 323 324 324 324 325 327 329 330 328 325 324 327 331 332 334 334 335 339 341 339 337 337 336 337 339 339 340 342 344 346 349 351 352 353 354 355 354 354 354
318 318 317 317 318 317 318 318 319 319 318 318 318 318 319 319 319 320 319 319 320 320 321 322 322 323 323 323 323 324 326 328 329 327 325 325 329 331 333 335 335 337 337 336 333 333 333 334 335 336 336 337 338 339 342 345 347 349 351 354 354 354 355
318 317 317 317 317 317 317 318 318 318 317 318 318 318 318 318 318 318 317 317 318 318 319 320 321 322 323 324 323 323 324 325 328 328 326 326 329 330 331 333 333 334 334 335 333 333 333 333 333 333 334 335 335 335 337 339 341 342 343 348 353 354 355
317 317 317 317 317 317 317 317 317 317 317 317 317 317 317 316 316 316 316 316 317 318 318 318 319 320 321 322 322 322 323 324 326 328 327 327 328 329 330 330 329 329 331 333 333 333 333 333 332 332 332 333 333 333 334 335 337 338 338 342 346 350 352
316 317 317 316 317 317 316 316 316 316 317 316 315 316 315 315 315 314 315 316 317 318 319 319 319 319 319 319 320 321 323 323 325 327 328 328 328 328 328 327 325 325 328 331 331 332 333 333 332 332 332 332 331 331 331 333 336 337 339 340 341 343 346
316 317 316 316 316 315 314 315 316 316 316 315 314 314 313 314 314 315 315 316 317 318 319 319 320 320 320 319 319 320 321 322 323 324 326 326 326 326 326 325 324 325 328 328 328 330 332 332 332 332 331 331 331 330 331 333 334 335 337 338 339 339 340
316 316 315 315 314 314 314 315 315 315 315 314 314 313 313 314 315 315 315 316 317 317 317 318 319 320 320 320 320 319 320 321 322 323 323 324 325 325 324 324 324 326 325 324 325 328 330 330 331 332 331 331 331 331 330 331 333 334 335 337 337 336 337
315 315 314 313 314 314 314 315 314 314 314 313 313 313 314 315 314 313 313 315 315 315 315 316 317 318 319 320 321 321 320 320 321 321 321 322 324 326 325 324 325 325 323 322 324 327 328 328 329 330 330 331 331 330 330 330 332 335 336 336 335 335 336
315 314 313 313 314 314 314 313 313 313 313 312 313 314 314 314 313 312 313 313 313 313 313 315 315 317 319 320 321 321 321 320 319 319 320 321 322 325 327 326 325 324 323 322 324 327 327 327 327 327 326 325 325 326 329 332 333 334 334 334 333 334 336
314 313 313 313 314 313 313 313 312 312 312 313 313 314 313 312 312 312 311 311 311 311 312 313 315 316 317 319 321 322 322 321 320 320 321 323 323 325 327 327 325 325 325 324 325 327 327 326 325 323 322 322 323 326 329 332 333 332 331 332 333 333 333

ECMWFFLT1_925_thetae_117.txt.gz
Theta_e
364 364 363 362 359 351 346 344 344 345 345 346 346 346 348 349 349 350 351 351 351 349 349 348 347 349 351 351 351 351 350 351 351 351 351 353 354 354 353 353 353 354 354 355 355 356 356 356 356 357 356 354 354 353 353 354 355 356 355 354 355 356 356
363 363 362 361 360 359 354 347 344 345 344 346 346 346 348 349 349 350 350 351 350 349 349 349 348 348 349 350 351 351 351 352 353 353 353 354 354 355 354 353 353 353 354 354 355 355 355 356 356 355 355 354 352 352 354 355 355 355 356 356 356 356 357
361 363 363 362 360 361 358 352 348 346 344 345 346 347 348 349 349 349 350 350 350 350 349 349 348 349 349 350 350 350 351 351 353 354 354 354 354 354 354 354 353 352 353 354 354 355 355 355 355 355 354 353 352 353 355 356 355 355 356 356 356 356 356
359 361 362 360 359 359 357 353 352 349 345 345 347 347 348 348 349 349 349 350 350 350 350 350 350 349 350 350 350 351 350 350 352 354 353 352 354 354 354 354 354 352 353 354 355 355 355 354 355 355 355 353 352 354 356 356 355 355 355 355 356 356 356
359 360 360 358 358 360 358 354 354 351 347 346 346 347 348 348 350 350 349 350 351 350 350 350 350 351 350 350 350 351 350 350 351 352 353 353 352 353 354 354 354 354 355 356 356 355 355 355 355 356 355 354 354 354 355 355 356 355 354 354 355 357 357
357 358 359 358 359 361 359 354 352 352 350 348 346 346 347 349 350 350 351 351 351 351 351 352 351 351 351 351 351 351 350 350 350 350 352 352 352 353 353 353 354 355 356 357 357 356 355 356 356 356 356 355 355 355 355 356 356 356 355 355 356 357 358
355 355 356 356 357 359 358 354 352 352 352 351 349 348 348 349 351 350 350 352 351 352 352 352 353 352 352 352 352 351 351 351 349 349 351 352 353 353 352 353 354 354 355 356 357 357 356 356 357 357 356 356 355 356 356 356 356 357 357 357 357 357 358
352 352 354 355 356 357 356 354 353 353 352 353 352 350 349 350 352 351 351 352 352 352 352 352 353 353 352 352 352 352 352 352 349 348 351 352 354 354 353 352 354 354 354 355 356 357 358 357 357 357 357 356 357 358 357 356 355 357 357 358 357 355 355
349 349 350 351 353 355 355 355 355 355 354 354 353 353 352 352 352 353 352 352 354 353 353 353 354 354 353 353 353 354 353 353 350 349 350 352 353 354 354 353 354 354 355 355 355 356 357 358 358 358 358 357 358 358 357 357 356 356 357 357 357 354 353
346 347 347 347 349 350 352 353 353 353 353 353 354 354 354 354 354 355 354 353 354 355 354 354 355 356 355 355 355 355 355 354 353 351 352 353 353 354 355 355 355 355 355 355 355 354 355 356 358 358 358 357 358 358 357 357 356 357 356 357 358 355 354
343 345 346 346 347 348 349 349 349 350 351 352 353 352 353 354 354 355 355 355 355 356 355 355 356 357 357 357 357 356 356 356 355 355 354 353 353 354 354 356 355 356 355 355 355 355 354 354 355 356 357 358 358 358 357 356 356 357 357 357 357 357 356
341 342 343 343 346 346 347 347 346 348 349 350 351 352 352 352 353 353 354 354 355 355 355 356 356 357 357 357 358 358 357 356 356 356 356 355 355 354 354 354 355 355 355 355 356 355 354 353 352 353 355 357 358 357 357 357 356 357 357 357 357 358 358
339 340 341 341 342 344 344 345 346 346 347 347 349 350 352 352 351 352 351 350 351 352 353 354 355 355 356 356 357 357 357 357 356 357 357 356 356 355 354 355 355 355 355 354 355 355 354 353 352 352 352 354 355 356 356 356 357 356 356 356 357 357 358
337 338 340 340 341 340 341 342 343 344 346 346 347 349 351 352 352 351 351 350 349 349 350 351 352 352 353 353 354 354 354 355 357 357 357 356 356 356 355 356 355 355 355 355 355 355 355 353 352 351 351 351 352 353 354 355 356 356 356 356 356 356 356
335 335 337 339 339 338 337 338 338 340 343 345 346 347 348 349 349 349 349 350 349 348 349 349 350 351 352 352 352 351 352 352 354 355 355 354 355 356 356 355 355 355 354 355 354 355 354 354 353 352 351 351 351 351 352 354 354 354 355 355 355 354 354
335 334 334 336 337 337 336 336 336 336 340 343 345 346 346 346 346 346 346 346 347 349 350 350 350 350 351 351 350 350 350 349 350 351 351 352 353 355 355 355 354 354 353 353 353 353 352 352 351 351 352 351 351 351 351 352 352 352 352 352 353 354 354
334 332 332 333 335 337 335 335 336 336 338 341 342 343 342 342 342 342 343 342 343 346 347 347 347 348 348 350 350 351 351 350 349 349 349 350 351 351 353 353 353 352 352 350 350 350 349 349 350 350 350 351 350 351 352 352 351 350 350 351 352 353 353
332 331 330 330 331 333 333 333 334 335 336 338 339 340 340 339 339 339 340 340 340 341 342 343 343 343 345 346 348 350 351 351 352 352 351 351 350 350 350 350 350 350 350 350 350 350 350 350 350 350 350 351 350 350 350 350 350 350 350 350 350 351 352
330 329 329 329 329 329 329 330 332 334 334 335 337 338 337 336 336 336 337 337 337 338 338 339 340 341 341 343 344 346 347 348 349 350 352 352 352 352 353 352 351 351 352 351 351 351 350 350 350 351 351 351 351 350 350 349 349 349 349 350 349 350 351
328 327 326 327 327 327 328 328 330 332 333 334 334 335 335 334 333 333 333 333 333 334 335 337 337 338 339 340 341 341 342 342 343 345 346 347 348 350 352 352 353 353 353 353 352 352 352 352 352 351 351 351 351 350 350 349 349 348 348 349 349 349 350
327 326 326 327 327 326 327 328 329 329 329 330 331 333 334 334 333 333 332 332 332 331 332 333 334 334 336 337 338 338 339 339 340 341 342 343 344 345 347 348 349 350 351 352 353 353 353 354 353 353 352 352 352 351 350 349 349 349 349 348 348 348 348
325 324 325 326 325 325 325 326 326 326 326 326 327 330 332 334 334 333 333 333 333 332 332 332 332 332 332 333 334 334 335 336 337 338 340 343 343 341 341 341 343 346 348 349 350 350 351 352 353 353 353 353 353 353 352 351 350 349 350 349 348 347 347
323 323 323 324 324 324 325 325 325 325 325 325 325 326 329 330 330 329 329 330 330 330 330 330 330 330 331 331 330 329 328 330 333 335 338 341 342 338 336 336 338 342 345 346 347 348 349 350 351 352 353 353 353 353 353 353 352 352 351 351 351 350 349
321 322 323 322 323 323 323 324 324 324 324 324 325 326 326 327 327 326 326 326 326 326 327 326 326 327 330 332 330 328 327 326 328 332 336 339 341 338 335 336 338 341 343 344 345 347 349 351 352 352 352 352 352 353 353 353 353 353 353 352 352 352 351
321 321 322 322 322 322 322 323 322 322 323 323 324 325 326 325 326 325 324 324 324 324 324 325 325 325 328 331 331 331 329 326 326 329 334 337 338 336 334 337 340 341 343 344 346 348 349 349 349 349 350 352 353 353 353 354 354 353 354 353 353 353 353
320 321 321 321 321 321 321 321 321 321 321 322 322 323 324 325 324 323 322 322 323 322 322 323 324 323 325 329 331 331 330 328 326 327 330 333 334 333 334 339 342 342 342 342 342 342 341 340 341 342 343 347 349 351 353 354 353 354 354 354 353 354 353
320 320 320 320 320 320 320 320 320 320 320 320 321 321 322 322 322 321 321 321 320 321 321 321 323 323 324 325 326 328 329 329 328 327 327 328 331 332 334 338 340 338 336 336 334 333 333 334 334 336 337 339 340 343 347 349 350 352 353 353 353 354 353
321 321 320 320 319 319 319 319 319 319 319 319 320 320 320 320 320 319 319 319 318 319 319 320 322 322 323 323 323 324 326 327 328 328 327 327 330 333 335 337 337 336 334 333 331 331 331 331 331 332 333 335 335 335 338 340 342 344 346 346 349 352 353
319 319 319 319 318 318 319 318 318 318 318 318 319 319 319 319 318 317 318 318 317 318 319 320 321 322 322 322 322 322 323 325 326 327 327 327 329 331 333 334 334 333 333 332 331 331 332 332 331 331 330 331 332 331 332 334 336 338 339 341 345 349 351
318 318 318 318 319 318 318 318 317 318 318 318 318 318 318 317 317 316 317 317 317 318 318 319 319 320 321 320 321 320 321 322 325 327 327 328 328 330 330 329 328 328 329 331 331 331 332 332 332 331 331 330 330 330 330 332 333 335 337 338 341 343 345
316 318 318 318 318 318 317 317 317 317 316 316 316 316 316 316 315 315 316 317 317 317 317 318 318 319 319 319 320 320 320 321 323 325 326 327 328 328 327 325 325 325 325 326 328 329 330 331 332 332 331 331 331 330 330 330 332 333 334 335 338 339 339
316 317 317 317 317 317 316 317 316 315 315 314 314 314 314 314 314 314 315 316 316 316 317 317 318 318 318 319 319 319 319 320 322 323 324 325 326 326 326 325 324 324 323 323 324 327 328 329 330 331 331 330 330 331 330 330 330 332 333 335 336 337 336
316 317 316 316 316 315 316 316 316 315 314 313 313 313 313 313 313 314 314 315 316 316 317 317 318 318 319 319 319 319 319 319 321 322 322 322 323 324 325 325 325 324 323 321 322 325 328 328 328 329 328 327 327 327 327 327 328 331 333 334 336 335 334
315 316 316 315 315 315 315 316 315 314 313 313 313 313 313 313 313 313 314 314 314 314 315 316 317 318 318 319 319 319 319 319 320 320 320 320 321 322 323 325 326 324 323 322 322 324 326 327 327 327 325 323 322 323 323 324 326 330 331 333 334 334 333
315 316 315 314 314 314 315 315 314 313 313 313 313 313 313 313 313 312 312 311 311 312 313 314 316 317 318 319 320 320 320 319 319 319 319 319 320 321 322 325 326 326 324 323 322 322 324 326 326 325 323 321 321 323 325 325 327 329 331 332 333 333 332
315 315 314 314 315 315 314 314 313 312 313 313 313 313 312 312 312 311 310 310 309 310 311 313 315 316 317 318 320 321 321 321 321 320 321 322 322 322 322 324 326 326 325 324 323 322 324 325 326 324 322 320 320 323 325 326 327 330 331 331 331 331 329
315 314 314 314 314 314 313 313 313 312 313 313 313 312 312 311 311 310 309 308 308 309 311 312 313 315 316 317 319 321 321 321 322 322 323 323 324 324 324 325 325 325 325 324 324 324 324 325 324 323 321 321 321 322 324 326 328 329 330 330 329 328 327
315 314 314 314 314 313 313 312 312 312 313 313 312 312 311 311 311 310 309 308 307 308 310 311 312 313 314 317 319 319 318 319 321 321 322 322 322 323 323 323 323 323 324 325 325 324 324 324 323 322 321 321 322 322 323 326 328 328 328 328 327 327 325

ECMWFFLT1_925_thetae_123.txt.gz
Theta_e
356 356 348 342 343 344 347 349 350 351 352 352 352 352 352 353 354 354 354 353 353 353 352 352 352 351 351 351 351 351 352 352 352 352 352 352 353 353 352 352 353 353 354 355 354 353 352 352 354 356 355 354 353 353 352 352 352 352 352 352 353 355 354
355 356 351 344 342 345 348 349 350 350 351 352 352 352 352 353 354 354 354 353 352 352 352 351 351 351 351 351 351 351 351 351 352 351 352 352 352 352 351 351 351 351 352 354 353 351 350 351 353 355 356 355 355 353 352 353 352 352 354 353 354 355 354
357 357 354 347 343 344 348 348 349 350 350 351 351 351 352 352 353 353 354 353 353 353 352 352 352 351 351 351 351 351 351 351 351 351 351 352 352 352 351 351 351 352 352 353 353 352 352 353 354 355 356 356 357 355 353 353 352 352 353 353 355 356 355
360 357 355 352 346 344 347 348 348 349 349 350 351 351 352 352 353 353 353 354 354 353 352 351 351 351 352 351 351 351 350 350 351 350 351 352 352 352 351 351 352 353 354 353 353 354 353 354 355 355 355 355 356 355 353 353 353 352 352 353 356 357 355
361 358 356 354 350 347 346 347 348 349 349 349 350 350 351 352 352 352 353 353 354 353 352 352 352 352 351 351 351 351 349 349 351 350 350 351 351 351 352 353 353 353 354 353 353 353 353 354 355 355 355 354 355 356 355 354 354 354 354 355 356 357 357
361 360 358 357 354 350 348 347 347 348 349 349 349 350 351 351 352 352 352 353 353 354 353 352 352 351 350 350 351 349 348 348 350 350 350 349 350 351 352 353 353 353 353 354 353 352 353 353 354 355 355 355 357 357 357 356 355 356 356 355 356 357 357
359 359 359 359 356 353 353 351 349 348 348 348 349 350 350 351 351 351 352 353 353 353 353 352 352 352 350 350 350 348 348 349 350 349 350 350 350 352 353 352 352 352 353 354 353 353 353 354 355 356 355 356 356 357 357 356 355 356 356 355 356 356 356
357 357 358 359 357 355 355 355 353 350 348 348 349 350 349 350 351 352 352 353 353 352 351 351 351 351 351 349 349 348 348 350 350 349 350 352 352 352 353 352 351 351 351 353 354 353 354 355 356 356 356 356 356 356 356 355 354 356 357 356 356 357 358
355 356 356 356 356 355 357 357 355 352 348 347 349 349 350 350 351 351 351 352 353 351 350 350 350 350 349 349 349 349 349 350 350 350 350 352 353 353 353 353 352 351 351 354 355 354 353 355 356 356 355 356 357 357 357 357 356 356 357 356 357 357 358
354 354 354 354 354 355 355 356 356 355 352 350 348 348 350 351 350 351 352 352 352 351 351 352 351 349 349 349 350 351 352 351 351 352 352 353 353 353 353 353 353 351 351 354 357 356 354 354 355 355 354 356 356 356 357 357 357 356 356 356 357 357 358
351 352 353 354 354 354 354 355 355 355 355 354 352 351 350 349 349 350 350 350 350 351 352 351 350 349 349 350 350 352 353 353 353 353 353 353 353 353 353 353 353 351 351 353 355 356 356 355 354 354 354 355 355 355 355 356 356 356 357 357 357 357 358
345 346 348 350 352 353 353 354 354 354 354 355 355 354 352 350 349 349 350 350 349 350 351 351 351 351 351 351 352 352 353 355 355 355 355 355 355 355 355 354 354 353 352 353 354 355 356 356 356 355 354 354 355 355 354 353 354 354 355 357 358 357 358
341 341 342 344 349 353 352 352 353 353 353 354 354 355 354 352 351 351 351 351 351 351 351 351 351 352 352 353 353 354 353 354 355 354 355 355 354 355 356 355 355 355 354 354 354 354 355 355 356 356 355 354 355 355 354 352 352 352 352 354 356 357 357
341 341 341 343 347 351 351 351 352 352 352 353 354 353 353 353 353 353 353 353 353 352 352 353 353 354 354 355 356 356 355 355 356 354 353 353 353 353 355 355 356 356 356 355 355 354 354 354 354 355 355 355 355 355 354 353 353 353 351 351 352 353 355
341 342 343 343 344 348 350 349 349 349 349 350 350 350 351 352 353 353 353 353 354 354 354 354 355 356 356 356 356 356 356 356 356 355 354 354 353 353 354 354 355 356 356 356 356 355 355 354 354 354 355 355 355 354 354 354 354 354 352 351 351 351 354
341 341 342 342 341 344 345 344 344 343 344 345 345 346 347 348 349 350 351 351 352 353 353 353 354 354 354 355 355 355 355 355 354 355 355 354 354 355 355 355 355 355 355 356 355 355 355 354 355 355 355 355 354 354 354 354 354 353 352 352 351 351 354
340 339 339 339 339 339 339 340 340 339 339 339 340 341 342 343 344 346 347 348 349 350 350 351 351 350 350 352 353 353 354 354 353 353 353 353 353 354 355 355 355 355 355 355 355 354 355 354 354 354 354 354 353 353 353 353 353 351 350 350 350 351 353
338 338 337 336 336 336 335 336 337 336 336 336 337 337 338 338 340 340 342 343 345 346 347 348 348 347 348 349 350 352 352 353 353 353 353 353 353 352 352 353 353 354 354 354 354 354 354 354 353 352 352 352 352 352 352 352 351 350 350 349 349 349 350
337 336 335 334 333 333 334 334 335 335 335 335 335 335 335 335 335 336 337 338 340 342 343 343 343 343 344 345 346 348 350 351 351 352 352 353 353 353 352 352 352 353 353 354 354 354 354 353 353 352 351 351 350 350 351 351 350 349 350 350 350 349 348
335 335 334 332 331 331 332 333 333 334 333 332 331 331 332 333 332 332 333 334 335 337 337 337 338 338 340 342 343 344 346 347 348 348 349 350 351 352 352 352 352 352 352 353 353 353 353 354 354 353 352 352 351 351 352 352 351 349 349 350 350 349 348
334 334 333 331 331 330 331 332 332 332 332 330 328 329 329 329 330 330 330 330 331 331 331 332 332 333 335 338 340 342 343 343 343 343 344 345 346 348 348 349 350 350 350 351 351 352 352 353 353 353 353 354 354 354 354 353 352 350 350 350 350 350 349
333 332 331 331 332 331 331 331 331 331 329 329 329 328 327 327 328 328 328 328 329 328 328 328 328 329 331 333 336 339 340 340 339 339 339 339 340 341 344 345 347 347 348 347 348 350 351 351 351 352 352 353 353 353 354 353 352 352 352 352 351 351 351
332 330 330 330 330 330 330 330 330 328 327 327 327 326 326 326 327 327 327 327 327 327 327 327 326 327 328 329 331 333 335 335 335 336 337 337 338 339 340 342 343 344 345 346 347 348 349 350 350 350 351 352 352 353 353 351 351 351 351 352 353 352 352
330 329 328 328 328 328 328 328 328 326 324 324 324 324 324 325 325 326 325 325 325 325 325 325 325 326 326 327 327 329 330 332 334 336 338 339 341 341 342 343 343 344 345 346 347 347 348 349 349 348 349 349 349 350 349 348 349 350 351 351 352 352 353
328 327 327 328 328 328 327 327 326 325 323 322 322 322 323 323 324 324 323 323 323 323 323 322 323 324 325 326 327 327 329 331 334 337 337 337 338 339 340 340 340 341 341 341 341 341 342 343 343 343 343 343 343 345 346 345 345 347 349 350 351 352 352
327 326 326 327 326 326 326 326 325 324 323 322 321 321 321 322 322 321 320 321 321 321 321 321 321 322 324 326 326 327 328 331 334 336 335 333 333 333 333 333 333 334 334 334 334 335 336 337 337 336 336 337 338 340 342 342 341 342 343 345 347 348 349
326 325 325 325 324 324 324 324 323 323 322 320 320 320 320 320 319 319 319 319 319 319 319 320 320 321 322 324 326 326 328 331 334 335 334 332 330 330 330 330 330 330 331 331 331 332 332 332 332 331 331 333 335 337 339 340 340 338 339 340 341 343 345
325 324 324 324 323 322 322 322 322 321 321 320 319 319 318 317 318 318 318 317 317 318 318 319 319 320 320 322 324 325 327 328 330 331 330 328 326 325 325 326 326 327 329 330 330 330 330 329 329 328 327 328 330 333 336 337 337 336 336 337 337 338 339
325 324 323 323 323 322 321 321 320 320 320 319 318 318 317 316 317 317 317 316 316 316 317 318 318 319 319 319 321 324 325 326 327 327 326 325 324 323 323 323 323 323 326 327 329 329 329 328 328 326 324 324 325 327 331 333 334 334 335 335 334 334 335
324 323 323 322 322 321 320 320 319 319 318 317 316 315 315 314 315 315 315 315 315 314 315 316 317 318 318 318 319 322 323 324 324 325 325 325 325 324 324 324 323 322 322 323 326 328 328 327 327 326 325 325 324 324 327 331 333 333 333 333 332 332 332
323 322 322 322 321 320 319 319 318 318 317 315 314 313 312 312 312 312 312 313 312 313 315 316 316 317 317 317 318 320 321 322 322 322 323 324 325 325 325 326 326 324 322 323 326 328 329 328 327 326 326 325 325 326 327 330 332 332 331 331 330 330 330
322 322 322 321 320 319 318 318 318 317 316 315 313 312 311 311 311 310 310 310 310 311 315 316 317 317 318 318 319 319 321 323 323 321 321 322 323 324 324 325 327 326 325 326 327 328 330 329 327 326 326 325 325 326 327 329 331 331 330 329 329 328 328
322 322 322 321 319 318 318 318 318 317 317 316 314 313 312 311 311 310 309 309 309 310 314 317 318 318 319 320 321 321 322 324 323 321 321 321 322 324 325 326 327 327 327 327 327 328 329 328 325 324 325 324 324 325 327 330 331 330 328 327 327 326 326
322 322 321 320 317 317 318 319 318 318 317 316 314 313 312 311 311 309 308 309 309 311 314 317 318 319 319 320 321 322 322 323 322 322 322 322 322 323 324 325 327 328 327 327 328 328 327 326 325 323 322 324 325 325 327 329 329 328 327 326 325 325 323
322 321 321 318 316 316 317 318 318 318 317 315 313 312 311 310 310 309 308 309 310 313 316 317 317 318 319 319 320 321 321 322 322 322 323 323 323 323 323 324 326 327 326 325 324 324 324 324 324 322 321 322 324 324 327 329 327 326 325 324 323 322 321
321 321 320 318 316 316 316 316 317 317 315 313 312 312 311 309 309 308 308 308 310 313 316 317 317 317 318 318 319 319 319 320 321 322 322 323 324 324 324 323 323 323 323 322 321 320 321 321 322 321 320 322 323 324 326 327 325 324 322 321 321 320 320
320 320 319 318 317 317 317 316 316 316 314 313 312 311 311 310 309 308 307 307 309 313 316 317 317 317 317 317 317 318 318 319 319 320 320 321 322 323 324 324 322 321 321 321 320 320 320 320 320 320 320 322 324 324 324 324 323 321 321 320 320 319 319
320 319 318 317 317 317 317 317 317 316 314 313 312 311 311 310 309 308 307 307 308 312 315 316 316 316 316 316 316 316 317 318 318 319 319 319 320 321 321 322 323 322 321 321 320 320 320 320 320 320 320 322 324 323 322 322 321 320 320 320 319 319 318

ECMWFFLT1_925_thetae_129.txt.gz
Theta_e
348 347 348 347 346 345 346 348 348 349 350 351 353 353 353 352 352 352 355 356 357 358 359 360 360 360 362 362 362 362 362 361 360 360 360 359 358 358 358 359 359 358 358 357 357 358 357 357 357 356 358 359 360 361 360 361 361 360 359 358 359 361 360
348 348 347 346 346 345 345 347 348 349 350 351 352 353 352 351 352 353 354 356 358 358 359 360 361 360 361 361 362 362 361 361 360 359 359 360 361 360 358 358 358 358 359 357 356 358 359 360 360 360 361 360 360 362 361 361 361 359 359 358 359 361 361
353 350 347 347 347 346 345 346 348 350 350 351 352 352 351 351 352 353 355 355 356 358 358 358 359 360 360 360 361 362 362 362 361 359 358 358 359 359 358 359 358 357 358 358 357 358 359 359 361 362 363 361 360 362 361 361 361 359 360 360 358 361 362
355 353 350 348 346 346 347 346 347 350 350 351 350 350 350 351 352 354 355 355 355 356 357 357 358 358 358 360 360 359 361 361 361 359 357 357 356 358 358 360 358 357 358 358 358 358 358 358 360 362 362 362 362 362 361 361 361 359 360 360 359 362 362
355 355 354 352 347 346 348 346 346 349 349 350 351 351 350 350 353 354 354 354 352 353 355 355 355 355 357 358 357 358 359 359 360 359 358 357 356 358 358 358 357 358 359 359 358 360 359 358 359 359 360 361 362 363 362 361 361 360 361 360 360 361 361
355 356 357 356 350 346 347 346 346 349 349 349 350 350 350 350 352 353 353 352 351 351 351 352 353 354 355 355 354 355 357 357 358 360 358 358 358 357 358 357 357 358 358 359 358 359 359 359 359 359 358 358 358 360 360 359 360 360 360 360 360 361 360
355 355 355 356 354 348 347 347 347 348 349 349 348 349 350 350 352 353 351 351 351 350 350 350 350 352 353 353 352 354 355 356 357 358 358 359 358 357 357 358 357 357 358 358 358 358 357 358 360 359 358 356 356 357 358 359 359 359 361 361 360 360 360
356 357 357 357 354 350 349 348 347 348 350 350 349 349 352 352 353 354 352 351 350 351 352 351 349 350 352 352 352 352 353 354 355 356 357 358 358 358 357 357 358 357 358 357 358 358 357 357 359 358 358 358 357 357 359 360 359 359 360 362 361 360 359
358 359 359 356 356 357 355 349 347 350 351 349 349 349 353 353 354 353 352 351 351 352 353 352 351 350 352 352 351 352 352 352 352 354 355 356 357 357 356 356 357 357 358 358 358 358 358 358 358 359 358 358 358 358 361 361 359 358 359 361 363 361 358
361 360 358 357 359 362 360 355 351 352 353 351 350 353 355 355 355 354 352 352 352 353 354 353 353 351 352 353 353 352 351 351 351 351 352 352 354 355 354 355 356 357 357 357 356 356 358 357 358 361 360 360 361 361 360 362 359 357 357 360 362 363 360
360 359 358 359 359 359 359 360 359 356 354 354 354 356 357 357 357 355 353 353 354 355 356 355 354 354 353 354 354 352 351 352 350 350 350 350 350 351 352 352 353 355 355 355 354 355 357 357 358 363 362 360 362 363 362 364 362 359 359 359 361 362 361
356 358 358 357 357 357 358 360 361 359 357 357 357 358 360 361 360 358 355 355 356 358 359 359 358 356 355 356 355 353 351 350 349 349 348 349 348 349 350 350 350 353 353 353 353 353 356 357 356 360 362 360 360 362 363 364 363 363 363 360 360 361 360
353 355 355 354 356 356 358 359 359 359 359 358 359 359 359 360 360 359 358 358 359 361 363 362 362 361 359 358 355 353 353 351 349 348 347 348 348 346 347 348 347 349 350 350 350 351 354 356 356 358 360 360 359 360 363 364 363 364 364 362 360 361 361
352 353 353 355 355 356 357 357 358 359 359 359 359 358 358 359 360 359 358 360 363 363 364 365 365 366 364 361 357 354 355 352 351 351 349 347 348 347 345 347 346 346 347 347 348 349 349 352 354 356 358 359 358 359 361 363 362 363 364 363 360 359 361
353 353 355 356 355 356 357 357 358 359 358 358 359 358 358 358 358 358 358 361 364 362 364 366 367 367 367 364 360 357 357 355 354 355 355 353 351 349 346 346 346 346 346 346 347 346 346 347 348 351 354 356 357 357 358 360 361 360 360 361 360 358 358
352 352 353 354 353 354 355 356 358 358 357 358 359 359 358 356 357 358 358 359 362 363 365 365 366 366 367 365 364 365 364 363 362 362 361 360 359 357 353 350 350 349 347 348 348 346 346 346 345 345 348 351 353 354 354 353 354 354 356 358 359 357 358
350 349 350 350 351 351 352 354 355 356 357 357 357 356 355 354 354 355 356 356 358 362 363 362 361 361 364 366 366 368 369 368 367 365 364 364 364 362 360 357 355 353 351 350 350 350 350 348 347 346 345 345 348 350 350 349 347 349 352 355 357 357 358
347 347 346 346 346 347 347 348 349 351 354 355 354 354 352 352 352 352 353 354 355 358 360 359 356 356 359 362 363 366 367 365 366 366 365 365 366 365 364 363 360 359 357 355 353 352 352 350 350 350 347 346 346 346 347 348 347 348 350 353 353 353 354
345 344 343 341 340 340 341 341 341 343 345 347 349 350 349 350 349 349 350 352 353 354 354 354 354 352 353 355 358 362 362 360 362 364 363 363 363 364 365 364 363 361 360 361 359 356 355 353 352 351 350 347 345 346 349 350 349 351 353 354 353 352 352
343 342 341 338 336 336 337 337 337 337 338 339 340 342 344 345 344 344 345 347 349 350 349 350 351 350 348 349 353 356 355 354 355 357 357 358 358 360 361 361 362 362 359 360 360 357 357 356 354 353 353 352 349 350 353 352 350 353 354 353 353 351 351
342 341 340 338 336 336 336 335 335 335 334 334 334 336 337 339 340 341 342 343 345 345 345 346 346 347 346 347 349 351 350 351 352 351 352 353 352 353 354 351 351 353 354 354 353 352 353 354 354 353 354 353 352 352 354 354 352 353 353 352 352 351 350
339 338 339 338 337 337 337 335 334 334 333 332 332 332 332 334 335 336 338 339 341 341 340 341 341 342 343 344 346 347 347 349 350 350 350 349 346 347 350 350 346 347 350 351 350 352 352 352 353 351 350 350 351 351 353 353 354 353 353 353 353 351 351
338 337 338 338 337 337 336 335 336 335 334 333 332 331 331 331 332 333 334 334 336 336 337 337 337 338 339 340 341 343 343 344 346 346 347 347 345 345 348 350 348 347 349 350 351 352 352 351 351 350 348 348 350 350 349 349 350 352 352 353 353 353 353
337 337 336 336 336 335 335 335 335 334 334 333 333 332 330 330 330 330 331 332 332 332 333 334 335 335 337 338 339 340 341 342 343 344 344 345 345 345 346 347 346 346 348 347 347 348 347 346 347 347 348 348 348 348 345 344 346 348 349 350 350 350 352
334 333 332 332 332 331 331 332 333 333 333 333 333 333 332 330 330 330 331 331 330 330 331 332 333 335 336 337 339 340 340 341 341 342 344 344 345 345 345 345 344 344 344 343 343 343 343 343 343 343 345 346 345 345 343 342 342 343 345 346 347 348 351
330 330 331 330 330 330 331 331 331 330 331 331 332 332 332 331 331 331 331 331 331 331 331 331 332 335 335 334 333 335 337 339 340 339 340 340 340 339 339 340 341 341 341 340 340 340 340 341 341 342 344 344 342 341 339 339 338 339 340 341 343 346 348
329 329 330 329 331 331 331 331 329 328 328 329 329 330 331 332 332 332 332 332 331 331 331 330 331 333 334 333 330 330 333 335 334 335 335 334 333 333 332 334 335 336 337 337 337 337 337 338 339 340 342 342 339 337 336 336 335 335 336 336 338 341 343
329 330 329 330 331 329 328 328 327 327 328 328 327 328 329 331 331 332 332 331 331 331 331 330 331 331 332 334 334 333 334 333 332 332 330 328 329 331 331 330 330 330 330 330 331 331 332 334 335 336 337 338 337 334 334 333 333 332 332 333 333 335 336
330 330 330 330 329 327 326 326 326 326 326 326 327 327 328 329 330 330 330 330 330 329 329 330 331 331 333 334 335 335 335 335 334 333 331 328 328 331 333 333 333 332 331 330 330 330 331 331 332 332 333 335 335 334 332 332 330 330 330 329 329 330 330
330 329 329 327 326 326 326 326 326 326 326 327 327 327 327 327 327 327 327 327 327 328 329 329 330 330 332 333 334 334 334 334 335 334 333 333 332 333 334 334 334 335 334 334 334 335 334 333 333 333 334 335 336 335 335 333 331 329 329 328 328 327 326
328 328 327 325 325 325 325 325 326 326 327 327 327 327 327 326 326 325 325 325 325 326 327 327 327 329 330 331 332 333 333 332 332 332 333 333 333 334 334 334 334 334 333 333 333 334 333 333 332 332 333 334 335 336 336 335 333 332 331 329 329 328 325
328 327 326 326 325 325 325 325 325 324 324 324 324 325 326 326 326 325 324 325 325 326 325 325 326 328 329 329 330 331 330 331 331 331 332 332 332 332 332 332 333 332 332 332 332 332 331 331 330 331 330 332 333 334 334 334 333 333 332 330 331 331 327
329 327 326 326 325 325 325 324 324 323 323 323 322 322 323 323 324 323 323 324 325 327 326 326 326 327 327 328 329 329 329 329 329 330 330 329 330 330 330 331 330 330 330 331 332 331 330 329 329 330 329 329 330 332 333 333 332 331 330 328 329 330 329
330 329 328 326 325 325 326 325 324 324 324 324 323 322 322 322 322 323 324 325 326 327 327 327 327 326 326 327 327 328 329 328 327 329 328 327 329 330 330 330 330 329 330 331 331 331 331 329 329 329 329 329 330 331 332 332 330 328 326 324 324 326 325
330 329 328 326 326 327 327 325 324 325 324 324 323 323 322 322 321 322 323 325 326 327 327 327 327 327 326 326 326 327 327 326 327 328 327 326 327 328 327 328 329 329 329 328 327 328 329 328 327 328 328 329 330 330 331 331 327 324 323 322 320 320 320
330 330 328 326 326 327 326 325 325 325 325 325 323 322 322 322 321 322 323 324 325 326 326 325 326 326 326 326 326 325 326 325 326 327 328 327 327 325 323 323 325 326 327 325 324 324 325 324 324 324 325 327 327 327 327 326 324 322 321 321 319 318 318
331 330 328 326 327 327 326 326 325 325 325 325 324 322 322 321 321 321 323 324 326 326 325 326 326 325 325 325 325 324 325 326 325 325 326 327 327 326 325 323 322 322 323 323 323 323 322 322 322 321 321 324 326 324 322 322 322 321 320 320 319 319 318
332 330 328 327 328 328 326 325 325 325 325 324 324 323 321 321 320 320 321 323 325 325 326 326 326 325 324 324 323 322 324 325 325 325 325 325 325 325 326 326 325 323 322 322 322 323 322 322 322 321 321 322 324 324 322 322 321 321 320 319 319 319 319

ECMWFFLT1_925_thetae_132.txt.gz
Theta_e
352 348 350 350 347 348 349 351 350 349 350 351 353 351 350 352 355 356 358 359 361 362 361 361 361 361 360 360 361 361 361 362 361 360 358 357 357 355 355 357 357 357 357 358 357 356 356 355 355 357 357 358 360 360 361 361 360 360 358 358 358 358 358
353 349 349 349 348 349 351 350 351 349 349 351 353 352 350 353 355 356 358 359 360 361 361 361 360 361 360 359 361 361 361 360 360 360 359 358 357 356 356 358 358 358 357 356 357 357 356 356 356 356 357 358 359 361 361 361 360 360 359 357 357 357 357
356 353 349 349 348 349 350 349 349 350 349 351 354 352 351 352 353 356 358 359 360 361 361 361 361 360 361 361 360 360 360 359 359 359 358 358 358 358 358 358 358 358 358 357 357 358 358 358 358 357 359 359 359 361 362 361 361 360 359 358 357 358 358
357 354 351 350 350 350 350 349 349 350 349 350 353 352 351 352 353 356 358 358 360 361 361 361 361 361 360 361 361 360 360 360 359 358 358 358 359 358 358 358 357 357 358 358 357 357 357 359 359 360 361 360 359 361 361 361 361 360 360 360 358 358 359
355 355 354 352 351 350 348 348 348 349 350 350 351 351 352 353 352 353 356 357 359 359 360 359 359 359 359 361 361 359 360 360 359 358 356 357 356 357 358 358 357 356 357 358 357 355 356 358 360 361 362 361 361 362 361 361 361 359 360 361 360 360 361
356 358 358 354 351 348 347 347 348 350 350 350 352 352 351 351 352 353 354 355 357 358 358 357 356 358 359 360 359 358 359 360 359 358 356 355 354 355 358 358 356 356 357 357 357 356 357 357 358 359 361 361 361 361 361 361 361 360 360 360 359 359 359
358 358 359 358 353 348 348 348 347 349 350 350 351 350 350 350 351 352 352 353 353 355 356 355 354 356 357 358 357 357 358 359 359 359 357 357 355 354 357 357 355 356 357 358 357 357 358 358 357 358 359 358 358 359 359 360 360 359 360 360 359 359 359
359 359 361 361 354 347 347 348 348 349 349 350 352 351 352 352 350 351 351 350 351 352 353 353 353 354 355 356 355 356 357 358 359 359 358 358 358 356 357 357 357 356 356 356 357 358 357 357 358 358 358 358 356 356 357 358 358 359 359 360 361 360 360
357 360 364 363 359 354 350 348 348 349 349 351 352 352 353 352 352 352 350 350 350 351 352 352 351 353 355 354 354 354 356 357 356 358 357 357 357 357 356 357 357 357 356 356 357 358 357 356 356 357 358 357 355 356 357 358 359 359 360 360 361 362 359
357 360 362 361 363 364 361 353 348 349 353 354 354 351 349 349 352 352 351 350 351 350 351 350 350 352 353 354 353 353 354 355 355 355 355 355 356 357 356 356 357 357 357 356 356 356 357 356 356 357 358 357 357 357 358 360 360 358 358 359 360 361 361
363 364 362 360 362 368 370 366 361 357 355 356 356 351 347 348 350 351 349 349 351 351 351 350 349 352 353 352 353 353 352 353 353 353 353 354 354 355 355 354 355 356 356 355 355 355 356 356 357 358 359 358 359 359 359 361 361 358 357 358 359 360 361
362 364 362 362 364 366 370 371 367 363 358 358 360 354 348 348 350 350 350 350 353 353 352 351 351 352 354 353 354 353 352 352 352 352 352 352 352 352 352 353 353 355 355 355 355 354 355 356 357 359 361 359 359 361 360 360 362 360 359 357 359 360 359
356 356 358 360 361 360 365 368 367 364 360 356 356 353 350 350 350 351 350 352 354 354 354 355 353 353 353 354 354 354 352 352 351 351 350 350 349 349 349 351 351 353 354 354 354 353 354 355 355 357 360 360 358 360 361 361 362 362 361 361 360 360 359
352 352 353 356 357 355 358 362 364 364 361 354 350 351 352 352 352 351 349 351 356 357 358 360 358 357 356 355 356 356 353 352 351 350 349 348 349 347 347 348 348 349 350 351 351 351 352 354 354 354 357 360 359 358 359 361 361 362 362 363 362 360 360
352 351 351 352 354 354 354 357 360 360 359 356 352 351 350 350 352 352 350 353 356 356 355 358 360 360 358 357 357 356 354 353 352 351 349 347 348 347 346 346 346 346 347 348 349 350 349 350 351 352 354 356 357 357 357 359 361 362 361 362 362 362 360
351 350 349 349 351 355 356 358 359 358 357 357 356 353 350 349 352 353 353 356 357 355 356 358 358 358 356 355 355 355 355 355 353 353 352 351 351 350 349 347 345 345 346 346 347 346 347 346 348 348 349 351 354 356 356 356 357 359 359 360 360 361 360
351 350 350 348 349 353 356 359 359 359 357 357 359 358 354 355 357 357 356 357 355 356 358 358 357 357 355 354 354 354 353 353 354 356 357 357 358 357 355 352 351 352 352 349 349 349 348 348 346 347 347 348 349 351 353 353 351 352 355 356 357 358 356
352 350 351 350 349 350 352 353 354 355 356 357 359 358 356 356 357 358 358 356 354 357 358 356 354 354 353 354 355 354 353 354 354 352 352 354 357 359 358 357 357 357 354 351 351 351 351 351 350 351 350 350 348 349 350 351 350 350 351 353 355 357 356
349 347 347 347 347 346 346 345 345 347 348 351 353 354 354 354 355 356 357 356 356 356 356 354 354 354 352 352 353 351 350 352 354 352 350 352 355 358 359 359 359 358 355 352 353 352 353 352 350 351 351 351 350 351 351 350 350 350 350 352 354 356 357
345 344 344 343 342 342 341 341 342 342 342 343 344 347 348 350 350 351 353 354 355 355 354 354 354 353 350 349 350 350 349 350 353 353 353 352 353 356 357 358 358 356 355 354 354 355 355 353 352 351 352 352 351 353 353 351 351 351 352 353 354 354 355
343 343 342 340 340 339 339 340 340 339 339 339 339 342 344 345 345 347 347 349 351 351 352 352 352 350 348 347 349 350 350 350 351 353 354 353 352 352 353 355 355 355 354 354 353 354 355 355 354 354 353 353 352 352 352 352 352 352 352 352 353 353 353
342 341 340 340 339 339 339 338 337 337 337 337 337 339 340 341 342 343 344 344 345 345 346 348 348 347 347 347 348 349 349 349 350 351 351 351 351 350 350 352 354 353 353 353 351 351 353 354 354 353 352 352 352 350 349 351 351 352 352 353 352 352 353
340 339 340 340 338 338 338 337 337 337 336 336 336 337 337 338 339 340 340 340 340 340 342 344 344 345 345 345 346 347 348 348 348 349 349 348 349 348 349 350 351 351 351 351 350 349 350 351 351 351 350 350 351 348 346 346 349 350 351 351 352 352 353
340 340 339 339 338 338 337 337 337 336 335 336 335 335 336 337 337 337 337 337 337 338 339 340 341 342 343 343 344 345 347 347 347 348 348 347 348 348 349 348 348 347 348 347 347 347 346 346 347 347 348 347 347 346 344 344 346 348 348 349 350 351 351
339 339 339 338 338 337 336 336 336 335 336 335 334 334 335 335 336 336 336 336 336 336 337 338 340 341 341 342 342 343 344 345 346 346 346 347 346 346 346 346 344 344 344 344 345 345 343 344 345 346 345 344 344 344 342 342 342 343 344 345 346 348 349
337 337 336 336 336 335 334 334 334 334 335 335 335 335 334 334 335 335 335 336 336 336 336 336 336 337 338 340 341 341 342 343 343 343 342 343 343 343 342 342 341 341 341 341 341 341 342 343 344 343 342 340 340 339 338 337 337 337 338 340 342 346 347
333 333 333 334 333 333 331 332 332 332 332 333 334 335 335 335 335 334 334 334 334 335 335 333 331 332 334 336 337 337 337 337 336 335 334 334 336 336 335 335 335 335 335 335 336 337 339 341 342 341 338 336 335 335 334 334 333 334 334 335 337 341 343
330 331 332 332 331 329 328 328 329 329 330 331 332 333 334 335 334 333 333 333 333 334 334 333 333 334 335 336 335 334 333 330 327 327 327 328 329 330 330 330 329 328 328 328 327 330 333 335 336 337 336 333 332 332 331 331 331 331 331 331 332 333 336
329 330 330 328 327 327 327 328 327 327 327 328 329 331 333 334 334 333 333 332 332 333 333 334 335 335 336 336 337 337 335 332 327 326 328 330 330 330 332 333 332 331 330 329 328 329 330 331 333 336 336 333 332 332 331 330 330 330 329 329 329 328 329
330 329 327 326 326 327 327 328 328 328 328 328 329 330 331 332 333 332 332 331 331 332 332 333 333 334 334 335 335 336 335 335 332 330 331 332 332 331 332 333 334 334 334 334 335 334 334 334 335 337 337 336 335 334 332 332 330 329 329 329 329 328 326
328 327 326 326 327 328 328 328 329 329 329 329 329 328 327 328 329 329 329 329 330 331 332 332 332 333 333 333 333 333 333 334 334 334 333 333 334 333 332 332 333 333 333 334 334 333 333 333 333 335 336 337 336 335 334 333 332 330 331 331 330 329 326
327 326 326 327 327 327 328 328 327 328 328 328 328 328 328 327 326 327 327 327 328 329 328 330 331 331 332 332 332 332 332 332 332 333 332 332 333 332 332 332 332 332 333 333 332 329 329 329 330 331 331 332 335 336 335 334 334 332 331 331 330 328 326
327 326 327 327 326 326 326 325 325 326 325 326 326 326 327 326 326 326 326 327 327 327 326 328 329 330 330 331 331 331 331 331 331 332 331 330 330 331 331 332 331 331 332 333 332 331 330 329 329 330 329 328 329 333 334 333 332 330 328 326 325 325 324
329 328 327 327 327 326 326 326 326 326 326 325 325 325 325 325 326 327 328 328 327 328 328 328 328 328 329 329 330 331 331 330 330 329 328 329 331 330 330 331 331 330 329 330 330 330 331 330 328 329 330 330 329 331 332 329 326 325 324 322 320 319 319
329 327 327 328 328 328 327 327 327 327 327 326 325 325 325 325 326 327 329 329 329 329 330 329 328 328 328 328 328 329 328 327 329 329 327 328 329 328 327 329 330 328 326 325 326 327 328 327 326 326 327 328 328 329 329 326 323 322 321 320 318 317 317
329 328 328 329 329 328 328 327 327 327 326 325 325 325 325 325 325 326 327 328 328 329 328 329 328 328 327 327 326 326 326 326 328 330 329 328 327 325 324 324 325 326 324 323 322 322 323 324 324 322 321 322 325 326 325 323 322 321 320 319 318 318 317
330 329 328 329 329 328 327 327 327 327 326 325 324 324 324 325 326 326 327 327 328 327 327 327 328 328 327 328 327 327 328 327 326 328 329 329 328 327 325 323 322 322 321 321 318 318 318 319 321 321 320 320 324 325 323 321 320 320 320 319 319 318 318
331 329 327 328 329 328 327 327 327 327 326 325 324 324 323 322 323 325 327 328 328 328 328 328 328 328 327 327 326 326 327 328 326 326 327 327 327 327 327 327 325 323 322 322 320 320 319 319 320 321 321 321 322 323 321 321 321 320 320 320 319 319 319

ECMWFFLT1_925_thetae_135.txt.gz
Theta_e
362 357 356 355 352 350 351 350 349 350 351 352 355 357 358 360 360 361 361 361 360 360 360 360 360 361 360 358 358 359 358 357 356 355 355 355 354 354 354 355 355 355 354 355 356 356 355 354 356 356 355 357 359 358 357 357 360 359 357 357 357 357 358
363 359 356 355 355 354 352 348 348 351 352 351 352 354 356 359 360 361 362 362 361 361 361 360 359 360 360 358 360 361 360 359 358 357 357 356 356 355 354 355 356 355 355 356 355 356 356 355 356 356 355 356 359 360 358 357 358 358 358 357 356 357 356
362 361 357 355 358 357 352 349 349 351 351 351 352 353 355 357 358 359 361 362 362 362 361 361 360 359 360 360 361 361 361 360 358 357 358 356 356 356 354 355 356 356 356 356 356 357 356 356 356 356 356 356 358 359 359 357 355 358 359 356 355 356 355
362 363 357 354 358 357 351 349 350 351 352 351 351 353 354 356 358 358 360 361 362 362 361 361 360 359 360 361 361 361 360 360 358 358 358 357 356 356 355 356 357 357 357 356 357 357 356 356 356 356 356 357 358 359 359 359 357 357 359 357 355 356 356
359 361 359 355 357 358 352 349 349 350 351 352 352 353 354 357 358 358 359 360 361 361 360 360 360 360 360 360 361 361 359 359 359 358 359 357 356 357 357 357 358 357 357 356 356 357 357 357 357 356 357 358 358 359 360 361 360 358 359 359 357 356 358
359 359 360 358 356 356 352 348 349 349 351 352 352 352 353 356 358 358 359 360 361 361 360 360 360 360 360 360 360 360 358 358 358 358 358 357 357 358 358 358 357 357 357 356 356 357 357 358 359 358 359 359 359 360 360 361 361 359 359 360 357 357 359
361 359 359 359 356 354 351 348 349 349 350 352 353 352 352 355 357 358 358 359 360 360 361 361 360 360 361 361 360 359 358 358 359 358 358 356 356 357 357 358 358 356 357 357 357 357 355 356 359 358 359 360 360 361 361 360 360 360 359 359 357 357 359
361 360 359 360 358 353 349 347 349 349 350 352 353 353 352 353 356 357 358 359 360 360 360 360 360 359 360 361 360 359 358 359 359 358 358 356 354 355 356 357 357 356 356 357 357 357 355 355 358 358 358 359 359 359 361 360 360 360 360 359 358 356 357
360 361 362 367 369 361 352 347 348 351 351 352 353 352 352 353 353 355 357 358 359 359 359 359 359 358 359 360 359 358 358 359 359 359 358 357 354 354 355 356 356 356 356 357 357 357 356 356 357 357 358 359 358 357 358 359 359 359 359 359 359 357 357
362 364 362 365 370 369 361 350 347 352 352 353 355 354 353 353 352 352 354 356 357 357 358 357 357 357 357 358 358 357 357 358 359 358 358 358 357 356 356 356 357 356 355 356 357 357 358 357 357 357 358 358 358 357 357 357 357 358 359 359 359 360 358
364 365 361 360 367 374 370 359 352 353 352 352 354 353 352 352 353 352 351 352 354 356 355 355 355 356 356 356 356 356 357 357 358 358 358 358 358 357 357 357 357 357 356 356 356 356 357 357 356 356 357 357 357 356 356 357 358 358 358 358 359 359 359
361 363 362 361 365 372 371 362 356 355 354 354 354 352 349 350 351 351 351 351 353 353 353 354 356 355 355 355 354 354 355 356 356 357 356 356 356 356 356 356 356 356 356 356 356 356 356 356 355 355 356 357 357 357 357 358 359 359 359 358 357 358 359
362 364 363 362 364 368 369 364 358 357 357 357 356 352 350 350 349 350 349 349 352 353 351 352 356 355 353 354 354 353 353 354 354 354 354 354 354 354 354 354 355 355 355 356 355 355 355 354 355 356 357 358 357 358 359 359 360 360 360 359 358 358 359
359 360 359 360 362 365 369 367 360 356 355 356 356 353 351 351 350 350 349 349 351 352 350 350 354 356 355 353 353 354 353 353 354 353 352 352 352 351 352 353 353 353 353 354 353 353 353 353 354 356 359 360 359 359 359 359 360 361 361 361 360 360 360
357 356 355 357 358 360 363 363 360 354 351 352 354 353 352 350 350 350 349 350 351 350 351 353 355 356 356 354 354 355 354 354 354 353 352 352 352 350 349 350 351 351 352 353 351 350 352 353 353 354 355 357 358 359 358 358 359 361 362 362 361 361 362
355 354 353 353 354 356 356 356 355 354 353 352 352 351 351 351 352 350 350 352 352 350 353 356 356 355 356 355 355 355 354 354 353 352 352 353 353 350 349 350 350 350 350 351 349 349 349 351 352 352 352 352 354 357 358 357 358 360 361 361 361 361 361
352 352 351 350 351 353 354 353 353 355 356 353 351 350 351 352 351 350 351 353 353 352 354 355 354 355 356 355 355 355 354 354 353 352 352 354 355 352 351 352 351 351 350 349 349 349 349 350 351 351 351 351 353 355 356 356 357 357 358 358 359 359 360
350 349 348 348 348 349 352 353 351 353 356 354 352 352 353 353 351 351 351 352 353 353 352 353 353 353 355 355 355 354 354 353 353 352 352 356 357 354 352 354 353 353 353 351 350 350 350 351 351 350 350 350 350 352 353 354 354 354 354 353 354 356 358
351 350 348 347 346 347 348 348 347 348 351 353 352 352 354 354 353 352 351 350 352 353 350 351 353 351 352 356 355 354 353 353 353 353 352 354 356 355 354 355 355 354 355 354 352 351 351 351 351 351 352 351 350 349 350 350 350 350 350 350 349 352 356
348 349 347 345 344 344 343 343 342 343 346 349 351 351 352 353 352 352 352 350 351 352 351 351 352 351 353 355 354 352 353 354 354 354 353 354 355 355 355 355 356 355 354 354 353 353 354 353 352 352 352 352 351 351 350 349 349 349 349 349 350 351 354
344 344 343 342 342 341 341 341 340 340 342 345 348 349 349 350 350 351 353 352 352 352 351 350 350 350 352 352 352 351 351 353 354 354 354 354 355 355 355 356 356 355 355 354 353 353 354 354 353 353 352 351 351 351 351 350 350 350 350 350 351 352 352
343 341 341 341 340 340 340 340 338 338 339 341 344 346 347 348 349 350 351 352 353 352 352 350 348 349 349 348 349 351 351 352 353 353 353 353 353 354 354 354 354 354 354 354 353 352 353 353 353 353 351 350 350 349 350 350 350 351 351 351 351 351 352
340 339 340 339 339 339 339 338 337 337 337 338 340 342 344 346 347 348 348 349 350 350 350 348 347 347 348 347 348 350 350 350 351 352 351 351 350 351 352 352 352 352 352 352 351 351 351 351 351 351 351 350 349 348 348 348 349 350 351 351 352 352 352
340 339 339 339 338 338 337 337 337 337 337 338 338 339 341 342 344 345 345 344 344 345 345 344 343 344 345 346 347 348 348 348 348 348 349 350 350 350 350 350 350 349 349 350 349 348 348 348 348 348 349 348 346 345 345 345 346 347 348 349 350 351 352
339 339 338 338 338 337 337 337 336 336 337 337 337 338 339 340 341 342 341 341 341 342 342 342 343 343 344 345 345 346 346 347 347 347 347 348 348 348 347 347 347 347 347 346 346 346 345 346 346 345 346 345 343 341 341 341 341 341 343 345 347 349 350
338 337 337 337 337 337 337 337 336 336 336 336 336 337 338 338 339 339 338 339 339 340 340 341 342 342 343 343 344 345 345 346 346 346 345 345 345 344 344 344 343 344 344 343 344 344 344 344 343 342 341 340 338 336 336 336 335 335 337 341 344 346 347
336 336 335 335 335 336 335 335 336 336 336 335 336 336 336 336 337 336 336 337 336 337 338 339 341 342 342 343 343 342 343 344 345 345 344 342 342 341 340 340 341 341 341 342 343 342 341 339 337 335 333 332 330 330 330 331 331 331 332 334 338 341 344
334 333 333 332 333 332 332 333 334 335 336 336 335 335 335 335 335 334 335 335 335 336 337 337 337 337 337 337 336 335 336 338 339 339 338 337 336 334 333 332 333 335 337 339 341 340 338 334 330 329 329 329 329 329 329 329 329 329 328 328 329 333 337
331 330 330 328 329 330 329 330 330 332 333 334 334 334 334 334 334 333 333 334 335 336 337 336 335 334 332 329 327 326 327 328 329 328 328 328 328 327 327 326 325 326 329 331 334 335 336 334 331 330 330 331 331 329 329 329 329 329 329 327 325 326 329
327 326 327 327 328 329 328 328 329 330 331 333 333 333 332 332 332 332 332 333 334 334 335 336 336 336 335 333 329 327 326 326 326 325 326 327 328 329 330 330 329 330 331 331 331 333 334 335 334 333 333 333 331 330 329 329 329 329 329 328 325 323 322
326 327 328 328 329 329 328 328 329 328 328 329 330 330 329 329 330 331 331 332 333 333 333 333 334 335 335 335 333 332 331 331 331 330 330 330 331 331 332 332 332 334 334 334 334 334 334 335 335 335 335 335 333 331 330 329 329 330 330 329 326 324 320
327 328 329 329 329 329 329 329 329 328 328 327 327 327 327 327 328 329 330 331 331 332 332 332 333 333 333 333 334 334 334 334 333 333 333 333 333 332 332 331 332 333 333 332 332 331 331 333 334 335 336 336 335 333 330 329 330 331 331 329 326 323 319
328 328 328 328 328 327 327 328 328 328 328 327 326 325 325 324 325 326 327 328 329 331 331 331 331 332 331 331 331 332 332 332 332 332 332 332 332 333 333 333 333 333 333 332 330 329 331 331 332 333 333 334 335 335 333 330 328 327 325 323 321 319 317
327 327 326 325 325 325 326 326 326 326 326 326 325 324 324 325 325 327 327 325 324 326 329 330 330 330 330 331 331 331 332 330 330 329 330 330 330 331 331 332 332 332 331 330 330 330 330 330 330 331 331 331 333 334 331 327 325 322 320 319 317 317 316
327 327 327 326 326 326 326 326 325 325 325 325 325 326 327 328 328 328 328 326 324 325 327 328 329 329 329 330 330 330 330 329 328 328 328 329 329 329 329 328 328 328 328 327 327 327 327 327 327 327 327 328 329 328 326 324 323 321 319 319 317 317 317
329 329 329 328 328 327 327 327 326 325 325 324 324 325 326 327 328 328 328 328 329 329 328 327 327 328 328 328 327 326 326 328 329 328 327 326 326 327 328 327 325 325 324 323 322 322 322 323 324 323 323 323 324 324 323 322 321 320 319 318 318 317 317
330 330 329 328 328 328 327 327 326 326 325 324 324 325 325 326 326 327 328 328 329 329 328 327 327 327 327 326 326 326 326 328 329 328 327 325 324 324 324 323 322 322 321 320 319 318 318 318 319 320 321 320 320 321 321 320 320 319 319 319 318 318 318
329 329 329 328 327 328 327 326 326 325 324 324 324 325 326 326 327 327 327 327 327 327 328 328 328 328 327 327 328 328 327 327 327 327 327 327 326 325 324 323 322 321 320 320 320 320 319 318 318 319 319 319 318 319 319 319 320 320 320 319 319 319 318

ECMWFFLT1_925_thetae_138.txt.gz
Theta_e
357 355 352 351 351 352 351 350 351 351 351 354 356 356 357 357 357 357 358 359 358 359 359 358 357 356 356 355 353 355 355 353 354 354 352 350 349 349 351 351 351 351 352 353 354 355 356 355 355 355 354 356 358 356 354 354 356 358 356 356 356 357 358
358 356 352 352 352 353 352 349 350 350 351 355 357 357 358 358 358 358 358 359 358 358 359 359 357 356 357 355 354 356 356 354 354 353 352 351 350 351 351 351 351 351 352 352 353 355 355 354 355 356 354 355 357 357 356 355 357 358 357 356 357 357 357
363 359 352 351 353 353 352 349 349 350 352 355 357 358 358 358 358 358 358 358 358 359 359 359 358 358 358 355 354 356 357 356 355 354 353 353 352 351 352 352 353 353 353 353 354 355 355 354 354 356 355 355 356 358 357 356 357 358 357 356 357 356 356
365 363 355 352 352 352 350 349 349 351 354 355 357 358 359 359 359 358 358 358 358 359 360 360 359 360 359 357 355 356 357 356 356 354 353 354 353 353 352 353 353 355 354 354 354 354 355 355 355 355 356 355 355 357 358 358 357 357 358 357 356 355 355
364 364 362 356 351 351 350 348 349 351 353 355 356 358 359 359 359 359 359 358 357 357 359 359 359 360 360 359 357 358 357 357 357 356 355 355 355 354 354 353 354 355 355 355 355 355 355 356 355 356 356 355 355 356 358 358 356 356 358 359 357 355 355
362 359 360 358 354 353 350 348 350 351 353 355 355 357 359 359 359 359 359 359 358 357 358 359 359 359 360 359 358 359 359 359 358 357 357 356 356 356 355 354 354 356 356 356 356 356 356 356 356 356 356 356 356 357 357 358 357 356 357 359 359 357 355
362 357 357 358 359 358 352 348 349 350 352 354 355 356 358 359 359 360 360 360 359 358 359 359 359 359 359 359 359 360 361 361 359 357 357 357 356 356 355 354 355 356 357 357 356 356 356 356 356 356 356 356 357 357 358 359 358 358 358 358 358 357 356
362 361 361 362 363 359 349 346 348 350 351 352 353 356 357 358 359 359 360 360 359 359 359 359 360 359 359 359 360 361 360 360 359 357 357 358 357 356 355 356 356 357 357 357 356 356 356 356 357 357 357 357 357 358 359 360 360 359 359 358 358 357 356
361 362 363 365 365 358 349 344 344 347 350 352 353 355 356 357 358 358 359 360 360 359 358 359 360 359 359 359 360 360 360 359 358 358 358 358 357 356 357 357 357 357 357 356 356 356 356 356 356 357 358 358 358 358 359 360 360 359 359 359 359 358 356
361 362 363 364 362 357 351 345 343 345 349 352 353 355 356 357 357 358 359 359 359 360 358 358 359 359 359 360 359 359 359 358 357 357 358 358 357 356 356 357 357 357 357 356 357 356 357 356 355 356 357 358 358 357 357 358 359 359 359 358 358 358 358
360 361 363 362 361 361 358 351 346 345 348 351 352 353 355 357 357 357 359 359 359 359 359 358 359 359 359 360 360 360 359 357 356 357 358 358 357 356 355 355 356 356 356 356 356 355 356 356 355 355 357 357 358 358 357 357 358 358 359 358 358 358 358
358 360 361 359 359 363 364 355 348 347 349 351 351 352 354 355 355 356 358 359 358 359 359 359 359 359 359 359 360 360 359 357 357 358 358 358 358 357 355 354 355 356 356 355 355 355 355 355 355 355 357 357 358 358 357 357 356 357 357 357 358 358 358
358 359 360 359 358 359 361 357 352 349 350 350 347 348 352 353 353 355 356 358 359 358 358 359 358 359 359 358 359 359 358 358 357 358 357 357 358 358 357 356 355 355 356 355 354 354 355 355 355 354 355 356 357 357 357 356 357 357 357 358 358 358 358
359 359 357 357 356 356 360 360 354 349 349 350 347 347 349 351 352 353 354 356 358 357 357 357 357 357 358 358 358 358 357 356 357 357 357 356 357 357 357 356 355 354 355 355 354 354 354 354 353 353 353 354 356 356 356 356 356 357 359 359 358 358 358
359 358 356 355 354 355 360 359 353 349 350 350 349 348 347 348 350 350 351 353 355 355 355 355 355 356 357 357 356 356 355 355 356 356 356 356 356 356 356 355 354 354 354 354 354 354 353 352 352 353 354 355 356 356 356 356 356 358 359 360 360 360 360
357 356 356 355 353 355 358 356 350 349 350 349 348 349 348 347 349 349 350 352 352 353 353 353 354 355 355 355 355 354 354 355 355 354 353 354 354 353 353 353 353 354 354 353 352 352 352 351 352 354 355 356 357 357 357 357 357 358 359 361 361 361 360
355 355 354 354 353 354 355 353 349 348 349 349 348 349 349 348 349 350 350 351 352 352 352 351 353 354 355 355 355 354 354 354 354 354 352 352 352 350 349 350 351 352 353 353 352 351 350 350 351 353 354 354 355 356 357 357 357 357 359 361 361 361 361
353 351 351 351 352 354 354 353 351 350 350 348 348 349 348 348 349 349 350 351 350 350 352 351 350 351 355 355 353 353 354 353 353 352 352 352 352 350 348 348 349 350 351 352 351 349 348 349 350 352 352 352 353 354 356 357 356 356 358 359 360 360 360
351 348 348 348 350 352 352 351 350 351 351 349 348 348 348 348 349 349 349 349 349 350 353 351 347 348 354 355 352 352 352 353 353 353 353 353 353 352 351 349 349 349 349 350 350 349 349 350 350 351 351 351 352 353 354 355 355 355 355 356 356 356 356
348 347 346 346 348 348 346 345 347 350 351 351 351 350 349 349 350 350 350 350 350 351 353 351 348 349 353 354 352 352 352 352 352 351 354 355 355 354 353 352 351 350 350 349 349 350 350 350 350 350 349 350 351 351 351 351 351 351 351 351 351 350 351
344 345 344 344 344 343 341 342 343 345 348 350 351 351 351 351 350 351 351 351 351 351 351 351 351 352 352 352 352 352 352 352 351 350 353 356 356 355 355 354 353 352 352 352 352 351 350 350 350 350 349 349 349 349 349 349 349 348 348 348 348 349 350
341 341 341 341 340 340 339 338 337 340 343 347 348 348 349 351 351 351 350 350 350 350 351 351 351 352 351 351 352 352 351 351 351 351 352 354 355 355 354 354 354 353 353 353 353 353 353 352 351 351 350 350 350 349 349 349 349 349 349 349 349 350 351
340 339 339 339 339 338 338 337 337 339 341 344 346 345 346 348 349 350 350 350 350 350 350 351 351 350 350 350 350 350 350 351 351 350 350 352 353 354 354 353 353 352 352 352 353 353 352 352 351 350 350 350 349 349 350 349 350 350 350 350 351 351 351
339 339 339 338 338 338 337 337 338 339 340 342 343 343 344 346 348 348 348 348 349 349 349 349 349 349 349 349 349 348 349 349 349 347 348 351 352 352 352 352 351 351 351 351 352 352 351 352 351 349 349 349 348 348 348 348 348 348 349 350 351 351 352
339 339 338 337 337 337 337 338 338 338 340 340 340 341 344 346 347 346 345 345 347 348 347 347 347 347 348 349 350 349 348 348 346 345 347 349 350 350 350 350 350 350 350 350 350 350 350 350 349 347 346 346 344 343 343 344 344 344 346 348 349 350 351
338 337 337 337 337 337 337 337 337 337 338 338 339 340 342 343 344 343 342 342 344 344 344 344 345 346 347 348 349 347 346 346 346 346 346 347 346 347 348 348 348 348 348 347 347 347 347 347 346 344 341 340 339 337 337 337 339 340 342 345 347 349 351
336 337 337 337 336 336 336 336 337 337 337 337 338 339 340 341 341 340 339 340 340 341 342 342 343 344 345 345 345 345 345 345 345 346 346 345 346 346 345 346 346 346 346 346 345 344 344 343 341 338 335 333 333 332 331 331 332 334 338 341 344 346 349
334 335 336 336 336 336 336 335 336 335 335 336 336 337 338 339 338 337 338 338 338 339 341 341 341 342 342 343 343 343 344 344 344 344 344 343 343 343 343 343 343 343 343 343 341 340 338 335 333 331 330 329 329 328 327 326 325 326 329 333 337 340 344
332 332 332 333 333 333 334 335 334 334 334 334 335 335 336 336 336 336 337 336 336 337 338 339 340 341 342 342 342 341 341 342 342 342 341 340 341 341 341 342 342 342 339 336 333 332 330 329 329 329 329 328 328 327 325 324 324 323 323 324 327 331 335
329 329 330 330 330 332 333 333 333 334 333 333 334 333 334 334 335 335 336 337 335 334 332 332 333 335 337 337 337 336 335 334 335 334 334 334 333 334 335 335 336 336 333 329 329 329 329 329 330 330 329 329 328 327 327 327 327 324 322 320 321 323 325
327 328 328 328 329 331 333 332 333 333 332 332 332 332 332 333 333 334 335 336 335 334 333 330 328 328 329 330 330 329 328 328 328 328 328 327 327 327 328 328 329 330 330 330 331 332 331 332 332 330 329 329 328 328 329 330 329 328 325 322 318 318 318
327 328 328 328 328 329 331 331 331 331 331 331 331 331 331 331 332 333 333 333 334 335 334 333 332 330 329 329 329 329 329 330 331 332 331 330 330 331 332 332 332 333 334 334 334 334 334 334 334 333 331 329 328 328 329 330 331 330 327 322 318 316 316
328 328 328 328 328 327 327 327 328 328 329 329 329 329 329 328 329 331 332 332 332 333 333 333 333 333 333 333 332 332 332 332 333 333 333 332 332 333 334 334 334 334 333 332 332 334 335 335 335 336 334 332 329 329 329 330 330 327 323 319 318 317 316
327 328 328 328 328 327 327 327 327 327 327 327 327 327 327 326 326 328 331 331 331 331 332 332 332 332 332 333 333 333 332 332 332 333 333 333 333 333 333 333 333 331 330 330 330 331 332 332 332 333 334 334 332 330 328 325 323 322 320 319 319 317 316
326 326 326 327 327 327 327 327 326 325 325 325 325 325 325 325 325 326 329 331 330 330 330 331 331 330 330 331 331 331 331 330 330 331 332 332 332 332 331 331 330 329 329 328 328 328 329 329 330 330 332 334 333 329 325 322 321 321 320 319 318 317 316
326 327 326 326 325 325 325 325 325 324 324 325 326 326 326 326 326 324 324 326 327 329 329 329 330 330 330 331 331 330 329 328 328 329 329 330 329 328 327 326 325 326 326 325 324 324 324 325 326 326 327 329 329 326 323 321 320 319 318 318 318 317 317
327 328 326 325 325 325 324 324 324 325 325 326 327 328 328 328 328 326 324 325 326 328 328 328 328 328 329 329 328 328 328 329 328 327 327 328 328 327 326 324 322 321 321 321 320 319 319 320 321 321 321 322 322 321 320 320 319 319 319 319 318 318 318
327 327 326 326 325 325 325 325 324 324 324 324 325 326 327 327 328 327 328 328 328 327 327 327 327 327 326 326 326 327 328 329 327 325 325 325 326 326 325 324 321 320 319 319 319 318 317 317 318 318 318 317 317 317 318 318 319 319 319 318 318 318 318

ECMWFFLT1_925_thetae_141.txt.gz
Theta_e
353 346 349 352 352 352 352 351 352 352 353 353 353 355 355 355 355 355 355 355 355 355 355 355 355 355 355 355 353 351 348 347 347 347 347 347 348 348 348 348 349 350 350 351 352 353 353 354 354 351 351 353 355 355 355 355 355 354 355 355 354 355 356
359 349 348 352 353 352 352 351 352 353 353 354 354 354 355 355 355 355 355 355 355 355 355 356 356 356 355 355 354 352 349 348 349 348 348 348 348 349 349 348 349 349 350 350 351 352 353 354 354 352 352 353 355 357 356 355 354 354 356 356 355 356 356
359 352 348 351 353 352 352 351 351 352 353 354 354 354 355 355 355 355 355 354 354 355 355 356 356 356 356 356 355 353 351 351 351 350 350 349 349 350 349 348 349 350 350 350 350 351 352 354 355 354 354 353 354 356 357 356 355 354 356 357 356 357 356
356 353 348 350 353 351 351 352 351 352 353 353 354 355 356 355 355 355 355 354 354 355 356 356 356 357 356 356 355 354 353 353 353 352 352 352 351 350 349 348 349 350 350 350 350 351 352 353 355 354 354 354 353 354 356 357 356 356 356 357 356 356 356
355 354 350 351 353 352 350 351 351 351 352 354 354 354 356 356 356 356 355 354 354 354 356 357 357 357 356 355 354 354 353 354 354 353 352 353 353 351 349 349 350 351 350 351 351 351 352 354 355 354 354 354 354 354 355 356 357 357 356 356 356 355 355
355 353 352 351 352 355 353 350 350 351 352 354 355 354 356 356 356 356 355 355 356 355 357 357 357 357 356 355 354 354 354 354 355 355 354 354 353 351 351 350 350 351 351 352 353 353 353 353 354 354 354 355 355 355 355 355 356 356 356 356 357 356 355
355 353 353 353 353 355 354 349 347 351 352 353 356 355 356 356 356 356 356 356 356 356 357 358 357 357 356 356 356 355 354 354 355 356 356 354 353 352 352 352 352 352 352 352 353 354 354 354 354 354 354 355 355 355 355 355 356 357 356 356 357 357 357
354 352 355 357 357 353 350 347 347 349 351 353 356 356 356 357 357 357 357 357 356 357 357 358 357 358 357 356 358 357 354 354 356 357 356 355 355 354 354 354 353 353 352 353 353 353 352 352 353 354 356 356 355 355 356 356 356 358 358 357 357 357 358
355 355 357 361 363 355 346 346 347 348 350 352 354 356 356 357 357 357 357 357 357 357 357 357 357 357 357 358 359 359 356 355 356 357 357 357 356 356 355 355 355 355 354 353 353 352 351 352 352 353 355 356 356 355 356 356 356 358 359 359 358 357 357
355 357 360 362 363 356 347 345 346 347 348 350 352 354 356 357 357 358 358 357 358 357 356 356 357 357 357 358 360 359 358 357 357 358 359 358 357 356 356 356 356 355 354 353 353 353 353 352 352 352 353 354 356 356 356 356 356 358 360 359 358 358 357
353 357 361 362 362 359 352 348 347 346 347 348 350 351 352 354 355 357 359 358 358 357 357 356 356 357 357 358 359 359 359 358 359 360 360 359 357 356 356 357 356 356 355 354 354 353 353 353 352 352 352 353 356 357 357 357 356 357 358 359 358 357 357
352 354 358 360 360 358 355 351 348 347 347 347 348 350 352 351 351 355 358 359 358 357 357 356 356 356 356 357 358 359 359 360 360 360 359 358 357 356 357 357 356 356 355 355 355 354 354 354 353 352 352 353 356 358 358 357 357 356 357 358 358 358 358
353 353 355 358 359 357 355 352 349 347 347 348 348 349 351 350 350 351 353 357 359 358 357 357 357 357 356 357 358 358 358 359 359 359 358 357 356 357 358 357 357 356 355 355 355 355 354 354 354 353 352 352 354 356 357 358 358 357 357 357 357 358 358
354 353 354 357 358 356 355 354 351 348 347 348 348 348 349 350 351 351 350 351 355 358 358 357 356 357 357 357 358 358 357 357 357 358 357 356 356 356 358 357 356 356 354 354 354 354 354 354 354 355 354 353 353 355 357 358 357 357 356 356 356 357 357
355 354 354 356 357 355 354 353 351 348 347 348 347 348 349 349 351 352 351 350 350 353 357 357 356 356 357 357 358 358 357 357 358 358 357 356 356 357 358 357 357 356 354 353 354 355 355 353 353 354 354 355 354 354 355 356 356 356 356 356 356 357 357
356 354 353 354 354 354 354 353 350 347 348 348 347 347 348 348 349 350 351 352 352 351 353 357 358 356 357 358 357 357 358 358 359 359 357 356 356 357 357 357 357 356 355 354 355 355 355 354 353 354 354 354 354 353 354 355 356 356 355 355 357 357 358
357 355 354 353 352 354 354 352 350 348 348 348 346 347 347 347 349 350 350 352 353 351 350 354 357 357 356 357 357 356 357 357 358 358 357 357 357 357 357 356 356 356 355 355 354 354 354 354 354 353 352 352 352 353 354 355 355 355 355 356 357 358 359
356 354 354 353 352 353 353 351 349 348 348 348 347 347 348 348 349 349 350 350 351 351 349 351 356 356 356 357 357 357 356 355 356 356 355 356 356 356 356 355 355 354 353 354 354 354 354 353 353 352 351 352 353 354 355 356 356 356 356 356 357 358 360
354 352 352 351 351 353 352 349 348 347 348 348 348 348 348 348 348 348 349 349 350 351 350 351 353 355 356 356 356 356 355 354 354 355 354 354 354 354 354 353 352 352 352 353 353 353 353 352 352 351 350 351 353 354 355 355 355 357 357 356 356 357 359
349 349 348 347 348 349 347 346 347 347 347 348 348 348 347 347 347 347 348 348 350 350 350 349 350 352 353 354 354 354 353 352 353 354 354 353 352 351 351 351 350 350 350 351 352 353 352 351 350 349 349 351 352 352 353 352 354 355 356 356 356 356 356
347 347 346 345 346 344 341 342 346 348 347 347 347 347 346 346 347 347 347 348 348 348 349 349 348 347 350 352 353 353 352 352 352 351 351 352 351 350 349 350 351 352 351 352 352 351 351 350 349 348 349 351 351 352 352 352 353 354 354 354 353 353 352
343 343 343 343 342 340 338 340 344 347 348 347 347 346 347 347 348 347 347 347 347 348 348 348 346 344 346 350 351 352 352 352 351 350 350 352 352 350 350 349 350 351 351 351 351 351 350 349 349 349 349 350 351 350 350 351 351 351 351 351 350 350 349
340 340 340 340 338 337 338 340 342 345 346 347 347 347 348 348 348 348 347 346 347 348 347 347 346 343 344 348 350 351 351 351 350 349 350 351 351 351 351 349 348 349 350 350 350 350 350 349 348 348 349 348 348 349 348 349 349 349 349 348 348 349 349
339 339 339 339 338 337 338 339 340 341 344 347 347 347 348 347 348 348 347 347 347 348 348 347 347 346 346 348 350 350 350 350 350 348 348 349 349 350 351 350 349 350 350 350 349 348 348 349 348 347 347 347 347 347 348 348 348 349 349 349 349 350 350
338 338 338 338 339 338 337 339 340 340 343 346 347 346 347 348 348 348 347 347 347 348 348 348 348 348 348 348 349 350 350 350 349 348 348 349 350 350 350 350 349 350 350 349 350 348 347 347 348 347 347 347 347 346 347 347 347 347 348 348 349 349 350
337 337 337 337 338 338 338 339 340 340 342 343 343 343 345 346 347 345 345 345 346 347 347 346 346 347 348 348 348 348 349 349 349 348 349 349 349 348 348 349 349 349 349 349 349 349 347 347 348 346 343 341 341 341 341 341 342 343 344 346 347 348 350
337 336 337 337 337 337 337 338 338 339 339 340 341 341 342 343 343 342 342 343 344 343 343 344 346 347 348 348 347 346 347 348 348 348 349 348 348 348 348 348 349 349 349 349 348 348 346 344 342 338 334 332 332 333 333 334 336 338 340 342 344 346 349
336 336 336 336 336 336 336 336 337 337 337 338 339 340 341 341 340 340 341 341 339 339 341 344 346 346 346 346 345 345 345 346 346 347 347 346 346 346 347 347 347 347 347 346 345 344 340 336 334 331 328 327 327 327 326 327 328 331 334 337 340 343 345
333 332 333 335 334 335 335 334 335 335 336 337 338 339 340 340 339 338 338 337 336 338 341 343 344 344 344 343 343 343 344 344 344 345 345 344 344 345 345 344 345 344 344 343 342 339 334 331 330 328 326 325 325 324 324 323 323 324 325 328 330 332 334
328 329 332 333 333 334 333 333 333 333 334 335 336 337 339 339 338 337 335 334 336 338 340 340 341 341 340 340 339 340 340 341 342 342 342 341 341 342 342 342 343 342 341 340 339 335 331 329 328 327 326 325 325 326 325 324 323 321 320 320 320 320 320
327 329 331 332 332 333 333 332 332 333 333 334 335 336 337 337 336 335 334 333 334 337 339 339 339 338 337 336 335 335 336 338 338 338 339 340 341 341 340 339 338 337 335 335 333 330 329 328 327 327 327 327 328 328 327 325 322 320 319 317 316 316 316
327 329 330 331 331 332 332 332 332 332 332 332 334 335 335 335 335 335 334 332 331 332 334 335 335 334 333 332 331 331 331 331 331 331 333 335 337 338 336 333 332 330 330 330 329 328 329 329 328 328 328 328 328 329 329 327 324 320 318 316 316 316 315
327 327 328 329 329 330 331 331 330 330 330 330 332 333 334 334 334 335 335 334 330 329 329 329 329 328 328 329 329 328 328 328 327 327 328 329 331 332 331 331 331 331 331 331 330 330 330 330 329 328 328 328 328 329 331 330 325 320 317 317 318 318 318
326 327 327 327 328 329 329 329 329 329 329 329 330 331 332 333 333 333 334 334 333 332 330 330 329 329 329 330 331 331 331 331 330 330 330 331 332 333 333 333 333 333 333 333 333 333 333 332 331 329 329 329 329 330 330 326 322 319 319 320 320 320 319
326 326 326 326 326 325 326 326 327 327 327 328 328 329 330 331 332 331 332 332 332 332 332 332 333 333 333 332 332 332 332 332 332 332 332 333 333 333 333 332 331 331 331 332 333 334 334 334 333 332 332 330 330 330 329 323 320 320 321 320 319 318 317
326 327 327 327 326 325 325 325 325 325 325 326 326 326 326 328 329 330 331 331 331 331 331 331 331 332 333 332 331 330 330 331 332 332 332 332 332 331 330 329 328 329 329 329 330 331 331 331 332 333 333 332 331 330 327 323 320 320 319 318 317 316 316
326 326 327 327 327 326 325 324 323 323 324 324 324 325 325 325 326 327 328 329 330 330 330 330 330 331 331 331 330 329 328 328 330 331 331 331 330 329 328 326 324 324 324 324 324 325 326 326 327 329 330 331 329 326 323 320 319 318 318 317 317 317 316
325 325 325 326 325 325 324 323 324 325 326 326 327 327 326 326 324 323 324 326 327 328 329 328 329 330 329 329 329 328 328 328 328 329 329 328 328 327 326 324 322 320 319 319 320 320 321 322 322 322 323 323 322 321 319 318 318 318 318 318 318 317 317